<?xml version='1.0' encoding='UTF-8'?><gpx version="1.1" creator="JPX - https://github.com/jenetics/jpx" xmlns="http://www.topografix.com/GPX/1/1"><trk><trkseg><trkpt lat="45.4815782" lon="7.9335752"><ele>285.0</ele><time>2026-05-02T14:47:44.179Z</time></trkpt><trkpt lat="45.4815651" lon="7.933448"><ele>285.0</ele><time>2026-05-02T14:47:46.186Z</time></trkpt><trkpt lat="45.4814906" lon="7.9333414"><ele>285.0</ele><time>2026-05-02T14:47:48.188Z</time></trkpt><trkpt lat="45.4813549" lon="7.9333091"><ele>285.0</ele><time>2026-05-02T14:47:50.196Z</time></trkpt><trkpt lat="45.4812744" lon="7.933303"><ele>285.0</ele><time>2026-05-02T14:47:51.186Z</time></trkpt><trkpt lat="45.4812014" lon="7.9332995"><ele>283.6666666666667</ele><time>2026-05-02T14:47:52.186Z</time></trkpt><trkpt lat="45.481125" lon="7.9332978"><ele>282.3333333333333</ele><time>2026-05-02T14:47:53.208Z</time></trkpt><trkpt lat="45.4810458" lon="7.9333059"><ele>281.0</ele><time>2026-05-02T14:47:54.198Z</time></trkpt><trkpt lat="45.4809648" lon="7.9333321"><ele>279.66666666666663</ele><time>2026-05-02T14:47:55.238Z</time></trkpt><trkpt lat="45.4808888" lon="7.933377"><ele>278.3333333333333</ele><time>2026-05-02T14:47:56.176Z</time></trkpt><trkpt lat="45.4808085" lon="7.9334352"><ele>277.0</ele><time>2026-05-02T14:47:57.189Z</time></trkpt><trkpt lat="45.4807364" lon="7.9334927"><ele>277.0</ele><time>2026-05-02T14:47:58.19Z</time></trkpt><trkpt lat="45.4806729" lon="7.9335444"><ele>277.0</ele><time>2026-05-02T14:47:59.201Z</time></trkpt><trkpt lat="45.4805822" lon="7.9336007"><ele>277.0</ele><time>2026-05-02T14:48:01.183Z</time></trkpt><trkpt lat="45.4804925" lon="7.9335593"><ele>277.0</ele><time>2026-05-02T14:48:06.2Z</time></trkpt><trkpt lat="45.4803836" lon="7.9335498"><ele>277.0</ele><time>2026-05-02T14:48:08.196Z</time></trkpt><trkpt lat="45.4803053" lon="7.9335864"><ele>274.8</ele><time>2026-05-02T14:48:09.202Z</time></trkpt><trkpt lat="45.4802207" lon="7.9336483"><ele>272.6</ele><time>2026-05-02T14:48:10.197Z</time></trkpt><trkpt lat="45.4801388" lon="7.9337153"><ele>270.40000000000003</ele><time>2026-05-02T14:48:11.189Z</time></trkpt><trkpt lat="45.4800657" lon="7.9337934"><ele>268.2</ele><time>2026-05-02T14:48:12.2Z</time></trkpt><trkpt lat="45.4799843" lon="7.9338731"><ele>266.0</ele><time>2026-05-02T14:48:13.196Z</time></trkpt><trkpt lat="45.4798899" lon="7.9339536"><ele>266.0</ele><time>2026-05-02T14:48:14.198Z</time></trkpt><trkpt lat="45.4797877" lon="7.9340435"><ele>266.0</ele><time>2026-05-02T14:48:15.198Z</time></trkpt><trkpt lat="45.4796792" lon="7.9341368"><ele>266.0</ele><time>2026-05-02T14:48:16.222Z</time></trkpt><trkpt lat="45.4795683" lon="7.9342366"><ele>266.0</ele><time>2026-05-02T14:48:17.196Z</time></trkpt><trkpt lat="45.4794594" lon="7.9343364"><ele>265.0</ele><time>2026-05-02T14:48:18.203Z</time></trkpt><trkpt lat="45.4793535" lon="7.9344297"><ele>264.0</ele><time>2026-05-02T14:48:19.2Z</time></trkpt><trkpt lat="45.4792516" lon="7.9345179"><ele>263.0</ele><time>2026-05-02T14:48:20.197Z</time></trkpt><trkpt lat="45.4791539" lon="7.9345961"><ele>262.0</ele><time>2026-05-02T14:48:21.199Z</time></trkpt><trkpt lat="45.4790568" lon="7.9346641"><ele>262.0</ele><time>2026-05-02T14:48:22.192Z</time></trkpt><trkpt lat="45.4789565" lon="7.9347167"><ele>262.0</ele><time>2026-05-02T14:48:23.2Z</time></trkpt><trkpt lat="45.4788507" lon="7.9347601"><ele>262.0</ele><time>2026-05-02T14:48:24.189Z</time></trkpt><trkpt lat="45.4787412" lon="7.9347955"><ele>262.0</ele><time>2026-05-02T14:48:25.224Z</time></trkpt><trkpt lat="45.4786317" lon="7.9348276"><ele>262.0</ele><time>2026-05-02T14:48:26.205Z</time></trkpt><trkpt lat="45.4785202" lon="7.9348388"><ele>260.8</ele><time>2026-05-02T14:48:27.201Z</time></trkpt><trkpt lat="45.4784098" lon="7.9348387"><ele>259.6</ele><time>2026-05-02T14:48:28.202Z</time></trkpt><trkpt lat="45.4783036" lon="7.9348271"><ele>258.40000000000003</ele><time>2026-05-02T14:48:29.232Z</time></trkpt><trkpt lat="45.4782019" lon="7.934806"><ele>257.2</ele><time>2026-05-02T14:48:30.204Z</time></trkpt><trkpt lat="45.4781023" lon="7.9347853"><ele>256.0</ele><time>2026-05-02T14:48:31.196Z</time></trkpt><trkpt lat="45.4780038" lon="7.9347587"><ele>254.8</ele><time>2026-05-02T14:48:32.197Z</time></trkpt><trkpt lat="45.4779072" lon="7.9347211"><ele>253.60000000000002</ele><time>2026-05-02T14:48:33.199Z</time></trkpt><trkpt lat="45.4778102" lon="7.9346817"><ele>252.4</ele><time>2026-05-02T14:48:34.194Z</time></trkpt><trkpt lat="45.4777228" lon="7.9346307"><ele>251.2</ele><time>2026-05-02T14:48:35.197Z</time></trkpt><trkpt lat="45.4776286" lon="7.9345707"><ele>250.0</ele><time>2026-05-02T14:48:36.198Z</time></trkpt><trkpt lat="45.4775242" lon="7.9344894"><ele>250.0</ele><time>2026-05-02T14:48:37.192Z</time></trkpt><trkpt lat="45.4774203" lon="7.9344114"><ele>250.0</ele><time>2026-05-02T14:48:38.203Z</time></trkpt><trkpt lat="45.4773158" lon="7.9343343"><ele>250.0</ele><time>2026-05-02T14:48:39.196Z</time></trkpt><trkpt lat="45.4772023" lon="7.9342601"><ele>250.0</ele><time>2026-05-02T14:48:40.194Z</time></trkpt><trkpt lat="45.4770861" lon="7.9341773"><ele>248.5</ele><time>2026-05-02T14:48:41.191Z</time></trkpt><trkpt lat="45.476965" lon="7.9340953"><ele>247.0</ele><time>2026-05-02T14:48:42.198Z</time></trkpt><trkpt lat="45.4768442" lon="7.9340158"><ele>245.5</ele><time>2026-05-02T14:48:43.2Z</time></trkpt><trkpt lat="45.4767264" lon="7.9339383"><ele>244.0</ele><time>2026-05-02T14:48:44.21Z</time></trkpt><trkpt lat="45.4766091" lon="7.9338606"><ele>244.0</ele><time>2026-05-02T14:48:45.193Z</time></trkpt><trkpt lat="45.4764888" lon="7.9337824"><ele>244.0</ele><time>2026-05-02T14:48:46.202Z</time></trkpt><trkpt lat="45.4763681" lon="7.9337103"><ele>244.0</ele><time>2026-05-02T14:48:47.197Z</time></trkpt><trkpt lat="45.4762455" lon="7.9336231"><ele>244.0</ele><time>2026-05-02T14:48:48.187Z</time></trkpt><trkpt lat="45.476116" lon="7.9335347"><ele>243.0</ele><time>2026-05-02T14:48:49.206Z</time></trkpt><trkpt lat="45.4759846" lon="7.9334444"><ele>242.0</ele><time>2026-05-02T14:48:50.19Z</time></trkpt><trkpt lat="45.4758369" lon="7.9333568"><ele>241.0</ele><time>2026-05-02T14:48:51.202Z</time></trkpt><trkpt lat="45.4756888" lon="7.9332659"><ele>240.33333333333331</ele><time>2026-05-02T14:48:52.19Z</time></trkpt><trkpt lat="45.4755443" lon="7.9331698"><ele>239.66666666666669</ele><time>2026-05-02T14:48:53.197Z</time></trkpt><trkpt lat="45.4753978" lon="7.9330675"><ele>239.0</ele><time>2026-05-02T14:48:54.193Z</time></trkpt><trkpt lat="45.4752479" lon="7.9329552"><ele>239.0</ele><time>2026-05-02T14:48:55.193Z</time></trkpt><trkpt lat="45.4751001" lon="7.932855"><ele>239.0</ele><time>2026-05-02T14:48:56.182Z</time></trkpt><trkpt lat="45.4749552" lon="7.9327491"><ele>239.0</ele><time>2026-05-02T14:48:57.186Z</time></trkpt><trkpt lat="45.4748096" lon="7.9326542"><ele>239.0</ele><time>2026-05-02T14:48:58.194Z</time></trkpt><trkpt lat="45.4746609" lon="7.9325588"><ele>239.0</ele><time>2026-05-02T14:48:59.257Z</time></trkpt><trkpt lat="45.4745148" lon="7.9324644"><ele>239.0</ele><time>2026-05-02T14:49:00.196Z</time></trkpt><trkpt lat="45.4743705" lon="7.9323723"><ele>239.0</ele><time>2026-05-02T14:49:01.194Z</time></trkpt><trkpt lat="45.4742247" lon="7.9322694"><ele>239.0</ele><time>2026-05-02T14:49:02.197Z</time></trkpt><trkpt lat="45.4740776" lon="7.9321683"><ele>239.0</ele><time>2026-05-02T14:49:03.202Z</time></trkpt><trkpt lat="45.4739305" lon="7.9320697"><ele>239.0</ele><time>2026-05-02T14:49:04.193Z</time></trkpt><trkpt lat="45.4737757" lon="7.931974"><ele>239.0</ele><time>2026-05-02T14:49:05.191Z</time></trkpt><trkpt lat="45.4736166" lon="7.931874"><ele>239.0</ele><time>2026-05-02T14:49:06.204Z</time></trkpt><trkpt lat="45.4734616" lon="7.9317717"><ele>239.33333333333334</ele><time>2026-05-02T14:49:07.204Z</time></trkpt><trkpt lat="45.4733155" lon="7.9316744"><ele>239.66666666666669</ele><time>2026-05-02T14:49:08.188Z</time></trkpt><trkpt lat="45.4731784" lon="7.9315835"><ele>240.0</ele><time>2026-05-02T14:49:09.206Z</time></trkpt><trkpt lat="45.4730531" lon="7.9314967"><ele>240.75</ele><time>2026-05-02T14:49:10.19Z</time></trkpt><trkpt lat="45.4729323" lon="7.9314196"><ele>241.5</ele><time>2026-05-02T14:49:11.195Z</time></trkpt><trkpt lat="45.4728149" lon="7.9313456"><ele>242.25</ele><time>2026-05-02T14:49:12.198Z</time></trkpt><trkpt lat="45.4727016" lon="7.9312691"><ele>243.0</ele><time>2026-05-02T14:49:13.202Z</time></trkpt><trkpt lat="45.4725905" lon="7.9311915"><ele>243.0</ele><time>2026-05-02T14:49:14.198Z</time></trkpt><trkpt lat="45.4724856" lon="7.9311119"><ele>243.0</ele><time>2026-05-02T14:49:15.24Z</time></trkpt><trkpt lat="45.4723956" lon="7.9310452"><ele>243.0</ele><time>2026-05-02T14:49:16.191Z</time></trkpt><trkpt lat="45.4723134" lon="7.9309766"><ele>243.0</ele><time>2026-05-02T14:49:17.188Z</time></trkpt><trkpt lat="45.4722498" lon="7.9309205"><ele>243.0</ele><time>2026-05-02T14:49:18.195Z</time></trkpt><trkpt lat="45.4721975" lon="7.9308618"><ele>242.60000000000002</ele><time>2026-05-02T14:49:19.185Z</time></trkpt><trkpt lat="45.4721254" lon="7.9307352"><ele>242.20000000000002</ele><time>2026-05-02T14:49:21.19Z</time></trkpt><trkpt lat="45.4720861" lon="7.9306617"><ele>241.8</ele><time>2026-05-02T14:49:22.201Z</time></trkpt><trkpt lat="45.4719986" lon="7.9306087"><ele>241.4</ele><time>2026-05-02T14:49:24.19Z</time></trkpt><trkpt lat="45.4719381" lon="7.9307496"><ele>241.0</ele><time>2026-05-02T14:49:26.187Z</time></trkpt><trkpt lat="45.4719295" lon="7.9308715"><ele>241.0</ele><time>2026-05-02T14:49:27.218Z</time></trkpt><trkpt lat="45.4719261" lon="7.9310244"><ele>241.0</ele><time>2026-05-02T14:49:28.205Z</time></trkpt><trkpt lat="45.4719125" lon="7.9312008"><ele>241.0</ele><time>2026-05-02T14:49:29.214Z</time></trkpt><trkpt lat="45.4718793" lon="7.9313856"><ele>241.0</ele><time>2026-05-02T14:49:30.187Z</time></trkpt><trkpt lat="45.4718322" lon="7.9315825"><ele>241.0</ele><time>2026-05-02T14:49:31.188Z</time></trkpt><trkpt lat="45.4717787" lon="7.9317755"><ele>241.0</ele><time>2026-05-02T14:49:32.191Z</time></trkpt><trkpt lat="45.4717274" lon="7.9319493"><ele>241.0</ele><time>2026-05-02T14:49:33.218Z</time></trkpt><trkpt lat="45.4716788" lon="7.9320988"><ele>241.0</ele><time>2026-05-02T14:49:34.203Z</time></trkpt><trkpt lat="45.471635" lon="7.9321997"><ele>240.99999999999997</ele><time>2026-05-02T14:49:35.188Z</time></trkpt><trkpt lat="45.4715632" lon="7.9322797"><ele>241.0</ele><time>2026-05-02T14:49:37.186Z</time></trkpt><trkpt lat="45.4714891" lon="7.9323065"><ele>241.0</ele><time>2026-05-02T14:49:39.191Z</time></trkpt><trkpt lat="45.47142" lon="7.9324018"><ele>241.0</ele><time>2026-05-02T14:49:41.189Z</time></trkpt><trkpt lat="45.4713816" lon="7.9324894"><ele>240.99999999999997</ele><time>2026-05-02T14:49:42.19Z</time></trkpt><trkpt lat="45.4713304" lon="7.9326191"><ele>241.0</ele><time>2026-05-02T14:49:43.19Z</time></trkpt><trkpt lat="45.4712795" lon="7.9327545"><ele>240.8</ele><time>2026-05-02T14:49:44.193Z</time></trkpt><trkpt lat="45.471237" lon="7.9328801"><ele>240.60000000000002</ele><time>2026-05-02T14:49:45.229Z</time></trkpt><trkpt lat="45.4711986" lon="7.9330056"><ele>240.4</ele><time>2026-05-02T14:49:46.202Z</time></trkpt><trkpt lat="45.4711603" lon="7.9331381"><ele>240.2</ele><time>2026-05-02T14:49:47.203Z</time></trkpt><trkpt lat="45.471121" lon="7.9332687"><ele>240.0</ele><time>2026-05-02T14:49:48.198Z</time></trkpt><trkpt lat="45.4710689" lon="7.9333971"><ele>240.0</ele><time>2026-05-02T14:49:49.183Z</time></trkpt><trkpt lat="45.4710161" lon="7.9335368"><ele>240.0</ele><time>2026-05-02T14:49:50.197Z</time></trkpt><trkpt lat="45.4709539" lon="7.9336938"><ele>240.0</ele><time>2026-05-02T14:49:51.192Z</time></trkpt><trkpt lat="45.4708913" lon="7.933867"><ele>240.0</ele><time>2026-05-02T14:49:52.196Z</time></trkpt><trkpt lat="45.4708312" lon="7.9340391"><ele>240.0</ele><time>2026-05-02T14:49:53.188Z</time></trkpt><trkpt lat="45.4707783" lon="7.9341959"><ele>240.0</ele><time>2026-05-02T14:49:54.21Z</time></trkpt><trkpt lat="45.4707319" lon="7.9343357"><ele>240.0</ele><time>2026-05-02T14:49:55.19Z</time></trkpt><trkpt lat="45.4706926" lon="7.9344593"><ele>240.0</ele><time>2026-05-02T14:49:56.225Z</time></trkpt><trkpt lat="45.4706719" lon="7.9345711"><ele>240.0</ele><time>2026-05-02T14:49:57.189Z</time></trkpt><trkpt lat="45.4706206" lon="7.9347021"><ele>240.0</ele><time>2026-05-02T14:49:59.201Z</time></trkpt><trkpt lat="45.4704943" lon="7.9346458"><ele>240.0</ele><time>2026-05-02T14:50:02.224Z</time></trkpt><trkpt lat="45.4704077" lon="7.9345853"><ele>240.0</ele><time>2026-05-02T14:50:03.203Z</time></trkpt><trkpt lat="45.4703155" lon="7.9345335"><ele>240.0</ele><time>2026-05-02T14:50:04.229Z</time></trkpt><trkpt lat="45.4702274" lon="7.934492"><ele>240.0</ele><time>2026-05-02T14:50:05.192Z</time></trkpt><trkpt lat="45.4701617" lon="7.9344635"><ele>240.0</ele><time>2026-05-02T14:50:06.193Z</time></trkpt><trkpt lat="45.4700969" lon="7.9344373"><ele>240.0</ele><time>2026-05-02T14:50:08.19Z</time></trkpt><trkpt lat="45.4700279" lon="7.9343847"><ele>240.0</ele><time>2026-05-02T14:50:11.188Z</time></trkpt><trkpt lat="45.4699755" lon="7.9343061"><ele>240.0</ele><time>2026-05-02T14:50:13.187Z</time></trkpt><trkpt lat="45.4699154" lon="7.934136"><ele>240.0</ele><time>2026-05-02T14:50:15.195Z</time></trkpt><trkpt lat="45.469876" lon="7.9339996"><ele>239.75</ele><time>2026-05-02T14:50:16.222Z</time></trkpt><trkpt lat="45.4698219" lon="7.9338439"><ele>239.5</ele><time>2026-05-02T14:50:17.205Z</time></trkpt><trkpt lat="45.4697412" lon="7.9336755"><ele>239.25</ele><time>2026-05-02T14:50:18.191Z</time></trkpt><trkpt lat="45.469658" lon="7.9335084"><ele>239.0</ele><time>2026-05-02T14:50:19.203Z</time></trkpt><trkpt lat="45.4695522" lon="7.9333528"><ele>238.66666666666669</ele><time>2026-05-02T14:50:20.186Z</time></trkpt><trkpt lat="45.4694372" lon="7.9331968"><ele>238.33333333333331</ele><time>2026-05-02T14:50:21.202Z</time></trkpt><trkpt lat="45.4693019" lon="7.9330466"><ele>238.0</ele><time>2026-05-02T14:50:22.195Z</time></trkpt><trkpt lat="45.4691684" lon="7.9329057"><ele>238.0</ele><time>2026-05-02T14:50:23.191Z</time></trkpt><trkpt lat="45.4690423" lon="7.9327807"><ele>238.0</ele><time>2026-05-02T14:50:24.192Z</time></trkpt><trkpt lat="45.4689268" lon="7.9326689"><ele>238.0</ele><time>2026-05-02T14:50:25.191Z</time></trkpt><trkpt lat="45.4688257" lon="7.9325643"><ele>238.0</ele><time>2026-05-02T14:50:26.204Z</time></trkpt><trkpt lat="45.4687354" lon="7.9324653"><ele>237.66666666666666</ele><time>2026-05-02T14:50:27.215Z</time></trkpt><trkpt lat="45.4686575" lon="7.9323716"><ele>237.33333333333331</ele><time>2026-05-02T14:50:28.232Z</time></trkpt><trkpt lat="45.4685899" lon="7.9322844"><ele>237.0</ele><time>2026-05-02T14:50:29.191Z</time></trkpt><trkpt lat="45.4685338" lon="7.9322078"><ele>236.66666666666669</ele><time>2026-05-02T14:50:30.191Z</time></trkpt><trkpt lat="45.4684477" lon="7.9321395"><ele>236.33333333333334</ele><time>2026-05-02T14:50:32.19Z</time></trkpt><trkpt lat="45.468376" lon="7.9321801"><ele>236.0</ele><time>2026-05-02T14:50:34.184Z</time></trkpt><trkpt lat="45.4682853" lon="7.9322822"><ele>236.00000000000003</ele><time>2026-05-02T14:50:36.191Z</time></trkpt><trkpt lat="45.4682227" lon="7.9323418"><ele>236.0</ele><time>2026-05-02T14:50:37.199Z</time></trkpt><trkpt lat="45.4681518" lon="7.9323991"><ele>236.0</ele><time>2026-05-02T14:50:38.196Z</time></trkpt><trkpt lat="45.4680764" lon="7.932461"><ele>236.0</ele><time>2026-05-02T14:50:39.186Z</time></trkpt><trkpt lat="45.4679983" lon="7.9325098"><ele>236.00000000000003</ele><time>2026-05-02T14:50:40.204Z</time></trkpt><trkpt lat="45.467927" lon="7.9325451"><ele>236.0</ele><time>2026-05-02T14:50:41.187Z</time></trkpt><trkpt lat="45.4678501" lon="7.9325715"><ele>235.75</ele><time>2026-05-02T14:50:42.186Z</time></trkpt><trkpt lat="45.4677568" lon="7.9325892"><ele>235.5</ele><time>2026-05-02T14:50:43.194Z</time></trkpt><trkpt lat="45.4676447" lon="7.9325992"><ele>235.25</ele><time>2026-05-02T14:50:44.19Z</time></trkpt><trkpt lat="45.4675162" lon="7.9326038"><ele>235.0</ele><time>2026-05-02T14:50:45.209Z</time></trkpt><trkpt lat="45.4673842" lon="7.9326072"><ele>235.0</ele><time>2026-05-02T14:50:46.226Z</time></trkpt><trkpt lat="45.4672583" lon="7.9326155"><ele>235.0</ele><time>2026-05-02T14:50:47.187Z</time></trkpt><trkpt lat="45.467142" lon="7.9326215"><ele>235.0</ele><time>2026-05-02T14:50:48.19Z</time></trkpt><trkpt lat="45.467039" lon="7.9326262"><ele>235.0</ele><time>2026-05-02T14:50:49.189Z</time></trkpt><trkpt lat="45.4669507" lon="7.9326289"><ele>235.0</ele><time>2026-05-02T14:50:50.19Z</time></trkpt><trkpt lat="45.4668768" lon="7.9326313"><ele>235.4</ele><time>2026-05-02T14:50:51.197Z</time></trkpt><trkpt lat="45.4668122" lon="7.9326364"><ele>235.8</ele><time>2026-05-02T14:50:52.194Z</time></trkpt><trkpt lat="45.4667141" lon="7.9326414"><ele>236.2</ele><time>2026-05-02T14:50:54.214Z</time></trkpt><trkpt lat="45.4666788" lon="7.9327352"><ele>236.6</ele><time>2026-05-02T14:50:58.189Z</time></trkpt><trkpt lat="45.4667264" lon="7.9328942"><ele>237.0</ele><time>2026-05-02T14:51:00.19Z</time></trkpt><trkpt lat="45.4667617" lon="7.9330147"><ele>237.0</ele><time>2026-05-02T14:51:01.195Z</time></trkpt><trkpt lat="45.4667976" lon="7.9331575"><ele>237.0</ele><time>2026-05-02T14:51:02.192Z</time></trkpt><trkpt lat="45.4668304" lon="7.9333037"><ele>237.0</ele><time>2026-05-02T14:51:03.194Z</time></trkpt><trkpt lat="45.4668649" lon="7.933439"><ele>237.0</ele><time>2026-05-02T14:51:04.202Z</time></trkpt><trkpt lat="45.4669022" lon="7.9335654"><ele>237.0</ele><time>2026-05-02T14:51:05.196Z</time></trkpt><trkpt lat="45.4669334" lon="7.9336942"><ele>237.0</ele><time>2026-05-02T14:51:06.226Z</time></trkpt><trkpt lat="45.4669618" lon="7.9338188"><ele>237.0</ele><time>2026-05-02T14:51:07.194Z</time></trkpt><trkpt lat="45.4669894" lon="7.9339418"><ele>237.0</ele><time>2026-05-02T14:51:08.204Z</time></trkpt><trkpt lat="45.467017" lon="7.9340673"><ele>237.0</ele><time>2026-05-02T14:51:09.195Z</time></trkpt><trkpt lat="45.4670429" lon="7.9341922"><ele>237.0</ele><time>2026-05-02T14:51:10.199Z</time></trkpt><trkpt lat="45.467072" lon="7.9343076"><ele>237.0</ele><time>2026-05-02T14:51:11.192Z</time></trkpt><trkpt lat="45.467098" lon="7.9344119"><ele>237.0</ele><time>2026-05-02T14:51:12.194Z</time></trkpt><trkpt lat="45.4671368" lon="7.9345968"><ele>237.0</ele><time>2026-05-02T14:51:14.217Z</time></trkpt><trkpt lat="45.4671674" lon="7.9347229"><ele>237.0</ele><time>2026-05-02T14:51:16.197Z</time></trkpt><trkpt lat="45.4671916" lon="7.9348443"><ele>237.0</ele><time>2026-05-02T14:51:19.207Z</time></trkpt><trkpt lat="45.4672092" lon="7.93494"><ele>237.0</ele><time>2026-05-02T14:51:21.197Z</time></trkpt><trkpt lat="45.4672404" lon="7.9350898"><ele>237.0</ele><time>2026-05-02T14:51:23.196Z</time></trkpt><trkpt lat="45.4672605" lon="7.9351884"><ele>237.0</ele><time>2026-05-02T14:51:24.195Z</time></trkpt><trkpt lat="45.4672825" lon="7.935299"><ele>237.0</ele><time>2026-05-02T14:51:25.192Z</time></trkpt><trkpt lat="45.4673018" lon="7.9354143"><ele>237.0</ele><time>2026-05-02T14:51:26.18Z</time></trkpt><trkpt lat="45.4673192" lon="7.9355338"><ele>237.0</ele><time>2026-05-02T14:51:27.186Z</time></trkpt><trkpt lat="45.4673343" lon="7.9356497"><ele>237.0</ele><time>2026-05-02T14:51:28.188Z</time></trkpt><trkpt lat="45.4673465" lon="7.9357594"><ele>237.0</ele><time>2026-05-02T14:51:29.211Z</time></trkpt><trkpt lat="45.4673581" lon="7.935863"><ele>237.0</ele><time>2026-05-02T14:51:30.199Z</time></trkpt><trkpt lat="45.4673676" lon="7.9359695"><ele>237.0</ele><time>2026-05-02T14:51:31.191Z</time></trkpt><trkpt lat="45.467381" lon="7.9360719"><ele>237.0</ele><time>2026-05-02T14:51:32.194Z</time></trkpt><trkpt lat="45.467395" lon="7.9361774"><ele>237.0</ele><time>2026-05-02T14:51:33.18Z</time></trkpt><trkpt lat="45.4674111" lon="7.9362836"><ele>237.0</ele><time>2026-05-02T14:51:34.182Z</time></trkpt><trkpt lat="45.4674296" lon="7.936392"><ele>237.0</ele><time>2026-05-02T14:51:35.184Z</time></trkpt><trkpt lat="45.4674478" lon="7.9364994"><ele>237.0</ele><time>2026-05-02T14:51:36.182Z</time></trkpt><trkpt lat="45.4674632" lon="7.9366128"><ele>237.0</ele><time>2026-05-02T14:51:37.18Z</time></trkpt><trkpt lat="45.4674782" lon="7.9367226"><ele>237.0</ele><time>2026-05-02T14:51:38.185Z</time></trkpt><trkpt lat="45.4674923" lon="7.9368335"><ele>237.0</ele><time>2026-05-02T14:51:39.187Z</time></trkpt><trkpt lat="45.467505" lon="7.9369475"><ele>237.0</ele><time>2026-05-02T14:51:40.185Z</time></trkpt><trkpt lat="45.467518" lon="7.9370585"><ele>237.0</ele><time>2026-05-02T14:51:41.23Z</time></trkpt><trkpt lat="45.4675313" lon="7.9371723"><ele>237.0</ele><time>2026-05-02T14:51:42.186Z</time></trkpt><trkpt lat="45.4675454" lon="7.9372895"><ele>237.0</ele><time>2026-05-02T14:51:43.2Z</time></trkpt><trkpt lat="45.4675593" lon="7.9374096"><ele>237.0</ele><time>2026-05-02T14:51:44.191Z</time></trkpt><trkpt lat="45.4675742" lon="7.937524"><ele>237.0</ele><time>2026-05-02T14:51:45.219Z</time></trkpt><trkpt lat="45.4675889" lon="7.9376409"><ele>237.0</ele><time>2026-05-02T14:51:46.181Z</time></trkpt><trkpt lat="45.4676026" lon="7.9377609"><ele>237.0</ele><time>2026-05-02T14:51:47.191Z</time></trkpt><trkpt lat="45.467615" lon="7.9378799"><ele>237.0</ele><time>2026-05-02T14:51:48.222Z</time></trkpt><trkpt lat="45.4676288" lon="7.9379899"><ele>237.0</ele><time>2026-05-02T14:51:49.187Z</time></trkpt><trkpt lat="45.4676433" lon="7.9380892"><ele>237.0</ele><time>2026-05-02T14:51:50.196Z</time></trkpt><trkpt lat="45.4676734" lon="7.9382332"><ele>237.0</ele><time>2026-05-02T14:51:52.229Z</time></trkpt><trkpt lat="45.4677177" lon="7.9383081"><ele>237.0</ele><time>2026-05-02T14:51:54.188Z</time></trkpt><trkpt lat="45.4677966" lon="7.9383202"><ele>237.0</ele><time>2026-05-02T14:51:56.191Z</time></trkpt><trkpt lat="45.4678984" lon="7.9382905"><ele>237.0</ele><time>2026-05-02T14:51:58.19Z</time></trkpt><trkpt lat="45.4679737" lon="7.9382573"><ele>237.0</ele><time>2026-05-02T14:51:59.192Z</time></trkpt><trkpt lat="45.4680428" lon="7.9382235"><ele>237.0</ele><time>2026-05-02T14:52:00.183Z</time></trkpt><trkpt lat="45.468141" lon="7.9381968"><ele>237.0</ele><time>2026-05-02T14:52:02.192Z</time></trkpt><trkpt lat="45.4682101" lon="7.9382631"><ele>237.25</ele><time>2026-05-02T14:52:04.183Z</time></trkpt><trkpt lat="45.4682611" lon="7.938429"><ele>237.5</ele><time>2026-05-02T14:52:06.185Z</time></trkpt><trkpt lat="45.4682701" lon="7.9385716"><ele>237.75</ele><time>2026-05-02T14:52:07.222Z</time></trkpt><trkpt lat="45.4682851" lon="7.9387329"><ele>238.0</ele><time>2026-05-02T14:52:08.196Z</time></trkpt><trkpt lat="45.4683002" lon="7.9388993"><ele>237.99999999999997</ele><time>2026-05-02T14:52:09.201Z</time></trkpt><trkpt lat="45.4683112" lon="7.9390492"><ele>238.0</ele><time>2026-05-02T14:52:10.186Z</time></trkpt><trkpt lat="45.4683221" lon="7.9391792"><ele>238.0</ele><time>2026-05-02T14:52:11.204Z</time></trkpt><trkpt lat="45.4683363" lon="7.9392927"><ele>238.0</ele><time>2026-05-02T14:52:12.195Z</time></trkpt><trkpt lat="45.468357" lon="7.9393926"><ele>237.99999999999997</ele><time>2026-05-02T14:52:13.206Z</time></trkpt><trkpt lat="45.4683788" lon="7.9394879"><ele>238.0</ele><time>2026-05-02T14:52:14.187Z</time></trkpt><trkpt lat="45.4684153" lon="7.9396302"><ele>238.2</ele><time>2026-05-02T14:52:16.189Z</time></trkpt><trkpt lat="45.4684193" lon="7.9397392"><ele>238.4</ele><time>2026-05-02T14:52:20.2Z</time></trkpt><trkpt lat="45.4683153" lon="7.9397522"><ele>238.59999999999997</ele><time>2026-05-02T14:52:23.193Z</time></trkpt><trkpt lat="45.4681795" lon="7.9397413"><ele>238.79999999999998</ele><time>2026-05-02T14:52:25.198Z</time></trkpt><trkpt lat="45.4680624" lon="7.9397241"><ele>239.0</ele><time>2026-05-02T14:52:26.195Z</time></trkpt><trkpt lat="45.4679235" lon="7.9397206"><ele>238.25</ele><time>2026-05-02T14:52:27.199Z</time></trkpt><trkpt lat="45.4677736" lon="7.9397101"><ele>237.5</ele><time>2026-05-02T14:52:28.212Z</time></trkpt><trkpt lat="45.4676254" lon="7.9397163"><ele>236.75</ele><time>2026-05-02T14:52:29.192Z</time></trkpt><trkpt lat="45.4674909" lon="7.9397405"><ele>236.0</ele><time>2026-05-02T14:52:30.199Z</time></trkpt><trkpt lat="45.4673588" lon="7.9397724"><ele>236.0</ele><time>2026-05-02T14:52:31.192Z</time></trkpt><trkpt lat="45.4672269" lon="7.9398258"><ele>236.0</ele><time>2026-05-02T14:52:32.198Z</time></trkpt><trkpt lat="45.4670868" lon="7.93988"><ele>236.0</ele><time>2026-05-02T14:52:33.189Z</time></trkpt><trkpt lat="45.4669489" lon="7.9399392"><ele>236.0</ele><time>2026-05-02T14:52:34.193Z</time></trkpt><trkpt lat="45.4668177" lon="7.940008"><ele>235.75</ele><time>2026-05-02T14:52:35.196Z</time></trkpt><trkpt lat="45.4666892" lon="7.9400867"><ele>235.5</ele><time>2026-05-02T14:52:36.239Z</time></trkpt><trkpt lat="45.4665647" lon="7.9401781"><ele>235.25</ele><time>2026-05-02T14:52:37.189Z</time></trkpt><trkpt lat="45.4664393" lon="7.9402668"><ele>235.0</ele><time>2026-05-02T14:52:38.198Z</time></trkpt><trkpt lat="45.4663222" lon="7.940356"><ele>234.75</ele><time>2026-05-02T14:52:39.19Z</time></trkpt><trkpt lat="45.4662112" lon="7.9404452"><ele>234.5</ele><time>2026-05-02T14:52:40.188Z</time></trkpt><trkpt lat="45.466102" lon="7.9405326"><ele>234.25</ele><time>2026-05-02T14:52:41.198Z</time></trkpt><trkpt lat="45.4659943" lon="7.940619"><ele>234.0</ele><time>2026-05-02T14:52:42.206Z</time></trkpt><trkpt lat="45.4658852" lon="7.9407032"><ele>234.0</ele><time>2026-05-02T14:52:43.203Z</time></trkpt><trkpt lat="45.4657738" lon="7.9407839"><ele>234.0</ele><time>2026-05-02T14:52:44.195Z</time></trkpt><trkpt lat="45.465656" lon="7.9408583"><ele>234.0</ele><time>2026-05-02T14:52:45.199Z</time></trkpt><trkpt lat="45.4655339" lon="7.9409254"><ele>234.0</ele><time>2026-05-02T14:52:46.195Z</time></trkpt><trkpt lat="45.4654127" lon="7.9409814"><ele>234.5</ele><time>2026-05-02T14:52:47.196Z</time></trkpt><trkpt lat="45.4652913" lon="7.9410301"><ele>235.0</ele><time>2026-05-02T14:52:48.184Z</time></trkpt><trkpt lat="45.4651688" lon="7.9410651"><ele>235.5</ele><time>2026-05-02T14:52:49.2Z</time></trkpt><trkpt lat="45.4650457" lon="7.9410927"><ele>236.0</ele><time>2026-05-02T14:52:50.196Z</time></trkpt><trkpt lat="45.4649196" lon="7.9411085"><ele>236.0</ele><time>2026-05-02T14:52:51.216Z</time></trkpt><trkpt lat="45.4647908" lon="7.9411178"><ele>236.0</ele><time>2026-05-02T14:52:52.193Z</time></trkpt><trkpt lat="45.4646635" lon="7.941117"><ele>236.0</ele><time>2026-05-02T14:52:53.206Z</time></trkpt><trkpt lat="45.4645362" lon="7.9411055"><ele>236.0</ele><time>2026-05-02T14:52:54.182Z</time></trkpt><trkpt lat="45.4644094" lon="7.9410798"><ele>236.0</ele><time>2026-05-02T14:52:55.198Z</time></trkpt><trkpt lat="45.4642863" lon="7.94104"><ele>236.0</ele><time>2026-05-02T14:52:56.196Z</time></trkpt><trkpt lat="45.464167" lon="7.9409857"><ele>236.0</ele><time>2026-05-02T14:52:57.198Z</time></trkpt><trkpt lat="45.4640546" lon="7.9409145"><ele>236.0</ele><time>2026-05-02T14:52:58.226Z</time></trkpt><trkpt lat="45.4639426" lon="7.9408361"><ele>236.0</ele><time>2026-05-02T14:52:59.194Z</time></trkpt><trkpt lat="45.4638344" lon="7.9407382"><ele>236.0</ele><time>2026-05-02T14:53:00.208Z</time></trkpt><trkpt lat="45.4637314" lon="7.9406371"><ele>236.0</ele><time>2026-05-02T14:53:01.198Z</time></trkpt><trkpt lat="45.4636375" lon="7.9405279"><ele>236.0</ele><time>2026-05-02T14:53:02.198Z</time></trkpt><trkpt lat="45.4635517" lon="7.940426"><ele>236.20000000000002</ele><time>2026-05-02T14:53:03.192Z</time></trkpt><trkpt lat="45.4634624" lon="7.9403252"><ele>236.40000000000003</ele><time>2026-05-02T14:53:04.198Z</time></trkpt><trkpt lat="45.4633816" lon="7.940222"><ele>236.6</ele><time>2026-05-02T14:53:05.197Z</time></trkpt><trkpt lat="45.463307" lon="7.9401152"><ele>236.8</ele><time>2026-05-02T14:53:06.193Z</time></trkpt><trkpt lat="45.4632409" lon="7.9399956"><ele>237.0</ele><time>2026-05-02T14:53:07.191Z</time></trkpt><trkpt lat="45.4631874" lon="7.9398645"><ele>236.6</ele><time>2026-05-02T14:53:08.197Z</time></trkpt><trkpt lat="45.4631452" lon="7.9397237"><ele>236.2</ele><time>2026-05-02T14:53:09.193Z</time></trkpt><trkpt lat="45.4631083" lon="7.9395688"><ele>235.8</ele><time>2026-05-02T14:53:10.219Z</time></trkpt><trkpt lat="45.4630642" lon="7.9394151"><ele>235.4</ele><time>2026-05-02T14:53:11.186Z</time></trkpt><trkpt lat="45.4630161" lon="7.9392735"><ele>235.0</ele><time>2026-05-02T14:53:12.19Z</time></trkpt><trkpt lat="45.4629666" lon="7.9391351"><ele>235.2</ele><time>2026-05-02T14:53:13.209Z</time></trkpt><trkpt lat="45.4629161" lon="7.9390048"><ele>235.4</ele><time>2026-05-02T14:53:14.195Z</time></trkpt><trkpt lat="45.4628674" lon="7.9388776"><ele>235.60000000000002</ele><time>2026-05-02T14:53:15.19Z</time></trkpt><trkpt lat="45.4628209" lon="7.9387507"><ele>235.8</ele><time>2026-05-02T14:53:16.192Z</time></trkpt><trkpt lat="45.4627815" lon="7.9386167"><ele>236.0</ele><time>2026-05-02T14:53:17.193Z</time></trkpt><trkpt lat="45.4627458" lon="7.9384787"><ele>235.75</ele><time>2026-05-02T14:53:18.193Z</time></trkpt><trkpt lat="45.4627138" lon="7.9383225"><ele>235.5</ele><time>2026-05-02T14:53:19.233Z</time></trkpt><trkpt lat="45.4626832" lon="7.9381602"><ele>235.25</ele><time>2026-05-02T14:53:20.2Z</time></trkpt><trkpt lat="45.4626568" lon="7.9379952"><ele>235.0</ele><time>2026-05-02T14:53:21.193Z</time></trkpt><trkpt lat="45.4626323" lon="7.9378357"><ele>234.99999999999997</ele><time>2026-05-02T14:53:22.196Z</time></trkpt><trkpt lat="45.462621" lon="7.9377148"><ele>235.0</ele><time>2026-05-02T14:53:23.196Z</time></trkpt><trkpt lat="45.4626037" lon="7.9375909"><ele>235.0</ele><time>2026-05-02T14:53:24.194Z</time></trkpt><trkpt lat="45.4625848" lon="7.9374831"><ele>235.0</ele><time>2026-05-02T14:53:25.188Z</time></trkpt><trkpt lat="45.4625619" lon="7.9373907"><ele>234.99999999999997</ele><time>2026-05-02T14:53:26.184Z</time></trkpt><trkpt lat="45.4625307" lon="7.9373087"><ele>235.0</ele><time>2026-05-02T14:53:27.183Z</time></trkpt><trkpt lat="45.4624308" lon="7.9371833"><ele>235.2</ele><time>2026-05-02T14:53:29.19Z</time></trkpt><trkpt lat="45.4623545" lon="7.9371328"><ele>235.4</ele><time>2026-05-02T14:53:30.197Z</time></trkpt><trkpt lat="45.4622463" lon="7.9370902"><ele>235.60000000000002</ele><time>2026-05-02T14:53:31.228Z</time></trkpt><trkpt lat="45.4621384" lon="7.9370481"><ele>235.8</ele><time>2026-05-02T14:53:32.188Z</time></trkpt><trkpt lat="45.4620337" lon="7.9369949"><ele>236.0</ele><time>2026-05-02T14:53:33.2Z</time></trkpt><trkpt lat="45.4619433" lon="7.936931"><ele>236.16666666666669</ele><time>2026-05-02T14:53:34.192Z</time></trkpt><trkpt lat="45.4618794" lon="7.9368628"><ele>236.33333333333334</ele><time>2026-05-02T14:53:35.194Z</time></trkpt><trkpt lat="45.461823" lon="7.936804"><ele>236.5</ele><time>2026-05-02T14:53:36.212Z</time></trkpt><trkpt lat="45.4617518" lon="7.9367584"><ele>236.66666666666669</ele><time>2026-05-02T14:53:37.213Z</time></trkpt><trkpt lat="45.4616698" lon="7.9367185"><ele>236.83333333333334</ele><time>2026-05-02T14:53:38.186Z</time></trkpt><trkpt lat="45.461584" lon="7.9366873"><ele>237.0</ele><time>2026-05-02T14:53:39.197Z</time></trkpt><trkpt lat="45.4615175" lon="7.936681"><ele>237.0</ele><time>2026-05-02T14:53:40.192Z</time></trkpt><trkpt lat="45.4614515" lon="7.9366938"><ele>237.0</ele><time>2026-05-02T14:53:41.205Z</time></trkpt><trkpt lat="45.4613879" lon="7.9367322"><ele>237.0</ele><time>2026-05-02T14:53:42.196Z</time></trkpt><trkpt lat="45.4613191" lon="7.9367883"><ele>237.0</ele><time>2026-05-02T14:53:43.203Z</time></trkpt><trkpt lat="45.4612404" lon="7.9368672"><ele>237.0</ele><time>2026-05-02T14:53:44.192Z</time></trkpt><trkpt lat="45.4611522" lon="7.9369648"><ele>237.0</ele><time>2026-05-02T14:53:45.191Z</time></trkpt><trkpt lat="45.4610566" lon="7.9370681"><ele>237.0</ele><time>2026-05-02T14:53:46.218Z</time></trkpt><trkpt lat="45.4609538" lon="7.9371615"><ele>237.0</ele><time>2026-05-02T14:53:47.214Z</time></trkpt><trkpt lat="45.460839" lon="7.9372515"><ele>237.0</ele><time>2026-05-02T14:53:48.251Z</time></trkpt><trkpt lat="45.4607153" lon="7.937343"><ele>237.0</ele><time>2026-05-02T14:53:49.192Z</time></trkpt><trkpt lat="45.4605928" lon="7.9374302"><ele>237.0</ele><time>2026-05-02T14:53:50.221Z</time></trkpt><trkpt lat="45.4604792" lon="7.9375129"><ele>237.0</ele><time>2026-05-02T14:53:51.2Z</time></trkpt><trkpt lat="45.4603729" lon="7.9375858"><ele>237.0</ele><time>2026-05-02T14:53:52.195Z</time></trkpt><trkpt lat="45.4602768" lon="7.9376534"><ele>237.0</ele><time>2026-05-02T14:53:53.193Z</time></trkpt><trkpt lat="45.4601956" lon="7.9377198"><ele>237.0</ele><time>2026-05-02T14:53:54.195Z</time></trkpt><trkpt lat="45.4601312" lon="7.9377858"><ele>237.0</ele><time>2026-05-02T14:53:55.199Z</time></trkpt><trkpt lat="45.4600877" lon="7.9378631"><ele>237.0</ele><time>2026-05-02T14:53:56.194Z</time></trkpt><trkpt lat="45.4600576" lon="7.9379676"><ele>237.0</ele><time>2026-05-02T14:53:57.194Z</time></trkpt><trkpt lat="45.4600307" lon="7.9380778"><ele>237.0</ele><time>2026-05-02T14:53:58.196Z</time></trkpt><trkpt lat="45.460001" lon="7.9382186"><ele>237.0</ele><time>2026-05-02T14:53:59.196Z</time></trkpt><trkpt lat="45.4599594" lon="7.9383765"><ele>237.0</ele><time>2026-05-02T14:54:00.224Z</time></trkpt><trkpt lat="45.4599252" lon="7.9385533"><ele>237.0</ele><time>2026-05-02T14:54:01.192Z</time></trkpt><trkpt lat="45.459883" lon="7.9387419"><ele>237.0</ele><time>2026-05-02T14:54:02.197Z</time></trkpt><trkpt lat="45.4598378" lon="7.9389293"><ele>237.0</ele><time>2026-05-02T14:54:03.193Z</time></trkpt><trkpt lat="45.4597924" lon="7.9391126"><ele>237.0</ele><time>2026-05-02T14:54:04.204Z</time></trkpt><trkpt lat="45.4597491" lon="7.9393006"><ele>237.0</ele><time>2026-05-02T14:54:05.188Z</time></trkpt><trkpt lat="45.4597132" lon="7.9395292"><ele>237.0</ele><time>2026-05-02T14:54:06.221Z</time></trkpt><trkpt lat="45.4596716" lon="7.9396939"><ele>237.0</ele><time>2026-05-02T14:54:07.196Z</time></trkpt><trkpt lat="45.4596287" lon="7.9398625"><ele>236.75</ele><time>2026-05-02T14:54:08.198Z</time></trkpt><trkpt lat="45.4595867" lon="7.9400616"><ele>236.5</ele><time>2026-05-02T14:54:09.203Z</time></trkpt><trkpt lat="45.4595456" lon="7.940251"><ele>236.25</ele><time>2026-05-02T14:54:10.196Z</time></trkpt><trkpt lat="45.4595022" lon="7.9404577"><ele>236.0</ele><time>2026-05-02T14:54:11.195Z</time></trkpt><trkpt lat="45.4594601" lon="7.9406491"><ele>236.0</ele><time>2026-05-02T14:54:12.204Z</time></trkpt><trkpt lat="45.4594139" lon="7.9408376"><ele>236.0</ele><time>2026-05-02T14:54:13.193Z</time></trkpt><trkpt lat="45.4593518" lon="7.9410138"><ele>236.0</ele><time>2026-05-02T14:54:14.196Z</time></trkpt><trkpt lat="45.4592884" lon="7.9411619"><ele>236.0</ele><time>2026-05-02T14:54:15.2Z</time></trkpt><trkpt lat="45.4592329" lon="7.9413114"><ele>236.25</ele><time>2026-05-02T14:54:16.197Z</time></trkpt><trkpt lat="45.45918" lon="7.9414991"><ele>236.5</ele><time>2026-05-02T14:54:17.197Z</time></trkpt><trkpt lat="45.4591222" lon="7.9416903"><ele>236.75</ele><time>2026-05-02T14:54:18.196Z</time></trkpt><trkpt lat="45.4590967" lon="7.941866"><ele>237.0</ele><time>2026-05-02T14:54:19.227Z</time></trkpt><trkpt lat="45.4590632" lon="7.9420317"><ele>236.5</ele><time>2026-05-02T14:54:20.203Z</time></trkpt><trkpt lat="45.4590316" lon="7.9422019"><ele>236.0</ele><time>2026-05-02T14:54:21.196Z</time></trkpt><trkpt lat="45.459017" lon="7.9423841"><ele>235.5</ele><time>2026-05-02T14:54:22.188Z</time></trkpt><trkpt lat="45.4590099" lon="7.9425565"><ele>235.0</ele><time>2026-05-02T14:54:23.192Z</time></trkpt><trkpt lat="45.459008" lon="7.9426988"><ele>234.75</ele><time>2026-05-02T14:54:24.202Z</time></trkpt><trkpt lat="45.4590168" lon="7.9429024"><ele>234.5</ele><time>2026-05-02T14:54:25.199Z</time></trkpt><trkpt lat="45.4590156" lon="7.9430864"><ele>234.25</ele><time>2026-05-02T14:54:26.195Z</time></trkpt><trkpt lat="45.4590156" lon="7.9432613"><ele>234.0</ele><time>2026-05-02T14:54:27.195Z</time></trkpt><trkpt lat="45.4590141" lon="7.9434412"><ele>234.39999999999998</ele><time>2026-05-02T14:54:28.191Z</time></trkpt><trkpt lat="45.4590182" lon="7.9435866"><ele>234.79999999999998</ele><time>2026-05-02T14:54:29.199Z</time></trkpt><trkpt lat="45.4590244" lon="7.9437046"><ele>235.20000000000002</ele><time>2026-05-02T14:54:30.197Z</time></trkpt><trkpt lat="45.4590046" lon="7.9438548"><ele>235.60000000000002</ele><time>2026-05-02T14:54:31.189Z</time></trkpt><trkpt lat="45.4589756" lon="7.9439512"><ele>236.0</ele><time>2026-05-02T14:54:32.195Z</time></trkpt><trkpt lat="45.4589033" lon="7.9440848"><ele>236.00000000000003</ele><time>2026-05-02T14:54:34.191Z</time></trkpt><trkpt lat="45.4588609" lon="7.9441545"><ele>236.0</ele><time>2026-05-02T14:54:35.196Z</time></trkpt><trkpt lat="45.4588033" lon="7.9442361"><ele>236.0</ele><time>2026-05-02T14:54:36.199Z</time></trkpt><trkpt lat="45.4587461" lon="7.9443213"><ele>236.0</ele><time>2026-05-02T14:54:37.182Z</time></trkpt><trkpt lat="45.4586914" lon="7.9443958"><ele>236.00000000000003</ele><time>2026-05-02T14:54:38.187Z</time></trkpt><trkpt lat="45.4586151" lon="7.944526"><ele>236.0</ele><time>2026-05-02T14:54:39.187Z</time></trkpt><trkpt lat="45.4585474" lon="7.944628"><ele>236.0</ele><time>2026-05-02T14:54:40.187Z</time></trkpt><trkpt lat="45.458593" lon="7.9447277"><ele>236.0</ele><time>2026-05-02T14:54:43.193Z</time></trkpt><trkpt lat="45.4586828" lon="7.9449382"><ele>236.0</ele><time>2026-05-02T14:54:45.204Z</time></trkpt><trkpt lat="45.4587301" lon="7.9450716"><ele>236.0</ele><time>2026-05-02T14:54:46.191Z</time></trkpt><trkpt lat="45.4587642" lon="7.9451944"><ele>236.16666666666669</ele><time>2026-05-02T14:54:47.183Z</time></trkpt><trkpt lat="45.4587883" lon="7.9452942"><ele>236.33333333333334</ele><time>2026-05-02T14:54:48.193Z</time></trkpt><trkpt lat="45.4587343" lon="7.9453756"><ele>236.5</ele><time>2026-05-02T14:54:51.194Z</time></trkpt><trkpt lat="45.4586708" lon="7.9453606"><ele>236.66666666666669</ele><time>2026-05-02T14:54:53.209Z</time></trkpt><trkpt lat="45.4585972" lon="7.945344"><ele>236.83333333333334</ele><time>2026-05-02T14:54:54.182Z</time></trkpt><trkpt lat="45.4585092" lon="7.9453412"><ele>237.0</ele><time>2026-05-02T14:54:55.19Z</time></trkpt><trkpt lat="45.4583817" lon="7.9453461"><ele>237.0</ele><time>2026-05-02T14:54:56.195Z</time></trkpt><trkpt lat="45.4582418" lon="7.9453453"><ele>237.0</ele><time>2026-05-02T14:54:57.198Z</time></trkpt><trkpt lat="45.4580841" lon="7.9453591"><ele>237.0</ele><time>2026-05-02T14:54:58.19Z</time></trkpt><trkpt lat="45.4579167" lon="7.9453713"><ele>236.66666666666669</ele><time>2026-05-02T14:54:59.201Z</time></trkpt><trkpt lat="45.4577646" lon="7.9453741"><ele>236.33333333333334</ele><time>2026-05-02T14:55:00.199Z</time></trkpt><trkpt lat="45.4576073" lon="7.9453752"><ele>236.0</ele><time>2026-05-02T14:55:01.199Z</time></trkpt><trkpt lat="45.457453" lon="7.9453747"><ele>236.0</ele><time>2026-05-02T14:55:02.196Z</time></trkpt><trkpt lat="45.4572437" lon="7.9453924"><ele>236.0</ele><time>2026-05-02T14:55:03.199Z</time></trkpt><trkpt lat="45.4570293" lon="7.945399"><ele>236.0</ele><time>2026-05-02T14:55:04.2Z</time></trkpt><trkpt lat="45.4567942" lon="7.9454089"><ele>236.33333333333334</ele><time>2026-05-02T14:55:05.188Z</time></trkpt><trkpt lat="45.4565896" lon="7.9454138"><ele>236.66666666666669</ele><time>2026-05-02T14:55:06.193Z</time></trkpt><trkpt lat="45.4563803" lon="7.945429"><ele>237.0</ele><time>2026-05-02T14:55:07.196Z</time></trkpt><trkpt lat="45.4561725" lon="7.9454392"><ele>237.0</ele><time>2026-05-02T14:55:08.206Z</time></trkpt><trkpt lat="45.4559606" lon="7.945456"><ele>237.0</ele><time>2026-05-02T14:55:09.194Z</time></trkpt><trkpt lat="45.455742" lon="7.9454764"><ele>237.0</ele><time>2026-05-02T14:55:10.189Z</time></trkpt><trkpt lat="45.4555368" lon="7.9454932"><ele>236.66666666666669</ele><time>2026-05-02T14:55:11.201Z</time></trkpt><trkpt lat="45.4553401" lon="7.9455108"><ele>236.33333333333334</ele><time>2026-05-02T14:55:12.2Z</time></trkpt><trkpt lat="45.455151" lon="7.9455042"><ele>236.0</ele><time>2026-05-02T14:55:13.197Z</time></trkpt><trkpt lat="45.4549849" lon="7.9454881"><ele>236.0</ele><time>2026-05-02T14:55:14.192Z</time></trkpt><trkpt lat="45.4548012" lon="7.9454422"><ele>236.0</ele><time>2026-05-02T14:55:15.18Z</time></trkpt><trkpt lat="45.4546462" lon="7.94536"><ele>236.0</ele><time>2026-05-02T14:55:16.185Z</time></trkpt><trkpt lat="45.4544768" lon="7.9452508"><ele>236.33333333333334</ele><time>2026-05-02T14:55:17.181Z</time></trkpt><trkpt lat="45.4543104" lon="7.9451088"><ele>236.66666666666669</ele><time>2026-05-02T14:55:18.188Z</time></trkpt><trkpt lat="45.4541601" lon="7.9449354"><ele>237.0</ele><time>2026-05-02T14:55:19.192Z</time></trkpt><trkpt lat="45.4539955" lon="7.9447421"><ele>237.0</ele><time>2026-05-02T14:55:20.19Z</time></trkpt><trkpt lat="45.4538253" lon="7.9445425"><ele>237.0</ele><time>2026-05-02T14:55:21.195Z</time></trkpt><trkpt lat="45.4536696" lon="7.9443501"><ele>237.0</ele><time>2026-05-02T14:55:22.191Z</time></trkpt><trkpt lat="45.4535062" lon="7.9441524"><ele>236.66666666666669</ele><time>2026-05-02T14:55:23.2Z</time></trkpt><trkpt lat="45.45336" lon="7.9439748"><ele>236.33333333333334</ele><time>2026-05-02T14:55:24.192Z</time></trkpt><trkpt lat="45.453214" lon="7.943791"><ele>236.0</ele><time>2026-05-02T14:55:25.189Z</time></trkpt><trkpt lat="45.4530685" lon="7.9436024"><ele>235.66666666666669</ele><time>2026-05-02T14:55:26.192Z</time></trkpt><trkpt lat="45.4529228" lon="7.9434144"><ele>235.33333333333331</ele><time>2026-05-02T14:55:27.191Z</time></trkpt><trkpt lat="45.4527725" lon="7.9432263"><ele>235.0</ele><time>2026-05-02T14:55:28.193Z</time></trkpt><trkpt lat="45.452613" lon="7.9430328"><ele>235.0</ele><time>2026-05-02T14:55:29.194Z</time></trkpt><trkpt lat="45.452464" lon="7.94285"><ele>235.0</ele><time>2026-05-02T14:55:30.191Z</time></trkpt><trkpt lat="45.4523121" lon="7.9426588"><ele>235.0</ele><time>2026-05-02T14:55:31.189Z</time></trkpt><trkpt lat="45.4521541" lon="7.9424586"><ele>234.66666666666666</ele><time>2026-05-02T14:55:32.186Z</time></trkpt><trkpt lat="45.4519941" lon="7.9422559"><ele>234.33333333333331</ele><time>2026-05-02T14:55:33.199Z</time></trkpt><trkpt lat="45.451841" lon="7.9420582"><ele>234.0</ele><time>2026-05-02T14:55:34.204Z</time></trkpt><trkpt lat="45.4516854" lon="7.9418593"><ele>234.0</ele><time>2026-05-02T14:55:35.193Z</time></trkpt><trkpt lat="45.4515166" lon="7.9416548"><ele>234.0</ele><time>2026-05-02T14:55:36.192Z</time></trkpt><trkpt lat="45.4513674" lon="7.9414707"><ele>234.0</ele><time>2026-05-02T14:55:37.184Z</time></trkpt><trkpt lat="45.4512265" lon="7.9412969"><ele>234.0</ele><time>2026-05-02T14:55:38.206Z</time></trkpt><trkpt lat="45.4510881" lon="7.941124"><ele>234.0</ele><time>2026-05-02T14:55:39.187Z</time></trkpt><trkpt lat="45.4509541" lon="7.9409614"><ele>234.0</ele><time>2026-05-02T14:55:40.196Z</time></trkpt><trkpt lat="45.4508221" lon="7.9408025"><ele>233.66666666666669</ele><time>2026-05-02T14:55:41.194Z</time></trkpt><trkpt lat="45.4506872" lon="7.9406346"><ele>233.33333333333334</ele><time>2026-05-02T14:55:42.188Z</time></trkpt><trkpt lat="45.4505542" lon="7.9404664"><ele>233.0</ele><time>2026-05-02T14:55:43.192Z</time></trkpt><trkpt lat="45.4504245" lon="7.9403069"><ele>233.66666666666669</ele><time>2026-05-02T14:55:44.202Z</time></trkpt><trkpt lat="45.4502952" lon="7.9401506"><ele>234.33333333333331</ele><time>2026-05-02T14:55:45.223Z</time></trkpt><trkpt lat="45.4501675" lon="7.9399945"><ele>235.0</ele><time>2026-05-02T14:55:46.199Z</time></trkpt><trkpt lat="45.4500409" lon="7.9398378"><ele>235.0</ele><time>2026-05-02T14:55:47.193Z</time></trkpt><trkpt lat="45.4499099" lon="7.9396765"><ele>235.0</ele><time>2026-05-02T14:55:48.194Z</time></trkpt><trkpt lat="45.4497787" lon="7.9395166"><ele>235.0</ele><time>2026-05-02T14:55:49.209Z</time></trkpt><trkpt lat="45.4496495" lon="7.9393545"><ele>235.0</ele><time>2026-05-02T14:55:50.19Z</time></trkpt><trkpt lat="45.4495252" lon="7.9391936"><ele>235.0</ele><time>2026-05-02T14:55:51.217Z</time></trkpt><trkpt lat="45.449402" lon="7.9390353"><ele>235.0</ele><time>2026-05-02T14:55:52.192Z</time></trkpt><trkpt lat="45.4492768" lon="7.9388898"><ele>235.0</ele><time>2026-05-02T14:55:53.189Z</time></trkpt><trkpt lat="45.4491482" lon="7.9387583"><ele>235.0</ele><time>2026-05-02T14:55:54.197Z</time></trkpt><trkpt lat="45.4490124" lon="7.9386375"><ele>235.0</ele><time>2026-05-02T14:55:55.198Z</time></trkpt><trkpt lat="45.4488757" lon="7.9385377"><ele>235.33333333333331</ele><time>2026-05-02T14:55:56.193Z</time></trkpt><trkpt lat="45.4487354" lon="7.9384543"><ele>235.66666666666669</ele><time>2026-05-02T14:55:57.196Z</time></trkpt><trkpt lat="45.4485894" lon="7.9383851"><ele>236.0</ele><time>2026-05-02T14:55:58.202Z</time></trkpt><trkpt lat="45.4484395" lon="7.9383324"><ele>236.0</ele><time>2026-05-02T14:55:59.193Z</time></trkpt><trkpt lat="45.4482831" lon="7.9382985"><ele>236.0</ele><time>2026-05-02T14:56:00.186Z</time></trkpt><trkpt lat="45.4481207" lon="7.9382848"><ele>236.0</ele><time>2026-05-02T14:56:01.196Z</time></trkpt><trkpt lat="45.4479534" lon="7.9382922"><ele>236.0</ele><time>2026-05-02T14:56:02.197Z</time></trkpt><trkpt lat="45.4477893" lon="7.9383214"><ele>236.0</ele><time>2026-05-02T14:56:03.193Z</time></trkpt><trkpt lat="45.4476194" lon="7.938368"><ele>236.0</ele><time>2026-05-02T14:56:04.185Z</time></trkpt><trkpt lat="45.447466" lon="7.9384424"><ele>235.33333333333334</ele><time>2026-05-02T14:56:05.192Z</time></trkpt><trkpt lat="45.4473124" lon="7.9385401"><ele>234.66666666666669</ele><time>2026-05-02T14:56:06.22Z</time></trkpt><trkpt lat="45.4471601" lon="7.9386555"><ele>234.0</ele><time>2026-05-02T14:56:07.196Z</time></trkpt><trkpt lat="45.4469988" lon="7.9387905"><ele>234.0</ele><time>2026-05-02T14:56:08.221Z</time></trkpt><trkpt lat="45.4468147" lon="7.9389294"><ele>234.0</ele><time>2026-05-02T14:56:09.215Z</time></trkpt><trkpt lat="45.4466006" lon="7.9390749"><ele>234.0</ele><time>2026-05-02T14:56:10.196Z</time></trkpt><trkpt lat="45.4463784" lon="7.9392204"><ele>234.5</ele><time>2026-05-02T14:56:11.197Z</time></trkpt><trkpt lat="45.4461513" lon="7.9393669"><ele>235.0</ele><time>2026-05-02T14:56:12.198Z</time></trkpt><trkpt lat="45.4459243" lon="7.9395186"><ele>235.0</ele><time>2026-05-02T14:56:13.255Z</time></trkpt><trkpt lat="45.4457062" lon="7.9396737"><ele>235.0</ele><time>2026-05-02T14:56:14.194Z</time></trkpt><trkpt lat="45.4454771" lon="7.9398295"><ele>235.0</ele><time>2026-05-02T14:56:15.195Z</time></trkpt><trkpt lat="45.4452636" lon="7.9399774"><ele>235.0</ele><time>2026-05-02T14:56:16.196Z</time></trkpt><trkpt lat="45.4450582" lon="7.9401297"><ele>235.0</ele><time>2026-05-02T14:56:17.196Z</time></trkpt><trkpt lat="45.4448566" lon="7.9402847"><ele>235.0</ele><time>2026-05-02T14:56:18.193Z</time></trkpt><trkpt lat="45.4446365" lon="7.9404482"><ele>234.5</ele><time>2026-05-02T14:56:19.203Z</time></trkpt><trkpt lat="45.4444229" lon="7.9406033"><ele>234.0</ele><time>2026-05-02T14:56:20.198Z</time></trkpt><trkpt lat="45.4442046" lon="7.9407655"><ele>234.0</ele><time>2026-05-02T14:56:21.209Z</time></trkpt><trkpt lat="45.4439805" lon="7.9409249"><ele>234.0</ele><time>2026-05-02T14:56:22.199Z</time></trkpt><trkpt lat="45.4437574" lon="7.9410824"><ele>233.5</ele><time>2026-05-02T14:56:23.207Z</time></trkpt><trkpt lat="45.4435352" lon="7.9412458"><ele>233.0</ele><time>2026-05-02T14:56:24.218Z</time></trkpt><trkpt lat="45.4433163" lon="7.9414054"><ele>233.0</ele><time>2026-05-02T14:56:25.193Z</time></trkpt><trkpt lat="45.4430908" lon="7.9415723"><ele>233.0</ele><time>2026-05-02T14:56:26.196Z</time></trkpt><trkpt lat="45.4428693" lon="7.9417354"><ele>235.0</ele><time>2026-05-02T14:56:27.189Z</time></trkpt><trkpt lat="45.4426613" lon="7.9418935"><ele>237.0</ele><time>2026-05-02T14:56:28.188Z</time></trkpt><trkpt lat="45.4424511" lon="7.9420506"><ele>237.0</ele><time>2026-05-02T14:56:29.211Z</time></trkpt><trkpt lat="45.4422543" lon="7.942194"><ele>237.0</ele><time>2026-05-02T14:56:30.189Z</time></trkpt><trkpt lat="45.4420628" lon="7.9423363"><ele>237.0</ele><time>2026-05-02T14:56:31.195Z</time></trkpt><trkpt lat="45.4418782" lon="7.9424734"><ele>236.66666666666669</ele><time>2026-05-02T14:56:32.225Z</time></trkpt><trkpt lat="45.4416877" lon="7.9426124"><ele>236.33333333333334</ele><time>2026-05-02T14:56:33.227Z</time></trkpt><trkpt lat="45.4415055" lon="7.9427507"><ele>236.0</ele><time>2026-05-02T14:56:34.221Z</time></trkpt><trkpt lat="45.4413176" lon="7.942891"><ele>235.33333333333334</ele><time>2026-05-02T14:56:35.197Z</time></trkpt><trkpt lat="45.4411352" lon="7.9430267"><ele>234.66666666666669</ele><time>2026-05-02T14:56:36.202Z</time></trkpt><trkpt lat="45.440956" lon="7.9431609"><ele>234.0</ele><time>2026-05-02T14:56:37.216Z</time></trkpt><trkpt lat="45.4407831" lon="7.9432866"><ele>234.0</ele><time>2026-05-02T14:56:38.195Z</time></trkpt><trkpt lat="45.4406057" lon="7.9434148"><ele>234.0</ele><time>2026-05-02T14:56:39.195Z</time></trkpt><trkpt lat="45.4404317" lon="7.9435338"><ele>234.0</ele><time>2026-05-02T14:56:40.189Z</time></trkpt><trkpt lat="45.4402599" lon="7.943652"><ele>234.66666666666669</ele><time>2026-05-02T14:56:41.198Z</time></trkpt><trkpt lat="45.4400983" lon="7.9437587"><ele>235.33333333333334</ele><time>2026-05-02T14:56:42.204Z</time></trkpt><trkpt lat="45.4399351" lon="7.9438561"><ele>236.0</ele><time>2026-05-02T14:56:43.217Z</time></trkpt><trkpt lat="45.4397724" lon="7.9439408"><ele>237.0</ele><time>2026-05-02T14:56:44.191Z</time></trkpt><trkpt lat="45.4396129" lon="7.9440171"><ele>238.0</ele><time>2026-05-02T14:56:45.204Z</time></trkpt><trkpt lat="45.4394566" lon="7.944084"><ele>239.0</ele><time>2026-05-02T14:56:46.196Z</time></trkpt><trkpt lat="45.4393044" lon="7.9441475"><ele>239.0</ele><time>2026-05-02T14:56:47.204Z</time></trkpt><trkpt lat="45.4391597" lon="7.9442053"><ele>239.0</ele><time>2026-05-02T14:56:48.187Z</time></trkpt><trkpt lat="45.4390411" lon="7.9442531"><ele>239.0</ele><time>2026-05-02T14:56:49.202Z</time></trkpt><trkpt lat="45.4389247" lon="7.9443003"><ele>239.0</ele><time>2026-05-02T14:56:50.193Z</time></trkpt><trkpt lat="45.438818" lon="7.9443456"><ele>239.2</ele><time>2026-05-02T14:56:51.187Z</time></trkpt><trkpt lat="45.4387215" lon="7.9443846"><ele>239.39999999999998</ele><time>2026-05-02T14:56:52.197Z</time></trkpt><trkpt lat="45.4386236" lon="7.9444227"><ele>239.6</ele><time>2026-05-02T14:56:53.196Z</time></trkpt><trkpt lat="45.4385184" lon="7.9444644"><ele>239.8</ele><time>2026-05-02T14:56:54.196Z</time></trkpt><trkpt lat="45.4384122" lon="7.9445057"><ele>240.0</ele><time>2026-05-02T14:56:55.194Z</time></trkpt><trkpt lat="45.4382925" lon="7.9445515"><ele>240.0</ele><time>2026-05-02T14:56:56.192Z</time></trkpt><trkpt lat="45.438172" lon="7.9446008"><ele>240.0</ele><time>2026-05-02T14:56:57.189Z</time></trkpt><trkpt lat="45.4380413" lon="7.9446537"><ele>240.0</ele><time>2026-05-02T14:56:58.198Z</time></trkpt><trkpt lat="45.4379094" lon="7.9447081"><ele>240.0</ele><time>2026-05-02T14:56:59.196Z</time></trkpt><trkpt lat="45.4377758" lon="7.9447635"><ele>239.0</ele><time>2026-05-02T14:57:00.19Z</time></trkpt><trkpt lat="45.4376312" lon="7.9448226"><ele>238.0</ele><time>2026-05-02T14:57:01.196Z</time></trkpt><trkpt lat="45.4374818" lon="7.9448819"><ele>237.0</ele><time>2026-05-02T14:57:02.198Z</time></trkpt><trkpt lat="45.4373316" lon="7.9449439"><ele>237.0</ele><time>2026-05-02T14:57:03.196Z</time></trkpt><trkpt lat="45.437185" lon="7.9450126"><ele>237.0</ele><time>2026-05-02T14:57:04.19Z</time></trkpt><trkpt lat="45.4370406" lon="7.9450905"><ele>237.0</ele><time>2026-05-02T14:57:05.189Z</time></trkpt><trkpt lat="45.4368959" lon="7.9451835"><ele>236.66666666666669</ele><time>2026-05-02T14:57:06.193Z</time></trkpt><trkpt lat="45.4367482" lon="7.9452853"><ele>236.33333333333334</ele><time>2026-05-02T14:57:07.198Z</time></trkpt><trkpt lat="45.4366033" lon="7.9453909"><ele>236.0</ele><time>2026-05-02T14:57:08.203Z</time></trkpt><trkpt lat="45.4364643" lon="7.9454988"><ele>236.0</ele><time>2026-05-02T14:57:09.196Z</time></trkpt><trkpt lat="45.4363372" lon="7.9456023"><ele>236.0</ele><time>2026-05-02T14:57:10.193Z</time></trkpt><trkpt lat="45.436213" lon="7.9456924"><ele>236.0</ele><time>2026-05-02T14:57:11.19Z</time></trkpt><trkpt lat="45.4360874" lon="7.9457777"><ele>236.0</ele><time>2026-05-02T14:57:12.197Z</time></trkpt><trkpt lat="45.435961" lon="7.9458653"><ele>235.75</ele><time>2026-05-02T14:57:13.204Z</time></trkpt><trkpt lat="45.435842" lon="7.9459486"><ele>235.5</ele><time>2026-05-02T14:57:14.197Z</time></trkpt><trkpt lat="45.4357169" lon="7.9460308"><ele>235.25</ele><time>2026-05-02T14:57:15.23Z</time></trkpt><trkpt lat="45.4356192" lon="7.9460933"><ele>235.0</ele><time>2026-05-02T14:57:16.192Z</time></trkpt><trkpt lat="45.4355308" lon="7.9461458"><ele>234.8</ele><time>2026-05-02T14:57:17.193Z</time></trkpt><trkpt lat="45.4354467" lon="7.9461869"><ele>234.6</ele><time>2026-05-02T14:57:18.196Z</time></trkpt><trkpt lat="45.4353464" lon="7.946234"><ele>234.39999999999998</ele><time>2026-05-02T14:57:19.195Z</time></trkpt><trkpt lat="45.4352578" lon="7.9462766"><ele>234.2</ele><time>2026-05-02T14:57:20.233Z</time></trkpt><trkpt lat="45.4351949" lon="7.9463068"><ele>234.0</ele><time>2026-05-02T14:57:21.205Z</time></trkpt><trkpt lat="45.4350979" lon="7.946348"><ele>234.0</ele><time>2026-05-02T14:57:23.196Z</time></trkpt><trkpt lat="45.4350294" lon="7.9463839"><ele>233.99999999999997</ele><time>2026-05-02T14:57:25.2Z</time></trkpt><trkpt lat="45.4349656" lon="7.9464094"><ele>233.99999999999997</ele><time>2026-05-02T14:57:27.207Z</time></trkpt><trkpt lat="45.4348973" lon="7.9464248"><ele>234.0</ele><time>2026-05-02T14:57:31.21Z</time></trkpt><trkpt lat="45.4347858" lon="7.9464649"><ele>234.0</ele><time>2026-05-02T14:57:43.201Z</time></trkpt><trkpt lat="45.4346551" lon="7.9465098"><ele>233.79999999999998</ele><time>2026-05-02T14:57:45.198Z</time></trkpt><trkpt lat="45.4345771" lon="7.9465374"><ele>233.59999999999997</ele><time>2026-05-02T14:57:46.192Z</time></trkpt><trkpt lat="45.4344876" lon="7.9465739"><ele>233.4</ele><time>2026-05-02T14:57:47.203Z</time></trkpt><trkpt lat="45.4344083" lon="7.9466094"><ele>233.2</ele><time>2026-05-02T14:57:48.191Z</time></trkpt><trkpt lat="45.4343172" lon="7.9466522"><ele>233.0</ele><time>2026-05-02T14:57:49.192Z</time></trkpt><trkpt lat="45.4342216" lon="7.9466974"><ele>233.0</ele><time>2026-05-02T14:57:50.18Z</time></trkpt><trkpt lat="45.4341316" lon="7.9467415"><ele>233.0</ele><time>2026-05-02T14:57:51.188Z</time></trkpt><trkpt lat="45.4340425" lon="7.9467824"><ele>233.0</ele><time>2026-05-02T14:57:52.205Z</time></trkpt><trkpt lat="45.4339572" lon="7.9468205"><ele>233.0</ele><time>2026-05-02T14:57:53.198Z</time></trkpt><trkpt lat="45.4338667" lon="7.946865"><ele>233.0</ele><time>2026-05-02T14:57:54.203Z</time></trkpt><trkpt lat="45.4337703" lon="7.9469044"><ele>233.0</ele><time>2026-05-02T14:57:55.189Z</time></trkpt><trkpt lat="45.4336706" lon="7.9469327"><ele>233.0</ele><time>2026-05-02T14:57:56.184Z</time></trkpt><trkpt lat="45.4335673" lon="7.9469583"><ele>233.0</ele><time>2026-05-02T14:57:57.195Z</time></trkpt><trkpt lat="45.4334643" lon="7.9469869"><ele>233.0</ele><time>2026-05-02T14:57:58.189Z</time></trkpt><trkpt lat="45.4333629" lon="7.9470197"><ele>233.0</ele><time>2026-05-02T14:57:59.188Z</time></trkpt><trkpt lat="45.4332918" lon="7.9470558"><ele>233.00000000000003</ele><time>2026-05-02T14:58:00.189Z</time></trkpt><trkpt lat="45.4332318" lon="7.9471131"><ele>233.0</ele><time>2026-05-02T14:58:01.205Z</time></trkpt><trkpt lat="45.4331554" lon="7.9472211"><ele>233.0</ele><time>2026-05-02T14:58:03.187Z</time></trkpt><trkpt lat="45.4330943" lon="7.9473008"><ele>233.0</ele><time>2026-05-02T14:58:04.202Z</time></trkpt><trkpt lat="45.4330401" lon="7.9473721"><ele>233.00000000000003</ele><time>2026-05-02T14:58:05.183Z</time></trkpt><trkpt lat="45.4329837" lon="7.9474331"><ele>233.0</ele><time>2026-05-02T14:58:06.182Z</time></trkpt><trkpt lat="45.4329142" lon="7.9474898"><ele>233.00000000000003</ele><time>2026-05-02T14:58:07.205Z</time></trkpt><trkpt lat="45.4328544" lon="7.9475364"><ele>233.0</ele><time>2026-05-02T14:58:09.179Z</time></trkpt><trkpt lat="45.432867" lon="7.9474446"><ele>233.0</ele><time>2026-05-02T14:58:11.196Z</time></trkpt><trkpt lat="45.4328023" lon="7.9474963"><ele>233.0</ele><time>2026-05-02T14:58:12.196Z</time></trkpt><trkpt lat="45.4327248" lon="7.9475635"><ele>233.00000000000003</ele><time>2026-05-02T14:58:14.195Z</time></trkpt><trkpt lat="45.4326154" lon="7.9475742"><ele>233.0</ele><time>2026-05-02T14:58:16.202Z</time></trkpt><trkpt lat="45.4325342" lon="7.9474899"><ele>233.0</ele><time>2026-05-02T14:58:18.197Z</time></trkpt><trkpt lat="45.432455" lon="7.9473953"><ele>233.0</ele><time>2026-05-02T14:58:19.199Z</time></trkpt><trkpt lat="45.4323724" lon="7.9472944"><ele>233.0</ele><time>2026-05-02T14:58:20.197Z</time></trkpt><trkpt lat="45.4322843" lon="7.9471957"><ele>233.0</ele><time>2026-05-02T14:58:21.201Z</time></trkpt><trkpt lat="45.4321936" lon="7.9470848"><ele>233.0</ele><time>2026-05-02T14:58:22.201Z</time></trkpt><trkpt lat="45.4320855" lon="7.946988"><ele>233.0</ele><time>2026-05-02T14:58:23.197Z</time></trkpt><trkpt lat="45.4319689" lon="7.9469109"><ele>233.0</ele><time>2026-05-02T14:58:24.192Z</time></trkpt><trkpt lat="45.4318555" lon="7.9468676"><ele>233.0</ele><time>2026-05-02T14:58:25.197Z</time></trkpt><trkpt lat="45.4317925" lon="7.9468473"><ele>233.0</ele><time>2026-05-02T14:58:26.193Z</time></trkpt><trkpt lat="45.4315397" lon="7.9469219"><ele>233.0</ele><time>2026-05-02T14:58:28.207Z</time></trkpt><trkpt lat="45.4314195" lon="7.9469759"><ele>233.0</ele><time>2026-05-02T14:58:29.196Z</time></trkpt><trkpt lat="45.4313084" lon="7.9470182"><ele>233.0</ele><time>2026-05-02T14:58:30.212Z</time></trkpt><trkpt lat="45.4312005" lon="7.9470573"><ele>233.0</ele><time>2026-05-02T14:58:31.195Z</time></trkpt><trkpt lat="45.4310817" lon="7.947106"><ele>233.0</ele><time>2026-05-02T14:58:32.213Z</time></trkpt><trkpt lat="45.4309636" lon="7.9471483"><ele>233.0</ele><time>2026-05-02T14:58:33.236Z</time></trkpt><trkpt lat="45.4308367" lon="7.9471955"><ele>233.0</ele><time>2026-05-02T14:58:34.202Z</time></trkpt><trkpt lat="45.4307019" lon="7.9472457"><ele>233.0</ele><time>2026-05-02T14:58:35.202Z</time></trkpt><trkpt lat="45.4305625" lon="7.9472956"><ele>232.0</ele><time>2026-05-02T14:58:36.2Z</time></trkpt><trkpt lat="45.430411" lon="7.947349"><ele>231.0</ele><time>2026-05-02T14:58:37.204Z</time></trkpt><trkpt lat="45.4302537" lon="7.9474038"><ele>230.0</ele><time>2026-05-02T14:58:38.193Z</time></trkpt><trkpt lat="45.4300884" lon="7.9474631"><ele>230.0</ele><time>2026-05-02T14:58:39.196Z</time></trkpt><trkpt lat="45.4299265" lon="7.947526"><ele>230.0</ele><time>2026-05-02T14:58:40.197Z</time></trkpt><trkpt lat="45.4297688" lon="7.9475846"><ele>230.0</ele><time>2026-05-02T14:58:41.2Z</time></trkpt><trkpt lat="45.429613" lon="7.9476471"><ele>230.0</ele><time>2026-05-02T14:58:42.192Z</time></trkpt><trkpt lat="45.4294647" lon="7.9477032"><ele>230.0</ele><time>2026-05-02T14:58:43.207Z</time></trkpt><trkpt lat="45.4293248" lon="7.9477515"><ele>230.0</ele><time>2026-05-02T14:58:44.22Z</time></trkpt><trkpt lat="45.4291787" lon="7.9478083"><ele>230.0</ele><time>2026-05-02T14:58:45.202Z</time></trkpt><trkpt lat="45.4290331" lon="7.9478659"><ele>230.0</ele><time>2026-05-02T14:58:46.194Z</time></trkpt><trkpt lat="45.4288976" lon="7.9479122"><ele>230.0</ele><time>2026-05-02T14:58:47.194Z</time></trkpt><trkpt lat="45.4287519" lon="7.9479625"><ele>230.0</ele><time>2026-05-02T14:58:48.194Z</time></trkpt><trkpt lat="45.4286028" lon="7.9480166"><ele>230.0</ele><time>2026-05-02T14:58:49.188Z</time></trkpt><trkpt lat="45.4284422" lon="7.9480774"><ele>229.66666666666669</ele><time>2026-05-02T14:58:50.2Z</time></trkpt><trkpt lat="45.4282773" lon="7.9481395"><ele>229.33333333333331</ele><time>2026-05-02T14:58:51.221Z</time></trkpt><trkpt lat="45.4281143" lon="7.9482016"><ele>229.0</ele><time>2026-05-02T14:58:52.189Z</time></trkpt><trkpt lat="45.4279483" lon="7.9482619"><ele>229.0</ele><time>2026-05-02T14:58:53.197Z</time></trkpt><trkpt lat="45.427784" lon="7.9483216"><ele>229.0</ele><time>2026-05-02T14:58:54.196Z</time></trkpt><trkpt lat="45.4276268" lon="7.948377"><ele>229.0</ele><time>2026-05-02T14:58:55.196Z</time></trkpt><trkpt lat="45.4274746" lon="7.9484306"><ele>228.66666666666666</ele><time>2026-05-02T14:58:56.185Z</time></trkpt><trkpt lat="45.4273239" lon="7.9484846"><ele>228.33333333333331</ele><time>2026-05-02T14:58:57.194Z</time></trkpt><trkpt lat="45.4271689" lon="7.9485385"><ele>228.0</ele><time>2026-05-02T14:58:58.201Z</time></trkpt><trkpt lat="45.4270133" lon="7.9486046"><ele>227.66666666666669</ele><time>2026-05-02T14:58:59.195Z</time></trkpt><trkpt lat="45.4268388" lon="7.948681"><ele>227.33333333333334</ele><time>2026-05-02T14:59:00.206Z</time></trkpt><trkpt lat="45.4266461" lon="7.9487562"><ele>227.0</ele><time>2026-05-02T14:59:01.205Z</time></trkpt><trkpt lat="45.4264042" lon="7.9488579"><ele>226.5</ele><time>2026-05-02T14:59:02.183Z</time></trkpt><trkpt lat="45.4261578" lon="7.9489323"><ele>226.0</ele><time>2026-05-02T14:59:03.187Z</time></trkpt><trkpt lat="45.4259255" lon="7.9489988"><ele>226.0</ele><time>2026-05-02T14:59:04.181Z</time></trkpt><trkpt lat="45.4256999" lon="7.9490664"><ele>226.0</ele><time>2026-05-02T14:59:05.185Z</time></trkpt><trkpt lat="45.4254732" lon="7.9491384"><ele>226.5</ele><time>2026-05-02T14:59:06.219Z</time></trkpt><trkpt lat="45.4252339" lon="7.9492183"><ele>227.0</ele><time>2026-05-02T14:59:07.187Z</time></trkpt><trkpt lat="45.4249773" lon="7.9493047"><ele>227.0</ele><time>2026-05-02T14:59:08.184Z</time></trkpt><trkpt lat="45.4247031" lon="7.9493952"><ele>227.0</ele><time>2026-05-02T14:59:09.178Z</time></trkpt><trkpt lat="45.4244173" lon="7.9494887"><ele>227.5</ele><time>2026-05-02T14:59:10.179Z</time></trkpt><trkpt lat="45.4241219" lon="7.9495875"><ele>228.0</ele><time>2026-05-02T14:59:11.179Z</time></trkpt><trkpt lat="45.4238171" lon="7.9496923"><ele>227.5</ele><time>2026-05-02T14:59:12.189Z</time></trkpt><trkpt lat="45.4235165" lon="7.9498001"><ele>227.0</ele><time>2026-05-02T14:59:13.182Z</time></trkpt><trkpt lat="45.4232183" lon="7.9499052"><ele>227.0</ele><time>2026-05-02T14:59:14.177Z</time></trkpt><trkpt lat="45.4229187" lon="7.9500076"><ele>227.0</ele><time>2026-05-02T14:59:15.189Z</time></trkpt><trkpt lat="45.4226167" lon="7.9501105"><ele>227.0</ele><time>2026-05-02T14:59:16.189Z</time></trkpt><trkpt lat="45.4223146" lon="7.9502139"><ele>227.0</ele><time>2026-05-02T14:59:17.182Z</time></trkpt><trkpt lat="45.422015" lon="7.9503167"><ele>227.0</ele><time>2026-05-02T14:59:18.184Z</time></trkpt><trkpt lat="45.4217143" lon="7.9504155"><ele>227.0</ele><time>2026-05-02T14:59:19.18Z</time></trkpt><trkpt lat="45.4214207" lon="7.9505099"><ele>227.5</ele><time>2026-05-02T14:59:20.186Z</time></trkpt><trkpt lat="45.4211275" lon="7.9505951"><ele>228.0</ele><time>2026-05-02T14:59:21.184Z</time></trkpt><trkpt lat="45.4208382" lon="7.950661"><ele>228.0</ele><time>2026-05-02T14:59:22.184Z</time></trkpt><trkpt lat="45.4205515" lon="7.9507016"><ele>228.0</ele><time>2026-05-02T14:59:23.188Z</time></trkpt><trkpt lat="45.4202708" lon="7.9507265"><ele>228.5</ele><time>2026-05-02T14:59:24.191Z</time></trkpt><trkpt lat="45.4200024" lon="7.9507387"><ele>229.0</ele><time>2026-05-02T14:59:25.187Z</time></trkpt><trkpt lat="45.4197502" lon="7.9507471"><ele>229.5</ele><time>2026-05-02T14:59:26.186Z</time></trkpt><trkpt lat="45.4195135" lon="7.9507552"><ele>230.0</ele><time>2026-05-02T14:59:27.186Z</time></trkpt><trkpt lat="45.4192868" lon="7.9507644"><ele>230.0</ele><time>2026-05-02T14:59:28.191Z</time></trkpt><trkpt lat="45.4190578" lon="7.9507637"><ele>230.0</ele><time>2026-05-02T14:59:29.19Z</time></trkpt><trkpt lat="45.4188151" lon="7.9507423"><ele>230.5</ele><time>2026-05-02T14:59:30.19Z</time></trkpt><trkpt lat="45.4185524" lon="7.9507008"><ele>231.0</ele><time>2026-05-02T14:59:31.19Z</time></trkpt><trkpt lat="45.4182758" lon="7.9506509"><ele>231.0</ele><time>2026-05-02T14:59:32.191Z</time></trkpt><trkpt lat="45.4179889" lon="7.9505958"><ele>231.0</ele><time>2026-05-02T14:59:33.195Z</time></trkpt><trkpt lat="45.4176953" lon="7.9505439"><ele>231.0</ele><time>2026-05-02T14:59:34.182Z</time></trkpt><trkpt lat="45.4174029" lon="7.9505025"><ele>231.0</ele><time>2026-05-02T14:59:35.186Z</time></trkpt><trkpt lat="45.4171143" lon="7.950468"><ele>231.0</ele><time>2026-05-02T14:59:36.186Z</time></trkpt><trkpt lat="45.4168311" lon="7.9504369"><ele>231.0</ele><time>2026-05-02T14:59:37.189Z</time></trkpt><trkpt lat="45.4165545" lon="7.9504034"><ele>231.0</ele><time>2026-05-02T14:59:38.187Z</time></trkpt><trkpt lat="45.416284" lon="7.9503717"><ele>231.0</ele><time>2026-05-02T14:59:39.187Z</time></trkpt><trkpt lat="45.4160191" lon="7.9503438"><ele>231.0</ele><time>2026-05-02T14:59:40.19Z</time></trkpt><trkpt lat="45.4157535" lon="7.9503275"><ele>231.0</ele><time>2026-05-02T14:59:41.186Z</time></trkpt><trkpt lat="45.4154863" lon="7.9503278"><ele>231.0</ele><time>2026-05-02T14:59:42.191Z</time></trkpt><trkpt lat="45.4152181" lon="7.9503526"><ele>231.0</ele><time>2026-05-02T14:59:43.19Z</time></trkpt><trkpt lat="45.4149515" lon="7.9504058"><ele>231.0</ele><time>2026-05-02T14:59:44.187Z</time></trkpt><trkpt lat="45.4146786" lon="7.9504862"><ele>231.0</ele><time>2026-05-02T14:59:45.183Z</time></trkpt><trkpt lat="45.4144017" lon="7.9505835"><ele>229.0</ele><time>2026-05-02T14:59:46.189Z</time></trkpt><trkpt lat="45.4141201" lon="7.9506961"><ele>227.0</ele><time>2026-05-02T14:59:47.186Z</time></trkpt><trkpt lat="45.4138352" lon="7.9508079"><ele>228.0</ele><time>2026-05-02T14:59:48.184Z</time></trkpt><trkpt lat="45.4135494" lon="7.9509145"><ele>229.0</ele><time>2026-05-02T14:59:49.18Z</time></trkpt><trkpt lat="45.4132672" lon="7.9510148"><ele>229.0</ele><time>2026-05-02T14:59:50.187Z</time></trkpt><trkpt lat="45.4129939" lon="7.9511128"><ele>229.0</ele><time>2026-05-02T14:59:51.191Z</time></trkpt><trkpt lat="45.4127266" lon="7.9512054"><ele>230.0</ele><time>2026-05-02T14:59:52.194Z</time></trkpt><trkpt lat="45.4124651" lon="7.9512896"><ele>231.0</ele><time>2026-05-02T14:59:53.187Z</time></trkpt><trkpt lat="45.4122087" lon="7.9513673"><ele>232.5</ele><time>2026-05-02T14:59:54.191Z</time></trkpt><trkpt lat="45.411953" lon="7.9514384"><ele>234.0</ele><time>2026-05-02T14:59:55.193Z</time></trkpt><trkpt lat="45.4117015" lon="7.951515"><ele>234.0</ele><time>2026-05-02T14:59:56.186Z</time></trkpt><trkpt lat="45.4114435" lon="7.9515961"><ele>234.0</ele><time>2026-05-02T14:59:57.181Z</time></trkpt><trkpt lat="45.4111821" lon="7.9516772"><ele>233.0</ele><time>2026-05-02T14:59:58.188Z</time></trkpt><trkpt lat="45.4109181" lon="7.9517613"><ele>232.0</ele><time>2026-05-02T14:59:59.189Z</time></trkpt><trkpt lat="45.4106581" lon="7.9518515"><ele>231.0</ele><time>2026-05-02T15:00:00.183Z</time></trkpt><trkpt lat="45.4104033" lon="7.9519459"><ele>230.0</ele><time>2026-05-02T15:00:01.186Z</time></trkpt><trkpt lat="45.4101493" lon="7.9520512"><ele>230.0</ele><time>2026-05-02T15:00:02.186Z</time></trkpt><trkpt lat="45.409898" lon="7.9521681"><ele>230.0</ele><time>2026-05-02T15:00:03.202Z</time></trkpt><trkpt lat="45.4096497" lon="7.9522908"><ele>230.0</ele><time>2026-05-02T15:00:04.183Z</time></trkpt><trkpt lat="45.4094032" lon="7.9524171"><ele>230.0</ele><time>2026-05-02T15:00:05.185Z</time></trkpt><trkpt lat="45.4091551" lon="7.952538"><ele>229.5</ele><time>2026-05-02T15:00:06.188Z</time></trkpt><trkpt lat="45.4089086" lon="7.9526548"><ele>229.0</ele><time>2026-05-02T15:00:07.193Z</time></trkpt><trkpt lat="45.4086615" lon="7.9527686"><ele>229.0</ele><time>2026-05-02T15:00:08.197Z</time></trkpt><trkpt lat="45.4084159" lon="7.9528817"><ele>229.0</ele><time>2026-05-02T15:00:09.186Z</time></trkpt><trkpt lat="45.4081668" lon="7.9529955"><ele>229.0</ele><time>2026-05-02T15:00:10.189Z</time></trkpt><trkpt lat="45.4079191" lon="7.9531077"><ele>229.0</ele><time>2026-05-02T15:00:11.187Z</time></trkpt><trkpt lat="45.4076704" lon="7.9532211"><ele>229.0</ele><time>2026-05-02T15:00:12.192Z</time></trkpt><trkpt lat="45.4074159" lon="7.9533375"><ele>229.0</ele><time>2026-05-02T15:00:13.189Z</time></trkpt><trkpt lat="45.4071589" lon="7.953455"><ele>230.0</ele><time>2026-05-02T15:00:14.2Z</time></trkpt><trkpt lat="45.4069015" lon="7.9535711"><ele>231.0</ele><time>2026-05-02T15:00:15.192Z</time></trkpt><trkpt lat="45.406647" lon="7.953683"><ele>231.0</ele><time>2026-05-02T15:00:16.189Z</time></trkpt><trkpt lat="45.4063998" lon="7.9537882"><ele>231.0</ele><time>2026-05-02T15:00:17.186Z</time></trkpt><trkpt lat="45.4061627" lon="7.9538811"><ele>230.5</ele><time>2026-05-02T15:00:18.186Z</time></trkpt><trkpt lat="45.4059266" lon="7.9539627"><ele>230.0</ele><time>2026-05-02T15:00:19.185Z</time></trkpt><trkpt lat="45.4056873" lon="7.9540355"><ele>230.0</ele><time>2026-05-02T15:00:20.18Z</time></trkpt><trkpt lat="45.4054504" lon="7.9541034"><ele>230.0</ele><time>2026-05-02T15:00:21.18Z</time></trkpt><trkpt lat="45.405211" lon="7.9541724"><ele>230.0</ele><time>2026-05-02T15:00:22.183Z</time></trkpt><trkpt lat="45.4049684" lon="7.9542429"><ele>230.0</ele><time>2026-05-02T15:00:23.18Z</time></trkpt><trkpt lat="45.4047266" lon="7.9543173"><ele>229.5</ele><time>2026-05-02T15:00:24.195Z</time></trkpt><trkpt lat="45.4044828" lon="7.9543915"><ele>229.0</ele><time>2026-05-02T15:00:25.191Z</time></trkpt><trkpt lat="45.4042443" lon="7.954463"><ele>229.0</ele><time>2026-05-02T15:00:26.189Z</time></trkpt><trkpt lat="45.4040106" lon="7.9545325"><ele>229.0</ele><time>2026-05-02T15:00:27.186Z</time></trkpt><trkpt lat="45.4037811" lon="7.9546031"><ele>229.33333333333331</ele><time>2026-05-02T15:00:28.189Z</time></trkpt><trkpt lat="45.4035564" lon="7.9546724"><ele>229.66666666666669</ele><time>2026-05-02T15:00:29.189Z</time></trkpt><trkpt lat="45.4033455" lon="7.9547369"><ele>230.0</ele><time>2026-05-02T15:00:30.19Z</time></trkpt><trkpt lat="45.4031434" lon="7.9547964"><ele>231.0</ele><time>2026-05-02T15:00:31.194Z</time></trkpt><trkpt lat="45.4029514" lon="7.9548523"><ele>232.0</ele><time>2026-05-02T15:00:32.185Z</time></trkpt><trkpt lat="45.4027969" lon="7.9549258"><ele>233.0</ele><time>2026-05-02T15:00:33.189Z</time></trkpt><trkpt lat="45.4026437" lon="7.9550208"><ele>233.66666666666669</ele><time>2026-05-02T15:00:34.187Z</time></trkpt><trkpt lat="45.4024937" lon="7.9551535"><ele>234.33333333333331</ele><time>2026-05-02T15:00:35.189Z</time></trkpt><trkpt lat="45.4023432" lon="7.955326"><ele>235.0</ele><time>2026-05-02T15:00:36.193Z</time></trkpt><trkpt lat="45.4021878" lon="7.9555177"><ele>236.66666666666666</ele><time>2026-05-02T15:00:37.183Z</time></trkpt><trkpt lat="45.4020299" lon="7.9557127"><ele>238.33333333333331</ele><time>2026-05-02T15:00:38.181Z</time></trkpt><trkpt lat="45.4018704" lon="7.9559057"><ele>240.0</ele><time>2026-05-02T15:00:39.187Z</time></trkpt><trkpt lat="45.4017092" lon="7.9560909"><ele>241.33333333333331</ele><time>2026-05-02T15:00:40.185Z</time></trkpt><trkpt lat="45.4015546" lon="7.9562657"><ele>242.66666666666666</ele><time>2026-05-02T15:00:41.182Z</time></trkpt><trkpt lat="45.4014134" lon="7.9564377"><ele>244.0</ele><time>2026-05-02T15:00:42.185Z</time></trkpt><trkpt lat="45.4012767" lon="7.9566009"><ele>246.66666666666666</ele><time>2026-05-02T15:00:43.19Z</time></trkpt><trkpt lat="45.4011485" lon="7.9567575"><ele>249.33333333333331</ele><time>2026-05-02T15:00:44.184Z</time></trkpt><trkpt lat="45.4010374" lon="7.9569343"><ele>252.0</ele><time>2026-05-02T15:00:45.18Z</time></trkpt><trkpt lat="45.4009232" lon="7.9571114"><ele>252.0</ele><time>2026-05-02T15:00:46.182Z</time></trkpt><trkpt lat="45.4008236" lon="7.9572825"><ele>252.0</ele><time>2026-05-02T15:00:47.184Z</time></trkpt><trkpt lat="45.4007222" lon="7.9574331"><ele>252.0</ele><time>2026-05-02T15:00:48.182Z</time></trkpt><trkpt lat="45.40063" lon="7.957582"><ele>252.0</ele><time>2026-05-02T15:00:49.194Z</time></trkpt><trkpt lat="45.4005461" lon="7.9577134"><ele>254.5</ele><time>2026-05-02T15:00:50.18Z</time></trkpt><trkpt lat="45.4004562" lon="7.9578082"><ele>257.0</ele><time>2026-05-02T15:00:51.204Z</time></trkpt><trkpt lat="45.4003832" lon="7.957923"><ele>259.5</ele><time>2026-05-02T15:00:52.186Z</time></trkpt><trkpt lat="45.4002934" lon="7.958023"><ele>262.0</ele><time>2026-05-02T15:00:53.195Z</time></trkpt><trkpt lat="45.4002221" lon="7.9581545"><ele>262.0</ele><time>2026-05-02T15:00:54.183Z</time></trkpt><trkpt lat="45.400135" lon="7.9582726"><ele>262.0</ele><time>2026-05-02T15:00:55.181Z</time></trkpt><trkpt lat="45.4000866" lon="7.9584309"><ele>262.0</ele><time>2026-05-02T15:00:56.183Z</time></trkpt><trkpt lat="45.4000359" lon="7.9585779"><ele>262.0</ele><time>2026-05-02T15:00:57.197Z</time></trkpt><trkpt lat="45.4000113" lon="7.9587363"><ele>263.0</ele><time>2026-05-02T15:00:58.184Z</time></trkpt><trkpt lat="45.3999781" lon="7.9588777"><ele>264.0</ele><time>2026-05-02T15:00:59.183Z</time></trkpt><trkpt lat="45.3999553" lon="7.9590167"><ele>265.0</ele><time>2026-05-02T15:01:00.178Z</time></trkpt><trkpt lat="45.3999241" lon="7.959149"><ele>266.0</ele><time>2026-05-02T15:01:01.185Z</time></trkpt><trkpt lat="45.3998853" lon="7.9592721"><ele>267.0</ele><time>2026-05-02T15:01:02.187Z</time></trkpt><trkpt lat="45.3998486" lon="7.9593923"><ele>267.1666666666667</ele><time>2026-05-02T15:01:03.186Z</time></trkpt><trkpt lat="45.3998159" lon="7.9595087"><ele>267.3333333333333</ele><time>2026-05-02T15:01:04.186Z</time></trkpt><trkpt lat="45.3997925" lon="7.959612"><ele>267.5</ele><time>2026-05-02T15:01:05.184Z</time></trkpt><trkpt lat="45.3997669" lon="7.9597139"><ele>267.66666666666663</ele><time>2026-05-02T15:01:06.186Z</time></trkpt><trkpt lat="45.3997387" lon="7.9598171"><ele>267.8333333333333</ele><time>2026-05-02T15:01:07.182Z</time></trkpt><trkpt lat="45.3997075" lon="7.9599121"><ele>268.0</ele><time>2026-05-02T15:01:08.18Z</time></trkpt><trkpt lat="45.3996868" lon="7.9600039"><ele>267.6</ele><time>2026-05-02T15:01:09.181Z</time></trkpt><trkpt lat="45.3996521" lon="7.9600853"><ele>267.20000000000005</ele><time>2026-05-02T15:01:10.219Z</time></trkpt><trkpt lat="45.3995123" lon="7.96015"><ele>266.8</ele><time>2026-05-02T15:01:12.177Z</time></trkpt><trkpt lat="45.3994412" lon="7.9601673"><ele>266.40000000000003</ele><time>2026-05-02T15:01:13.229Z</time></trkpt><trkpt lat="45.3993634" lon="7.9602446"><ele>266.0</ele><time>2026-05-02T15:01:15.188Z</time></trkpt><trkpt lat="45.3992363" lon="7.9602945"><ele>266.0</ele><time>2026-05-02T15:01:17.19Z</time></trkpt><trkpt lat="45.3991713" lon="7.960318"><ele>266.0</ele><time>2026-05-02T15:01:18.179Z</time></trkpt><trkpt lat="45.3991081" lon="7.9603453"><ele>266.0</ele><time>2026-05-02T15:01:19.181Z</time></trkpt><trkpt lat="45.3989891" lon="7.9603857"><ele>266.0</ele><time>2026-05-02T15:01:21.212Z</time></trkpt><trkpt lat="45.3989258" lon="7.9604082"><ele>266.0</ele><time>2026-05-02T15:01:22.176Z</time></trkpt><trkpt lat="45.3988506" lon="7.9604384"><ele>266.0</ele><time>2026-05-02T15:01:23.182Z</time></trkpt><trkpt lat="45.3987682" lon="7.9604684"><ele>266.33333333333337</ele><time>2026-05-02T15:01:24.188Z</time></trkpt><trkpt lat="45.3986961" lon="7.9604847"><ele>266.6666666666667</ele><time>2026-05-02T15:01:25.182Z</time></trkpt><trkpt lat="45.3986218" lon="7.9605088"><ele>267.0</ele><time>2026-05-02T15:01:26.178Z</time></trkpt><trkpt lat="45.3985559" lon="7.9605271"><ele>267.3333333333333</ele><time>2026-05-02T15:01:27.185Z</time></trkpt><trkpt lat="45.3984177" lon="7.9604802"><ele>267.66666666666663</ele><time>2026-05-02T15:01:28.178Z</time></trkpt><trkpt lat="45.3983297" lon="7.9604685"><ele>268.0</ele><time>2026-05-02T15:01:29.191Z</time></trkpt><trkpt lat="45.398237" lon="7.9604298"><ele>268.0</ele><time>2026-05-02T15:01:30.185Z</time></trkpt><trkpt lat="45.3981836" lon="7.96037"><ele>268.0</ele><time>2026-05-02T15:01:31.18Z</time></trkpt><trkpt lat="45.3981313" lon="7.9603095"><ele>268.0</ele><time>2026-05-02T15:01:33.183Z</time></trkpt><trkpt lat="45.3980274" lon="7.9602797"><ele>268.0</ele><time>2026-05-02T15:01:39.18Z</time></trkpt><trkpt lat="45.3979722" lon="7.9601754"><ele>268.0</ele><time>2026-05-02T15:01:41.179Z</time></trkpt><trkpt lat="45.3979429" lon="7.9600143"><ele>268.4</ele><time>2026-05-02T15:01:43.195Z</time></trkpt><trkpt lat="45.3979196" lon="7.9599186"><ele>268.8</ele><time>2026-05-02T15:01:44.209Z</time></trkpt><trkpt lat="45.3978681" lon="7.9598158"><ele>269.2</ele><time>2026-05-02T15:01:45.185Z</time></trkpt><trkpt lat="45.397859" lon="7.9596796"><ele>269.6</ele><time>2026-05-02T15:01:46.19Z</time></trkpt><trkpt lat="45.3978466" lon="7.959542"><ele>270.0</ele><time>2026-05-02T15:01:47.19Z</time></trkpt><trkpt lat="45.3978576" lon="7.9593809"><ele>270.0</ele><time>2026-05-02T15:01:48.211Z</time></trkpt><trkpt lat="45.3978452" lon="7.9592417"><ele>270.0</ele><time>2026-05-02T15:01:49.184Z</time></trkpt><trkpt lat="45.3978141" lon="7.9590888"><ele>270.0</ele><time>2026-05-02T15:01:50.182Z</time></trkpt><trkpt lat="45.3977772" lon="7.9589655"><ele>270.0</ele><time>2026-05-02T15:01:51.225Z</time></trkpt><trkpt lat="45.3977442" lon="7.9588467"><ele>270.0</ele><time>2026-05-02T15:01:52.18Z</time></trkpt><trkpt lat="45.3977076" lon="7.9587243"><ele>270.0</ele><time>2026-05-02T15:01:53.183Z</time></trkpt><trkpt lat="45.3976662" lon="7.9586087"><ele>270.0</ele><time>2026-05-02T15:01:54.182Z</time></trkpt><trkpt lat="45.3976278" lon="7.9584947"><ele>270.0</ele><time>2026-05-02T15:01:55.185Z</time></trkpt><trkpt lat="45.3975941" lon="7.9583824"><ele>270.0</ele><time>2026-05-02T15:01:56.182Z</time></trkpt><trkpt lat="45.3975606" lon="7.9582567"><ele>270.0</ele><time>2026-05-02T15:01:57.185Z</time></trkpt><trkpt lat="45.397534" lon="7.9581218"><ele>270.6</ele><time>2026-05-02T15:01:58.189Z</time></trkpt><trkpt lat="45.3975206" lon="7.9580025"><ele>271.2</ele><time>2026-05-02T15:01:59.182Z</time></trkpt><trkpt lat="45.3975004" lon="7.9578637"><ele>271.8</ele><time>2026-05-02T15:02:00.192Z</time></trkpt><trkpt lat="45.3974956" lon="7.9577181"><ele>272.4</ele><time>2026-05-02T15:02:01.184Z</time></trkpt><trkpt lat="45.3975034" lon="7.9575626"><ele>273.0</ele><time>2026-05-02T15:02:02.192Z</time></trkpt><trkpt lat="45.3975151" lon="7.957409"><ele>273.0</ele><time>2026-05-02T15:02:03.191Z</time></trkpt><trkpt lat="45.3975319" lon="7.9572493"><ele>273.0</ele><time>2026-05-02T15:02:04.187Z</time></trkpt><trkpt lat="45.3975417" lon="7.9570758"><ele>273.0</ele><time>2026-05-02T15:02:05.189Z</time></trkpt><trkpt lat="45.3975695" lon="7.9568794"><ele>273.0</ele><time>2026-05-02T15:02:06.184Z</time></trkpt><trkpt lat="45.3975987" lon="7.9566523"><ele>273.3333333333333</ele><time>2026-05-02T15:02:07.182Z</time></trkpt><trkpt lat="45.3976612" lon="7.956429"><ele>273.66666666666663</ele><time>2026-05-02T15:02:08.198Z</time></trkpt><trkpt lat="45.3976871" lon="7.9562025"><ele>274.0</ele><time>2026-05-02T15:02:09.183Z</time></trkpt><trkpt lat="45.3977109" lon="7.9559745"><ele>274.75</ele><time>2026-05-02T15:02:10.185Z</time></trkpt><trkpt lat="45.3977208" lon="7.9557787"><ele>275.5</ele><time>2026-05-02T15:02:11.189Z</time></trkpt><trkpt lat="45.3977436" lon="7.955595"><ele>276.25</ele><time>2026-05-02T15:02:12.185Z</time></trkpt><trkpt lat="45.3977641" lon="7.9554341"><ele>277.0</ele><time>2026-05-02T15:02:13.183Z</time></trkpt><trkpt lat="45.3977626" lon="7.9552747"><ele>277.0</ele><time>2026-05-02T15:02:14.185Z</time></trkpt><trkpt lat="45.3977707" lon="7.9551043"><ele>277.0</ele><time>2026-05-02T15:02:15.185Z</time></trkpt><trkpt lat="45.397796" lon="7.9549227"><ele>277.0</ele><time>2026-05-02T15:02:16.194Z</time></trkpt><trkpt lat="45.3978169" lon="7.9547238"><ele>277.0</ele><time>2026-05-02T15:02:17.191Z</time></trkpt><trkpt lat="45.3978361" lon="7.9545123"><ele>278.0</ele><time>2026-05-02T15:02:18.19Z</time></trkpt><trkpt lat="45.3978656" lon="7.9542794"><ele>279.0</ele><time>2026-05-02T15:02:19.185Z</time></trkpt><trkpt lat="45.3978895" lon="7.9540269"><ele>280.0</ele><time>2026-05-02T15:02:20.195Z</time></trkpt><trkpt lat="45.3979286" lon="7.953751"><ele>280.66666666666663</ele><time>2026-05-02T15:02:21.189Z</time></trkpt><trkpt lat="45.3979772" lon="7.9534699"><ele>281.3333333333333</ele><time>2026-05-02T15:02:22.186Z</time></trkpt><trkpt lat="45.3980231" lon="7.9531789"><ele>282.0</ele><time>2026-05-02T15:02:23.195Z</time></trkpt><trkpt lat="45.3980644" lon="7.9528786"><ele>279.0</ele><time>2026-05-02T15:02:24.19Z</time></trkpt><trkpt lat="45.398111" lon="7.9525768"><ele>276.0</ele><time>2026-05-02T15:02:25.194Z</time></trkpt><trkpt lat="45.39816" lon="7.9522758"><ele>273.0</ele><time>2026-05-02T15:02:26.189Z</time></trkpt><trkpt lat="45.398214" lon="7.9519739"><ele>274.0</ele><time>2026-05-02T15:02:27.182Z</time></trkpt><trkpt lat="45.3982719" lon="7.9516624"><ele>275.0</ele><time>2026-05-02T15:02:28.184Z</time></trkpt><trkpt lat="45.3983344" lon="7.9513466"><ele>275.0</ele><time>2026-05-02T15:02:29.191Z</time></trkpt><trkpt lat="45.398397" lon="7.951026"><ele>275.0</ele><time>2026-05-02T15:02:30.189Z</time></trkpt><trkpt lat="45.3984671" lon="7.9507118"><ele>275.33333333333337</ele><time>2026-05-02T15:02:31.194Z</time></trkpt><trkpt lat="45.3985302" lon="7.9503998"><ele>275.6666666666667</ele><time>2026-05-02T15:02:32.187Z</time></trkpt><trkpt lat="45.3986026" lon="7.9501045"><ele>276.0</ele><time>2026-05-02T15:02:33.188Z</time></trkpt><trkpt lat="45.39867" lon="7.9498192"><ele>276.6666666666667</ele><time>2026-05-02T15:02:34.191Z</time></trkpt><trkpt lat="45.3987266" lon="7.9495384"><ele>277.33333333333337</ele><time>2026-05-02T15:02:35.189Z</time></trkpt><trkpt lat="45.3987829" lon="7.9492601"><ele>278.0</ele><time>2026-05-02T15:02:36.188Z</time></trkpt><trkpt lat="45.3988383" lon="7.9489843"><ele>274.6666666666667</ele><time>2026-05-02T15:02:37.184Z</time></trkpt><trkpt lat="45.3988814" lon="7.9487075"><ele>271.3333333333333</ele><time>2026-05-02T15:02:38.191Z</time></trkpt><trkpt lat="45.3989181" lon="7.9484266"><ele>268.0</ele><time>2026-05-02T15:02:39.184Z</time></trkpt><trkpt lat="45.3989396" lon="7.9481288"><ele>268.0</ele><time>2026-05-02T15:02:40.186Z</time></trkpt><trkpt lat="45.39896" lon="7.9478298"><ele>268.0</ele><time>2026-05-02T15:02:41.183Z</time></trkpt><trkpt lat="45.39897" lon="7.947524"><ele>268.0</ele><time>2026-05-02T15:02:42.191Z</time></trkpt><trkpt lat="45.3989964" lon="7.9472236"><ele>267.66666666666663</ele><time>2026-05-02T15:02:43.185Z</time></trkpt><trkpt lat="45.3990019" lon="7.9469158"><ele>267.3333333333333</ele><time>2026-05-02T15:02:44.187Z</time></trkpt><trkpt lat="45.3990088" lon="7.9466163"><ele>267.0</ele><time>2026-05-02T15:02:45.182Z</time></trkpt><trkpt lat="45.3990054" lon="7.9463266"><ele>267.0</ele><time>2026-05-02T15:02:46.184Z</time></trkpt><trkpt lat="45.3989907" lon="7.946068"><ele>267.0</ele><time>2026-05-02T15:02:47.184Z</time></trkpt><trkpt lat="45.3989517" lon="7.9458253"><ele>267.0</ele><time>2026-05-02T15:02:48.188Z</time></trkpt><trkpt lat="45.398909" lon="7.9455833"><ele>267.0</ele><time>2026-05-02T15:02:49.186Z</time></trkpt><trkpt lat="45.3988618" lon="7.9453531"><ele>267.0</ele><time>2026-05-02T15:02:50.186Z</time></trkpt><trkpt lat="45.3988234" lon="7.9451315"><ele>267.0</ele><time>2026-05-02T15:02:51.184Z</time></trkpt><trkpt lat="45.3987628" lon="7.9449097"><ele>264.0</ele><time>2026-05-02T15:02:52.188Z</time></trkpt><trkpt lat="45.3986922" lon="7.9446809"><ele>261.0</ele><time>2026-05-02T15:02:53.195Z</time></trkpt><trkpt lat="45.3986192" lon="7.9444516"><ele>258.0</ele><time>2026-05-02T15:02:54.182Z</time></trkpt><trkpt lat="45.3985617" lon="7.9442287"><ele>257.3333333333333</ele><time>2026-05-02T15:02:55.185Z</time></trkpt><trkpt lat="45.3984986" lon="7.944007"><ele>256.66666666666663</ele><time>2026-05-02T15:02:56.184Z</time></trkpt><trkpt lat="45.3984373" lon="7.9437943"><ele>256.0</ele><time>2026-05-02T15:02:57.185Z</time></trkpt><trkpt lat="45.3983811" lon="7.9435862"><ele>253.66666666666666</ele><time>2026-05-02T15:02:58.193Z</time></trkpt><trkpt lat="45.3983445" lon="7.9433549"><ele>251.33333333333331</ele><time>2026-05-02T15:02:59.18Z</time></trkpt><trkpt lat="45.3983676" lon="7.9431335"><ele>249.0</ele><time>2026-05-02T15:03:00.185Z</time></trkpt><trkpt lat="45.3984377" lon="7.9429187"><ele>249.0</ele><time>2026-05-02T15:03:01.189Z</time></trkpt><trkpt lat="45.3985281" lon="7.9427287"><ele>249.0</ele><time>2026-05-02T15:03:02.217Z</time></trkpt><trkpt lat="45.3986592" lon="7.9425855"><ele>249.0</ele><time>2026-05-02T15:03:03.184Z</time></trkpt><trkpt lat="45.3988191" lon="7.942462"><ele>248.25</ele><time>2026-05-02T15:03:04.182Z</time></trkpt><trkpt lat="45.3989567" lon="7.9423764"><ele>247.5</ele><time>2026-05-02T15:03:05.199Z</time></trkpt><trkpt lat="45.399071" lon="7.9423057"><ele>246.75</ele><time>2026-05-02T15:03:06.184Z</time></trkpt><trkpt lat="45.3991929" lon="7.9422606"><ele>246.0</ele><time>2026-05-02T15:03:07.185Z</time></trkpt><trkpt lat="45.3992652" lon="7.9422211"><ele>246.0</ele><time>2026-05-02T15:03:08.187Z</time></trkpt><trkpt lat="45.3991588" lon="7.9421604"><ele>246.0</ele><time>2026-05-02T15:03:11.189Z</time></trkpt><trkpt lat="45.3990624" lon="7.9421866"><ele>246.0</ele><time>2026-05-02T15:03:12.186Z</time></trkpt><trkpt lat="45.3989446" lon="7.9422546"><ele>246.0</ele><time>2026-05-02T15:03:13.179Z</time></trkpt><trkpt lat="45.3988162" lon="7.942365"><ele>246.60000000000002</ele><time>2026-05-02T15:03:14.185Z</time></trkpt><trkpt lat="45.3986954" lon="7.9424698"><ele>247.20000000000002</ele><time>2026-05-02T15:03:15.182Z</time></trkpt><trkpt lat="45.3985955" lon="7.9425476"><ele>247.79999999999998</ele><time>2026-05-02T15:03:16.187Z</time></trkpt><trkpt lat="45.3985038" lon="7.9425968"><ele>248.39999999999998</ele><time>2026-05-02T15:03:17.191Z</time></trkpt><trkpt lat="45.398419" lon="7.942608"><ele>249.0</ele><time>2026-05-02T15:03:18.192Z</time></trkpt><trkpt lat="45.3983569" lon="7.9425912"><ele>246.66666666666666</ele><time>2026-05-02T15:03:19.192Z</time></trkpt><trkpt lat="45.3983033" lon="7.9424875"><ele>244.33333333333331</ele><time>2026-05-02T15:03:20.187Z</time></trkpt><trkpt lat="45.3982514" lon="7.9423887"><ele>242.0</ele><time>2026-05-02T15:03:21.209Z</time></trkpt><trkpt lat="45.3981903" lon="7.9423192"><ele>239.66666666666666</ele><time>2026-05-02T15:03:22.19Z</time></trkpt><trkpt lat="45.3981228" lon="7.9422955"><ele>237.33333333333331</ele><time>2026-05-02T15:03:23.193Z</time></trkpt><trkpt lat="45.3980426" lon="7.9423071"><ele>235.0</ele><time>2026-05-02T15:03:24.211Z</time></trkpt><trkpt lat="45.3979419" lon="7.9423715"><ele>235.25</ele><time>2026-05-02T15:03:25.184Z</time></trkpt><trkpt lat="45.3978247" lon="7.9424452"><ele>235.5</ele><time>2026-05-02T15:03:26.189Z</time></trkpt><trkpt lat="45.3977109" lon="7.9425201"><ele>235.75</ele><time>2026-05-02T15:03:27.178Z</time></trkpt><trkpt lat="45.3976138" lon="7.9425862"><ele>236.0</ele><time>2026-05-02T15:03:28.186Z</time></trkpt><trkpt lat="45.3975278" lon="7.9426343"><ele>236.00000000000003</ele><time>2026-05-02T15:03:29.186Z</time></trkpt><trkpt lat="45.3974581" lon="7.9426436"><ele>236.0</ele><time>2026-05-02T15:03:30.184Z</time></trkpt><trkpt lat="45.3974033" lon="7.9425684"><ele>236.0</ele><time>2026-05-02T15:03:32.175Z</time></trkpt><trkpt lat="45.3973813" lon="7.9424755"><ele>236.0</ele><time>2026-05-02T15:03:33.18Z</time></trkpt><trkpt lat="45.3973895" lon="7.9423436"><ele>236.00000000000003</ele><time>2026-05-02T15:03:34.21Z</time></trkpt><trkpt lat="45.3973682" lon="7.9422071"><ele>236.0</ele><time>2026-05-02T15:03:35.194Z</time></trkpt><trkpt lat="45.3973262" lon="7.9421054"><ele>233.75</ele><time>2026-05-02T15:03:36.182Z</time></trkpt><trkpt lat="45.3972724" lon="7.9419965"><ele>231.5</ele><time>2026-05-02T15:03:37.185Z</time></trkpt><trkpt lat="45.3972197" lon="7.94187"><ele>229.25</ele><time>2026-05-02T15:03:38.192Z</time></trkpt><trkpt lat="45.3971624" lon="7.9417043"><ele>227.0</ele><time>2026-05-02T15:03:39.184Z</time></trkpt><trkpt lat="45.397105" lon="7.9415012"><ele>225.33333333333334</ele><time>2026-05-02T15:03:40.184Z</time></trkpt><trkpt lat="45.3970589" lon="7.9412726"><ele>223.66666666666669</ele><time>2026-05-02T15:03:41.182Z</time></trkpt><trkpt lat="45.3970165" lon="7.9410528"><ele>222.0</ele><time>2026-05-02T15:03:42.186Z</time></trkpt><trkpt lat="45.3969653" lon="7.9408202"><ele>222.0</ele><time>2026-05-02T15:03:43.189Z</time></trkpt><trkpt lat="45.3968937" lon="7.9405466"><ele>222.0</ele><time>2026-05-02T15:03:44.186Z</time></trkpt><trkpt lat="45.3968345" lon="7.9402675"><ele>222.0</ele><time>2026-05-02T15:03:45.184Z</time></trkpt><trkpt lat="45.3967761" lon="7.9399844"><ele>221.33333333333331</ele><time>2026-05-02T15:03:46.183Z</time></trkpt><trkpt lat="45.396709" lon="7.9396919"><ele>220.66666666666666</ele><time>2026-05-02T15:03:47.184Z</time></trkpt><trkpt lat="45.3966361" lon="7.939381"><ele>220.0</ele><time>2026-05-02T15:03:48.185Z</time></trkpt><trkpt lat="45.3965604" lon="7.9390671"><ele>220.0</ele><time>2026-05-02T15:03:49.184Z</time></trkpt><trkpt lat="45.3964847" lon="7.9387479"><ele>220.0</ele><time>2026-05-02T15:03:50.189Z</time></trkpt><trkpt lat="45.3964118" lon="7.9384309"><ele>219.5</ele><time>2026-05-02T15:03:51.185Z</time></trkpt><trkpt lat="45.3963332" lon="7.9381115"><ele>219.0</ele><time>2026-05-02T15:03:52.196Z</time></trkpt><trkpt lat="45.3962558" lon="7.9377862"><ele>219.0</ele><time>2026-05-02T15:03:53.194Z</time></trkpt><trkpt lat="45.396174" lon="7.9374475"><ele>219.0</ele><time>2026-05-02T15:03:54.184Z</time></trkpt><trkpt lat="45.3960922" lon="7.9370965"><ele>219.0</ele><time>2026-05-02T15:03:55.188Z</time></trkpt><trkpt lat="45.3960086" lon="7.9367315"><ele>219.0</ele><time>2026-05-02T15:03:56.188Z</time></trkpt><trkpt lat="45.3959251" lon="7.9363597"><ele>219.0</ele><time>2026-05-02T15:03:57.19Z</time></trkpt><trkpt lat="45.3958421" lon="7.935993"><ele>219.0</ele><time>2026-05-02T15:03:58.199Z</time></trkpt><trkpt lat="45.3957543" lon="7.9356292"><ele>219.0</ele><time>2026-05-02T15:03:59.189Z</time></trkpt><trkpt lat="45.3956651" lon="7.9352642"><ele>219.0</ele><time>2026-05-02T15:04:00.192Z</time></trkpt><trkpt lat="45.3955697" lon="7.934896"><ele>219.5</ele><time>2026-05-02T15:04:01.189Z</time></trkpt><trkpt lat="45.3954722" lon="7.9345203"><ele>220.0</ele><time>2026-05-02T15:04:02.186Z</time></trkpt><trkpt lat="45.3953744" lon="7.9341402"><ele>219.5</ele><time>2026-05-02T15:04:03.193Z</time></trkpt><trkpt lat="45.3952784" lon="7.9337548"><ele>219.0</ele><time>2026-05-02T15:04:04.184Z</time></trkpt><trkpt lat="45.3951829" lon="7.9333633"><ele>219.0</ele><time>2026-05-02T15:04:05.188Z</time></trkpt><trkpt lat="45.3950876" lon="7.9329676"><ele>219.0</ele><time>2026-05-02T15:04:06.194Z</time></trkpt><trkpt lat="45.3949925" lon="7.9325701"><ele>219.0</ele><time>2026-05-02T15:04:07.187Z</time></trkpt><trkpt lat="45.3948964" lon="7.9321708"><ele>219.0</ele><time>2026-05-02T15:04:08.184Z</time></trkpt><trkpt lat="45.3947982" lon="7.9317676"><ele>219.0</ele><time>2026-05-02T15:04:09.185Z</time></trkpt><trkpt lat="45.3947007" lon="7.9313611"><ele>219.0</ele><time>2026-05-02T15:04:10.189Z</time></trkpt><trkpt lat="45.3946084" lon="7.9309576"><ele>219.0</ele><time>2026-05-02T15:04:11.19Z</time></trkpt><trkpt lat="45.3945131" lon="7.9305537"><ele>219.0</ele><time>2026-05-02T15:04:12.195Z</time></trkpt><trkpt lat="45.3944224" lon="7.9301515"><ele>219.0</ele><time>2026-05-02T15:04:13.196Z</time></trkpt><trkpt lat="45.3943316" lon="7.9297495"><ele>219.0</ele><time>2026-05-02T15:04:14.185Z</time></trkpt><trkpt lat="45.3942412" lon="7.9293471"><ele>219.0</ele><time>2026-05-02T15:04:15.18Z</time></trkpt><trkpt lat="45.39415" lon="7.9289434"><ele>219.0</ele><time>2026-05-02T15:04:16.182Z</time></trkpt><trkpt lat="45.3940545" lon="7.928541"><ele>219.5</ele><time>2026-05-02T15:04:17.19Z</time></trkpt><trkpt lat="45.393962" lon="7.9281404"><ele>220.0</ele><time>2026-05-02T15:04:18.189Z</time></trkpt><trkpt lat="45.3938678" lon="7.9277415"><ele>219.5</ele><time>2026-05-02T15:04:19.192Z</time></trkpt><trkpt lat="45.393775" lon="7.9273536"><ele>219.0</ele><time>2026-05-02T15:04:20.188Z</time></trkpt><trkpt lat="45.3936806" lon="7.9269642"><ele>219.0</ele><time>2026-05-02T15:04:21.19Z</time></trkpt><trkpt lat="45.3935885" lon="7.9265802"><ele>219.0</ele><time>2026-05-02T15:04:22.181Z</time></trkpt><trkpt lat="45.3934974" lon="7.9262013"><ele>219.0</ele><time>2026-05-02T15:04:23.189Z</time></trkpt><trkpt lat="45.3934057" lon="7.9258212"><ele>219.0</ele><time>2026-05-02T15:04:24.185Z</time></trkpt><trkpt lat="45.3933169" lon="7.925442"><ele>219.0</ele><time>2026-05-02T15:04:25.185Z</time></trkpt><trkpt lat="45.3932299" lon="7.9250644"><ele>219.0</ele><time>2026-05-02T15:04:26.182Z</time></trkpt><trkpt lat="45.3931639" lon="7.9246953"><ele>219.0</ele><time>2026-05-02T15:04:27.185Z</time></trkpt><trkpt lat="45.3930991" lon="7.9243244"><ele>219.0</ele><time>2026-05-02T15:04:28.186Z</time></trkpt><trkpt lat="45.3930562" lon="7.923958"><ele>219.0</ele><time>2026-05-02T15:04:29.184Z</time></trkpt><trkpt lat="45.3930237" lon="7.9235933"><ele>219.0</ele><time>2026-05-02T15:04:30.189Z</time></trkpt><trkpt lat="45.393011" lon="7.9232272"><ele>220.0</ele><time>2026-05-02T15:04:31.192Z</time></trkpt><trkpt lat="45.3929918" lon="7.9228644"><ele>221.0</ele><time>2026-05-02T15:04:32.19Z</time></trkpt><trkpt lat="45.3929722" lon="7.9224884"><ele>221.0</ele><time>2026-05-02T15:04:33.189Z</time></trkpt><trkpt lat="45.3929456" lon="7.9221073"><ele>221.0</ele><time>2026-05-02T15:04:34.184Z</time></trkpt><trkpt lat="45.3929174" lon="7.9217183"><ele>221.0</ele><time>2026-05-02T15:04:35.198Z</time></trkpt><trkpt lat="45.3928935" lon="7.9213208"><ele>221.0</ele><time>2026-05-02T15:04:36.184Z</time></trkpt><trkpt lat="45.392866" lon="7.9209209"><ele>219.5</ele><time>2026-05-02T15:04:37.185Z</time></trkpt><trkpt lat="45.3928402" lon="7.9205111"><ele>218.0</ele><time>2026-05-02T15:04:38.186Z</time></trkpt><trkpt lat="45.3928129" lon="7.9200974"><ele>219.0</ele><time>2026-05-02T15:04:39.184Z</time></trkpt><trkpt lat="45.3927898" lon="7.9196808"><ele>220.0</ele><time>2026-05-02T15:04:40.188Z</time></trkpt><trkpt lat="45.3927619" lon="7.9192646"><ele>220.5</ele><time>2026-05-02T15:04:41.193Z</time></trkpt><trkpt lat="45.3927339" lon="7.9188494"><ele>221.0</ele><time>2026-05-02T15:04:42.211Z</time></trkpt><trkpt lat="45.3927008" lon="7.9184292"><ele>220.5</ele><time>2026-05-02T15:04:43.189Z</time></trkpt><trkpt lat="45.3926654" lon="7.9180052"><ele>220.0</ele><time>2026-05-02T15:04:44.215Z</time></trkpt><trkpt lat="45.3926276" lon="7.9175806"><ele>219.5</ele><time>2026-05-02T15:04:45.184Z</time></trkpt><trkpt lat="45.3925932" lon="7.9171573"><ele>219.0</ele><time>2026-05-02T15:04:46.18Z</time></trkpt><trkpt lat="45.3925547" lon="7.9167391"><ele>219.0</ele><time>2026-05-02T15:04:47.179Z</time></trkpt><trkpt lat="45.3925053" lon="7.9163187"><ele>219.0</ele><time>2026-05-02T15:04:48.183Z</time></trkpt><trkpt lat="45.3924559" lon="7.9158999"><ele>219.5</ele><time>2026-05-02T15:04:49.189Z</time></trkpt><trkpt lat="45.3923975" lon="7.9154799"><ele>220.0</ele><time>2026-05-02T15:04:50.22Z</time></trkpt><trkpt lat="45.3923356" lon="7.9150596"><ele>220.0</ele><time>2026-05-02T15:04:51.183Z</time></trkpt><trkpt lat="45.3922728" lon="7.9146409"><ele>220.0</ele><time>2026-05-02T15:04:52.182Z</time></trkpt><trkpt lat="45.3922069" lon="7.914229"><ele>220.0</ele><time>2026-05-02T15:04:53.187Z</time></trkpt><trkpt lat="45.3921417" lon="7.913827"><ele>220.0</ele><time>2026-05-02T15:04:54.185Z</time></trkpt><trkpt lat="45.3920821" lon="7.9134565"><ele>220.5</ele><time>2026-05-02T15:04:55.182Z</time></trkpt><trkpt lat="45.3920228" lon="7.9130808"><ele>221.0</ele><time>2026-05-02T15:04:56.187Z</time></trkpt><trkpt lat="45.391964" lon="7.9127097"><ele>221.0</ele><time>2026-05-02T15:04:57.185Z</time></trkpt><trkpt lat="45.3919023" lon="7.9123402"><ele>221.0</ele><time>2026-05-02T15:04:58.211Z</time></trkpt><trkpt lat="45.3918425" lon="7.9119752"><ele>221.0</ele><time>2026-05-02T15:04:59.184Z</time></trkpt><trkpt lat="45.391783" lon="7.9116128"><ele>221.0</ele><time>2026-05-02T15:05:00.188Z</time></trkpt><trkpt lat="45.3917246" lon="7.9112529"><ele>221.0</ele><time>2026-05-02T15:05:01.212Z</time></trkpt><trkpt lat="45.3916667" lon="7.9108934"><ele>221.0</ele><time>2026-05-02T15:05:02.199Z</time></trkpt><trkpt lat="45.391611" lon="7.9105311"><ele>221.0</ele><time>2026-05-02T15:05:03.185Z</time></trkpt><trkpt lat="45.3915524" lon="7.9101637"><ele>221.0</ele><time>2026-05-02T15:05:04.182Z</time></trkpt><trkpt lat="45.3914854" lon="7.9097913"><ele>221.0</ele><time>2026-05-02T15:05:05.18Z</time></trkpt><trkpt lat="45.391423" lon="7.9094182"><ele>221.0</ele><time>2026-05-02T15:05:06.183Z</time></trkpt><trkpt lat="45.391358" lon="7.9090467"><ele>221.0</ele><time>2026-05-02T15:05:07.194Z</time></trkpt><trkpt lat="45.3912922" lon="7.9086785"><ele>221.0</ele><time>2026-05-02T15:05:08.191Z</time></trkpt><trkpt lat="45.3912236" lon="7.908316"><ele>220.5</ele><time>2026-05-02T15:05:09.192Z</time></trkpt><trkpt lat="45.3911477" lon="7.9079664"><ele>220.0</ele><time>2026-05-02T15:05:10.187Z</time></trkpt><trkpt lat="45.3910591" lon="7.9076321"><ele>220.5</ele><time>2026-05-02T15:05:11.188Z</time></trkpt><trkpt lat="45.3909553" lon="7.9073176"><ele>221.0</ele><time>2026-05-02T15:05:12.192Z</time></trkpt><trkpt lat="45.3908387" lon="7.9070215"><ele>221.5</ele><time>2026-05-02T15:05:13.192Z</time></trkpt><trkpt lat="45.3907094" lon="7.906739"><ele>222.0</ele><time>2026-05-02T15:05:14.183Z</time></trkpt><trkpt lat="45.3905689" lon="7.9064735"><ele>221.0</ele><time>2026-05-02T15:05:15.187Z</time></trkpt><trkpt lat="45.3904204" lon="7.9062169"><ele>220.0</ele><time>2026-05-02T15:05:16.197Z</time></trkpt><trkpt lat="45.3902632" lon="7.9059694"><ele>220.5</ele><time>2026-05-02T15:05:17.182Z</time></trkpt><trkpt lat="45.390102" lon="7.90574"><ele>221.0</ele><time>2026-05-02T15:05:18.185Z</time></trkpt><trkpt lat="45.3899308" lon="7.9055162"><ele>221.0</ele><time>2026-05-02T15:05:19.187Z</time></trkpt><trkpt lat="45.3897449" lon="7.9052965"><ele>221.0</ele><time>2026-05-02T15:05:20.186Z</time></trkpt><trkpt lat="45.389548" lon="7.9050894"><ele>221.5</ele><time>2026-05-02T15:05:21.186Z</time></trkpt><trkpt lat="45.3893433" lon="7.904891"><ele>222.0</ele><time>2026-05-02T15:05:22.184Z</time></trkpt><trkpt lat="45.3891272" lon="7.9046973"><ele>222.0</ele><time>2026-05-02T15:05:23.19Z</time></trkpt><trkpt lat="45.3889102" lon="7.9045017"><ele>222.0</ele><time>2026-05-02T15:05:24.189Z</time></trkpt><trkpt lat="45.3886943" lon="7.9042898"><ele>221.5</ele><time>2026-05-02T15:05:25.183Z</time></trkpt><trkpt lat="45.3884773" lon="7.9040734"><ele>221.0</ele><time>2026-05-02T15:05:26.19Z</time></trkpt><trkpt lat="45.3882582" lon="7.9038584"><ele>221.0</ele><time>2026-05-02T15:05:27.194Z</time></trkpt><trkpt lat="45.3880378" lon="7.9036444"><ele>221.0</ele><time>2026-05-02T15:05:28.188Z</time></trkpt><trkpt lat="45.3878166" lon="7.9034236"><ele>221.0</ele><time>2026-05-02T15:05:29.19Z</time></trkpt><trkpt lat="45.3875932" lon="7.903198"><ele>221.0</ele><time>2026-05-02T15:05:30.184Z</time></trkpt><trkpt lat="45.3873614" lon="7.9029618"><ele>221.0</ele><time>2026-05-02T15:05:31.185Z</time></trkpt><trkpt lat="45.387121" lon="7.9027223"><ele>221.0</ele><time>2026-05-02T15:05:32.189Z</time></trkpt><trkpt lat="45.3868718" lon="7.9024772"><ele>221.0</ele><time>2026-05-02T15:05:33.19Z</time></trkpt><trkpt lat="45.3866143" lon="7.9022239"><ele>221.0</ele><time>2026-05-02T15:05:34.181Z</time></trkpt><trkpt lat="45.3863552" lon="7.9019609"><ele>220.5</ele><time>2026-05-02T15:05:35.181Z</time></trkpt><trkpt lat="45.3860937" lon="7.9016907"><ele>220.0</ele><time>2026-05-02T15:05:36.182Z</time></trkpt><trkpt lat="45.3858412" lon="7.9014175"><ele>220.0</ele><time>2026-05-02T15:05:37.195Z</time></trkpt><trkpt lat="45.3855867" lon="7.9011569"><ele>220.0</ele><time>2026-05-02T15:05:38.183Z</time></trkpt><trkpt lat="45.3853401" lon="7.9009057"><ele>221.5</ele><time>2026-05-02T15:05:39.187Z</time></trkpt><trkpt lat="45.3850978" lon="7.900668"><ele>223.0</ele><time>2026-05-02T15:05:40.192Z</time></trkpt><trkpt lat="45.3848644" lon="7.9004379"><ele>223.5</ele><time>2026-05-02T15:05:41.184Z</time></trkpt><trkpt lat="45.3846407" lon="7.9002197"><ele>224.0</ele><time>2026-05-02T15:05:42.188Z</time></trkpt><trkpt lat="45.3844239" lon="7.9000056"><ele>225.0</ele><time>2026-05-02T15:05:43.183Z</time></trkpt><trkpt lat="45.384207" lon="7.899796"><ele>226.0</ele><time>2026-05-02T15:05:44.187Z</time></trkpt><trkpt lat="45.3839957" lon="7.8995892"><ele>226.0</ele><time>2026-05-02T15:05:45.186Z</time></trkpt><trkpt lat="45.3837862" lon="7.8993871"><ele>226.0</ele><time>2026-05-02T15:05:46.215Z</time></trkpt><trkpt lat="45.3835831" lon="7.8991918"><ele>226.66666666666666</ele><time>2026-05-02T15:05:47.186Z</time></trkpt><trkpt lat="45.3833949" lon="7.8990088"><ele>227.33333333333331</ele><time>2026-05-02T15:05:48.185Z</time></trkpt><trkpt lat="45.3832115" lon="7.8988323"><ele>228.0</ele><time>2026-05-02T15:05:49.19Z</time></trkpt><trkpt lat="45.3830436" lon="7.8986613"><ele>227.66666666666669</ele><time>2026-05-02T15:05:50.187Z</time></trkpt><trkpt lat="45.3828774" lon="7.8984889"><ele>227.33333333333334</ele><time>2026-05-02T15:05:51.194Z</time></trkpt><trkpt lat="45.3827066" lon="7.8983186"><ele>227.0</ele><time>2026-05-02T15:05:52.189Z</time></trkpt><trkpt lat="45.3825421" lon="7.8981547"><ele>227.66666666666669</ele><time>2026-05-02T15:05:53.191Z</time></trkpt><trkpt lat="45.3823735" lon="7.8979855"><ele>228.33333333333331</ele><time>2026-05-02T15:05:54.183Z</time></trkpt><trkpt lat="45.382206" lon="7.8978188"><ele>229.0</ele><time>2026-05-02T15:05:55.19Z</time></trkpt><trkpt lat="45.3820391" lon="7.8976512"><ele>230.33333333333331</ele><time>2026-05-02T15:05:56.189Z</time></trkpt><trkpt lat="45.3818813" lon="7.8974862"><ele>231.66666666666669</ele><time>2026-05-02T15:05:57.191Z</time></trkpt><trkpt lat="45.3817223" lon="7.8973241"><ele>233.0</ele><time>2026-05-02T15:05:58.188Z</time></trkpt><trkpt lat="45.3815677" lon="7.8971662"><ele>233.0</ele><time>2026-05-02T15:05:59.186Z</time></trkpt><trkpt lat="45.3814216" lon="7.8970182"><ele>233.0</ele><time>2026-05-02T15:06:00.182Z</time></trkpt><trkpt lat="45.3812844" lon="7.8968764"><ele>233.0</ele><time>2026-05-02T15:06:01.184Z</time></trkpt><trkpt lat="45.3811459" lon="7.8967437"><ele>232.33333333333334</ele><time>2026-05-02T15:06:02.187Z</time></trkpt><trkpt lat="45.3810056" lon="7.8966106"><ele>231.66666666666669</ele><time>2026-05-02T15:06:03.189Z</time></trkpt><trkpt lat="45.3808695" lon="7.8964801"><ele>231.0</ele><time>2026-05-02T15:06:04.185Z</time></trkpt><trkpt lat="45.3807349" lon="7.8963514"><ele>231.0</ele><time>2026-05-02T15:06:05.183Z</time></trkpt><trkpt lat="45.3806005" lon="7.8962234"><ele>231.0</ele><time>2026-05-02T15:06:06.18Z</time></trkpt><trkpt lat="45.3804693" lon="7.8961022"><ele>231.0</ele><time>2026-05-02T15:06:07.177Z</time></trkpt><trkpt lat="45.3803413" lon="7.895979"><ele>231.66666666666669</ele><time>2026-05-02T15:06:08.19Z</time></trkpt><trkpt lat="45.3802155" lon="7.8958565"><ele>232.33333333333334</ele><time>2026-05-02T15:06:09.184Z</time></trkpt><trkpt lat="45.3800917" lon="7.8957355"><ele>233.0</ele><time>2026-05-02T15:06:10.183Z</time></trkpt><trkpt lat="45.3799647" lon="7.8956109"><ele>233.0</ele><time>2026-05-02T15:06:11.189Z</time></trkpt><trkpt lat="45.3798371" lon="7.8954833"><ele>233.0</ele><time>2026-05-02T15:06:12.191Z</time></trkpt><trkpt lat="45.3797097" lon="7.8953504"><ele>233.0</ele><time>2026-05-02T15:06:13.187Z</time></trkpt><trkpt lat="45.3795899" lon="7.8952187"><ele>233.0</ele><time>2026-05-02T15:06:14.186Z</time></trkpt><trkpt lat="45.3794794" lon="7.8950897"><ele>233.0</ele><time>2026-05-02T15:06:15.19Z</time></trkpt><trkpt lat="45.3793806" lon="7.8949642"><ele>233.0</ele><time>2026-05-02T15:06:16.186Z</time></trkpt><trkpt lat="45.3792924" lon="7.8948501"><ele>233.0</ele><time>2026-05-02T15:06:17.184Z</time></trkpt><trkpt lat="45.3792089" lon="7.894737"><ele>233.0</ele><time>2026-05-02T15:06:18.185Z</time></trkpt><trkpt lat="45.37913" lon="7.8946227"><ele>233.0</ele><time>2026-05-02T15:06:19.181Z</time></trkpt><trkpt lat="45.37906" lon="7.8945137"><ele>233.0</ele><time>2026-05-02T15:06:20.195Z</time></trkpt><trkpt lat="45.3790079" lon="7.8944277"><ele>233.0</ele><time>2026-05-02T15:06:21.208Z</time></trkpt><trkpt lat="45.3789637" lon="7.894346"><ele>233.0</ele><time>2026-05-02T15:06:22.181Z</time></trkpt><trkpt lat="45.3789161" lon="7.8942131"><ele>232.8</ele><time>2026-05-02T15:06:24.186Z</time></trkpt><trkpt lat="45.3789042" lon="7.8941187"><ele>232.60000000000002</ele><time>2026-05-02T15:06:27.208Z</time></trkpt><trkpt lat="45.3788632" lon="7.8939935"><ele>232.39999999999998</ele><time>2026-05-02T15:06:35.188Z</time></trkpt><trkpt lat="45.3787788" lon="7.8938118"><ele>232.2</ele><time>2026-05-02T15:06:37.186Z</time></trkpt><trkpt lat="45.3787247" lon="7.893702"><ele>232.0</ele><time>2026-05-02T15:06:38.183Z</time></trkpt><trkpt lat="45.3786723" lon="7.8935828"><ele>232.0</ele><time>2026-05-02T15:06:39.188Z</time></trkpt><trkpt lat="45.3786254" lon="7.8934622"><ele>232.0</ele><time>2026-05-02T15:06:40.189Z</time></trkpt><trkpt lat="45.3785806" lon="7.8933343"><ele>232.0</ele><time>2026-05-02T15:06:41.186Z</time></trkpt><trkpt lat="45.3785305" lon="7.8931975"><ele>232.0</ele><time>2026-05-02T15:06:42.191Z</time></trkpt><trkpt lat="45.3784827" lon="7.8930487"><ele>232.0</ele><time>2026-05-02T15:06:43.185Z</time></trkpt><trkpt lat="45.3784444" lon="7.8929012"><ele>232.5</ele><time>2026-05-02T15:06:44.188Z</time></trkpt><trkpt lat="45.3784092" lon="7.892748"><ele>233.0</ele><time>2026-05-02T15:06:45.194Z</time></trkpt><trkpt lat="45.3783794" lon="7.8925872"><ele>233.5</ele><time>2026-05-02T15:06:46.194Z</time></trkpt><trkpt lat="45.378344" lon="7.8924129"><ele>234.0</ele><time>2026-05-02T15:06:47.193Z</time></trkpt><trkpt lat="45.3783099" lon="7.8922274"><ele>234.0</ele><time>2026-05-02T15:06:48.185Z</time></trkpt><trkpt lat="45.3782787" lon="7.8920294"><ele>234.0</ele><time>2026-05-02T15:06:49.188Z</time></trkpt><trkpt lat="45.3782556" lon="7.8918185"><ele>234.0</ele><time>2026-05-02T15:06:50.197Z</time></trkpt><trkpt lat="45.3782355" lon="7.8916054"><ele>234.0</ele><time>2026-05-02T15:06:51.197Z</time></trkpt><trkpt lat="45.3782324" lon="7.8913827"><ele>233.33333333333331</ele><time>2026-05-02T15:06:52.195Z</time></trkpt><trkpt lat="45.378231" lon="7.8911612"><ele>232.66666666666666</ele><time>2026-05-02T15:06:53.19Z</time></trkpt><trkpt lat="45.3782351" lon="7.8909403"><ele>232.0</ele><time>2026-05-02T15:06:54.211Z</time></trkpt><trkpt lat="45.3782474" lon="7.8907242"><ele>232.0</ele><time>2026-05-02T15:06:55.217Z</time></trkpt><trkpt lat="45.3782679" lon="7.8905175"><ele>232.0</ele><time>2026-05-02T15:06:56.2Z</time></trkpt><trkpt lat="45.3782904" lon="7.8903234"><ele>232.0</ele><time>2026-05-02T15:06:57.193Z</time></trkpt><trkpt lat="45.378315" lon="7.8901432"><ele>232.0</ele><time>2026-05-02T15:06:58.196Z</time></trkpt><trkpt lat="45.3783376" lon="7.8899803"><ele>232.2</ele><time>2026-05-02T15:06:59.196Z</time></trkpt><trkpt lat="45.3783566" lon="7.8898414"><ele>232.39999999999998</ele><time>2026-05-02T15:07:00.201Z</time></trkpt><trkpt lat="45.3783727" lon="7.8897256"><ele>232.60000000000002</ele><time>2026-05-02T15:07:01.187Z</time></trkpt><trkpt lat="45.3783865" lon="7.8896222"><ele>232.8</ele><time>2026-05-02T15:07:02.196Z</time></trkpt><trkpt lat="45.3783986" lon="7.8894977"><ele>233.0</ele><time>2026-05-02T15:07:03.2Z</time></trkpt><trkpt lat="45.3784081" lon="7.8893366"><ele>232.66666666666669</ele><time>2026-05-02T15:07:04.194Z</time></trkpt><trkpt lat="45.3784214" lon="7.8891204"><ele>232.33333333333331</ele><time>2026-05-02T15:07:05.194Z</time></trkpt><trkpt lat="45.3784588" lon="7.8888561"><ele>232.0</ele><time>2026-05-02T15:07:06.19Z</time></trkpt><trkpt lat="45.378499" lon="7.8885771"><ele>231.66666666666666</ele><time>2026-05-02T15:07:07.196Z</time></trkpt><trkpt lat="45.3785358" lon="7.8882665"><ele>231.33333333333331</ele><time>2026-05-02T15:07:08.183Z</time></trkpt><trkpt lat="45.378571" lon="7.8879508"><ele>231.0</ele><time>2026-05-02T15:07:09.206Z</time></trkpt><trkpt lat="45.3786061" lon="7.8876377"><ele>231.66666666666669</ele><time>2026-05-02T15:07:10.211Z</time></trkpt><trkpt lat="45.3786434" lon="7.8873276"><ele>232.33333333333334</ele><time>2026-05-02T15:07:11.217Z</time></trkpt><trkpt lat="45.3786796" lon="7.8870242"><ele>233.0</ele><time>2026-05-02T15:07:12.194Z</time></trkpt><trkpt lat="45.3787174" lon="7.8867274"><ele>233.33333333333334</ele><time>2026-05-02T15:07:13.204Z</time></trkpt><trkpt lat="45.3787542" lon="7.8864433"><ele>233.66666666666669</ele><time>2026-05-02T15:07:14.22Z</time></trkpt><trkpt lat="45.3787847" lon="7.8861737"><ele>234.0</ele><time>2026-05-02T15:07:15.196Z</time></trkpt><trkpt lat="45.378816" lon="7.8859339"><ele>234.33333333333331</ele><time>2026-05-02T15:07:16.193Z</time></trkpt><trkpt lat="45.3788451" lon="7.8857095"><ele>234.66666666666666</ele><time>2026-05-02T15:07:17.197Z</time></trkpt><trkpt lat="45.3788734" lon="7.8855017"><ele>235.0</ele><time>2026-05-02T15:07:18.185Z</time></trkpt><trkpt lat="45.3788973" lon="7.885298"><ele>235.0</ele><time>2026-05-02T15:07:19.221Z</time></trkpt><trkpt lat="45.3789268" lon="7.885107"><ele>235.0</ele><time>2026-05-02T15:07:20.185Z</time></trkpt><trkpt lat="45.3789535" lon="7.8849294"><ele>235.0</ele><time>2026-05-02T15:07:21.192Z</time></trkpt><trkpt lat="45.3789709" lon="7.884767"><ele>235.0</ele><time>2026-05-02T15:07:22.203Z</time></trkpt><trkpt lat="45.3789919" lon="7.8846216"><ele>235.0</ele><time>2026-05-02T15:07:23.194Z</time></trkpt><trkpt lat="45.3790068" lon="7.8844749"><ele>235.0</ele><time>2026-05-02T15:07:24.205Z</time></trkpt><trkpt lat="45.3790253" lon="7.8843274"><ele>235.0</ele><time>2026-05-02T15:07:25.202Z</time></trkpt><trkpt lat="45.3790497" lon="7.8841862"><ele>235.0</ele><time>2026-05-02T15:07:26.204Z</time></trkpt><trkpt lat="45.3790772" lon="7.8840558"><ele>235.0</ele><time>2026-05-02T15:07:27.196Z</time></trkpt><trkpt lat="45.3791067" lon="7.883937"><ele>235.66666666666666</ele><time>2026-05-02T15:07:28.184Z</time></trkpt><trkpt lat="45.3791351" lon="7.8838266"><ele>236.33333333333331</ele><time>2026-05-02T15:07:29.215Z</time></trkpt><trkpt lat="45.3791723" lon="7.8837261"><ele>237.0</ele><time>2026-05-02T15:07:30.216Z</time></trkpt><trkpt lat="45.3792141" lon="7.8836216"><ele>237.66666666666669</ele><time>2026-05-02T15:07:31.198Z</time></trkpt><trkpt lat="45.3792522" lon="7.8835085"><ele>238.33333333333334</ele><time>2026-05-02T15:07:32.192Z</time></trkpt><trkpt lat="45.3792786" lon="7.8833733"><ele>239.0</ele><time>2026-05-02T15:07:33.187Z</time></trkpt><trkpt lat="45.3793085" lon="7.8832212"><ele>239.25</ele><time>2026-05-02T15:07:34.185Z</time></trkpt><trkpt lat="45.379343" lon="7.883044"><ele>239.5</ele><time>2026-05-02T15:07:35.207Z</time></trkpt><trkpt lat="45.3793839" lon="7.8828349"><ele>239.75</ele><time>2026-05-02T15:07:36.196Z</time></trkpt><trkpt lat="45.379438" lon="7.8826151"><ele>240.0</ele><time>2026-05-02T15:07:37.178Z</time></trkpt><trkpt lat="45.3794984" lon="7.8824002"><ele>240.0</ele><time>2026-05-02T15:07:38.254Z</time></trkpt><trkpt lat="45.3795562" lon="7.8821903"><ele>240.0</ele><time>2026-05-02T15:07:39.204Z</time></trkpt><trkpt lat="45.3796096" lon="7.8819936"><ele>240.0</ele><time>2026-05-02T15:07:40.207Z</time></trkpt><trkpt lat="45.3796553" lon="7.8818083"><ele>240.0</ele><time>2026-05-02T15:07:41.191Z</time></trkpt><trkpt lat="45.379696" lon="7.8816277"><ele>240.25</ele><time>2026-05-02T15:07:42.211Z</time></trkpt><trkpt lat="45.3797286" lon="7.881455"><ele>240.5</ele><time>2026-05-02T15:07:43.195Z</time></trkpt><trkpt lat="45.3797575" lon="7.8812905"><ele>240.75</ele><time>2026-05-02T15:07:44.184Z</time></trkpt><trkpt lat="45.3797852" lon="7.8811356"><ele>241.0</ele><time>2026-05-02T15:07:45.197Z</time></trkpt><trkpt lat="45.3798145" lon="7.8809901"><ele>240.8</ele><time>2026-05-02T15:07:46.233Z</time></trkpt><trkpt lat="45.3798441" lon="7.8808547"><ele>240.60000000000002</ele><time>2026-05-02T15:07:47.193Z</time></trkpt><trkpt lat="45.3798766" lon="7.8807275"><ele>240.4</ele><time>2026-05-02T15:07:48.193Z</time></trkpt><trkpt lat="45.3799055" lon="7.8806048"><ele>240.2</ele><time>2026-05-02T15:07:49.217Z</time></trkpt><trkpt lat="45.3799339" lon="7.8804836"><ele>240.0</ele><time>2026-05-02T15:07:50.188Z</time></trkpt><trkpt lat="45.3799659" lon="7.8803566"><ele>240.0</ele><time>2026-05-02T15:07:51.216Z</time></trkpt><trkpt lat="45.3800032" lon="7.8802191"><ele>240.0</ele><time>2026-05-02T15:07:52.198Z</time></trkpt><trkpt lat="45.3800452" lon="7.8800748"><ele>240.0</ele><time>2026-05-02T15:07:53.189Z</time></trkpt><trkpt lat="45.3800863" lon="7.8799281"><ele>240.0</ele><time>2026-05-02T15:07:54.196Z</time></trkpt><trkpt lat="45.3801297" lon="7.8797829"><ele>240.0</ele><time>2026-05-02T15:07:55.191Z</time></trkpt><trkpt lat="45.3801807" lon="7.8796392"><ele>240.4</ele><time>2026-05-02T15:07:56.195Z</time></trkpt><trkpt lat="45.3802311" lon="7.8794963"><ele>240.8</ele><time>2026-05-02T15:07:57.19Z</time></trkpt><trkpt lat="45.3802823" lon="7.8793552"><ele>241.2</ele><time>2026-05-02T15:07:58.188Z</time></trkpt><trkpt lat="45.3803333" lon="7.8792184"><ele>241.6</ele><time>2026-05-02T15:07:59.207Z</time></trkpt><trkpt lat="45.3803873" lon="7.8790797"><ele>242.0</ele><time>2026-05-02T15:08:00.194Z</time></trkpt><trkpt lat="45.3804411" lon="7.8789413"><ele>242.0</ele><time>2026-05-02T15:08:01.198Z</time></trkpt><trkpt lat="45.3804913" lon="7.8788044"><ele>242.0</ele><time>2026-05-02T15:08:02.189Z</time></trkpt><trkpt lat="45.380545" lon="7.878668"><ele>242.0</ele><time>2026-05-02T15:08:03.196Z</time></trkpt><trkpt lat="45.3805987" lon="7.8785355"><ele>242.0</ele><time>2026-05-02T15:08:04.188Z</time></trkpt><trkpt lat="45.3806502" lon="7.8784093"><ele>242.0</ele><time>2026-05-02T15:08:05.185Z</time></trkpt><trkpt lat="45.3806938" lon="7.8782899"><ele>242.16666666666669</ele><time>2026-05-02T15:08:06.189Z</time></trkpt><trkpt lat="45.3807299" lon="7.8781792"><ele>242.33333333333334</ele><time>2026-05-02T15:08:07.191Z</time></trkpt><trkpt lat="45.3807565" lon="7.8780763"><ele>242.5</ele><time>2026-05-02T15:08:08.186Z</time></trkpt><trkpt lat="45.3807845" lon="7.8779814"><ele>242.66666666666669</ele><time>2026-05-02T15:08:09.184Z</time></trkpt><trkpt lat="45.3808165" lon="7.8778998"><ele>242.83333333333334</ele><time>2026-05-02T15:08:10.198Z</time></trkpt><trkpt lat="45.3808533" lon="7.8778177"><ele>243.0</ele><time>2026-05-02T15:08:11.188Z</time></trkpt><trkpt lat="45.3808957" lon="7.8777169"><ele>243.0</ele><time>2026-05-02T15:08:12.194Z</time></trkpt><trkpt lat="45.380946" lon="7.877603"><ele>243.0</ele><time>2026-05-02T15:08:13.193Z</time></trkpt><trkpt lat="45.3810072" lon="7.877449"><ele>243.0</ele><time>2026-05-02T15:08:14.238Z</time></trkpt><trkpt lat="45.3810703" lon="7.87728"><ele>243.0</ele><time>2026-05-02T15:08:15.202Z</time></trkpt><trkpt lat="45.3811351" lon="7.8771144"><ele>243.0</ele><time>2026-05-02T15:08:16.184Z</time></trkpt><trkpt lat="45.3812022" lon="7.8769468"><ele>243.0</ele><time>2026-05-02T15:08:17.191Z</time></trkpt><trkpt lat="45.3812631" lon="7.8767796"><ele>243.0</ele><time>2026-05-02T15:08:18.19Z</time></trkpt><trkpt lat="45.3813256" lon="7.8766131"><ele>243.0</ele><time>2026-05-02T15:08:19.193Z</time></trkpt><trkpt lat="45.3813869" lon="7.8764446"><ele>242.75</ele><time>2026-05-02T15:08:20.189Z</time></trkpt><trkpt lat="45.3814504" lon="7.8762751"><ele>242.5</ele><time>2026-05-02T15:08:21.187Z</time></trkpt><trkpt lat="45.3815133" lon="7.8761136"><ele>242.25</ele><time>2026-05-02T15:08:22.187Z</time></trkpt><trkpt lat="45.3815765" lon="7.8759577"><ele>242.0</ele><time>2026-05-02T15:08:23.194Z</time></trkpt><trkpt lat="45.3816323" lon="7.8758143"><ele>242.39999999999998</ele><time>2026-05-02T15:08:24.196Z</time></trkpt><trkpt lat="45.3816827" lon="7.8756883"><ele>242.79999999999998</ele><time>2026-05-02T15:08:25.191Z</time></trkpt><trkpt lat="45.3817235" lon="7.8755853"><ele>243.2</ele><time>2026-05-02T15:08:26.204Z</time></trkpt><trkpt lat="45.3817679" lon="7.8754588"><ele>243.6</ele><time>2026-05-02T15:08:28.185Z</time></trkpt><trkpt lat="45.3816814" lon="7.8754085"><ele>244.0</ele><time>2026-05-02T15:08:31.209Z</time></trkpt><trkpt lat="45.3815935" lon="7.8754272"><ele>244.0</ele><time>2026-05-02T15:08:33.225Z</time></trkpt><trkpt lat="45.3814715" lon="7.8754554"><ele>243.99999999999997</ele><time>2026-05-02T15:08:35.19Z</time></trkpt><trkpt lat="45.3813946" lon="7.8754565"><ele>243.99999999999997</ele><time>2026-05-02T15:08:36.195Z</time></trkpt><trkpt lat="45.3813305" lon="7.8755166"><ele>244.0</ele><time>2026-05-02T15:08:37.214Z</time></trkpt><trkpt lat="45.3812016" lon="7.8755517"><ele>244.0</ele><time>2026-05-02T15:08:39.195Z</time></trkpt><trkpt lat="45.3811207" lon="7.8755696"><ele>244.0</ele><time>2026-05-02T15:08:40.202Z</time></trkpt><trkpt lat="45.3810402" lon="7.8755854"><ele>243.99999999999997</ele><time>2026-05-02T15:08:41.191Z</time></trkpt><trkpt lat="45.3809572" lon="7.875608"><ele>243.99999999999997</ele><time>2026-05-02T15:08:42.198Z</time></trkpt><trkpt lat="45.3808726" lon="7.8756302"><ele>244.0</ele><time>2026-05-02T15:08:43.23Z</time></trkpt><trkpt lat="45.3807676" lon="7.87565"><ele>244.0</ele><time>2026-05-02T15:08:44.197Z</time></trkpt><trkpt lat="45.3806235" lon="7.8756697"><ele>244.0</ele><time>2026-05-02T15:08:46.189Z</time></trkpt><trkpt lat="45.3805334" lon="7.8756869"><ele>243.99999999999997</ele><time>2026-05-02T15:08:47.196Z</time></trkpt><trkpt lat="45.3804276" lon="7.8757122"><ele>243.99999999999997</ele><time>2026-05-02T15:08:48.197Z</time></trkpt><trkpt lat="45.380329" lon="7.8757281"><ele>244.0</ele><time>2026-05-02T15:08:49.194Z</time></trkpt><trkpt lat="45.3802184" lon="7.8757378"><ele>244.0</ele><time>2026-05-02T15:08:50.196Z</time></trkpt><trkpt lat="45.3801033" lon="7.8757483"><ele>243.25</ele><time>2026-05-02T15:08:51.2Z</time></trkpt><trkpt lat="45.3799924" lon="7.8757451"><ele>242.5</ele><time>2026-05-02T15:08:52.199Z</time></trkpt><trkpt lat="45.3798769" lon="7.8757594"><ele>241.75</ele><time>2026-05-02T15:08:53.194Z</time></trkpt><trkpt lat="45.3797649" lon="7.8757727"><ele>241.0</ele><time>2026-05-02T15:08:54.194Z</time></trkpt><trkpt lat="45.3796427" lon="7.8757997"><ele>240.20000000000002</ele><time>2026-05-02T15:08:55.193Z</time></trkpt><trkpt lat="45.3795326" lon="7.8758202"><ele>239.40000000000003</ele><time>2026-05-02T15:08:56.195Z</time></trkpt><trkpt lat="45.3794063" lon="7.8758163"><ele>238.6</ele><time>2026-05-02T15:08:57.187Z</time></trkpt><trkpt lat="45.3793055" lon="7.8758025"><ele>237.8</ele><time>2026-05-02T15:08:58.195Z</time></trkpt><trkpt lat="45.3792041" lon="7.8758139"><ele>237.0</ele><time>2026-05-02T15:08:59.201Z</time></trkpt><trkpt lat="45.3791024" lon="7.8758144"><ele>237.0</ele><time>2026-05-02T15:09:00.199Z</time></trkpt><trkpt lat="45.3789757" lon="7.8758203"><ele>237.0</ele><time>2026-05-02T15:09:01.195Z</time></trkpt><trkpt lat="45.3788683" lon="7.875821"><ele>237.0</ele><time>2026-05-02T15:09:02.192Z</time></trkpt><trkpt lat="45.3787681" lon="7.8758154"><ele>237.0</ele><time>2026-05-02T15:09:03.19Z</time></trkpt><trkpt lat="45.3786413" lon="7.8758168"><ele>237.5</ele><time>2026-05-02T15:09:04.192Z</time></trkpt><trkpt lat="45.3785269" lon="7.875824"><ele>238.0</ele><time>2026-05-02T15:09:05.2Z</time></trkpt><trkpt lat="45.378408" lon="7.8758375"><ele>238.5</ele><time>2026-05-02T15:09:06.203Z</time></trkpt><trkpt lat="45.378279" lon="7.8758573"><ele>239.0</ele><time>2026-05-02T15:09:07.199Z</time></trkpt><trkpt lat="45.3781684" lon="7.8758803"><ele>239.0</ele><time>2026-05-02T15:09:08.189Z</time></trkpt><trkpt lat="45.3780504" lon="7.8759002"><ele>239.0</ele><time>2026-05-02T15:09:09.197Z</time></trkpt><trkpt lat="45.3779258" lon="7.8759149"><ele>239.0</ele><time>2026-05-02T15:09:10.199Z</time></trkpt><trkpt lat="45.377794" lon="7.8759298"><ele>239.0</ele><time>2026-05-02T15:09:11.193Z</time></trkpt><trkpt lat="45.3776794" lon="7.8759314"><ele>239.0</ele><time>2026-05-02T15:09:12.228Z</time></trkpt><trkpt lat="45.3775704" lon="7.8759327"><ele>238.99999999999997</ele><time>2026-05-02T15:09:13.196Z</time></trkpt><trkpt lat="45.3774467" lon="7.8759364"><ele>238.99999999999997</ele><time>2026-05-02T15:09:14.195Z</time></trkpt><trkpt lat="45.3773393" lon="7.8759459"><ele>239.0</ele><time>2026-05-02T15:09:15.196Z</time></trkpt><trkpt lat="45.3772311" lon="7.8759541"><ele>239.0</ele><time>2026-05-02T15:09:16.198Z</time></trkpt><trkpt lat="45.3771313" lon="7.8759592"><ele>239.39999999999998</ele><time>2026-05-02T15:09:17.198Z</time></trkpt><trkpt lat="45.3770256" lon="7.8759659"><ele>239.79999999999998</ele><time>2026-05-02T15:09:18.202Z</time></trkpt><trkpt lat="45.3769368" lon="7.8759764"><ele>240.20000000000002</ele><time>2026-05-02T15:09:19.195Z</time></trkpt><trkpt lat="45.3768044" lon="7.8760415"><ele>240.60000000000002</ele><time>2026-05-02T15:09:21.201Z</time></trkpt><trkpt lat="45.3767275" lon="7.8760733"><ele>241.0</ele><time>2026-05-02T15:09:22.204Z</time></trkpt><trkpt lat="45.3766516" lon="7.8760835"><ele>240.99999999999997</ele><time>2026-05-02T15:09:23.19Z</time></trkpt><trkpt lat="45.376553" lon="7.87609"><ele>241.0</ele><time>2026-05-02T15:09:24.195Z</time></trkpt><trkpt lat="45.3764744" lon="7.8760166"><ele>241.0</ele><time>2026-05-02T15:09:25.191Z</time></trkpt><trkpt lat="45.3763985" lon="7.8760114"><ele>241.0</ele><time>2026-05-02T15:09:26.194Z</time></trkpt><trkpt lat="45.3763237" lon="7.8760079"><ele>240.99999999999997</ele><time>2026-05-02T15:09:27.188Z</time></trkpt><trkpt lat="45.3762501" lon="7.8760207"><ele>241.0</ele><time>2026-05-02T15:09:28.185Z</time></trkpt><trkpt lat="45.3761719" lon="7.8760302"><ele>241.16666666666666</ele><time>2026-05-02T15:09:29.184Z</time></trkpt><trkpt lat="45.376087" lon="7.8760389"><ele>241.33333333333331</ele><time>2026-05-02T15:09:30.193Z</time></trkpt><trkpt lat="45.3760048" lon="7.8760485"><ele>241.5</ele><time>2026-05-02T15:09:31.188Z</time></trkpt><trkpt lat="45.3759094" lon="7.8760571"><ele>241.66666666666669</ele><time>2026-05-02T15:09:32.19Z</time></trkpt><trkpt lat="45.3758177" lon="7.8760698"><ele>241.83333333333334</ele><time>2026-05-02T15:09:33.19Z</time></trkpt><trkpt lat="45.3757298" lon="7.8760793"><ele>242.0</ele><time>2026-05-02T15:09:34.187Z</time></trkpt><trkpt lat="45.3756514" lon="7.8760888"><ele>242.00000000000003</ele><time>2026-05-02T15:09:35.19Z</time></trkpt><trkpt lat="45.3755771" lon="7.876094"><ele>242.0</ele><time>2026-05-02T15:09:36.181Z</time></trkpt><trkpt lat="45.3754982" lon="7.8760908"><ele>242.0</ele><time>2026-05-02T15:09:37.219Z</time></trkpt><trkpt lat="45.375417" lon="7.8760905"><ele>242.0</ele><time>2026-05-02T15:09:38.186Z</time></trkpt><trkpt lat="45.3753349" lon="7.8760982"><ele>242.00000000000003</ele><time>2026-05-02T15:09:39.188Z</time></trkpt><trkpt lat="45.3752589" lon="7.8761067"><ele>242.0</ele><time>2026-05-02T15:09:40.186Z</time></trkpt><trkpt lat="45.3751807" lon="7.8761059"><ele>241.2</ele><time>2026-05-02T15:09:41.18Z</time></trkpt><trkpt lat="45.3750645" lon="7.8760999"><ele>240.39999999999998</ele><time>2026-05-02T15:09:43.192Z</time></trkpt><trkpt lat="45.3749896" lon="7.8760918"><ele>239.60000000000002</ele><time>2026-05-02T15:09:45.19Z</time></trkpt><trkpt lat="45.3749334" lon="7.8759755"><ele>238.8</ele><time>2026-05-02T15:09:48.188Z</time></trkpt><trkpt lat="45.3749236" lon="7.8758144"><ele>238.0</ele><time>2026-05-02T15:09:50.186Z</time></trkpt><trkpt lat="45.3749124" lon="7.8756373"><ele>237.99999999999997</ele><time>2026-05-02T15:09:52.185Z</time></trkpt><trkpt lat="45.3748999" lon="7.8755364"><ele>238.0</ele><time>2026-05-02T15:09:53.191Z</time></trkpt><trkpt lat="45.3748857" lon="7.8754317"><ele>238.0</ele><time>2026-05-02T15:09:54.183Z</time></trkpt><trkpt lat="45.3748693" lon="7.8753235"><ele>238.0</ele><time>2026-05-02T15:09:55.193Z</time></trkpt><trkpt lat="45.3748493" lon="7.8752135"><ele>237.99999999999997</ele><time>2026-05-02T15:09:56.19Z</time></trkpt><trkpt lat="45.3748294" lon="7.8750993"><ele>238.0</ele><time>2026-05-02T15:09:57.189Z</time></trkpt><trkpt lat="45.3748119" lon="7.8749844"><ele>238.16666666666666</ele><time>2026-05-02T15:09:58.181Z</time></trkpt><trkpt lat="45.3747946" lon="7.8748719"><ele>238.33333333333331</ele><time>2026-05-02T15:09:59.191Z</time></trkpt><trkpt lat="45.3747792" lon="7.874771"><ele>238.5</ele><time>2026-05-02T15:10:00.183Z</time></trkpt><trkpt lat="45.3747637" lon="7.8746744"><ele>238.66666666666669</ele><time>2026-05-02T15:10:01.179Z</time></trkpt><trkpt lat="45.3747503" lon="7.8745842"><ele>238.83333333333334</ele><time>2026-05-02T15:10:02.189Z</time></trkpt><trkpt lat="45.3747398" lon="7.8744938"><ele>239.0</ele><time>2026-05-02T15:10:03.195Z</time></trkpt><trkpt lat="45.3747247" lon="7.874316"><ele>239.00000000000003</ele><time>2026-05-02T15:10:05.184Z</time></trkpt><trkpt lat="45.3747191" lon="7.8742206"><ele>239.0</ele><time>2026-05-02T15:10:06.188Z</time></trkpt><trkpt lat="45.3747123" lon="7.8741215"><ele>239.00000000000003</ele><time>2026-05-02T15:10:07.222Z</time></trkpt><trkpt lat="45.3747068" lon="7.8740208"><ele>239.00000000000003</ele><time>2026-05-02T15:10:08.194Z</time></trkpt><trkpt lat="45.3747057" lon="7.8739194"><ele>239.0</ele><time>2026-05-02T15:10:09.189Z</time></trkpt><trkpt lat="45.3747016" lon="7.8738088"><ele>239.00000000000003</ele><time>2026-05-02T15:10:10.195Z</time></trkpt><trkpt lat="45.3746967" lon="7.8736989"><ele>239.00000000000003</ele><time>2026-05-02T15:10:11.185Z</time></trkpt><trkpt lat="45.3746922" lon="7.8735907"><ele>239.00000000000003</ele><time>2026-05-02T15:10:12.189Z</time></trkpt><trkpt lat="45.3746912" lon="7.8734865"><ele>239.0</ele><time>2026-05-02T15:10:13.187Z</time></trkpt><trkpt lat="45.3746888" lon="7.8733778"><ele>239.0</ele><time>2026-05-02T15:10:14.184Z</time></trkpt><trkpt lat="45.3746841" lon="7.8732638"><ele>239.0</ele><time>2026-05-02T15:10:15.186Z</time></trkpt><trkpt lat="45.3746801" lon="7.873146"><ele>239.00000000000003</ele><time>2026-05-02T15:10:16.199Z</time></trkpt><trkpt lat="45.374676" lon="7.8730242"><ele>239.0</ele><time>2026-05-02T15:10:17.192Z</time></trkpt><trkpt lat="45.3746727" lon="7.8728992"><ele>239.16666666666669</ele><time>2026-05-02T15:10:18.183Z</time></trkpt><trkpt lat="45.374672" lon="7.8727757"><ele>239.33333333333334</ele><time>2026-05-02T15:10:19.189Z</time></trkpt><trkpt lat="45.3746679" lon="7.8726623"><ele>239.5</ele><time>2026-05-02T15:10:20.188Z</time></trkpt><trkpt lat="45.3746658" lon="7.8725516"><ele>239.66666666666669</ele><time>2026-05-02T15:10:21.186Z</time></trkpt><trkpt lat="45.3746603" lon="7.8724374"><ele>239.83333333333334</ele><time>2026-05-02T15:10:22.187Z</time></trkpt><trkpt lat="45.374653" lon="7.8723226"><ele>240.0</ele><time>2026-05-02T15:10:23.197Z</time></trkpt><trkpt lat="45.3746461" lon="7.8722071"><ele>240.16666666666666</ele><time>2026-05-02T15:10:24.19Z</time></trkpt><trkpt lat="45.3746397" lon="7.8720917"><ele>240.33333333333331</ele><time>2026-05-02T15:10:25.188Z</time></trkpt><trkpt lat="45.374635" lon="7.8719842"><ele>240.5</ele><time>2026-05-02T15:10:26.194Z</time></trkpt><trkpt lat="45.3746315" lon="7.8718815"><ele>240.66666666666666</ele><time>2026-05-02T15:10:27.186Z</time></trkpt><trkpt lat="45.3746244" lon="7.8717741"><ele>240.83333333333331</ele><time>2026-05-02T15:10:28.194Z</time></trkpt><trkpt lat="45.3746196" lon="7.8716659"><ele>241.0</ele><time>2026-05-02T15:10:29.185Z</time></trkpt><trkpt lat="45.3746148" lon="7.871552"><ele>240.99999999999997</ele><time>2026-05-02T15:10:30.188Z</time></trkpt><trkpt lat="45.3746092" lon="7.8714392"><ele>241.0</ele><time>2026-05-02T15:10:31.192Z</time></trkpt><trkpt lat="45.3746047" lon="7.871325"><ele>241.0</ele><time>2026-05-02T15:10:32.183Z</time></trkpt><trkpt lat="45.3746002" lon="7.8712043"><ele>241.0</ele><time>2026-05-02T15:10:33.192Z</time></trkpt><trkpt lat="45.3745936" lon="7.8710843"><ele>240.99999999999997</ele><time>2026-05-02T15:10:34.187Z</time></trkpt><trkpt lat="45.3745872" lon="7.870971"><ele>241.0</ele><time>2026-05-02T15:10:35.184Z</time></trkpt><trkpt lat="45.3745814" lon="7.8708648"><ele>240.49999999999997</ele><time>2026-05-02T15:10:36.187Z</time></trkpt><trkpt lat="45.3745748" lon="7.8707566"><ele>240.0</ele><time>2026-05-02T15:10:37.185Z</time></trkpt><trkpt lat="45.3745674" lon="7.8706416"><ele>239.5</ele><time>2026-05-02T15:10:38.193Z</time></trkpt><trkpt lat="45.3745619" lon="7.8705244"><ele>239.0</ele><time>2026-05-02T15:10:39.187Z</time></trkpt><trkpt lat="45.3745569" lon="7.8704062"><ele>238.49999999999997</ele><time>2026-05-02T15:10:40.187Z</time></trkpt><trkpt lat="45.3745526" lon="7.8702893"><ele>238.0</ele><time>2026-05-02T15:10:41.187Z</time></trkpt><trkpt lat="45.3745477" lon="7.8701773"><ele>238.16666666666666</ele><time>2026-05-02T15:10:42.182Z</time></trkpt><trkpt lat="45.3745422" lon="7.8700698"><ele>238.33333333333331</ele><time>2026-05-02T15:10:43.192Z</time></trkpt><trkpt lat="45.3745378" lon="7.8699617"><ele>238.5</ele><time>2026-05-02T15:10:44.183Z</time></trkpt><trkpt lat="45.3745339" lon="7.8698535"><ele>238.66666666666669</ele><time>2026-05-02T15:10:45.177Z</time></trkpt><trkpt lat="45.3745305" lon="7.8697467"><ele>238.83333333333334</ele><time>2026-05-02T15:10:46.216Z</time></trkpt><trkpt lat="45.3745239" lon="7.8696426"><ele>239.0</ele><time>2026-05-02T15:10:47.185Z</time></trkpt><trkpt lat="45.3745121" lon="7.8695358"><ele>239.00000000000003</ele><time>2026-05-02T15:10:48.185Z</time></trkpt><trkpt lat="45.3744996" lon="7.8694262"><ele>239.0</ele><time>2026-05-02T15:10:49.191Z</time></trkpt><trkpt lat="45.3744866" lon="7.8693156"><ele>239.0</ele><time>2026-05-02T15:10:50.186Z</time></trkpt><trkpt lat="45.3744716" lon="7.8692061"><ele>239.0</ele><time>2026-05-02T15:10:51.2Z</time></trkpt><trkpt lat="45.3744584" lon="7.8690978"><ele>239.00000000000003</ele><time>2026-05-02T15:10:52.19Z</time></trkpt><trkpt lat="45.3744489" lon="7.8689888"><ele>239.0</ele><time>2026-05-02T15:10:53.184Z</time></trkpt><trkpt lat="45.3744426" lon="7.8688755"><ele>239.33333333333334</ele><time>2026-05-02T15:10:54.184Z</time></trkpt><trkpt lat="45.3744358" lon="7.8687605"><ele>239.66666666666669</ele><time>2026-05-02T15:10:55.182Z</time></trkpt><trkpt lat="45.374425" lon="7.8686415"><ele>240.0</ele><time>2026-05-02T15:10:56.183Z</time></trkpt><trkpt lat="45.3744129" lon="7.8685242"><ele>240.33333333333331</ele><time>2026-05-02T15:10:57.185Z</time></trkpt><trkpt lat="45.3744061" lon="7.8684074"><ele>240.66666666666666</ele><time>2026-05-02T15:10:58.193Z</time></trkpt><trkpt lat="45.3744043" lon="7.8682874"><ele>241.0</ele><time>2026-05-02T15:10:59.189Z</time></trkpt><trkpt lat="45.3744019" lon="7.8681678"><ele>240.99999999999997</ele><time>2026-05-02T15:11:00.189Z</time></trkpt><trkpt lat="45.3743987" lon="7.8680516"><ele>241.0</ele><time>2026-05-02T15:11:01.188Z</time></trkpt><trkpt lat="45.374394" lon="7.8679403"><ele>241.0</ele><time>2026-05-02T15:11:02.214Z</time></trkpt><trkpt lat="45.374391" lon="7.8678382"><ele>241.0</ele><time>2026-05-02T15:11:03.219Z</time></trkpt><trkpt lat="45.3743879" lon="7.8677391"><ele>240.99999999999997</ele><time>2026-05-02T15:11:04.192Z</time></trkpt><trkpt lat="45.3743858" lon="7.867648"><ele>241.0</ele><time>2026-05-02T15:11:05.189Z</time></trkpt><trkpt lat="45.3743754" lon="7.8675042"><ele>240.8</ele><time>2026-05-02T15:11:07.179Z</time></trkpt><trkpt lat="45.3743518" lon="7.8674207"><ele>240.60000000000002</ele><time>2026-05-02T15:11:10.185Z</time></trkpt><trkpt lat="45.3742935" lon="7.8674571"><ele>240.4</ele><time>2026-05-02T15:11:16.197Z</time></trkpt><trkpt lat="45.3741918" lon="7.8675159"><ele>240.2</ele><time>2026-05-02T15:11:18.218Z</time></trkpt><trkpt lat="45.3740706" lon="7.8675365"><ele>240.0</ele><time>2026-05-02T15:11:20.192Z</time></trkpt><trkpt lat="45.3739408" lon="7.8675426"><ele>240.0</ele><time>2026-05-02T15:11:22.188Z</time></trkpt><trkpt lat="45.3738736" lon="7.8675482"><ele>240.0</ele><time>2026-05-02T15:11:23.187Z</time></trkpt><trkpt lat="45.3738074" lon="7.8675688"><ele>240.0</ele><time>2026-05-02T15:11:24.188Z</time></trkpt><trkpt lat="45.3737329" lon="7.8675868"><ele>240.0</ele><time>2026-05-02T15:11:25.185Z</time></trkpt><trkpt lat="45.3736496" lon="7.8676042"><ele>240.0</ele><time>2026-05-02T15:11:26.22Z</time></trkpt><trkpt lat="45.3735664" lon="7.867625"><ele>240.0</ele><time>2026-05-02T15:11:27.215Z</time></trkpt><trkpt lat="45.3734759" lon="7.8676492"><ele>240.0</ele><time>2026-05-02T15:11:28.191Z</time></trkpt><trkpt lat="45.3733859" lon="7.8676742"><ele>240.0</ele><time>2026-05-02T15:11:29.18Z</time></trkpt><trkpt lat="45.3733001" lon="7.8676985"><ele>240.0</ele><time>2026-05-02T15:11:30.186Z</time></trkpt><trkpt lat="45.3732202" lon="7.8677179"><ele>240.0</ele><time>2026-05-02T15:11:31.186Z</time></trkpt><trkpt lat="45.3731454" lon="7.8677337"><ele>240.0</ele><time>2026-05-02T15:11:32.196Z</time></trkpt><trkpt lat="45.3730381" lon="7.86774"><ele>240.0</ele><time>2026-05-02T15:11:34.194Z</time></trkpt><trkpt lat="45.3729459" lon="7.8676601"><ele>239.83333333333334</ele><time>2026-05-02T15:11:37.19Z</time></trkpt><trkpt lat="45.372866" lon="7.8676012"><ele>239.66666666666669</ele><time>2026-05-02T15:11:39.183Z</time></trkpt><trkpt lat="45.3727561" lon="7.8676324"><ele>239.5</ele><time>2026-05-02T15:11:41.181Z</time></trkpt><trkpt lat="45.3726961" lon="7.8676629"><ele>239.33333333333334</ele><time>2026-05-02T15:11:42.184Z</time></trkpt><trkpt lat="45.3726284" lon="7.8676922"><ele>239.16666666666669</ele><time>2026-05-02T15:11:43.182Z</time></trkpt><trkpt lat="45.3725642" lon="7.8677232"><ele>239.0</ele><time>2026-05-02T15:11:44.189Z</time></trkpt><trkpt lat="45.3724558" lon="7.8677617"><ele>239.00000000000003</ele><time>2026-05-02T15:11:46.184Z</time></trkpt><trkpt lat="45.372372" lon="7.8677819"><ele>239.0</ele><time>2026-05-02T15:11:49.179Z</time></trkpt><trkpt lat="45.3722983" lon="7.8677798"><ele>239.0</ele><time>2026-05-02T15:11:51.213Z</time></trkpt><trkpt lat="45.3722442" lon="7.8677039"><ele>239.0</ele><time>2026-05-02T15:11:53.193Z</time></trkpt><trkpt lat="45.3722098" lon="7.8675536"><ele>239.00000000000003</ele><time>2026-05-02T15:11:55.195Z</time></trkpt><trkpt lat="45.3721692" lon="7.8674201"><ele>239.0</ele><time>2026-05-02T15:11:57.186Z</time></trkpt><trkpt lat="45.3720773" lon="7.8673508"><ele>239.16666666666669</ele><time>2026-05-02T15:11:59.19Z</time></trkpt><trkpt lat="45.3720126" lon="7.8673456"><ele>239.33333333333334</ele><time>2026-05-02T15:12:00.186Z</time></trkpt><trkpt lat="45.3719333" lon="7.867362"><ele>239.5</ele><time>2026-05-02T15:12:01.182Z</time></trkpt><trkpt lat="45.3718442" lon="7.8673819"><ele>239.66666666666669</ele><time>2026-05-02T15:12:02.184Z</time></trkpt><trkpt lat="45.3717489" lon="7.8674052"><ele>239.83333333333334</ele><time>2026-05-02T15:12:03.189Z</time></trkpt><trkpt lat="45.3716485" lon="7.8674232"><ele>240.0</ele><time>2026-05-02T15:12:04.196Z</time></trkpt><trkpt lat="45.3715439" lon="7.8674431"><ele>240.0</ele><time>2026-05-02T15:12:05.19Z</time></trkpt><trkpt lat="45.3714417" lon="7.8674628"><ele>240.0</ele><time>2026-05-02T15:12:06.192Z</time></trkpt><trkpt lat="45.3713448" lon="7.8674792"><ele>240.0</ele><time>2026-05-02T15:12:07.189Z</time></trkpt><trkpt lat="45.3712627" lon="7.867494"><ele>240.0</ele><time>2026-05-02T15:12:08.184Z</time></trkpt><trkpt lat="45.37119" lon="7.867504"><ele>240.0</ele><time>2026-05-02T15:12:09.181Z</time></trkpt><trkpt lat="45.3711237" lon="7.86752"><ele>240.0</ele><time>2026-05-02T15:12:10.185Z</time></trkpt><trkpt lat="45.3710598" lon="7.8675495"><ele>240.0</ele><time>2026-05-02T15:12:11.193Z</time></trkpt><trkpt lat="45.3709723" lon="7.8675918"><ele>240.0</ele><time>2026-05-02T15:12:12.196Z</time></trkpt><trkpt lat="45.3708756" lon="7.8676401"><ele>240.0</ele><time>2026-05-02T15:12:13.211Z</time></trkpt><trkpt lat="45.370766" lon="7.8676884"><ele>240.0</ele><time>2026-05-02T15:12:14.193Z</time></trkpt><trkpt lat="45.3706491" lon="7.867733"><ele>240.0</ele><time>2026-05-02T15:12:15.188Z</time></trkpt><trkpt lat="45.370524" lon="7.8677756"><ele>240.0</ele><time>2026-05-02T15:12:16.187Z</time></trkpt><trkpt lat="45.3704116" lon="7.8678098"><ele>240.0</ele><time>2026-05-02T15:12:17.212Z</time></trkpt><trkpt lat="45.3703038" lon="7.8678348"><ele>240.0</ele><time>2026-05-02T15:12:18.19Z</time></trkpt><trkpt lat="45.3702089" lon="7.8678473"><ele>240.0</ele><time>2026-05-02T15:12:19.188Z</time></trkpt><trkpt lat="45.3701161" lon="7.8678528"><ele>240.0</ele><time>2026-05-02T15:12:20.182Z</time></trkpt><trkpt lat="45.3700293" lon="7.8678512"><ele>240.0</ele><time>2026-05-02T15:12:21.181Z</time></trkpt><trkpt lat="45.3699421" lon="7.8678443"><ele>240.0</ele><time>2026-05-02T15:12:22.185Z</time></trkpt><trkpt lat="45.369854" lon="7.8678415"><ele>240.0</ele><time>2026-05-02T15:12:23.188Z</time></trkpt><trkpt lat="45.3697627" lon="7.8678328"><ele>240.0</ele><time>2026-05-02T15:12:24.189Z</time></trkpt><trkpt lat="45.3696649" lon="7.8678236"><ele>240.0</ele><time>2026-05-02T15:12:25.189Z</time></trkpt><trkpt lat="45.3695634" lon="7.8678232"><ele>240.0</ele><time>2026-05-02T15:12:26.187Z</time></trkpt><trkpt lat="45.369462" lon="7.8678194"><ele>240.0</ele><time>2026-05-02T15:12:27.189Z</time></trkpt><trkpt lat="45.3693727" lon="7.8678195"><ele>240.0</ele><time>2026-05-02T15:12:28.192Z</time></trkpt><trkpt lat="45.3692931" lon="7.8678196"><ele>240.0</ele><time>2026-05-02T15:12:29.195Z</time></trkpt><trkpt lat="45.369217" lon="7.8678195"><ele>240.0</ele><time>2026-05-02T15:12:30.189Z</time></trkpt><trkpt lat="45.3691518" lon="7.8678186"><ele>240.0</ele><time>2026-05-02T15:12:31.189Z</time></trkpt><trkpt lat="45.3690689" lon="7.8678185"><ele>240.0</ele><time>2026-05-02T15:12:33.182Z</time></trkpt><trkpt lat="45.3690338" lon="7.8679109"><ele>240.0</ele><time>2026-05-02T15:12:36.189Z</time></trkpt><trkpt lat="45.3690179" lon="7.8680474"><ele>240.0</ele><time>2026-05-02T15:12:38.179Z</time></trkpt><trkpt lat="45.3689982" lon="7.868233"><ele>240.0</ele><time>2026-05-02T15:12:40.19Z</time></trkpt><trkpt lat="45.3689771" lon="7.8683467"><ele>240.0</ele><time>2026-05-02T15:12:41.185Z</time></trkpt><trkpt lat="45.3689251" lon="7.8684754"><ele>239.25</ele><time>2026-05-02T15:12:42.193Z</time></trkpt><trkpt lat="45.3688434" lon="7.8686073"><ele>238.5</ele><time>2026-05-02T15:12:43.19Z</time></trkpt><trkpt lat="45.3687678" lon="7.8687341"><ele>237.75</ele><time>2026-05-02T15:12:44.189Z</time></trkpt><trkpt lat="45.3686902" lon="7.868851"><ele>237.0</ele><time>2026-05-02T15:12:45.191Z</time></trkpt><trkpt lat="45.368623" lon="7.8689658"><ele>237.0</ele><time>2026-05-02T15:12:46.191Z</time></trkpt><trkpt lat="45.3685627" lon="7.8690885"><ele>237.0</ele><time>2026-05-02T15:12:47.193Z</time></trkpt><trkpt lat="45.3684977" lon="7.8692114"><ele>237.0</ele><time>2026-05-02T15:12:48.196Z</time></trkpt><trkpt lat="45.368424" lon="7.8693233"><ele>237.0</ele><time>2026-05-02T15:12:49.186Z</time></trkpt><trkpt lat="45.3683469" lon="7.8694295"><ele>237.0</ele><time>2026-05-02T15:12:50.183Z</time></trkpt><trkpt lat="45.3682696" lon="7.8695174"><ele>237.0</ele><time>2026-05-02T15:12:51.183Z</time></trkpt><trkpt lat="45.3681862" lon="7.8696003"><ele>237.0</ele><time>2026-05-02T15:12:52.178Z</time></trkpt><trkpt lat="45.3680787" lon="7.8696771"><ele>237.0</ele><time>2026-05-02T15:12:53.193Z</time></trkpt><trkpt lat="45.3679634" lon="7.8697547"><ele>237.0</ele><time>2026-05-02T15:12:54.192Z</time></trkpt><trkpt lat="45.3678551" lon="7.8698237"><ele>237.2</ele><time>2026-05-02T15:12:55.184Z</time></trkpt><trkpt lat="45.3677485" lon="7.8698828"><ele>237.39999999999998</ele><time>2026-05-02T15:12:56.213Z</time></trkpt><trkpt lat="45.3676485" lon="7.8699363"><ele>237.60000000000002</ele><time>2026-05-02T15:12:57.183Z</time></trkpt><trkpt lat="45.3675551" lon="7.869983"><ele>237.8</ele><time>2026-05-02T15:12:58.189Z</time></trkpt><trkpt lat="45.3674621" lon="7.8700211"><ele>238.0</ele><time>2026-05-02T15:12:59.186Z</time></trkpt><trkpt lat="45.3673677" lon="7.8700498"><ele>238.0</ele><time>2026-05-02T15:13:00.182Z</time></trkpt><trkpt lat="45.3672757" lon="7.8700804"><ele>238.0</ele><time>2026-05-02T15:13:01.186Z</time></trkpt><trkpt lat="45.3671796" lon="7.8701115"><ele>238.0</ele><time>2026-05-02T15:13:02.21Z</time></trkpt><trkpt lat="45.3670823" lon="7.8701505"><ele>238.0</ele><time>2026-05-02T15:13:03.186Z</time></trkpt><trkpt lat="45.3669843" lon="7.8702037"><ele>238.0</ele><time>2026-05-02T15:13:04.188Z</time></trkpt><trkpt lat="45.3668811" lon="7.8702657"><ele>238.2</ele><time>2026-05-02T15:13:05.207Z</time></trkpt><trkpt lat="45.3667827" lon="7.8703379"><ele>238.4</ele><time>2026-05-02T15:13:06.193Z</time></trkpt><trkpt lat="45.3666948" lon="7.8704176"><ele>238.59999999999997</ele><time>2026-05-02T15:13:07.189Z</time></trkpt><trkpt lat="45.3666236" lon="7.8704928"><ele>238.79999999999998</ele><time>2026-05-02T15:13:08.186Z</time></trkpt><trkpt lat="45.3665609" lon="7.8705712"><ele>239.0</ele><time>2026-05-02T15:13:09.183Z</time></trkpt><trkpt lat="45.3665086" lon="7.8706492"><ele>239.00000000000003</ele><time>2026-05-02T15:13:10.202Z</time></trkpt><trkpt lat="45.3664607" lon="7.8707335"><ele>239.0</ele><time>2026-05-02T15:13:11.185Z</time></trkpt><trkpt lat="45.3664064" lon="7.8708109"><ele>239.0</ele><time>2026-05-02T15:13:12.18Z</time></trkpt><trkpt lat="45.3663476" lon="7.8708915"><ele>239.0</ele><time>2026-05-02T15:13:13.178Z</time></trkpt><trkpt lat="45.3662761" lon="7.8709534"><ele>239.00000000000003</ele><time>2026-05-02T15:13:14.186Z</time></trkpt><trkpt lat="45.366199" lon="7.8710137"><ele>239.0</ele><time>2026-05-02T15:13:15.184Z</time></trkpt><trkpt lat="45.3661078" lon="7.8710712"><ele>238.5</ele><time>2026-05-02T15:13:16.186Z</time></trkpt><trkpt lat="45.3659922" lon="7.8711338"><ele>238.0</ele><time>2026-05-02T15:13:17.182Z</time></trkpt><trkpt lat="45.3658779" lon="7.8712019"><ele>237.5</ele><time>2026-05-02T15:13:18.18Z</time></trkpt><trkpt lat="45.3657873" lon="7.8712745"><ele>237.0</ele><time>2026-05-02T15:13:19.18Z</time></trkpt><trkpt lat="45.3657009" lon="7.8713507"><ele>237.0</ele><time>2026-05-02T15:13:20.185Z</time></trkpt><trkpt lat="45.3656381" lon="7.8714294"><ele>237.0</ele><time>2026-05-02T15:13:21.187Z</time></trkpt><trkpt lat="45.3655989" lon="7.8715237"><ele>237.0</ele><time>2026-05-02T15:13:22.186Z</time></trkpt><trkpt lat="45.3655827" lon="7.8716326"><ele>237.0</ele><time>2026-05-02T15:13:23.185Z</time></trkpt><trkpt lat="45.3655769" lon="7.871779"><ele>237.0</ele><time>2026-05-02T15:13:24.192Z</time></trkpt><trkpt lat="45.3655674" lon="7.8719308"><ele>237.0</ele><time>2026-05-02T15:13:25.186Z</time></trkpt><trkpt lat="45.3655514" lon="7.8720952"><ele>237.0</ele><time>2026-05-02T15:13:26.185Z</time></trkpt><trkpt lat="45.365536" lon="7.8722675"><ele>237.0</ele><time>2026-05-02T15:13:27.186Z</time></trkpt><trkpt lat="45.3655188" lon="7.8724563"><ele>237.0</ele><time>2026-05-02T15:13:28.194Z</time></trkpt><trkpt lat="45.3654972" lon="7.8726517"><ele>237.0</ele><time>2026-05-02T15:13:29.194Z</time></trkpt><trkpt lat="45.365473" lon="7.8728488"><ele>237.0</ele><time>2026-05-02T15:13:30.192Z</time></trkpt><trkpt lat="45.3654458" lon="7.8730407"><ele>237.0</ele><time>2026-05-02T15:13:31.188Z</time></trkpt><trkpt lat="45.3654209" lon="7.8732244"><ele>237.0</ele><time>2026-05-02T15:13:32.189Z</time></trkpt><trkpt lat="45.3653943" lon="7.8733959"><ele>237.0</ele><time>2026-05-02T15:13:33.199Z</time></trkpt><trkpt lat="45.3653662" lon="7.8735598"><ele>237.0</ele><time>2026-05-02T15:13:34.183Z</time></trkpt><trkpt lat="45.3653267" lon="7.8737207"><ele>237.0</ele><time>2026-05-02T15:13:35.184Z</time></trkpt><trkpt lat="45.3652846" lon="7.8738806"><ele>237.0</ele><time>2026-05-02T15:13:36.184Z</time></trkpt><trkpt lat="45.3652343" lon="7.8740327"><ele>237.0</ele><time>2026-05-02T15:13:37.183Z</time></trkpt><trkpt lat="45.3651718" lon="7.8741886"><ele>237.0</ele><time>2026-05-02T15:13:38.185Z</time></trkpt><trkpt lat="45.3651053" lon="7.8743379"><ele>237.0</ele><time>2026-05-02T15:13:39.179Z</time></trkpt><trkpt lat="45.3650405" lon="7.8744764"><ele>237.0</ele><time>2026-05-02T15:13:40.187Z</time></trkpt><trkpt lat="45.3649804" lon="7.8745969"><ele>237.0</ele><time>2026-05-02T15:13:41.194Z</time></trkpt><trkpt lat="45.3649154" lon="7.8747113"><ele>237.0</ele><time>2026-05-02T15:13:42.193Z</time></trkpt><trkpt lat="45.3648492" lon="7.8748216"><ele>237.0</ele><time>2026-05-02T15:13:43.183Z</time></trkpt><trkpt lat="45.3647875" lon="7.874929"><ele>237.0</ele><time>2026-05-02T15:13:44.189Z</time></trkpt><trkpt lat="45.364724" lon="7.8750374"><ele>237.0</ele><time>2026-05-02T15:13:45.219Z</time></trkpt><trkpt lat="45.3646569" lon="7.8751511"><ele>237.0</ele><time>2026-05-02T15:13:46.193Z</time></trkpt><trkpt lat="45.3645828" lon="7.875279"><ele>237.0</ele><time>2026-05-02T15:13:47.186Z</time></trkpt><trkpt lat="45.3645049" lon="7.8754133"><ele>237.0</ele><time>2026-05-02T15:13:48.188Z</time></trkpt><trkpt lat="45.3644242" lon="7.8755516"><ele>237.0</ele><time>2026-05-02T15:13:49.187Z</time></trkpt><trkpt lat="45.3643483" lon="7.8756739"><ele>237.0</ele><time>2026-05-02T15:13:50.192Z</time></trkpt><trkpt lat="45.3642742" lon="7.8757905"><ele>237.0</ele><time>2026-05-02T15:13:51.19Z</time></trkpt><trkpt lat="45.3641982" lon="7.8759014"><ele>237.0</ele><time>2026-05-02T15:13:52.188Z</time></trkpt><trkpt lat="45.3641205" lon="7.8760126"><ele>237.0</ele><time>2026-05-02T15:13:53.217Z</time></trkpt><trkpt lat="45.3640401" lon="7.876121"><ele>237.0</ele><time>2026-05-02T15:13:54.197Z</time></trkpt><trkpt lat="45.3639618" lon="7.8762216"><ele>237.0</ele><time>2026-05-02T15:13:55.181Z</time></trkpt><trkpt lat="45.3638856" lon="7.876323"><ele>237.0</ele><time>2026-05-02T15:13:56.182Z</time></trkpt><trkpt lat="45.3638088" lon="7.8764364"><ele>236.75</ele><time>2026-05-02T15:13:57.188Z</time></trkpt><trkpt lat="45.3637352" lon="7.8765805"><ele>236.5</ele><time>2026-05-02T15:13:58.202Z</time></trkpt><trkpt lat="45.3636645" lon="7.8767598"><ele>236.25</ele><time>2026-05-02T15:13:59.196Z</time></trkpt><trkpt lat="45.3635954" lon="7.8769575"><ele>236.0</ele><time>2026-05-02T15:14:00.182Z</time></trkpt><trkpt lat="45.3635321" lon="7.8771539"><ele>236.0</ele><time>2026-05-02T15:14:01.181Z</time></trkpt><trkpt lat="45.3634752" lon="7.877339"><ele>236.0</ele><time>2026-05-02T15:14:02.179Z</time></trkpt><trkpt lat="45.3634233" lon="7.8775107"><ele>236.0</ele><time>2026-05-02T15:14:03.198Z</time></trkpt><trkpt lat="45.3633783" lon="7.8776602"><ele>236.0</ele><time>2026-05-02T15:14:04.197Z</time></trkpt><trkpt lat="45.3633368" lon="7.8777969"><ele>236.16666666666669</ele><time>2026-05-02T15:14:05.181Z</time></trkpt><trkpt lat="45.3633016" lon="7.8779179"><ele>236.33333333333334</ele><time>2026-05-02T15:14:06.191Z</time></trkpt><trkpt lat="45.36328" lon="7.8780058"><ele>236.5</ele><time>2026-05-02T15:14:07.194Z</time></trkpt><trkpt lat="45.3632555" lon="7.8781148"><ele>236.66666666666669</ele><time>2026-05-02T15:14:09.183Z</time></trkpt><trkpt lat="45.3631958" lon="7.8781936"><ele>236.83333333333334</ele><time>2026-05-02T15:14:29.183Z</time></trkpt><trkpt lat="45.3631311" lon="7.8782763"><ele>237.0</ele><time>2026-05-02T15:14:30.186Z</time></trkpt><trkpt lat="45.3630371" lon="7.8783903"><ele>236.25</ele><time>2026-05-02T15:14:31.192Z</time></trkpt><trkpt lat="45.3629205" lon="7.8784966"><ele>235.5</ele><time>2026-05-02T15:14:32.187Z</time></trkpt><trkpt lat="45.3628021" lon="7.8786137"><ele>234.75</ele><time>2026-05-02T15:14:33.189Z</time></trkpt><trkpt lat="45.3626805" lon="7.8787397"><ele>234.0</ele><time>2026-05-02T15:14:34.188Z</time></trkpt><trkpt lat="45.3625647" lon="7.8788605"><ele>234.0</ele><time>2026-05-02T15:14:35.202Z</time></trkpt><trkpt lat="45.3624543" lon="7.8789739"><ele>234.0</ele><time>2026-05-02T15:14:36.192Z</time></trkpt><trkpt lat="45.3623527" lon="7.8790852"><ele>234.0</ele><time>2026-05-02T15:14:37.186Z</time></trkpt><trkpt lat="45.3622599" lon="7.8791826"><ele>234.0</ele><time>2026-05-02T15:14:38.198Z</time></trkpt><trkpt lat="45.3621807" lon="7.8792646"><ele>234.33333333333334</ele><time>2026-05-02T15:14:39.199Z</time></trkpt><trkpt lat="45.362113" lon="7.8793361"><ele>234.66666666666669</ele><time>2026-05-02T15:14:40.189Z</time></trkpt><trkpt lat="45.3620509" lon="7.8794038"><ele>235.0</ele><time>2026-05-02T15:14:41.187Z</time></trkpt><trkpt lat="45.3619824" lon="7.8794746"><ele>235.33333333333334</ele><time>2026-05-02T15:14:42.188Z</time></trkpt><trkpt lat="45.361911" lon="7.8795474"><ele>235.66666666666669</ele><time>2026-05-02T15:14:43.196Z</time></trkpt><trkpt lat="45.361839" lon="7.8796179"><ele>236.0</ele><time>2026-05-02T15:14:44.203Z</time></trkpt><trkpt lat="45.3617725" lon="7.8796788"><ele>236.00000000000003</ele><time>2026-05-02T15:14:45.195Z</time></trkpt><trkpt lat="45.3617138" lon="7.8797385"><ele>236.0</ele><time>2026-05-02T15:14:46.189Z</time></trkpt><trkpt lat="45.3616559" lon="7.8797984"><ele>236.0</ele><time>2026-05-02T15:14:47.193Z</time></trkpt><trkpt lat="45.3615905" lon="7.8798678"><ele>236.0</ele><time>2026-05-02T15:14:48.187Z</time></trkpt><trkpt lat="45.3615155" lon="7.8799454"><ele>236.00000000000003</ele><time>2026-05-02T15:14:49.182Z</time></trkpt><trkpt lat="45.3614311" lon="7.8800235"><ele>236.0</ele><time>2026-05-02T15:14:50.221Z</time></trkpt><trkpt lat="45.36134" lon="7.8801042"><ele>236.60000000000002</ele><time>2026-05-02T15:14:51.187Z</time></trkpt><trkpt lat="45.3612396" lon="7.8801877"><ele>237.20000000000002</ele><time>2026-05-02T15:14:52.207Z</time></trkpt><trkpt lat="45.3611393" lon="7.8802672"><ele>237.79999999999998</ele><time>2026-05-02T15:14:53.186Z</time></trkpt><trkpt lat="45.3610511" lon="7.8803464"><ele>238.39999999999998</ele><time>2026-05-02T15:14:54.188Z</time></trkpt><trkpt lat="45.3609774" lon="7.8804208"><ele>239.0</ele><time>2026-05-02T15:14:55.204Z</time></trkpt><trkpt lat="45.3609163" lon="7.8804766"><ele>239.0</ele><time>2026-05-02T15:14:56.195Z</time></trkpt><trkpt lat="45.3608286" lon="7.8805118"><ele>238.99999999999997</ele><time>2026-05-02T15:14:58.19Z</time></trkpt><trkpt lat="45.360741" lon="7.8804707"><ele>238.99999999999997</ele><time>2026-05-02T15:15:00.185Z</time></trkpt><trkpt lat="45.3606243" lon="7.8803963"><ele>239.0</ele><time>2026-05-02T15:15:02.194Z</time></trkpt><trkpt lat="45.3605536" lon="7.8803393"><ele>239.0</ele><time>2026-05-02T15:15:03.203Z</time></trkpt><trkpt lat="45.3604823" lon="7.8802733"><ele>240.75</ele><time>2026-05-02T15:15:04.197Z</time></trkpt><trkpt lat="45.3604059" lon="7.8801823"><ele>242.5</ele><time>2026-05-02T15:15:05.192Z</time></trkpt><trkpt lat="45.3603246" lon="7.8800719"><ele>244.25</ele><time>2026-05-02T15:15:06.198Z</time></trkpt><trkpt lat="45.3602384" lon="7.8799382"><ele>246.0</ele><time>2026-05-02T15:15:07.187Z</time></trkpt><trkpt lat="45.3601412" lon="7.8797787"><ele>246.0</ele><time>2026-05-02T15:15:08.196Z</time></trkpt><trkpt lat="45.360039" lon="7.8795947"><ele>246.0</ele><time>2026-05-02T15:15:09.197Z</time></trkpt><trkpt lat="45.3599352" lon="7.8794193"><ele>246.0</ele><time>2026-05-02T15:15:10.188Z</time></trkpt><trkpt lat="45.3598349" lon="7.8792507"><ele>246.0</ele><time>2026-05-02T15:15:11.196Z</time></trkpt><trkpt lat="45.3597399" lon="7.8791022"><ele>246.0</ele><time>2026-05-02T15:15:12.196Z</time></trkpt><trkpt lat="45.3596542" lon="7.8789742"><ele>246.0</ele><time>2026-05-02T15:15:13.233Z</time></trkpt><trkpt lat="45.3595726" lon="7.8788626"><ele>246.0</ele><time>2026-05-02T15:15:14.193Z</time></trkpt><trkpt lat="45.3595012" lon="7.8787536"><ele>247.25</ele><time>2026-05-02T15:15:15.194Z</time></trkpt><trkpt lat="45.359444" lon="7.8786428"><ele>248.5</ele><time>2026-05-02T15:15:16.189Z</time></trkpt><trkpt lat="45.3593969" lon="7.8785124"><ele>249.75</ele><time>2026-05-02T15:15:17.222Z</time></trkpt><trkpt lat="45.3594079" lon="7.8783559"><ele>251.0</ele><time>2026-05-02T15:15:18.189Z</time></trkpt><trkpt lat="45.3593643" lon="7.8781616"><ele>251.0</ele><time>2026-05-02T15:15:19.184Z</time></trkpt><trkpt lat="45.359323" lon="7.877972"><ele>251.0</ele><time>2026-05-02T15:15:20.191Z</time></trkpt><trkpt lat="45.3592623" lon="7.8777785"><ele>251.0</ele><time>2026-05-02T15:15:21.187Z</time></trkpt><trkpt lat="45.3591876" lon="7.8775936"><ele>251.0</ele><time>2026-05-02T15:15:22.209Z</time></trkpt><trkpt lat="45.3591063" lon="7.877432"><ele>251.0</ele><time>2026-05-02T15:15:23.193Z</time></trkpt><trkpt lat="45.3590299" lon="7.8772868"><ele>251.0</ele><time>2026-05-02T15:15:24.195Z</time></trkpt><trkpt lat="45.3589684" lon="7.8771509"><ele>251.0</ele><time>2026-05-02T15:15:25.181Z</time></trkpt><trkpt lat="45.3589191" lon="7.8770088"><ele>251.0</ele><time>2026-05-02T15:15:26.187Z</time></trkpt><trkpt lat="45.3588998" lon="7.8768604"><ele>251.60000000000002</ele><time>2026-05-02T15:15:27.219Z</time></trkpt><trkpt lat="45.3588801" lon="7.8767005"><ele>252.20000000000002</ele><time>2026-05-02T15:15:28.191Z</time></trkpt><trkpt lat="45.3588764" lon="7.8765354"><ele>252.79999999999998</ele><time>2026-05-02T15:15:29.214Z</time></trkpt><trkpt lat="45.3588715" lon="7.8763856"><ele>253.39999999999998</ele><time>2026-05-02T15:15:30.202Z</time></trkpt><trkpt lat="45.3588674" lon="7.8762665"><ele>254.0</ele><time>2026-05-02T15:15:31.194Z</time></trkpt><trkpt lat="45.3588679" lon="7.8761653"><ele>254.0</ele><time>2026-05-02T15:15:32.223Z</time></trkpt><trkpt lat="45.3588296" lon="7.8760461"><ele>253.99999999999997</ele><time>2026-05-02T15:15:34.207Z</time></trkpt><trkpt lat="45.3587014" lon="7.8760344"><ele>253.99999999999997</ele><time>2026-05-02T15:15:36.187Z</time></trkpt><trkpt lat="45.3585985" lon="7.8760369"><ele>254.0</ele><time>2026-05-02T15:15:37.197Z</time></trkpt><trkpt lat="45.3584754" lon="7.8760315"><ele>254.0</ele><time>2026-05-02T15:15:38.185Z</time></trkpt><trkpt lat="45.358328" lon="7.8760263"><ele>254.0</ele><time>2026-05-02T15:15:39.232Z</time></trkpt><trkpt lat="45.3581668" lon="7.876018"><ele>254.0</ele><time>2026-05-02T15:15:40.197Z</time></trkpt><trkpt lat="45.3579991" lon="7.8760016"><ele>254.0</ele><time>2026-05-02T15:15:41.194Z</time></trkpt><trkpt lat="45.3578312" lon="7.8759809"><ele>254.0</ele><time>2026-05-02T15:15:42.195Z</time></trkpt><trkpt lat="45.3576753" lon="7.8759698"><ele>254.0</ele><time>2026-05-02T15:15:43.185Z</time></trkpt><trkpt lat="45.357534" lon="7.8759589"><ele>254.0</ele><time>2026-05-02T15:15:44.192Z</time></trkpt><trkpt lat="45.3574008" lon="7.8759496"><ele>254.0</ele><time>2026-05-02T15:15:45.188Z</time></trkpt><trkpt lat="45.357283" lon="7.8759453"><ele>254.66666666666669</ele><time>2026-05-02T15:15:46.19Z</time></trkpt><trkpt lat="45.3571825" lon="7.8759419"><ele>255.33333333333334</ele><time>2026-05-02T15:15:47.193Z</time></trkpt><trkpt lat="45.357109" lon="7.8759325"><ele>256.0</ele><time>2026-05-02T15:15:48.202Z</time></trkpt><trkpt lat="45.3570333" lon="7.8759019"><ele>256.6666666666667</ele><time>2026-05-02T15:15:50.191Z</time></trkpt><trkpt lat="45.3570266" lon="7.8758083"><ele>257.3333333333333</ele><time>2026-05-02T15:15:52.191Z</time></trkpt><trkpt lat="45.357025" lon="7.8757055"><ele>258.0</ele><time>2026-05-02T15:15:53.19Z</time></trkpt><trkpt lat="45.3570183" lon="7.8755541"><ele>259.25</ele><time>2026-05-02T15:15:54.203Z</time></trkpt><trkpt lat="45.3570063" lon="7.8753774"><ele>260.5</ele><time>2026-05-02T15:15:55.206Z</time></trkpt><trkpt lat="45.3569861" lon="7.8751857"><ele>261.75</ele><time>2026-05-02T15:15:56.204Z</time></trkpt><trkpt lat="45.3569541" lon="7.8749728"><ele>263.0</ele><time>2026-05-02T15:15:57.204Z</time></trkpt><trkpt lat="45.356924" lon="7.8747664"><ele>263.33333333333337</ele><time>2026-05-02T15:15:58.194Z</time></trkpt><trkpt lat="45.3568898" lon="7.8745579"><ele>263.6666666666667</ele><time>2026-05-02T15:15:59.193Z</time></trkpt><trkpt lat="45.3568393" lon="7.8743468"><ele>264.0</ele><time>2026-05-02T15:16:00.196Z</time></trkpt><trkpt lat="45.3567737" lon="7.874136"><ele>264.0</ele><time>2026-05-02T15:16:01.192Z</time></trkpt><trkpt lat="45.3567065" lon="7.8739322"><ele>264.0</ele><time>2026-05-02T15:16:02.198Z</time></trkpt><trkpt lat="45.3566417" lon="7.8737329"><ele>264.0</ele><time>2026-05-02T15:16:03.196Z</time></trkpt><trkpt lat="45.3565929" lon="7.8735196"><ele>264.0</ele><time>2026-05-02T15:16:04.192Z</time></trkpt><trkpt lat="45.3565632" lon="7.8733115"><ele>264.0</ele><time>2026-05-02T15:16:05.184Z</time></trkpt><trkpt lat="45.3565677" lon="7.8730707"><ele>264.0</ele><time>2026-05-02T15:16:06.197Z</time></trkpt><trkpt lat="45.3566015" lon="7.8727966"><ele>264.6666666666667</ele><time>2026-05-02T15:16:07.22Z</time></trkpt><trkpt lat="45.3566302" lon="7.8725201"><ele>265.33333333333337</ele><time>2026-05-02T15:16:08.187Z</time></trkpt><trkpt lat="45.3566505" lon="7.8722546"><ele>266.0</ele><time>2026-05-02T15:16:09.185Z</time></trkpt><trkpt lat="45.3566632" lon="7.8720078"><ele>266.0</ele><time>2026-05-02T15:16:10.225Z</time></trkpt><trkpt lat="45.3566781" lon="7.8717882"><ele>266.0</ele><time>2026-05-02T15:16:11.205Z</time></trkpt><trkpt lat="45.3566783" lon="7.8715898"><ele>266.0</ele><time>2026-05-02T15:16:12.193Z</time></trkpt><trkpt lat="45.3566689" lon="7.8714022"><ele>266.0</ele><time>2026-05-02T15:16:13.196Z</time></trkpt><trkpt lat="45.3566415" lon="7.8712218"><ele>266.0</ele><time>2026-05-02T15:16:14.219Z</time></trkpt><trkpt lat="45.3566046" lon="7.8710403"><ele>266.0</ele><time>2026-05-02T15:16:15.186Z</time></trkpt><trkpt lat="45.3565553" lon="7.8708539"><ele>266.0</ele><time>2026-05-02T15:16:16.181Z</time></trkpt><trkpt lat="45.3565006" lon="7.8706735"><ele>266.0</ele><time>2026-05-02T15:16:17.195Z</time></trkpt><trkpt lat="45.3564498" lon="7.870497"><ele>266.0</ele><time>2026-05-02T15:16:18.188Z</time></trkpt><trkpt lat="45.356406" lon="7.8703363"><ele>266.0</ele><time>2026-05-02T15:16:19.192Z</time></trkpt><trkpt lat="45.3563631" lon="7.8701991"><ele>266.0</ele><time>2026-05-02T15:16:20.205Z</time></trkpt><trkpt lat="45.3563311" lon="7.870098"><ele>266.0</ele><time>2026-05-02T15:16:21.183Z</time></trkpt><trkpt lat="45.3562674" lon="7.8699799"><ele>266.0</ele><time>2026-05-02T15:16:23.189Z</time></trkpt><trkpt lat="45.3561823" lon="7.8699471"><ele>266.0</ele><time>2026-05-02T15:16:25.222Z</time></trkpt><trkpt lat="45.3560941" lon="7.8699503"><ele>266.0</ele><time>2026-05-02T15:16:27.205Z</time></trkpt><trkpt lat="45.3559908" lon="7.8699437"><ele>266.0</ele><time>2026-05-02T15:16:29.193Z</time></trkpt><trkpt lat="45.3558599" lon="7.8699746"><ele>266.0</ele><time>2026-05-02T15:16:31.187Z</time></trkpt><trkpt lat="45.355769" lon="7.8699841"><ele>266.0</ele><time>2026-05-02T15:16:32.192Z</time></trkpt><trkpt lat="45.3556763" lon="7.8699959"><ele>266.0</ele><time>2026-05-02T15:16:33.199Z</time></trkpt><trkpt lat="45.3555864" lon="7.8700218"><ele>266.0</ele><time>2026-05-02T15:16:34.186Z</time></trkpt><trkpt lat="45.3554982" lon="7.8700341"><ele>266.0</ele><time>2026-05-02T15:16:35.198Z</time></trkpt><trkpt lat="45.3554225" lon="7.8700378"><ele>266.0</ele><time>2026-05-02T15:16:36.206Z</time></trkpt><trkpt lat="45.3553076" lon="7.8700218"><ele>266.0</ele><time>2026-05-02T15:16:38.189Z</time></trkpt><trkpt lat="45.3552241" lon="7.8700055"><ele>265.8</ele><time>2026-05-02T15:16:40.181Z</time></trkpt><trkpt lat="45.35515" lon="7.8700961"><ele>265.6</ele><time>2026-05-02T15:16:42.205Z</time></trkpt><trkpt lat="45.3551132" lon="7.8701836"><ele>265.4</ele><time>2026-05-02T15:16:43.202Z</time></trkpt><trkpt lat="45.3550481" lon="7.8702885"><ele>265.2</ele><time>2026-05-02T15:16:44.188Z</time></trkpt><trkpt lat="45.3549769" lon="7.8704064"><ele>265.0</ele><time>2026-05-02T15:16:45.223Z</time></trkpt><trkpt lat="45.3549137" lon="7.8705198"><ele>264.8333333333333</ele><time>2026-05-02T15:16:46.194Z</time></trkpt><trkpt lat="45.3548534" lon="7.8706154"><ele>264.66666666666663</ele><time>2026-05-02T15:16:47.2Z</time></trkpt><trkpt lat="45.3547999" lon="7.8707003"><ele>264.5</ele><time>2026-05-02T15:16:48.211Z</time></trkpt><trkpt lat="45.3547529" lon="7.8707883"><ele>264.3333333333333</ele><time>2026-05-02T15:16:49.195Z</time></trkpt><trkpt lat="45.3547104" lon="7.8708702"><ele>264.1666666666667</ele><time>2026-05-02T15:16:50.217Z</time></trkpt><trkpt lat="45.3546717" lon="7.8709547"><ele>264.0</ele><time>2026-05-02T15:16:51.192Z</time></trkpt><trkpt lat="45.3546373" lon="7.8710407"><ele>264.0</ele><time>2026-05-02T15:16:52.193Z</time></trkpt><trkpt lat="45.3546137" lon="7.8711403"><ele>264.0</ele><time>2026-05-02T15:16:53.195Z</time></trkpt><trkpt lat="45.3545971" lon="7.8712456"><ele>264.0</ele><time>2026-05-02T15:16:54.196Z</time></trkpt><trkpt lat="45.3545836" lon="7.8713616"><ele>264.0</ele><time>2026-05-02T15:16:55.2Z</time></trkpt><trkpt lat="45.3545777" lon="7.8714913"><ele>264.0</ele><time>2026-05-02T15:16:56.206Z</time></trkpt><trkpt lat="45.3545672" lon="7.8716174"><ele>264.0</ele><time>2026-05-02T15:16:57.213Z</time></trkpt><trkpt lat="45.3545573" lon="7.8717454"><ele>264.0</ele><time>2026-05-02T15:16:58.198Z</time></trkpt><trkpt lat="45.3545423" lon="7.8718788"><ele>264.0</ele><time>2026-05-02T15:16:59.198Z</time></trkpt><trkpt lat="45.3545246" lon="7.8720141"><ele>264.0</ele><time>2026-05-02T15:17:00.192Z</time></trkpt><trkpt lat="45.3545093" lon="7.8721441"><ele>264.0</ele><time>2026-05-02T15:17:01.191Z</time></trkpt><trkpt lat="45.3544951" lon="7.8722734"><ele>264.0</ele><time>2026-05-02T15:17:02.204Z</time></trkpt><trkpt lat="45.3544793" lon="7.8724069"><ele>264.0</ele><time>2026-05-02T15:17:03.191Z</time></trkpt><trkpt lat="45.3544692" lon="7.8725417"><ele>264.0</ele><time>2026-05-02T15:17:04.19Z</time></trkpt><trkpt lat="45.3544592" lon="7.8726851"><ele>264.0</ele><time>2026-05-02T15:17:05.194Z</time></trkpt><trkpt lat="45.3544516" lon="7.8728277"><ele>264.0</ele><time>2026-05-02T15:17:06.203Z</time></trkpt><trkpt lat="45.3544534" lon="7.8729746"><ele>264.0</ele><time>2026-05-02T15:17:07.194Z</time></trkpt><trkpt lat="45.3544566" lon="7.8731157"><ele>264.0</ele><time>2026-05-02T15:17:08.199Z</time></trkpt><trkpt lat="45.3544633" lon="7.8732524"><ele>264.0</ele><time>2026-05-02T15:17:09.193Z</time></trkpt><trkpt lat="45.3544757" lon="7.8733812"><ele>264.0</ele><time>2026-05-02T15:17:10.218Z</time></trkpt><trkpt lat="45.3544986" lon="7.8734962"><ele>264.0</ele><time>2026-05-02T15:17:11.211Z</time></trkpt><trkpt lat="45.3545311" lon="7.8735946"><ele>264.0</ele><time>2026-05-02T15:17:12.194Z</time></trkpt><trkpt lat="45.3545779" lon="7.8736745"><ele>264.0</ele><time>2026-05-02T15:17:13.198Z</time></trkpt><trkpt lat="45.3546361" lon="7.8737421"><ele>263.85714285714283</ele><time>2026-05-02T15:17:14.193Z</time></trkpt><trkpt lat="45.3547137" lon="7.8738042"><ele>263.7142857142857</ele><time>2026-05-02T15:17:15.188Z</time></trkpt><trkpt lat="45.3547955" lon="7.8738541"><ele>263.57142857142856</ele><time>2026-05-02T15:17:16.186Z</time></trkpt><trkpt lat="45.3548531" lon="7.8738979"><ele>263.42857142857144</ele><time>2026-05-02T15:17:17.195Z</time></trkpt><trkpt lat="45.3549069" lon="7.8739556"><ele>263.2857142857143</ele><time>2026-05-02T15:17:18.189Z</time></trkpt><trkpt lat="45.3549412" lon="7.8740313"><ele>263.1428571428571</ele><time>2026-05-02T15:17:19.181Z</time></trkpt><trkpt lat="45.3549598" lon="7.8741328"><ele>263.0</ele><time>2026-05-02T15:17:20.19Z</time></trkpt><trkpt lat="45.354957" lon="7.8742538"><ele>262.83333333333337</ele><time>2026-05-02T15:17:21.186Z</time></trkpt><trkpt lat="45.3549357" lon="7.8743786"><ele>262.6666666666667</ele><time>2026-05-02T15:17:22.207Z</time></trkpt><trkpt lat="45.3549042" lon="7.8744974"><ele>262.5</ele><time>2026-05-02T15:17:23.202Z</time></trkpt><trkpt lat="45.3548798" lon="7.8746065"><ele>262.3333333333333</ele><time>2026-05-02T15:17:24.211Z</time></trkpt><trkpt lat="45.3548605" lon="7.8747183"><ele>262.16666666666663</ele><time>2026-05-02T15:17:25.197Z</time></trkpt><trkpt lat="45.3548546" lon="7.8748283"><ele>262.0</ele><time>2026-05-02T15:17:26.192Z</time></trkpt><trkpt lat="45.3548549" lon="7.8749439"><ele>262.0</ele><time>2026-05-02T15:17:27.189Z</time></trkpt><trkpt lat="45.3548601" lon="7.8750737"><ele>262.0</ele><time>2026-05-02T15:17:28.2Z</time></trkpt><trkpt lat="45.354866" lon="7.8752039"><ele>262.0</ele><time>2026-05-02T15:17:29.189Z</time></trkpt><trkpt lat="45.3548748" lon="7.8753434"><ele>262.0</ele><time>2026-05-02T15:17:30.208Z</time></trkpt><trkpt lat="45.3548846" lon="7.8754844"><ele>262.0</ele><time>2026-05-02T15:17:31.203Z</time></trkpt><trkpt lat="45.3548975" lon="7.8756159"><ele>261.8333333333333</ele><time>2026-05-02T15:17:32.189Z</time></trkpt><trkpt lat="45.3549123" lon="7.875736"><ele>261.66666666666663</ele><time>2026-05-02T15:17:33.188Z</time></trkpt><trkpt lat="45.3549313" lon="7.8758445"><ele>261.5</ele><time>2026-05-02T15:17:34.179Z</time></trkpt><trkpt lat="45.354949" lon="7.8759552"><ele>261.3333333333333</ele><time>2026-05-02T15:17:35.192Z</time></trkpt><trkpt lat="45.3549703" lon="7.8760687"><ele>261.1666666666667</ele><time>2026-05-02T15:17:36.189Z</time></trkpt><trkpt lat="45.3549933" lon="7.8761824"><ele>261.0</ele><time>2026-05-02T15:17:37.187Z</time></trkpt><trkpt lat="45.3550163" lon="7.8762861"><ele>260.6666666666667</ele><time>2026-05-02T15:17:38.203Z</time></trkpt><trkpt lat="45.3550342" lon="7.8763814"><ele>260.3333333333333</ele><time>2026-05-02T15:17:39.209Z</time></trkpt><trkpt lat="45.3550563" lon="7.8765387"><ele>260.0</ele><time>2026-05-02T15:17:41.217Z</time></trkpt><trkpt lat="45.3550632" lon="7.8766484"><ele>259.66666666666663</ele><time>2026-05-02T15:17:43.217Z</time></trkpt><trkpt lat="45.3550028" lon="7.876715"><ele>259.3333333333333</ele><time>2026-05-02T15:17:47.204Z</time></trkpt><trkpt lat="45.3549172" lon="7.87665"><ele>259.0</ele><time>2026-05-02T15:17:50.196Z</time></trkpt><trkpt lat="45.3548406" lon="7.8766622"><ele>259.0</ele><time>2026-05-02T15:17:51.207Z</time></trkpt><trkpt lat="45.3547632" lon="7.8766675"><ele>259.0</ele><time>2026-05-02T15:17:52.234Z</time></trkpt><trkpt lat="45.3546743" lon="7.8766674"><ele>259.0</ele><time>2026-05-02T15:17:53.203Z</time></trkpt><trkpt lat="45.3545853" lon="7.87666"><ele>259.0</ele><time>2026-05-02T15:17:54.195Z</time></trkpt><trkpt lat="45.3545127" lon="7.8766845"><ele>259.0</ele><time>2026-05-02T15:17:55.192Z</time></trkpt><trkpt lat="45.3544342" lon="7.876705"><ele>259.0</ele><time>2026-05-02T15:17:56.193Z</time></trkpt><trkpt lat="45.3543559" lon="7.8767447"><ele>258.8333333333333</ele><time>2026-05-02T15:17:57.192Z</time></trkpt><trkpt lat="45.3542741" lon="7.8767789"><ele>258.66666666666663</ele><time>2026-05-02T15:17:58.199Z</time></trkpt><trkpt lat="45.3541901" lon="7.8767999"><ele>258.5</ele><time>2026-05-02T15:17:59.195Z</time></trkpt><trkpt lat="45.3541058" lon="7.8768227"><ele>258.3333333333333</ele><time>2026-05-02T15:18:00.189Z</time></trkpt><trkpt lat="45.3540288" lon="7.8768418"><ele>258.1666666666667</ele><time>2026-05-02T15:18:01.193Z</time></trkpt><trkpt lat="45.3539562" lon="7.8768721"><ele>258.0</ele><time>2026-05-02T15:18:02.226Z</time></trkpt><trkpt lat="45.353872" lon="7.876916"><ele>258.4</ele><time>2026-05-02T15:18:03.198Z</time></trkpt><trkpt lat="45.353814" lon="7.8770689"><ele>258.8</ele><time>2026-05-02T15:18:06.212Z</time></trkpt><trkpt lat="45.3537398" lon="7.877015"><ele>259.2</ele><time>2026-05-02T15:18:10.19Z</time></trkpt><trkpt lat="45.3536556" lon="7.8769275"><ele>259.6</ele><time>2026-05-02T15:18:11.193Z</time></trkpt><trkpt lat="45.3535738" lon="7.876856"><ele>260.0</ele><time>2026-05-02T15:18:12.196Z</time></trkpt><trkpt lat="45.3534877" lon="7.8767869"><ele>260.1666666666667</ele><time>2026-05-02T15:18:13.194Z</time></trkpt><trkpt lat="45.353412" lon="7.8767315"><ele>260.33333333333337</ele><time>2026-05-02T15:18:14.196Z</time></trkpt><trkpt lat="45.3533391" lon="7.8766823"><ele>260.5</ele><time>2026-05-02T15:18:15.205Z</time></trkpt><trkpt lat="45.3532595" lon="7.8766351"><ele>260.6666666666667</ele><time>2026-05-02T15:18:16.195Z</time></trkpt><trkpt lat="45.3531908" lon="7.8765781"><ele>260.8333333333333</ele><time>2026-05-02T15:18:17.196Z</time></trkpt><trkpt lat="45.3531153" lon="7.8765323"><ele>261.0</ele><time>2026-05-02T15:18:18.194Z</time></trkpt><trkpt lat="45.3530046" lon="7.8764507"><ele>261.5</ele><time>2026-05-02T15:18:20.197Z</time></trkpt><trkpt lat="45.3528666" lon="7.8765493"><ele>262.0</ele><time>2026-05-02T15:18:24.193Z</time></trkpt><trkpt lat="45.3527659" lon="7.8767419"><ele>262.5</ele><time>2026-05-02T15:18:27.198Z</time></trkpt><trkpt lat="45.3527067" lon="7.8768402"><ele>263.0</ele><time>2026-05-02T15:18:28.193Z</time></trkpt><trkpt lat="45.3526361" lon="7.8769431"><ele>263.0</ele><time>2026-05-02T15:18:29.194Z</time></trkpt><trkpt lat="45.3525368" lon="7.877041"><ele>263.0</ele><time>2026-05-02T15:18:31.217Z</time></trkpt><trkpt lat="45.3524435" lon="7.8771257"><ele>263.0</ele><time>2026-05-02T15:18:33.193Z</time></trkpt><trkpt lat="45.3523377" lon="7.8772224"><ele>263.0</ele><time>2026-05-02T15:18:35.188Z</time></trkpt><trkpt lat="45.3522663" lon="7.877273"><ele>263.0</ele><time>2026-05-02T15:18:36.196Z</time></trkpt><trkpt lat="45.3521603" lon="7.8773282"><ele>264.6</ele><time>2026-05-02T15:18:38.197Z</time></trkpt><trkpt lat="45.3520812" lon="7.8773582"><ele>266.20000000000005</ele><time>2026-05-02T15:18:39.195Z</time></trkpt><trkpt lat="45.3519898" lon="7.8774036"><ele>267.8</ele><time>2026-05-02T15:18:40.195Z</time></trkpt><trkpt lat="45.3519234" lon="7.8774229"><ele>269.40000000000003</ele><time>2026-05-02T15:18:41.192Z</time></trkpt><trkpt lat="45.3517827" lon="7.8774436"><ele>271.0</ele><time>2026-05-02T15:18:43.19Z</time></trkpt><trkpt lat="45.3517299" lon="7.8774955"><ele>271.0</ele><time>2026-05-02T15:18:44.202Z</time></trkpt><trkpt lat="45.3516888" lon="7.8775795"><ele>271.0</ele><time>2026-05-02T15:18:46.195Z</time></trkpt><trkpt lat="45.3516353" lon="7.8776466"><ele>271.0</ele><time>2026-05-02T15:18:48.201Z</time></trkpt><trkpt lat="45.3515234" lon="7.8776495"><ele>271.0</ele><time>2026-05-02T15:18:50.194Z</time></trkpt><trkpt lat="45.3514248" lon="7.877679"><ele>271.0</ele><time>2026-05-02T15:18:51.192Z</time></trkpt><trkpt lat="45.3513247" lon="7.8777225"><ele>272.25</ele><time>2026-05-02T15:18:58.2Z</time></trkpt><trkpt lat="45.3512463" lon="7.8777635"><ele>273.5</ele><time>2026-05-02T15:18:59.189Z</time></trkpt><trkpt lat="45.3511164" lon="7.8778208"><ele>274.75</ele><time>2026-05-02T15:19:01.215Z</time></trkpt><trkpt lat="45.3509883" lon="7.877874"><ele>276.0</ele><time>2026-05-02T15:19:03.208Z</time></trkpt><trkpt lat="45.3508869" lon="7.8779192"><ele>276.0</ele><time>2026-05-02T15:19:05.194Z</time></trkpt><trkpt lat="45.3509531" lon="7.8778576"><ele>276.0</ele><time>2026-05-02T15:19:07.194Z</time></trkpt><trkpt lat="45.3509513" lon="7.8777496"><ele>276.0</ele><time>2026-05-02T15:19:11.21Z</time></trkpt><trkpt lat="45.3509086" lon="7.8776671"><ele>276.0</ele><time>2026-05-02T15:19:12.188Z</time></trkpt><trkpt lat="45.3508279" lon="7.8775826"><ele>276.0</ele><time>2026-05-02T15:19:14.198Z</time></trkpt><trkpt lat="45.3506428" lon="7.8777864"><ele>276.0</ele><time>2026-05-02T15:19:19.185Z</time></trkpt><trkpt lat="45.3505922" lon="7.8778495"><ele>276.0</ele><time>2026-05-02T15:19:20.195Z</time></trkpt><trkpt lat="45.3505102" lon="7.8778895"><ele>276.0</ele><time>2026-05-02T15:19:24.18Z</time></trkpt><trkpt lat="45.3504355" lon="7.8778875"><ele>276.0</ele><time>2026-05-02T15:19:26.215Z</time></trkpt><trkpt lat="45.350348" lon="7.8778316"><ele>276.0</ele><time>2026-05-02T15:19:27.179Z</time></trkpt><trkpt lat="45.3502797" lon="7.8777391"><ele>276.0</ele><time>2026-05-02T15:19:30.187Z</time></trkpt><trkpt lat="45.3502184" lon="7.8776463"><ele>276.6666666666667</ele><time>2026-05-02T15:19:32.197Z</time></trkpt><trkpt lat="45.3501631" lon="7.8775416"><ele>277.3333333333333</ele><time>2026-05-02T15:19:34.191Z</time></trkpt><trkpt lat="45.3501536" lon="7.8774273"><ele>278.0</ele><time>2026-05-02T15:19:38.19Z</time></trkpt><trkpt lat="45.3502129" lon="7.8773931"><ele>278.66666666666663</ele><time>2026-05-02T15:19:43.184Z</time></trkpt><trkpt lat="45.3501735" lon="7.8772226"><ele>279.3333333333333</ele><time>2026-05-02T15:19:44.218Z</time></trkpt><trkpt lat="45.3501517" lon="7.8771107"><ele>280.0</ele><time>2026-05-02T15:19:45.192Z</time></trkpt><trkpt lat="45.3501297" lon="7.8769548"><ele>280.0</ele><time>2026-05-02T15:19:47.203Z</time></trkpt><trkpt lat="45.3500998" lon="7.8768183"><ele>280.0</ele><time>2026-05-02T15:19:49.208Z</time></trkpt><trkpt lat="45.3500744" lon="7.8766748"><ele>280.0</ele><time>2026-05-02T15:19:51.19Z</time></trkpt><trkpt lat="45.3500427" lon="7.8765287"><ele>280.0</ele><time>2026-05-02T15:19:53.2Z</time></trkpt><trkpt lat="45.3499837" lon="7.8763871"><ele>280.0</ele><time>2026-05-02T15:19:55.186Z</time></trkpt><trkpt lat="45.3499476" lon="7.8762268"><ele>280.8</ele><time>2026-05-02T15:19:57.221Z</time></trkpt><trkpt lat="45.3499045" lon="7.8760739"><ele>281.6</ele><time>2026-05-02T15:19:59.188Z</time></trkpt><trkpt lat="45.3498357" lon="7.8759853"><ele>282.4</ele><time>2026-05-02T15:20:01.207Z</time></trkpt><trkpt lat="45.3497685" lon="7.8758843"><ele>283.2</ele><time>2026-05-02T15:20:03.221Z</time></trkpt><trkpt lat="45.3497381" lon="7.8756877"><ele>284.0</ele><time>2026-05-02T15:20:05.191Z</time></trkpt><trkpt lat="45.3497046" lon="7.8755085"><ele>284.4</ele><time>2026-05-02T15:20:08.202Z</time></trkpt><trkpt lat="45.3497807" lon="7.8757475"><ele>284.79999999999995</ele><time>2026-05-02T15:20:09.194Z</time></trkpt><trkpt lat="45.3497537" lon="7.8756665"><ele>285.20000000000005</ele><time>2026-05-02T15:20:17.189Z</time></trkpt><trkpt lat="45.3497363" lon="7.8755637"><ele>285.6</ele><time>2026-05-02T15:20:18.188Z</time></trkpt><trkpt lat="45.3497047" lon="7.8754148"><ele>286.0</ele><time>2026-05-02T15:20:20.196Z</time></trkpt><trkpt lat="45.3496775" lon="7.8753176"><ele>287.2</ele><time>2026-05-02T15:20:21.199Z</time></trkpt><trkpt lat="45.3496451" lon="7.8752056"><ele>288.40000000000003</ele><time>2026-05-02T15:20:22.184Z</time></trkpt><trkpt lat="45.3495758" lon="7.8750974"><ele>289.6</ele><time>2026-05-02T15:20:24.184Z</time></trkpt><trkpt lat="45.3495286" lon="7.8749985"><ele>290.8</ele><time>2026-05-02T15:20:26.208Z</time></trkpt><trkpt lat="45.3494856" lon="7.8749223"><ele>292.0</ele><time>2026-05-02T15:20:29.192Z</time></trkpt><trkpt lat="45.3493303" lon="7.874956"><ele>292.75</ele><time>2026-05-02T15:20:32.2Z</time></trkpt><trkpt lat="45.3492386" lon="7.8748997"><ele>293.5</ele><time>2026-05-02T15:20:33.203Z</time></trkpt><trkpt lat="45.3491687" lon="7.874864"><ele>294.25</ele><time>2026-05-02T15:20:35.189Z</time></trkpt><trkpt lat="45.3489984" lon="7.8747815"><ele>295.0</ele><time>2026-05-02T15:20:38.19Z</time></trkpt><trkpt lat="45.3488946" lon="7.8747548"><ele>296.25</ele><time>2026-05-02T15:20:40.195Z</time></trkpt><trkpt lat="45.3488111" lon="7.8747457"><ele>297.5</ele><time>2026-05-02T15:20:41.19Z</time></trkpt><trkpt lat="45.3486764" lon="7.8746835"><ele>298.75</ele><time>2026-05-02T15:20:43.196Z</time></trkpt><trkpt lat="45.3485728" lon="7.8746303"><ele>300.0</ele><time>2026-05-02T15:20:44.183Z</time></trkpt><trkpt lat="45.348441" lon="7.8745139"><ele>300.0</ele><time>2026-05-02T15:20:46.191Z</time></trkpt><trkpt lat="45.3483719" lon="7.8744666"><ele>300.0</ele><time>2026-05-02T15:20:47.186Z</time></trkpt><trkpt lat="45.3482891" lon="7.8743856"><ele>300.0</ele><time>2026-05-02T15:20:49.188Z</time></trkpt><trkpt lat="45.348189" lon="7.8743066"><ele>300.0</ele><time>2026-05-02T15:20:51.186Z</time></trkpt><trkpt lat="45.3480912" lon="7.8742233"><ele>300.0</ele><time>2026-05-02T15:20:53.193Z</time></trkpt><trkpt lat="45.3480183" lon="7.8741681"><ele>300.0</ele><time>2026-05-02T15:20:55.201Z</time></trkpt><trkpt lat="45.3479831" lon="7.8739608"><ele>300.0</ele><time>2026-05-02T15:20:56.182Z</time></trkpt><trkpt lat="45.3480192" lon="7.8738145"><ele>300.0</ele><time>2026-05-02T15:20:58.207Z</time></trkpt><trkpt lat="45.3480648" lon="7.8736636"><ele>300.0</ele><time>2026-05-02T15:21:00.185Z</time></trkpt><trkpt lat="45.3479747" lon="7.8735075"><ele>301.6</ele><time>2026-05-02T15:21:05.193Z</time></trkpt><trkpt lat="45.347895" lon="7.8733832"><ele>303.2</ele><time>2026-05-02T15:21:07.193Z</time></trkpt><trkpt lat="45.34785" lon="7.873308"><ele>304.8</ele><time>2026-05-02T15:21:08.221Z</time></trkpt><trkpt lat="45.3478012" lon="7.8732354"><ele>306.4</ele><time>2026-05-02T15:21:09.19Z</time></trkpt><trkpt lat="45.3477496" lon="7.8729916"><ele>308.0</ele><time>2026-05-02T15:21:13.193Z</time></trkpt><trkpt lat="45.3471865" lon="7.8723579"><ele>310.83333333333337</ele><time>2026-05-02T15:21:16.185Z</time></trkpt><trkpt lat="45.3471889" lon="7.8722639"><ele>313.6666666666667</ele><time>2026-05-02T15:21:25.179Z</time></trkpt><trkpt lat="45.3471098" lon="7.872202"><ele>316.5</ele><time>2026-05-02T15:21:27.185Z</time></trkpt><trkpt lat="45.3470472" lon="7.8721738"><ele>319.3333333333333</ele><time>2026-05-02T15:21:31.192Z</time></trkpt><trkpt lat="45.3469742" lon="7.8721968"><ele>322.16666666666663</ele><time>2026-05-02T15:21:34.191Z</time></trkpt><trkpt lat="45.346891" lon="7.872256"><ele>325.0</ele><time>2026-05-02T15:21:36.187Z</time></trkpt><trkpt lat="45.3468289" lon="7.8723294"><ele>325.0</ele><time>2026-05-02T15:21:38.185Z</time></trkpt><trkpt lat="45.3467663" lon="7.8723974"><ele>325.0</ele><time>2026-05-02T15:21:40.189Z</time></trkpt><trkpt lat="45.3466945" lon="7.8724593"><ele>325.0</ele><time>2026-05-02T15:21:42.19Z</time></trkpt><trkpt lat="45.3466274" lon="7.8725008"><ele>325.0</ele><time>2026-05-02T15:21:44.184Z</time></trkpt><trkpt lat="45.3465697" lon="7.872551"><ele>325.0</ele><time>2026-05-02T15:21:46.186Z</time></trkpt><trkpt lat="45.346511" lon="7.8725985"><ele>325.0</ele><time>2026-05-02T15:21:48.196Z</time></trkpt><trkpt lat="45.3464151" lon="7.8726287"><ele>326.6</ele><time>2026-05-02T15:21:51.194Z</time></trkpt><trkpt lat="45.3463198" lon="7.8726605"><ele>328.2</ele><time>2026-05-02T15:21:53.182Z</time></trkpt><trkpt lat="45.3462214" lon="7.8726993"><ele>329.79999999999995</ele><time>2026-05-02T15:21:55.184Z</time></trkpt><trkpt lat="45.3460963" lon="7.8727052"><ele>331.4</ele><time>2026-05-02T15:21:57.183Z</time></trkpt><trkpt lat="45.3459806" lon="7.8726985"><ele>333.0</ele><time>2026-05-02T15:21:59.183Z</time></trkpt><trkpt lat="45.3459064" lon="7.8727257"><ele>333.0</ele><time>2026-05-02T15:22:01.189Z</time></trkpt><trkpt lat="45.3458302" lon="7.8727769"><ele>333.0</ele><time>2026-05-02T15:22:04.184Z</time></trkpt><trkpt lat="45.3457675" lon="7.872794"><ele>333.0</ele><time>2026-05-02T15:22:06.19Z</time></trkpt><trkpt lat="45.3457028" lon="7.8727782"><ele>333.0</ele><time>2026-05-02T15:22:09.188Z</time></trkpt><trkpt lat="45.3456257" lon="7.8727024"><ele>333.0</ele><time>2026-05-02T15:22:12.2Z</time></trkpt><trkpt lat="45.3455395" lon="7.8726991"><ele>333.0</ele><time>2026-05-02T15:22:14.179Z</time></trkpt><trkpt lat="45.3454299" lon="7.8726939"><ele>335.4</ele><time>2026-05-02T15:22:16.181Z</time></trkpt><trkpt lat="45.3453192" lon="7.872668"><ele>337.79999999999995</ele><time>2026-05-02T15:22:18.189Z</time></trkpt><trkpt lat="45.3452147" lon="7.8726349"><ele>340.2</ele><time>2026-05-02T15:22:20.187Z</time></trkpt><trkpt lat="45.3451268" lon="7.872614"><ele>342.6</ele><time>2026-05-02T15:22:22.216Z</time></trkpt><trkpt lat="45.3450307" lon="7.8725857"><ele>345.0</ele><time>2026-05-02T15:22:24.184Z</time></trkpt><trkpt lat="45.3449252" lon="7.8725431"><ele>345.1666666666667</ele><time>2026-05-02T15:22:26.186Z</time></trkpt><trkpt lat="45.3448461" lon="7.8725025"><ele>345.3333333333333</ele><time>2026-05-02T15:22:27.177Z</time></trkpt><trkpt lat="45.3447723" lon="7.8724868"><ele>345.5</ele><time>2026-05-02T15:22:29.178Z</time></trkpt><trkpt lat="45.3446741" lon="7.8724514"><ele>345.66666666666663</ele><time>2026-05-02T15:22:31.187Z</time></trkpt><trkpt lat="45.3445833" lon="7.872384"><ele>345.8333333333333</ele><time>2026-05-02T15:22:33.185Z</time></trkpt><trkpt lat="45.3445144" lon="7.8723121"><ele>346.0</ele><time>2026-05-02T15:22:35.18Z</time></trkpt><trkpt lat="45.3444744" lon="7.8722409"><ele>347.0</ele><time>2026-05-02T15:22:37.182Z</time></trkpt><trkpt lat="45.3444312" lon="7.8721017"><ele>348.0</ele><time>2026-05-02T15:22:39.187Z</time></trkpt><trkpt lat="45.3443789" lon="7.8719623"><ele>349.0</ele><time>2026-05-02T15:22:41.18Z</time></trkpt><trkpt lat="45.3443344" lon="7.8718711"><ele>350.0</ele><time>2026-05-02T15:22:43.209Z</time></trkpt><trkpt lat="45.3442632" lon="7.8718007"><ele>351.0</ele><time>2026-05-02T15:22:46.186Z</time></trkpt><trkpt lat="45.344165" lon="7.8717544"><ele>351.0</ele><time>2026-05-02T15:22:49.185Z</time></trkpt><trkpt lat="45.3440763" lon="7.8716999"><ele>351.0</ele><time>2026-05-02T15:22:51.177Z</time></trkpt><trkpt lat="45.3439858" lon="7.8716056"><ele>351.0</ele><time>2026-05-02T15:22:53.178Z</time></trkpt><trkpt lat="45.3438991" lon="7.8715126"><ele>351.0</ele><time>2026-05-02T15:22:55.177Z</time></trkpt><trkpt lat="45.3438297" lon="7.8715168"><ele>351.0</ele><time>2026-05-02T15:24:38.194Z</time></trkpt><trkpt lat="45.3437693" lon="7.8716045"><ele>352.20000000000005</ele><time>2026-05-02T15:24:41.179Z</time></trkpt><trkpt lat="45.3437452" lon="7.8717105"><ele>353.40000000000003</ele><time>2026-05-02T15:24:43.174Z</time></trkpt><trkpt lat="45.343713" lon="7.8718658"><ele>354.6</ele><time>2026-05-02T15:24:45.195Z</time></trkpt><trkpt lat="45.3436776" lon="7.872035"><ele>355.8</ele><time>2026-05-02T15:24:47.177Z</time></trkpt><trkpt lat="45.3436676" lon="7.8721785"><ele>357.0</ele><time>2026-05-02T15:24:49.18Z</time></trkpt><trkpt lat="45.3436759" lon="7.8723332"><ele>357.0</ele><time>2026-05-02T15:24:51.192Z</time></trkpt><trkpt lat="45.3436398" lon="7.8724968"><ele>357.0</ele><time>2026-05-02T15:24:53.183Z</time></trkpt><trkpt lat="45.3435663" lon="7.8726198"><ele>357.0</ele><time>2026-05-02T15:24:55.174Z</time></trkpt><trkpt lat="45.3435299" lon="7.8726967"><ele>357.0</ele><time>2026-05-02T15:24:56.18Z</time></trkpt><trkpt lat="45.3434674" lon="7.8727763"><ele>357.0</ele><time>2026-05-02T15:24:57.18Z</time></trkpt><trkpt lat="45.3434122" lon="7.8728642"><ele>356.3333333333333</ele><time>2026-05-02T15:24:58.224Z</time></trkpt><trkpt lat="45.343363" lon="7.8729501"><ele>355.6666666666667</ele><time>2026-05-02T15:24:59.181Z</time></trkpt><trkpt lat="45.3433102" lon="7.8730101"><ele>355.0</ele><time>2026-05-02T15:25:00.178Z</time></trkpt><trkpt lat="45.3432763" lon="7.8730864"><ele>354.33333333333337</ele><time>2026-05-02T15:25:01.18Z</time></trkpt><trkpt lat="45.3432196" lon="7.8732207"><ele>353.6666666666667</ele><time>2026-05-02T15:25:03.183Z</time></trkpt><trkpt lat="45.3431595" lon="7.8733662"><ele>353.0</ele><time>2026-05-02T15:25:05.178Z</time></trkpt><trkpt lat="45.3431385" lon="7.8734507"><ele>352.2</ele><time>2026-05-02T15:25:06.179Z</time></trkpt><trkpt lat="45.3431299" lon="7.8736101"><ele>351.4</ele><time>2026-05-02T15:25:08.175Z</time></trkpt><trkpt lat="45.3431017" lon="7.8737446"><ele>350.59999999999997</ele><time>2026-05-02T15:25:10.182Z</time></trkpt><trkpt lat="45.343049" lon="7.8738126"><ele>349.79999999999995</ele><time>2026-05-02T15:25:11.181Z</time></trkpt><trkpt lat="45.3429742" lon="7.8739667"><ele>349.0</ele><time>2026-05-02T15:25:13.175Z</time></trkpt><trkpt lat="45.3429357" lon="7.8740556"><ele>349.2857142857143</ele><time>2026-05-02T15:25:14.18Z</time></trkpt><trkpt lat="45.3428985" lon="7.8741455"><ele>349.57142857142856</ele><time>2026-05-02T15:25:15.182Z</time></trkpt><trkpt lat="45.3428674" lon="7.8742388"><ele>349.8571428571429</ele><time>2026-05-02T15:25:16.181Z</time></trkpt><trkpt lat="45.3428437" lon="7.8743491"><ele>350.1428571428571</ele><time>2026-05-02T15:25:17.181Z</time></trkpt><trkpt lat="45.3428127" lon="7.8744498"><ele>350.42857142857144</ele><time>2026-05-02T15:25:18.181Z</time></trkpt><trkpt lat="45.3427718" lon="7.8745419"><ele>350.7142857142857</ele><time>2026-05-02T15:25:19.175Z</time></trkpt><trkpt lat="45.3427372" lon="7.8746209"><ele>351.0</ele><time>2026-05-02T15:25:20.181Z</time></trkpt><trkpt lat="45.3426944" lon="7.8747921"><ele>351.0</ele><time>2026-05-02T15:25:22.178Z</time></trkpt><trkpt lat="45.3426524" lon="7.8749333"><ele>351.0</ele><time>2026-05-02T15:25:24.182Z</time></trkpt><trkpt lat="45.3426283" lon="7.8750588"><ele>351.0</ele><time>2026-05-02T15:25:26.176Z</time></trkpt><trkpt lat="45.3425963" lon="7.8751694"><ele>351.0</ele><time>2026-05-02T15:25:28.19Z</time></trkpt><trkpt lat="45.3425216" lon="7.8752915"><ele>351.0</ele><time>2026-05-02T15:25:30.184Z</time></trkpt><trkpt lat="45.3424598" lon="7.8753502"><ele>350.0</ele><time>2026-05-02T15:25:31.205Z</time></trkpt><trkpt lat="45.342368" lon="7.8754047"><ele>349.0</ele><time>2026-05-02T15:25:32.182Z</time></trkpt><trkpt lat="45.3422912" lon="7.8754744"><ele>348.0</ele><time>2026-05-02T15:25:33.181Z</time></trkpt><trkpt lat="45.3422148" lon="7.875544"><ele>347.0</ele><time>2026-05-02T15:25:34.177Z</time></trkpt><trkpt lat="45.3421358" lon="7.8756302"><ele>346.0</ele><time>2026-05-02T15:25:35.179Z</time></trkpt><trkpt lat="45.3420684" lon="7.8756902"><ele>346.16666666666663</ele><time>2026-05-02T15:25:36.181Z</time></trkpt><trkpt lat="45.3420068" lon="7.8757464"><ele>346.3333333333333</ele><time>2026-05-02T15:25:37.176Z</time></trkpt><trkpt lat="45.3419363" lon="7.8757871"><ele>346.5</ele><time>2026-05-02T15:25:38.187Z</time></trkpt><trkpt lat="45.3418737" lon="7.8758436"><ele>346.6666666666667</ele><time>2026-05-02T15:25:39.183Z</time></trkpt><trkpt lat="45.3418029" lon="7.8758922"><ele>346.83333333333337</ele><time>2026-05-02T15:25:40.175Z</time></trkpt><trkpt lat="45.3417422" lon="7.87596"><ele>347.0</ele><time>2026-05-02T15:25:41.189Z</time></trkpt><trkpt lat="45.3416875" lon="7.876047"><ele>347.0</ele><time>2026-05-02T15:25:42.178Z</time></trkpt><trkpt lat="45.3416611" lon="7.8761554"><ele>347.0</ele><time>2026-05-02T15:25:43.186Z</time></trkpt><trkpt lat="45.3416254" lon="7.8762621"><ele>347.0</ele><time>2026-05-02T15:25:44.18Z</time></trkpt><trkpt lat="45.3415953" lon="7.8763705"><ele>347.0</ele><time>2026-05-02T15:25:45.181Z</time></trkpt><trkpt lat="45.3415724" lon="7.8764904"><ele>347.0</ele><time>2026-05-02T15:25:46.179Z</time></trkpt><trkpt lat="45.3415589" lon="7.8765983"><ele>347.0</ele><time>2026-05-02T15:25:47.182Z</time></trkpt><trkpt lat="45.3415301" lon="7.8766944"><ele>346.1666666666667</ele><time>2026-05-02T15:25:48.178Z</time></trkpt><trkpt lat="45.3415195" lon="7.8767894"><ele>345.33333333333337</ele><time>2026-05-02T15:25:49.184Z</time></trkpt><trkpt lat="45.341526" lon="7.8769469"><ele>344.5</ele><time>2026-05-02T15:25:51.176Z</time></trkpt><trkpt lat="45.3415316" lon="7.877045"><ele>343.6666666666667</ele><time>2026-05-02T15:25:52.175Z</time></trkpt><trkpt lat="45.3415083" lon="7.8771707"><ele>342.8333333333333</ele><time>2026-05-02T15:25:54.179Z</time></trkpt><trkpt lat="45.3414565" lon="7.8772216"><ele>342.0</ele><time>2026-05-02T15:26:30.184Z</time></trkpt><trkpt lat="45.341408" lon="7.8773079"><ele>341.6666666666667</ele><time>2026-05-02T15:26:32.199Z</time></trkpt><trkpt lat="45.3413535" lon="7.8774163"><ele>341.3333333333333</ele><time>2026-05-02T15:26:34.181Z</time></trkpt><trkpt lat="45.3413096" lon="7.8775132"><ele>341.0</ele><time>2026-05-02T15:26:36.189Z</time></trkpt><trkpt lat="45.3412456" lon="7.8776409"><ele>340.66666666666663</ele><time>2026-05-02T15:26:38.186Z</time></trkpt><trkpt lat="45.3411988" lon="7.8777122"><ele>340.3333333333333</ele><time>2026-05-02T15:26:39.187Z</time></trkpt><trkpt lat="45.341144" lon="7.8777825"><ele>340.0</ele><time>2026-05-02T15:26:40.186Z</time></trkpt><trkpt lat="45.341077" lon="7.8778707"><ele>340.0</ele><time>2026-05-02T15:26:41.243Z</time></trkpt><trkpt lat="45.3410254" lon="7.8779675"><ele>340.0</ele><time>2026-05-02T15:26:42.189Z</time></trkpt><trkpt lat="45.3409798" lon="7.878051"><ele>340.0</ele><time>2026-05-02T15:26:43.185Z</time></trkpt><trkpt lat="45.3409374" lon="7.8781325"><ele>340.0</ele><time>2026-05-02T15:26:44.184Z</time></trkpt><trkpt lat="45.3408952" lon="7.8782054"><ele>340.0</ele><time>2026-05-02T15:26:45.198Z</time></trkpt><trkpt lat="45.3408279" lon="7.8783301"><ele>340.0</ele><time>2026-05-02T15:26:47.182Z</time></trkpt><trkpt lat="45.3407734" lon="7.8784391"><ele>339.2</ele><time>2026-05-02T15:26:49.194Z</time></trkpt><trkpt lat="45.3407066" lon="7.8785753"><ele>338.4</ele><time>2026-05-02T15:26:51.19Z</time></trkpt><trkpt lat="45.3406467" lon="7.878692"><ele>337.6</ele><time>2026-05-02T15:26:53.19Z</time></trkpt><trkpt lat="45.3405874" lon="7.8788236"><ele>336.8</ele><time>2026-05-02T15:26:55.191Z</time></trkpt><trkpt lat="45.3405411" lon="7.8789014"><ele>336.0</ele><time>2026-05-02T15:26:56.186Z</time></trkpt><trkpt lat="45.3404956" lon="7.8789909"><ele>335.3333333333333</ele><time>2026-05-02T15:26:57.224Z</time></trkpt><trkpt lat="45.3404439" lon="7.8790758"><ele>334.6666666666667</ele><time>2026-05-02T15:26:58.2Z</time></trkpt><trkpt lat="45.3403887" lon="7.8791602"><ele>334.0</ele><time>2026-05-02T15:26:59.204Z</time></trkpt><trkpt lat="45.3403282" lon="7.8792409"><ele>333.33333333333337</ele><time>2026-05-02T15:27:00.191Z</time></trkpt><trkpt lat="45.3402659" lon="7.8793155"><ele>332.6666666666667</ele><time>2026-05-02T15:27:01.191Z</time></trkpt><trkpt lat="45.3402007" lon="7.8793858"><ele>332.0</ele><time>2026-05-02T15:27:02.182Z</time></trkpt><trkpt lat="45.3401182" lon="7.8794466"><ele>332.0</ele><time>2026-05-02T15:27:03.209Z</time></trkpt><trkpt lat="45.3400445" lon="7.8794997"><ele>332.0</ele><time>2026-05-02T15:27:04.182Z</time></trkpt><trkpt lat="45.339975" lon="7.8795218"><ele>332.0</ele><time>2026-05-02T15:27:05.186Z</time></trkpt><trkpt lat="45.3399119" lon="7.8795477"><ele>332.0</ele><time>2026-05-02T15:27:06.181Z</time></trkpt><trkpt lat="45.3398304" lon="7.8796009"><ele>332.0</ele><time>2026-05-02T15:27:08.197Z</time></trkpt><trkpt lat="45.3397691" lon="7.8796423"><ele>332.0</ele><time>2026-05-02T15:27:09.18Z</time></trkpt><trkpt lat="45.3397054" lon="7.8797316"><ele>331.20000000000005</ele><time>2026-05-02T15:27:11.189Z</time></trkpt><trkpt lat="45.3396373" lon="7.8798191"><ele>330.4</ele><time>2026-05-02T15:27:13.188Z</time></trkpt><trkpt lat="45.3395419" lon="7.87993"><ele>329.6</ele><time>2026-05-02T15:27:15.179Z</time></trkpt><trkpt lat="45.3394914" lon="7.8800081"><ele>328.79999999999995</ele><time>2026-05-02T15:27:16.183Z</time></trkpt><trkpt lat="45.3394377" lon="7.8801015"><ele>328.0</ele><time>2026-05-02T15:27:17.178Z</time></trkpt><trkpt lat="45.3393949" lon="7.8801901"><ele>327.99999999999994</ele><time>2026-05-02T15:27:18.182Z</time></trkpt><trkpt lat="45.339363" lon="7.8802802"><ele>328.0</ele><time>2026-05-02T15:27:19.18Z</time></trkpt><trkpt lat="45.3393346" lon="7.8803622"><ele>328.0</ele><time>2026-05-02T15:27:20.187Z</time></trkpt><trkpt lat="45.3393103" lon="7.8804894"><ele>328.0</ele><time>2026-05-02T15:27:22.183Z</time></trkpt><trkpt lat="45.3393223" lon="7.8805848"><ele>328.0</ele><time>2026-05-02T15:27:30.183Z</time></trkpt><trkpt lat="45.3392525" lon="7.8806123"><ele>327.99999999999994</ele><time>2026-05-02T15:27:37.186Z</time></trkpt><trkpt lat="45.339217" lon="7.8806981"><ele>328.0</ele><time>2026-05-02T15:27:41.185Z</time></trkpt><trkpt lat="45.3391753" lon="7.8807674"><ele>328.0</ele><time>2026-05-02T15:27:44.212Z</time></trkpt><trkpt lat="45.3391423" lon="7.8808505"><ele>328.0</ele><time>2026-05-02T15:27:47.179Z</time></trkpt><trkpt lat="45.3391423" lon="7.8809509"><ele>328.0</ele><time>2026-05-02T15:27:52.185Z</time></trkpt><trkpt lat="45.3391872" lon="7.8810697"><ele>328.0</ele><time>2026-05-02T15:27:54.195Z</time></trkpt><trkpt lat="45.3392475" lon="7.8812032"><ele>328.0</ele><time>2026-05-02T15:27:56.175Z</time></trkpt><trkpt lat="45.3393143" lon="7.8813199"><ele>326.59999999999997</ele><time>2026-05-02T15:27:58.181Z</time></trkpt><trkpt lat="45.3393894" lon="7.8814395"><ele>325.2</ele><time>2026-05-02T15:28:00.177Z</time></trkpt><trkpt lat="45.3394653" lon="7.8815711"><ele>323.8</ele><time>2026-05-02T15:28:02.187Z</time></trkpt><trkpt lat="45.3395414" lon="7.8816715"><ele>322.4</ele><time>2026-05-02T15:28:04.185Z</time></trkpt><trkpt lat="45.3396113" lon="7.8817686"><ele>321.0</ele><time>2026-05-02T15:28:06.18Z</time></trkpt><trkpt lat="45.3397046" lon="7.881881"><ele>321.0</ele><time>2026-05-02T15:28:08.191Z</time></trkpt><trkpt lat="45.3397555" lon="7.8819538"><ele>321.0</ele><time>2026-05-02T15:28:09.179Z</time></trkpt><trkpt lat="45.3397989" lon="7.8820638"><ele>321.0</ele><time>2026-05-02T15:28:11.18Z</time></trkpt><trkpt lat="45.3398186" lon="7.8821561"><ele>321.0</ele><time>2026-05-02T15:28:13.196Z</time></trkpt><trkpt lat="45.3397814" lon="7.8822295"><ele>321.0</ele><time>2026-05-02T15:28:16.18Z</time></trkpt><trkpt lat="45.3397127" lon="7.882242"><ele>321.0</ele><time>2026-05-02T15:28:21.212Z</time></trkpt><trkpt lat="45.3396238" lon="7.8822672"><ele>321.0</ele><time>2026-05-02T15:28:23.19Z</time></trkpt><trkpt lat="45.339524" lon="7.8822788"><ele>321.0</ele><time>2026-05-02T15:28:25.177Z</time></trkpt><trkpt lat="45.3394363" lon="7.8823059"><ele>321.0</ele><time>2026-05-02T15:28:27.191Z</time></trkpt><trkpt lat="45.3393343" lon="7.8823447"><ele>321.0</ele><time>2026-05-02T15:28:29.181Z</time></trkpt><trkpt lat="45.3392683" lon="7.8823714"><ele>321.0</ele><time>2026-05-02T15:28:30.184Z</time></trkpt><trkpt lat="45.3391535" lon="7.8824152"><ele>321.0</ele><time>2026-05-02T15:28:32.183Z</time></trkpt><trkpt lat="45.3390428" lon="7.8824407"><ele>321.0</ele><time>2026-05-02T15:28:34.182Z</time></trkpt><trkpt lat="45.3389785" lon="7.8824505"><ele>321.0</ele><time>2026-05-02T15:28:35.175Z</time></trkpt><trkpt lat="45.338872" lon="7.882497"><ele>321.0</ele><time>2026-05-02T15:28:37.181Z</time></trkpt><trkpt lat="45.3387879" lon="7.8825147"><ele>321.0</ele><time>2026-05-02T15:28:39.185Z</time></trkpt><trkpt lat="45.3387164" lon="7.8825068"><ele>321.0</ele><time>2026-05-02T15:28:42.181Z</time></trkpt><trkpt lat="45.3386398" lon="7.8824935"><ele>321.3333333333333</ele><time>2026-05-02T15:28:47.179Z</time></trkpt><trkpt lat="45.3385516" lon="7.8824934"><ele>321.6666666666667</ele><time>2026-05-02T15:28:49.184Z</time></trkpt><trkpt lat="45.3384507" lon="7.8825128"><ele>322.0</ele><time>2026-05-02T15:28:51.183Z</time></trkpt><trkpt lat="45.3383748" lon="7.8825392"><ele>322.33333333333337</ele><time>2026-05-02T15:28:53.186Z</time></trkpt><trkpt lat="45.3383022" lon="7.8825803"><ele>322.6666666666667</ele><time>2026-05-02T15:28:56.189Z</time></trkpt><trkpt lat="45.3382366" lon="7.8826062"><ele>323.0</ele><time>2026-05-02T15:28:59.18Z</time></trkpt><trkpt lat="45.3381559" lon="7.8826579"><ele>322.4</ele><time>2026-05-02T15:29:02.194Z</time></trkpt><trkpt lat="45.338081" lon="7.8826796"><ele>321.79999999999995</ele><time>2026-05-02T15:29:04.188Z</time></trkpt><trkpt lat="45.3380205" lon="7.8827523"><ele>321.2</ele><time>2026-05-02T15:29:06.176Z</time></trkpt><trkpt lat="45.3379283" lon="7.8828747"><ele>320.6</ele><time>2026-05-02T15:29:08.191Z</time></trkpt><trkpt lat="45.3378297" lon="7.8829585"><ele>320.0</ele><time>2026-05-02T15:29:10.185Z</time></trkpt><trkpt lat="45.3377349" lon="7.8830466"><ele>320.0</ele><time>2026-05-02T15:29:12.18Z</time></trkpt><trkpt lat="45.3376422" lon="7.883106"><ele>320.0</ele><time>2026-05-02T15:29:14.185Z</time></trkpt><trkpt lat="45.337533" lon="7.8831706"><ele>320.0</ele><time>2026-05-02T15:29:16.178Z</time></trkpt><trkpt lat="45.3374617" lon="7.8831778"><ele>320.0</ele><time>2026-05-02T15:29:17.175Z</time></trkpt><trkpt lat="45.3373244" lon="7.8832145"><ele>320.0</ele><time>2026-05-02T15:29:19.178Z</time></trkpt><trkpt lat="45.3372556" lon="7.8832383"><ele>320.8</ele><time>2026-05-02T15:29:20.194Z</time></trkpt><trkpt lat="45.3371483" lon="7.8832321"><ele>321.6</ele><time>2026-05-02T15:29:21.189Z</time></trkpt><trkpt lat="45.3370428" lon="7.8832254"><ele>322.4</ele><time>2026-05-02T15:29:22.187Z</time></trkpt><trkpt lat="45.3369365" lon="7.8832084"><ele>323.2</ele><time>2026-05-02T15:29:23.185Z</time></trkpt><trkpt lat="45.3368663" lon="7.8832197"><ele>324.0</ele><time>2026-05-02T15:29:24.183Z</time></trkpt><trkpt lat="45.3368024" lon="7.8832411"><ele>324.0</ele><time>2026-05-02T15:29:25.18Z</time></trkpt><trkpt lat="45.3366968" lon="7.8833081"><ele>324.0</ele><time>2026-05-02T15:29:27.189Z</time></trkpt><trkpt lat="45.3366199" lon="7.8833813"><ele>324.0</ele><time>2026-05-02T15:29:29.179Z</time></trkpt><trkpt lat="45.3365335" lon="7.8834673"><ele>324.0</ele><time>2026-05-02T15:29:31.179Z</time></trkpt><trkpt lat="45.3364798" lon="7.8835784"><ele>324.0</ele><time>2026-05-02T15:29:33.175Z</time></trkpt><trkpt lat="45.3364331" lon="7.8836994"><ele>323.1666666666667</ele><time>2026-05-02T15:29:35.218Z</time></trkpt><trkpt lat="45.3364104" lon="7.8838742"><ele>322.3333333333333</ele><time>2026-05-02T15:29:37.181Z</time></trkpt><trkpt lat="45.3364032" lon="7.8839707"><ele>321.5</ele><time>2026-05-02T15:29:38.184Z</time></trkpt><trkpt lat="45.3363997" lon="7.8840749"><ele>320.66666666666663</ele><time>2026-05-02T15:29:39.182Z</time></trkpt><trkpt lat="45.3364026" lon="7.8841903"><ele>319.8333333333333</ele><time>2026-05-02T15:29:40.181Z</time></trkpt><trkpt lat="45.336404" lon="7.8843088"><ele>319.0</ele><time>2026-05-02T15:29:41.185Z</time></trkpt><trkpt lat="45.3363695" lon="7.8844711"><ele>319.0</ele><time>2026-05-02T15:29:43.181Z</time></trkpt><trkpt lat="45.3363388" lon="7.8846139"><ele>319.0</ele><time>2026-05-02T15:29:45.184Z</time></trkpt><trkpt lat="45.3364097" lon="7.8847824"><ele>319.0</ele><time>2026-05-02T15:29:47.18Z</time></trkpt><trkpt lat="45.3364423" lon="7.8848611"><ele>319.0</ele><time>2026-05-02T15:29:48.175Z</time></trkpt><trkpt lat="45.3364693" lon="7.8849872"><ele>319.0</ele><time>2026-05-02T15:29:50.178Z</time></trkpt><trkpt lat="45.336465" lon="7.8850858"><ele>318.66666666666663</ele><time>2026-05-02T15:29:51.179Z</time></trkpt><trkpt lat="45.3364512" lon="7.8851764"><ele>318.3333333333333</ele><time>2026-05-02T15:29:52.18Z</time></trkpt><trkpt lat="45.3364066" lon="7.885318"><ele>318.0</ele><time>2026-05-02T15:29:54.181Z</time></trkpt><trkpt lat="45.336342" lon="7.885378"><ele>317.6666666666667</ele><time>2026-05-02T15:29:56.181Z</time></trkpt><trkpt lat="45.3362541" lon="7.8854632"><ele>317.33333333333337</ele><time>2026-05-02T15:29:58.189Z</time></trkpt><trkpt lat="45.3361938" lon="7.8855437"><ele>317.0</ele><time>2026-05-02T15:29:59.187Z</time></trkpt><trkpt lat="45.3361286" lon="7.8856389"><ele>316.5</ele><time>2026-05-02T15:30:00.18Z</time></trkpt><trkpt lat="45.336063" lon="7.8857535"><ele>316.0</ele><time>2026-05-02T15:30:01.18Z</time></trkpt><trkpt lat="45.3359997" lon="7.8858884"><ele>315.5</ele><time>2026-05-02T15:30:02.182Z</time></trkpt><trkpt lat="45.3359361" lon="7.8860227"><ele>315.0</ele><time>2026-05-02T15:30:03.195Z</time></trkpt><trkpt lat="45.3358617" lon="7.8861556"><ele>315.0</ele><time>2026-05-02T15:30:04.186Z</time></trkpt><trkpt lat="45.335784" lon="7.8862757"><ele>315.0</ele><time>2026-05-02T15:30:05.19Z</time></trkpt><trkpt lat="45.3357029" lon="7.8863971"><ele>315.0</ele><time>2026-05-02T15:30:06.19Z</time></trkpt><trkpt lat="45.3355823" lon="7.8864777"><ele>315.0</ele><time>2026-05-02T15:30:07.182Z</time></trkpt><trkpt lat="45.3354846" lon="7.8865744"><ele>314.25</ele><time>2026-05-02T15:30:08.184Z</time></trkpt><trkpt lat="45.33539" lon="7.8866742"><ele>313.5</ele><time>2026-05-02T15:30:09.18Z</time></trkpt><trkpt lat="45.3352947" lon="7.8867695"><ele>312.75</ele><time>2026-05-02T15:30:10.18Z</time></trkpt><trkpt lat="45.3351967" lon="7.8868632"><ele>312.0</ele><time>2026-05-02T15:30:11.181Z</time></trkpt><trkpt lat="45.3351017" lon="7.886961"><ele>309.5</ele><time>2026-05-02T15:30:12.185Z</time></trkpt><trkpt lat="45.3350034" lon="7.8870716"><ele>307.0</ele><time>2026-05-02T15:30:13.182Z</time></trkpt><trkpt lat="45.3349077" lon="7.8871712"><ele>304.5</ele><time>2026-05-02T15:30:14.213Z</time></trkpt><trkpt lat="45.3348144" lon="7.8872753"><ele>302.0</ele><time>2026-05-02T15:30:15.177Z</time></trkpt><trkpt lat="45.3347338" lon="7.8873736"><ele>302.6666666666667</ele><time>2026-05-02T15:30:16.178Z</time></trkpt><trkpt lat="45.3346549" lon="7.8874718"><ele>303.33333333333337</ele><time>2026-05-02T15:30:17.19Z</time></trkpt><trkpt lat="45.3345764" lon="7.8875537"><ele>304.0</ele><time>2026-05-02T15:30:18.182Z</time></trkpt><trkpt lat="45.3345165" lon="7.8876363"><ele>304.6666666666667</ele><time>2026-05-02T15:30:19.181Z</time></trkpt><trkpt lat="45.3344639" lon="7.8877186"><ele>305.3333333333333</ele><time>2026-05-02T15:30:20.211Z</time></trkpt><trkpt lat="45.3344204" lon="7.8878003"><ele>306.0</ele><time>2026-05-02T15:30:21.211Z</time></trkpt><trkpt lat="45.3343807" lon="7.8878838"><ele>303.0</ele><time>2026-05-02T15:30:22.183Z</time></trkpt><trkpt lat="45.3343452" lon="7.8879636"><ele>300.0</ele><time>2026-05-02T15:30:23.18Z</time></trkpt><trkpt lat="45.3342537" lon="7.8880571"><ele>297.0</ele><time>2026-05-02T15:30:25.182Z</time></trkpt><trkpt lat="45.3341738" lon="7.8881274"><ele>294.0</ele><time>2026-05-02T15:30:27.179Z</time></trkpt><trkpt lat="45.3341031" lon="7.8881811"><ele>291.0</ele><time>2026-05-02T15:30:29.177Z</time></trkpt><trkpt lat="45.3341518" lon="7.888359"><ele>289.5</ele><time>2026-05-02T15:30:31.177Z</time></trkpt><trkpt lat="45.3341151" lon="7.8884559"><ele>288.0</ele><time>2026-05-02T15:30:33.186Z</time></trkpt><trkpt lat="45.3341128" lon="7.8885889"><ele>286.5</ele><time>2026-05-02T15:30:35.187Z</time></trkpt><trkpt lat="45.3340969" lon="7.8887404"><ele>285.0</ele><time>2026-05-02T15:30:37.18Z</time></trkpt><trkpt lat="45.3340988" lon="7.888853"><ele>283.5</ele><time>2026-05-02T15:30:39.181Z</time></trkpt><trkpt lat="45.3340261" lon="7.8889054"><ele>282.0</ele><time>2026-05-02T15:30:44.181Z</time></trkpt><trkpt lat="45.3339537" lon="7.8888844"><ele>281.0</ele><time>2026-05-02T15:30:45.18Z</time></trkpt><trkpt lat="45.3338668" lon="7.8888628"><ele>280.0</ele><time>2026-05-02T15:30:46.179Z</time></trkpt><trkpt lat="45.3337673" lon="7.8888341"><ele>279.0</ele><time>2026-05-02T15:30:47.178Z</time></trkpt><trkpt lat="45.3336513" lon="7.888804"><ele>278.0</ele><time>2026-05-02T15:30:48.176Z</time></trkpt><trkpt lat="45.3335477" lon="7.8887795"><ele>277.0</ele><time>2026-05-02T15:30:49.188Z</time></trkpt><trkpt lat="45.3334412" lon="7.8887498"><ele>277.0</ele><time>2026-05-02T15:30:50.176Z</time></trkpt><trkpt lat="45.3333287" lon="7.8887197"><ele>277.0</ele><time>2026-05-02T15:30:51.181Z</time></trkpt><trkpt lat="45.3332115" lon="7.8886901"><ele>277.0</ele><time>2026-05-02T15:30:52.185Z</time></trkpt><trkpt lat="45.3330841" lon="7.8886639"><ele>277.0</ele><time>2026-05-02T15:30:53.179Z</time></trkpt><trkpt lat="45.3329534" lon="7.8886366"><ele>276.5</ele><time>2026-05-02T15:30:54.182Z</time></trkpt><trkpt lat="45.3328229" lon="7.8886071"><ele>276.0</ele><time>2026-05-02T15:30:55.184Z</time></trkpt><trkpt lat="45.332691" lon="7.8885879"><ele>275.5</ele><time>2026-05-02T15:30:56.183Z</time></trkpt><trkpt lat="45.3325571" lon="7.888562"><ele>275.0</ele><time>2026-05-02T15:30:57.177Z</time></trkpt><trkpt lat="45.3324327" lon="7.8885394"><ele>275.0</ele><time>2026-05-02T15:30:58.188Z</time></trkpt><trkpt lat="45.3323045" lon="7.8885148"><ele>275.0</ele><time>2026-05-02T15:30:59.185Z</time></trkpt><trkpt lat="45.3321758" lon="7.8884925"><ele>275.0</ele><time>2026-05-02T15:31:00.178Z</time></trkpt><trkpt lat="45.3320445" lon="7.8884629"><ele>275.0</ele><time>2026-05-02T15:31:01.183Z</time></trkpt><trkpt lat="45.331921" lon="7.8884401"><ele>277.5</ele><time>2026-05-02T15:31:02.183Z</time></trkpt><trkpt lat="45.3317979" lon="7.8884098"><ele>280.0</ele><time>2026-05-02T15:31:03.185Z</time></trkpt><trkpt lat="45.3316773" lon="7.8883797"><ele>282.5</ele><time>2026-05-02T15:31:04.192Z</time></trkpt><trkpt lat="45.3315634" lon="7.8883519"><ele>285.0</ele><time>2026-05-02T15:31:05.182Z</time></trkpt><trkpt lat="45.3314658" lon="7.8883283"><ele>284.8</ele><time>2026-05-02T15:31:06.179Z</time></trkpt><trkpt lat="45.3313776" lon="7.888305"><ele>284.6</ele><time>2026-05-02T15:31:07.185Z</time></trkpt><trkpt lat="45.331283" lon="7.8882752"><ele>284.4</ele><time>2026-05-02T15:31:08.18Z</time></trkpt><trkpt lat="45.3311898" lon="7.8882604"><ele>284.2</ele><time>2026-05-02T15:31:09.176Z</time></trkpt><trkpt lat="45.3310905" lon="7.8882392"><ele>284.0</ele><time>2026-05-02T15:31:10.195Z</time></trkpt><trkpt lat="45.3309864" lon="7.8882178"><ele>284.0</ele><time>2026-05-02T15:31:11.19Z</time></trkpt><trkpt lat="45.3308948" lon="7.8882138"><ele>284.0</ele><time>2026-05-02T15:31:12.188Z</time></trkpt><trkpt lat="45.3307914" lon="7.8882019"><ele>284.0</ele><time>2026-05-02T15:31:13.181Z</time></trkpt><trkpt lat="45.3306823" lon="7.8881855"><ele>284.0</ele><time>2026-05-02T15:31:14.184Z</time></trkpt><trkpt lat="45.3305675" lon="7.8881534"><ele>284.0</ele><time>2026-05-02T15:31:15.18Z</time></trkpt><trkpt lat="45.3304594" lon="7.888122"><ele>284.5</ele><time>2026-05-02T15:31:16.185Z</time></trkpt><trkpt lat="45.3303539" lon="7.8880904"><ele>285.0</ele><time>2026-05-02T15:31:17.18Z</time></trkpt><trkpt lat="45.3302354" lon="7.8880361"><ele>285.5</ele><time>2026-05-02T15:31:18.182Z</time></trkpt><trkpt lat="45.3301258" lon="7.8879965"><ele>286.0</ele><time>2026-05-02T15:31:19.186Z</time></trkpt><trkpt lat="45.3300195" lon="7.8879642"><ele>286.0</ele><time>2026-05-02T15:31:20.186Z</time></trkpt><trkpt lat="45.3299138" lon="7.887934"><ele>286.0</ele><time>2026-05-02T15:31:21.186Z</time></trkpt><trkpt lat="45.3298103" lon="7.8879036"><ele>286.0</ele><time>2026-05-02T15:31:22.191Z</time></trkpt><trkpt lat="45.3297044" lon="7.8878757"><ele>286.0</ele><time>2026-05-02T15:31:23.192Z</time></trkpt><trkpt lat="45.3295982" lon="7.8878447"><ele>286.0</ele><time>2026-05-02T15:31:24.184Z</time></trkpt><trkpt lat="45.3294958" lon="7.8878095"><ele>287.3333333333333</ele><time>2026-05-02T15:31:25.179Z</time></trkpt><trkpt lat="45.3294079" lon="7.8877823"><ele>288.66666666666663</ele><time>2026-05-02T15:31:26.185Z</time></trkpt><trkpt lat="45.329335" lon="7.8877653"><ele>290.0</ele><time>2026-05-02T15:31:27.181Z</time></trkpt><trkpt lat="45.3292637" lon="7.88774"><ele>291.3333333333333</ele><time>2026-05-02T15:31:28.181Z</time></trkpt><trkpt lat="45.3291697" lon="7.8876431"><ele>292.6666666666667</ele><time>2026-05-02T15:31:30.186Z</time></trkpt><trkpt lat="45.3291155" lon="7.8875955"><ele>294.0</ele><time>2026-05-02T15:31:31.185Z</time></trkpt><trkpt lat="45.329015" lon="7.887515"><ele>294.0</ele><time>2026-05-02T15:31:33.185Z</time></trkpt><trkpt lat="45.3289566" lon="7.8874523"><ele>294.0</ele><time>2026-05-02T15:31:34.18Z</time></trkpt><trkpt lat="45.328891" lon="7.8873951"><ele>294.0</ele><time>2026-05-02T15:31:35.177Z</time></trkpt><trkpt lat="45.3288261" lon="7.8873335"><ele>294.0</ele><time>2026-05-02T15:31:36.182Z</time></trkpt><trkpt lat="45.3287558" lon="7.8873019"><ele>294.0</ele><time>2026-05-02T15:31:37.181Z</time></trkpt><trkpt lat="45.3286166" lon="7.8873116"><ele>294.0</ele><time>2026-05-02T15:31:39.213Z</time></trkpt><trkpt lat="45.3285451" lon="7.8872808"><ele>294.1666666666667</ele><time>2026-05-02T15:31:40.181Z</time></trkpt><trkpt lat="45.3284741" lon="7.8872752"><ele>294.3333333333333</ele><time>2026-05-02T15:31:41.184Z</time></trkpt><trkpt lat="45.3283988" lon="7.8872807"><ele>294.5</ele><time>2026-05-02T15:31:42.179Z</time></trkpt><trkpt lat="45.3283164" lon="7.887317"><ele>294.66666666666663</ele><time>2026-05-02T15:31:44.188Z</time></trkpt><trkpt lat="45.3282471" lon="7.8873287"><ele>294.8333333333333</ele><time>2026-05-02T15:31:46.177Z</time></trkpt><trkpt lat="45.3281843" lon="7.8872552"><ele>295.0</ele><time>2026-05-02T15:31:49.175Z</time></trkpt><trkpt lat="45.3281931" lon="7.8871454"><ele>295.0</ele><time>2026-05-02T15:31:51.178Z</time></trkpt><trkpt lat="45.3282053" lon="7.8869753"><ele>295.0</ele><time>2026-05-02T15:31:53.182Z</time></trkpt><trkpt lat="45.3282135" lon="7.8868796"><ele>295.0</ele><time>2026-05-02T15:31:54.187Z</time></trkpt><trkpt lat="45.3282278" lon="7.8867164"><ele>295.0</ele><time>2026-05-02T15:31:56.176Z</time></trkpt><trkpt lat="45.3282473" lon="7.886555"><ele>295.0</ele><time>2026-05-02T15:31:58.181Z</time></trkpt><trkpt lat="45.328236" lon="7.8863816"><ele>295.0</ele><time>2026-05-02T15:32:00.175Z</time></trkpt><trkpt lat="45.3282208" lon="7.8862168"><ele>295.0</ele><time>2026-05-02T15:32:02.185Z</time></trkpt><trkpt lat="45.3281873" lon="7.8861191"><ele>295.0</ele><time>2026-05-02T15:32:03.176Z</time></trkpt><trkpt lat="45.3281535" lon="7.8860315"><ele>295.0</ele><time>2026-05-02T15:32:04.188Z</time></trkpt><trkpt lat="45.3280842" lon="7.8859394"><ele>295.0</ele><time>2026-05-02T15:32:05.178Z</time></trkpt><trkpt lat="45.3280226" lon="7.8858352"><ele>293.5</ele><time>2026-05-02T15:32:06.19Z</time></trkpt><trkpt lat="45.3279595" lon="7.8857307"><ele>292.0</ele><time>2026-05-02T15:32:07.177Z</time></trkpt><trkpt lat="45.3278847" lon="7.8856301"><ele>290.5</ele><time>2026-05-02T15:32:08.181Z</time></trkpt><trkpt lat="45.3278075" lon="7.8855342"><ele>289.0</ele><time>2026-05-02T15:32:09.177Z</time></trkpt><trkpt lat="45.3276699" lon="7.8854074"><ele>289.0</ele><time>2026-05-02T15:32:10.177Z</time></trkpt><trkpt lat="45.3275493" lon="7.8852553"><ele>289.0</ele><time>2026-05-02T15:32:11.177Z</time></trkpt><trkpt lat="45.3274237" lon="7.8850941"><ele>289.0</ele><time>2026-05-02T15:32:12.178Z</time></trkpt><trkpt lat="45.3272832" lon="7.8849084"><ele>288.75</ele><time>2026-05-02T15:32:13.187Z</time></trkpt><trkpt lat="45.3271794" lon="7.8847549"><ele>288.5</ele><time>2026-05-02T15:32:14.177Z</time></trkpt><trkpt lat="45.3270853" lon="7.8846059"><ele>288.25</ele><time>2026-05-02T15:32:15.191Z</time></trkpt><trkpt lat="45.3269959" lon="7.8844542"><ele>288.0</ele><time>2026-05-02T15:32:16.186Z</time></trkpt><trkpt lat="45.326913" lon="7.8843011"><ele>289.25</ele><time>2026-05-02T15:32:17.181Z</time></trkpt><trkpt lat="45.3268362" lon="7.8841557"><ele>290.5</ele><time>2026-05-02T15:32:18.18Z</time></trkpt><trkpt lat="45.3267559" lon="7.8840195"><ele>291.75</ele><time>2026-05-02T15:32:19.181Z</time></trkpt><trkpt lat="45.3266771" lon="7.8838901"><ele>293.0</ele><time>2026-05-02T15:32:20.18Z</time></trkpt><trkpt lat="45.326607" lon="7.8837658"><ele>293.0</ele><time>2026-05-02T15:32:21.19Z</time></trkpt><trkpt lat="45.3265352" lon="7.8836275"><ele>293.0</ele><time>2026-05-02T15:32:22.188Z</time></trkpt><trkpt lat="45.3264505" lon="7.8834909"><ele>293.0</ele><time>2026-05-02T15:32:23.185Z</time></trkpt><trkpt lat="45.3263688" lon="7.8833363"><ele>293.0</ele><time>2026-05-02T15:32:24.189Z</time></trkpt><trkpt lat="45.3262842" lon="7.8831517"><ele>294.6666666666667</ele><time>2026-05-02T15:32:25.188Z</time></trkpt><trkpt lat="45.326193" lon="7.8829609"><ele>296.3333333333333</ele><time>2026-05-02T15:32:26.179Z</time></trkpt><trkpt lat="45.3260904" lon="7.8827576"><ele>298.0</ele><time>2026-05-02T15:32:27.182Z</time></trkpt><trkpt lat="45.3259902" lon="7.8825627"><ele>299.75</ele><time>2026-05-02T15:32:28.181Z</time></trkpt><trkpt lat="45.325901" lon="7.8823919"><ele>301.5</ele><time>2026-05-02T15:32:29.185Z</time></trkpt><trkpt lat="45.3258177" lon="7.882231"><ele>303.25</ele><time>2026-05-02T15:32:30.19Z</time></trkpt><trkpt lat="45.3257462" lon="7.8820913"><ele>305.0</ele><time>2026-05-02T15:32:31.186Z</time></trkpt><trkpt lat="45.3256855" lon="7.881968"><ele>305.0</ele><time>2026-05-02T15:32:32.186Z</time></trkpt><trkpt lat="45.3256305" lon="7.8818537"><ele>305.0</ele><time>2026-05-02T15:32:33.182Z</time></trkpt><trkpt lat="45.3255752" lon="7.8817476"><ele>305.0</ele><time>2026-05-02T15:32:34.179Z</time></trkpt><trkpt lat="45.3255188" lon="7.8816329"><ele>305.0</ele><time>2026-05-02T15:32:35.182Z</time></trkpt><trkpt lat="45.3254645" lon="7.8815273"><ele>305.0</ele><time>2026-05-02T15:32:36.184Z</time></trkpt><trkpt lat="45.3254108" lon="7.881431"><ele>306.14285714285717</ele><time>2026-05-02T15:32:37.189Z</time></trkpt><trkpt lat="45.3253647" lon="7.8813518"><ele>307.2857142857143</ele><time>2026-05-02T15:32:38.184Z</time></trkpt><trkpt lat="45.3253219" lon="7.8812841"><ele>308.42857142857144</ele><time>2026-05-02T15:32:39.181Z</time></trkpt><trkpt lat="45.3252847" lon="7.881198"><ele>309.57142857142856</ele><time>2026-05-02T15:32:41.183Z</time></trkpt><trkpt lat="45.325236" lon="7.8811065"><ele>310.7142857142857</ele><time>2026-05-02T15:32:45.182Z</time></trkpt><trkpt lat="45.3251966" lon="7.8810364"><ele>311.85714285714283</ele><time>2026-05-02T15:32:46.181Z</time></trkpt><trkpt lat="45.3251476" lon="7.8809198"><ele>313.0</ele><time>2026-05-02T15:32:47.184Z</time></trkpt><trkpt lat="45.3250525" lon="7.8807713"><ele>313.0</ele><time>2026-05-02T15:32:48.185Z</time></trkpt><trkpt lat="45.3249529" lon="7.8805923"><ele>313.0</ele><time>2026-05-02T15:32:49.186Z</time></trkpt><trkpt lat="45.3248546" lon="7.8804014"><ele>313.0</ele><time>2026-05-02T15:32:50.184Z</time></trkpt><trkpt lat="45.3247437" lon="7.8802109"><ele>316.3333333333333</ele><time>2026-05-02T15:32:51.179Z</time></trkpt><trkpt lat="45.3246342" lon="7.8800211"><ele>319.6666666666667</ele><time>2026-05-02T15:32:52.224Z</time></trkpt><trkpt lat="45.3245285" lon="7.8798283"><ele>323.0</ele><time>2026-05-02T15:32:53.184Z</time></trkpt><trkpt lat="45.324429" lon="7.8796458"><ele>323.0</ele><time>2026-05-02T15:32:54.193Z</time></trkpt><trkpt lat="45.3243286" lon="7.8794859"><ele>323.0</ele><time>2026-05-02T15:32:55.181Z</time></trkpt><trkpt lat="45.3242206" lon="7.87934"><ele>323.0</ele><time>2026-05-02T15:32:56.188Z</time></trkpt><trkpt lat="45.3240989" lon="7.879227"><ele>323.0</ele><time>2026-05-02T15:32:57.188Z</time></trkpt><trkpt lat="45.3239652" lon="7.8791398"><ele>320.33333333333337</ele><time>2026-05-02T15:32:58.179Z</time></trkpt><trkpt lat="45.3238185" lon="7.8790866"><ele>317.6666666666667</ele><time>2026-05-02T15:32:59.187Z</time></trkpt><trkpt lat="45.3236487" lon="7.8790341"><ele>315.0</ele><time>2026-05-02T15:33:00.179Z</time></trkpt><trkpt lat="45.3234664" lon="7.8789818"><ele>315.0</ele><time>2026-05-02T15:33:01.178Z</time></trkpt><trkpt lat="45.3232814" lon="7.8789247"><ele>315.0</ele><time>2026-05-02T15:33:02.188Z</time></trkpt><trkpt lat="45.3230979" lon="7.8788646"><ele>315.0</ele><time>2026-05-02T15:33:03.184Z</time></trkpt><trkpt lat="45.3229093" lon="7.8788006"><ele>315.0</ele><time>2026-05-02T15:33:04.182Z</time></trkpt><trkpt lat="45.322715" lon="7.8787331"><ele>315.0</ele><time>2026-05-02T15:33:05.19Z</time></trkpt><trkpt lat="45.322516" lon="7.8786578"><ele>315.0</ele><time>2026-05-02T15:33:06.183Z</time></trkpt><trkpt lat="45.3223174" lon="7.878586"><ele>312.3333333333333</ele><time>2026-05-02T15:33:07.179Z</time></trkpt><trkpt lat="45.322117" lon="7.8785139"><ele>309.66666666666663</ele><time>2026-05-02T15:33:08.177Z</time></trkpt><trkpt lat="45.3219177" lon="7.8784402"><ele>307.0</ele><time>2026-05-02T15:33:09.183Z</time></trkpt><trkpt lat="45.3217233" lon="7.8783656"><ele>307.0</ele><time>2026-05-02T15:33:10.182Z</time></trkpt><trkpt lat="45.321536" lon="7.8782953"><ele>307.0</ele><time>2026-05-02T15:33:11.188Z</time></trkpt><trkpt lat="45.3213508" lon="7.8782277"><ele>307.0</ele><time>2026-05-02T15:33:12.182Z</time></trkpt><trkpt lat="45.3211641" lon="7.8781619"><ele>306.0</ele><time>2026-05-02T15:33:13.18Z</time></trkpt><trkpt lat="45.3209776" lon="7.8780968"><ele>305.0</ele><time>2026-05-02T15:33:14.206Z</time></trkpt><trkpt lat="45.3207946" lon="7.878034"><ele>304.0</ele><time>2026-05-02T15:33:15.187Z</time></trkpt><trkpt lat="45.3206209" lon="7.8779801"><ele>304.0</ele><time>2026-05-02T15:33:16.182Z</time></trkpt><trkpt lat="45.3204535" lon="7.8779388"><ele>304.0</ele><time>2026-05-02T15:33:17.181Z</time></trkpt><trkpt lat="45.3202874" lon="7.8779268"><ele>304.0</ele><time>2026-05-02T15:33:18.181Z</time></trkpt><trkpt lat="45.320115" lon="7.8779467"><ele>304.0</ele><time>2026-05-02T15:33:19.178Z</time></trkpt><trkpt lat="45.3199388" lon="7.8780036"><ele>304.0</ele><time>2026-05-02T15:33:20.179Z</time></trkpt><trkpt lat="45.3197642" lon="7.8780818"><ele>304.0</ele><time>2026-05-02T15:33:21.184Z</time></trkpt><trkpt lat="45.3195973" lon="7.8781605"><ele>303.0</ele><time>2026-05-02T15:33:22.184Z</time></trkpt><trkpt lat="45.3194327" lon="7.8782382"><ele>302.0</ele><time>2026-05-02T15:33:23.184Z</time></trkpt><trkpt lat="45.3192674" lon="7.8783137"><ele>301.0</ele><time>2026-05-02T15:33:24.177Z</time></trkpt><trkpt lat="45.3190961" lon="7.8783866"><ele>303.0</ele><time>2026-05-02T15:33:25.183Z</time></trkpt><trkpt lat="45.3189209" lon="7.8784602"><ele>305.0</ele><time>2026-05-02T15:33:26.181Z</time></trkpt><trkpt lat="45.3187445" lon="7.8785347"><ele>307.0</ele><time>2026-05-02T15:33:27.22Z</time></trkpt><trkpt lat="45.3185686" lon="7.8786067"><ele>307.0</ele><time>2026-05-02T15:33:28.18Z</time></trkpt><trkpt lat="45.3183937" lon="7.878676"><ele>307.0</ele><time>2026-05-02T15:33:29.183Z</time></trkpt><trkpt lat="45.3182196" lon="7.8787438"><ele>307.0</ele><time>2026-05-02T15:33:30.185Z</time></trkpt><trkpt lat="45.3180489" lon="7.8788094"><ele>305.66666666666663</ele><time>2026-05-02T15:33:31.182Z</time></trkpt><trkpt lat="45.3178801" lon="7.8788727"><ele>304.3333333333333</ele><time>2026-05-02T15:33:32.181Z</time></trkpt><trkpt lat="45.3177117" lon="7.8789364"><ele>303.0</ele><time>2026-05-02T15:33:33.184Z</time></trkpt><trkpt lat="45.3175391" lon="7.8789935"><ele>303.0</ele><time>2026-05-02T15:33:34.178Z</time></trkpt><trkpt lat="45.3173542" lon="7.8790346"><ele>303.0</ele><time>2026-05-02T15:33:35.18Z</time></trkpt><trkpt lat="45.3171717" lon="7.8790842"><ele>303.0</ele><time>2026-05-02T15:33:36.182Z</time></trkpt><trkpt lat="45.3169945" lon="7.8791495"><ele>302.3333333333333</ele><time>2026-05-02T15:33:37.185Z</time></trkpt><trkpt lat="45.3168179" lon="7.8792408"><ele>301.66666666666663</ele><time>2026-05-02T15:33:38.182Z</time></trkpt><trkpt lat="45.3166408" lon="7.8793429"><ele>301.0</ele><time>2026-05-02T15:33:39.18Z</time></trkpt><trkpt lat="45.3164605" lon="7.8794527"><ele>299.66666666666663</ele><time>2026-05-02T15:33:40.18Z</time></trkpt><trkpt lat="45.3162775" lon="7.8795619"><ele>298.3333333333333</ele><time>2026-05-02T15:33:41.185Z</time></trkpt><trkpt lat="45.316094" lon="7.8796684"><ele>297.0</ele><time>2026-05-02T15:33:42.18Z</time></trkpt><trkpt lat="45.3159099" lon="7.8797729"><ele>297.0</ele><time>2026-05-02T15:33:43.177Z</time></trkpt><trkpt lat="45.3157382" lon="7.8798673"><ele>297.0</ele><time>2026-05-02T15:33:44.182Z</time></trkpt><trkpt lat="45.3155665" lon="7.8799642"><ele>297.0</ele><time>2026-05-02T15:33:45.194Z</time></trkpt><trkpt lat="45.3154003" lon="7.8800511"><ele>297.3333333333333</ele><time>2026-05-02T15:33:46.178Z</time></trkpt><trkpt lat="45.3152316" lon="7.8801035"><ele>297.66666666666663</ele><time>2026-05-02T15:33:47.179Z</time></trkpt><trkpt lat="45.3150604" lon="7.8801464"><ele>298.0</ele><time>2026-05-02T15:33:48.179Z</time></trkpt><trkpt lat="45.3148961" lon="7.8801642"><ele>298.0</ele><time>2026-05-02T15:33:49.18Z</time></trkpt><trkpt lat="45.3147207" lon="7.8801654"><ele>298.0</ele><time>2026-05-02T15:33:50.185Z</time></trkpt><trkpt lat="45.3145393" lon="7.8801529"><ele>298.0</ele><time>2026-05-02T15:33:51.185Z</time></trkpt><trkpt lat="45.3143445" lon="7.8801114"><ele>296.0</ele><time>2026-05-02T15:33:52.192Z</time></trkpt><trkpt lat="45.3141467" lon="7.8800565"><ele>294.0</ele><time>2026-05-02T15:33:53.19Z</time></trkpt><trkpt lat="45.3139441" lon="7.8799728"><ele>292.0</ele><time>2026-05-02T15:33:54.179Z</time></trkpt><trkpt lat="45.3137457" lon="7.8798864"><ele>290.66666666666663</ele><time>2026-05-02T15:33:55.179Z</time></trkpt><trkpt lat="45.3135415" lon="7.8797967"><ele>289.3333333333333</ele><time>2026-05-02T15:33:56.177Z</time></trkpt><trkpt lat="45.3133395" lon="7.8797119"><ele>288.0</ele><time>2026-05-02T15:33:57.212Z</time></trkpt><trkpt lat="45.3131397" lon="7.8796366"><ele>287.3333333333333</ele><time>2026-05-02T15:33:58.19Z</time></trkpt><trkpt lat="45.3129436" lon="7.8795665"><ele>286.66666666666663</ele><time>2026-05-02T15:33:59.181Z</time></trkpt><trkpt lat="45.3127492" lon="7.8794995"><ele>286.0</ele><time>2026-05-02T15:34:00.177Z</time></trkpt><trkpt lat="45.3125528" lon="7.8794319"><ele>286.0</ele><time>2026-05-02T15:34:01.179Z</time></trkpt><trkpt lat="45.3123533" lon="7.8793611"><ele>286.0</ele><time>2026-05-02T15:34:02.187Z</time></trkpt><trkpt lat="45.3121551" lon="7.8792914"><ele>286.0</ele><time>2026-05-02T15:34:03.182Z</time></trkpt><trkpt lat="45.3119589" lon="7.8792244"><ele>285.0</ele><time>2026-05-02T15:34:04.179Z</time></trkpt><trkpt lat="45.3117643" lon="7.8791564"><ele>284.0</ele><time>2026-05-02T15:34:05.186Z</time></trkpt><trkpt lat="45.3115707" lon="7.8790921"><ele>283.0</ele><time>2026-05-02T15:34:06.179Z</time></trkpt><trkpt lat="45.3113794" lon="7.8790253"><ele>282.3333333333333</ele><time>2026-05-02T15:34:07.18Z</time></trkpt><trkpt lat="45.3111851" lon="7.8789614"><ele>281.6666666666667</ele><time>2026-05-02T15:34:08.184Z</time></trkpt><trkpt lat="45.3109892" lon="7.8789002"><ele>281.0</ele><time>2026-05-02T15:34:09.187Z</time></trkpt><trkpt lat="45.310792" lon="7.8788444"><ele>281.0</ele><time>2026-05-02T15:34:10.185Z</time></trkpt><trkpt lat="45.3105956" lon="7.878793"><ele>281.0</ele><time>2026-05-02T15:34:11.178Z</time></trkpt><trkpt lat="45.3104052" lon="7.8787525"><ele>281.0</ele><time>2026-05-02T15:34:12.181Z</time></trkpt><trkpt lat="45.3102222" lon="7.8787223"><ele>281.0</ele><time>2026-05-02T15:34:13.208Z</time></trkpt><trkpt lat="45.3100442" lon="7.8787031"><ele>281.0</ele><time>2026-05-02T15:34:14.184Z</time></trkpt><trkpt lat="45.3098677" lon="7.87869"><ele>281.0</ele><time>2026-05-02T15:34:15.181Z</time></trkpt><trkpt lat="45.3096915" lon="7.8786816"><ele>281.0</ele><time>2026-05-02T15:34:16.177Z</time></trkpt><trkpt lat="45.3095228" lon="7.8786802"><ele>281.0</ele><time>2026-05-02T15:34:17.177Z</time></trkpt><trkpt lat="45.3093609" lon="7.8786805"><ele>281.0</ele><time>2026-05-02T15:34:18.181Z</time></trkpt><trkpt lat="45.3092098" lon="7.8786831"><ele>281.0</ele><time>2026-05-02T15:34:19.185Z</time></trkpt><trkpt lat="45.3090673" lon="7.8786825"><ele>281.0</ele><time>2026-05-02T15:34:20.185Z</time></trkpt><trkpt lat="45.3089338" lon="7.878683"><ele>281.0</ele><time>2026-05-02T15:34:21.187Z</time></trkpt><trkpt lat="45.30881" lon="7.8786845"><ele>281.0</ele><time>2026-05-02T15:34:22.182Z</time></trkpt><trkpt lat="45.3086974" lon="7.8786849"><ele>280.83333333333337</ele><time>2026-05-02T15:34:23.188Z</time></trkpt><trkpt lat="45.3085977" lon="7.878685"><ele>280.6666666666667</ele><time>2026-05-02T15:34:24.175Z</time></trkpt><trkpt lat="45.3085088" lon="7.8786828"><ele>280.5</ele><time>2026-05-02T15:34:25.177Z</time></trkpt><trkpt lat="45.3084325" lon="7.8786789"><ele>280.3333333333333</ele><time>2026-05-02T15:34:26.186Z</time></trkpt><trkpt lat="45.3083662" lon="7.8786737"><ele>280.16666666666663</ele><time>2026-05-02T15:34:27.183Z</time></trkpt><trkpt lat="45.3083062" lon="7.8786425"><ele>280.0</ele><time>2026-05-02T15:34:28.175Z</time></trkpt><trkpt lat="45.3082573" lon="7.8785791"><ele>280.0</ele><time>2026-05-02T15:34:29.208Z</time></trkpt><trkpt lat="45.3082304" lon="7.8784678"><ele>280.0</ele><time>2026-05-02T15:34:30.183Z</time></trkpt><trkpt lat="45.3082215" lon="7.8783203"><ele>280.0</ele><time>2026-05-02T15:34:31.186Z</time></trkpt><trkpt lat="45.3082146" lon="7.8781321"><ele>280.0</ele><time>2026-05-02T15:34:32.191Z</time></trkpt><trkpt lat="45.3081984" lon="7.8779217"><ele>280.0</ele><time>2026-05-02T15:34:33.178Z</time></trkpt><trkpt lat="45.3081805" lon="7.8777181"><ele>280.0</ele><time>2026-05-02T15:34:34.181Z</time></trkpt><trkpt lat="45.3081652" lon="7.8775062"><ele>280.0</ele><time>2026-05-02T15:34:35.198Z</time></trkpt><trkpt lat="45.3081477" lon="7.8772875"><ele>280.0</ele><time>2026-05-02T15:34:36.185Z</time></trkpt><trkpt lat="45.3081274" lon="7.8770599"><ele>280.0</ele><time>2026-05-02T15:34:37.179Z</time></trkpt><trkpt lat="45.308106" lon="7.876834"><ele>280.0</ele><time>2026-05-02T15:34:38.21Z</time></trkpt><trkpt lat="45.3080766" lon="7.8766108"><ele>280.0</ele><time>2026-05-02T15:34:39.176Z</time></trkpt><trkpt lat="45.3080536" lon="7.8764061"><ele>280.0</ele><time>2026-05-02T15:34:40.216Z</time></trkpt><trkpt lat="45.3080342" lon="7.8762201"><ele>280.0</ele><time>2026-05-02T15:34:41.179Z</time></trkpt><trkpt lat="45.308017" lon="7.8760501"><ele>280.0</ele><time>2026-05-02T15:34:42.21Z</time></trkpt><trkpt lat="45.3079974" lon="7.8758942"><ele>280.0</ele><time>2026-05-02T15:34:43.184Z</time></trkpt><trkpt lat="45.307982" lon="7.8757465"><ele>280.0</ele><time>2026-05-02T15:34:44.183Z</time></trkpt><trkpt lat="45.3079671" lon="7.8755955"><ele>280.0</ele><time>2026-05-02T15:34:45.182Z</time></trkpt><trkpt lat="45.3079528" lon="7.8754323"><ele>280.0</ele><time>2026-05-02T15:34:46.212Z</time></trkpt><trkpt lat="45.3079374" lon="7.8752536"><ele>280.0</ele><time>2026-05-02T15:34:47.185Z</time></trkpt><trkpt lat="45.3079272" lon="7.8750681"><ele>279.75</ele><time>2026-05-02T15:34:48.185Z</time></trkpt><trkpt lat="45.3079208" lon="7.8748809"><ele>279.5</ele><time>2026-05-02T15:34:49.183Z</time></trkpt><trkpt lat="45.3079193" lon="7.8746946"><ele>279.25</ele><time>2026-05-02T15:34:50.184Z</time></trkpt><trkpt lat="45.3079245" lon="7.8745137"><ele>279.0</ele><time>2026-05-02T15:34:51.184Z</time></trkpt><trkpt lat="45.307931" lon="7.8743327"><ele>278.75</ele><time>2026-05-02T15:34:52.192Z</time></trkpt><trkpt lat="45.307938" lon="7.8741474"><ele>278.5</ele><time>2026-05-02T15:34:53.182Z</time></trkpt><trkpt lat="45.3079453" lon="7.8739584"><ele>278.25</ele><time>2026-05-02T15:34:54.182Z</time></trkpt><trkpt lat="45.3079475" lon="7.8737608"><ele>278.0</ele><time>2026-05-02T15:34:55.188Z</time></trkpt><trkpt lat="45.3079504" lon="7.8735532"><ele>278.0</ele><time>2026-05-02T15:34:56.183Z</time></trkpt><trkpt lat="45.3079473" lon="7.8733412"><ele>278.0</ele><time>2026-05-02T15:34:57.188Z</time></trkpt><trkpt lat="45.3079435" lon="7.8731416"><ele>278.0</ele><time>2026-05-02T15:34:58.203Z</time></trkpt><trkpt lat="45.3079366" lon="7.8729684"><ele>278.0</ele><time>2026-05-02T15:34:59.184Z</time></trkpt><trkpt lat="45.3079271" lon="7.8728327"><ele>278.0</ele><time>2026-05-02T15:35:00.185Z</time></trkpt><trkpt lat="45.3079215" lon="7.8727412"><ele>278.0</ele><time>2026-05-02T15:35:01.18Z</time></trkpt><trkpt lat="45.3078799" lon="7.8726611"><ele>278.0</ele><time>2026-05-02T15:35:04.188Z</time></trkpt><trkpt lat="45.3078044" lon="7.8726651"><ele>278.0</ele><time>2026-05-02T15:35:07.177Z</time></trkpt><trkpt lat="45.3077178" lon="7.8726631"><ele>278.0</ele><time>2026-05-02T15:35:09.186Z</time></trkpt><trkpt lat="45.307599" lon="7.872655"><ele>278.0</ele><time>2026-05-02T15:35:11.182Z</time></trkpt><trkpt lat="45.3075363" lon="7.8726444"><ele>278.0</ele><time>2026-05-02T15:35:12.187Z</time></trkpt><trkpt lat="45.3074366" lon="7.8726242"><ele>278.0</ele><time>2026-05-02T15:35:14.186Z</time></trkpt><trkpt lat="45.3073553" lon="7.8725769"><ele>278.0</ele><time>2026-05-02T15:35:17.178Z</time></trkpt><trkpt lat="45.3074336" lon="7.8726379"><ele>278.0</ele><time>2026-05-02T15:35:24.177Z</time></trkpt><trkpt lat="45.3074982" lon="7.8726473"><ele>278.0</ele><time>2026-05-02T15:35:25.184Z</time></trkpt><trkpt lat="45.3075825" lon="7.8726612"><ele>278.0</ele><time>2026-05-02T15:35:26.181Z</time></trkpt><trkpt lat="45.307665" lon="7.8726758"><ele>278.0</ele><time>2026-05-02T15:35:27.178Z</time></trkpt><trkpt lat="45.3077403" lon="7.8726895"><ele>278.0</ele><time>2026-05-02T15:35:28.178Z</time></trkpt><trkpt lat="45.3078042" lon="7.8727008"><ele>278.0</ele><time>2026-05-02T15:35:29.177Z</time></trkpt><trkpt lat="45.3078773" lon="7.8727198"><ele>278.0</ele><time>2026-05-02T15:35:31.178Z</time></trkpt><trkpt lat="45.3079506" lon="7.8726322"><ele>278.0</ele><time>2026-05-02T15:35:49.183Z</time></trkpt><trkpt lat="45.3079701" lon="7.8725318"><ele>278.0</ele><time>2026-05-02T15:35:50.182Z</time></trkpt><trkpt lat="45.3079834" lon="7.87239"><ele>278.0</ele><time>2026-05-02T15:35:51.185Z</time></trkpt><trkpt lat="45.3079923" lon="7.8722343"><ele>278.0</ele><time>2026-05-02T15:35:52.179Z</time></trkpt><trkpt lat="45.3079963" lon="7.872076"><ele>278.0</ele><time>2026-05-02T15:35:53.182Z</time></trkpt><trkpt lat="45.3079991" lon="7.8719245"><ele>278.0</ele><time>2026-05-02T15:35:54.177Z</time></trkpt><trkpt lat="45.3079998" lon="7.8717909"><ele>278.0</ele><time>2026-05-02T15:35:55.183Z</time></trkpt><trkpt lat="45.307999" lon="7.8716765"><ele>278.0</ele><time>2026-05-02T15:35:56.178Z</time></trkpt><trkpt lat="45.3079968" lon="7.8715745"><ele>278.0</ele><time>2026-05-02T15:35:57.19Z</time></trkpt><trkpt lat="45.307989" lon="7.8714745"><ele>278.0</ele><time>2026-05-02T15:35:58.181Z</time></trkpt><trkpt lat="45.3079661" lon="7.8713673"><ele>278.0</ele><time>2026-05-02T15:35:59.188Z</time></trkpt><trkpt lat="45.3079286" lon="7.8712472"><ele>278.0</ele><time>2026-05-02T15:36:00.18Z</time></trkpt><trkpt lat="45.307881" lon="7.8711106"><ele>278.0</ele><time>2026-05-02T15:36:01.18Z</time></trkpt><trkpt lat="45.3078282" lon="7.8709619"><ele>278.0</ele><time>2026-05-02T15:36:02.186Z</time></trkpt><trkpt lat="45.3077768" lon="7.8708111"><ele>278.0</ele><time>2026-05-02T15:36:03.178Z</time></trkpt><trkpt lat="45.3077239" lon="7.8706631"><ele>278.0</ele><time>2026-05-02T15:36:04.184Z</time></trkpt><trkpt lat="45.3076694" lon="7.8705307"><ele>278.0</ele><time>2026-05-02T15:36:05.184Z</time></trkpt><trkpt lat="45.3076185" lon="7.8704097"><ele>278.0</ele><time>2026-05-02T15:36:06.201Z</time></trkpt><trkpt lat="45.307571" lon="7.8702954"><ele>278.0</ele><time>2026-05-02T15:36:07.183Z</time></trkpt><trkpt lat="45.3075257" lon="7.8701708"><ele>278.0</ele><time>2026-05-02T15:36:08.19Z</time></trkpt><trkpt lat="45.3074682" lon="7.8700277"><ele>278.0</ele><time>2026-05-02T15:36:09.195Z</time></trkpt><trkpt lat="45.307413" lon="7.8698802"><ele>278.0</ele><time>2026-05-02T15:36:10.187Z</time></trkpt><trkpt lat="45.3073545" lon="7.8697226"><ele>277.5</ele><time>2026-05-02T15:36:11.203Z</time></trkpt><trkpt lat="45.3072976" lon="7.8695611"><ele>277.0</ele><time>2026-05-02T15:36:12.19Z</time></trkpt><trkpt lat="45.3072426" lon="7.8694025"><ele>276.5</ele><time>2026-05-02T15:36:13.19Z</time></trkpt><trkpt lat="45.3071935" lon="7.8692633"><ele>276.0</ele><time>2026-05-02T15:36:14.182Z</time></trkpt><trkpt lat="45.307145" lon="7.8691261"><ele>276.0</ele><time>2026-05-02T15:36:15.189Z</time></trkpt><trkpt lat="45.3070997" lon="7.8690002"><ele>276.0</ele><time>2026-05-02T15:36:16.188Z</time></trkpt><trkpt lat="45.307053" lon="7.8688761"><ele>276.0</ele><time>2026-05-02T15:36:17.196Z</time></trkpt><trkpt lat="45.3070064" lon="7.8687525"><ele>276.0</ele><time>2026-05-02T15:36:18.182Z</time></trkpt><trkpt lat="45.306962" lon="7.8686319"><ele>276.0</ele><time>2026-05-02T15:36:19.187Z</time></trkpt><trkpt lat="45.3069156" lon="7.8685083"><ele>276.25</ele><time>2026-05-02T15:36:20.192Z</time></trkpt><trkpt lat="45.3068634" lon="7.868365"><ele>276.5</ele><time>2026-05-02T15:36:21.222Z</time></trkpt><trkpt lat="45.306808" lon="7.868224"><ele>276.75</ele><time>2026-05-02T15:36:22.185Z</time></trkpt><trkpt lat="45.3067489" lon="7.8680825"><ele>277.0</ele><time>2026-05-02T15:36:23.223Z</time></trkpt><trkpt lat="45.3066866" lon="7.8679385"><ele>277.0</ele><time>2026-05-02T15:36:24.188Z</time></trkpt><trkpt lat="45.3066288" lon="7.8678047"><ele>277.0</ele><time>2026-05-02T15:36:25.185Z</time></trkpt><trkpt lat="45.3065656" lon="7.8676687"><ele>277.0</ele><time>2026-05-02T15:36:26.202Z</time></trkpt><trkpt lat="45.3065015" lon="7.867532"><ele>277.0</ele><time>2026-05-02T15:36:27.189Z</time></trkpt><trkpt lat="45.3064355" lon="7.867388"><ele>276.4</ele><time>2026-05-02T15:36:28.2Z</time></trkpt><trkpt lat="45.3063747" lon="7.8672535"><ele>275.79999999999995</ele><time>2026-05-02T15:36:29.18Z</time></trkpt><trkpt lat="45.3063193" lon="7.8671256"><ele>275.2</ele><time>2026-05-02T15:36:30.189Z</time></trkpt><trkpt lat="45.3062674" lon="7.8670055"><ele>274.59999999999997</ele><time>2026-05-02T15:36:31.186Z</time></trkpt><trkpt lat="45.3062247" lon="7.8669005"><ele>274.0</ele><time>2026-05-02T15:36:32.194Z</time></trkpt><trkpt lat="45.3061898" lon="7.8668084"><ele>274.0</ele><time>2026-05-02T15:36:33.23Z</time></trkpt><trkpt lat="45.3061543" lon="7.8667237"><ele>274.0</ele><time>2026-05-02T15:36:34.187Z</time></trkpt><trkpt lat="45.3061194" lon="7.8666393"><ele>274.0</ele><time>2026-05-02T15:36:35.197Z</time></trkpt><trkpt lat="45.3060732" lon="7.8665167"><ele>274.0</ele><time>2026-05-02T15:36:37.208Z</time></trkpt><trkpt lat="45.3060267" lon="7.8664365"><ele>274.0</ele><time>2026-05-02T15:36:40.23Z</time></trkpt><trkpt lat="45.3059671" lon="7.8664905"><ele>274.0</ele><time>2026-05-02T15:36:44.198Z</time></trkpt><trkpt lat="45.3058714" lon="7.8665064"><ele>274.0</ele><time>2026-05-02T15:39:12.191Z</time></trkpt><trkpt lat="45.3057433" lon="7.8664905"><ele>274.0</ele><time>2026-05-02T15:39:14.198Z</time></trkpt><trkpt lat="45.3056674" lon="7.8664808"><ele>274.0</ele><time>2026-05-02T15:39:15.208Z</time></trkpt><trkpt lat="45.3055912" lon="7.8664748"><ele>274.0</ele><time>2026-05-02T15:39:16.192Z</time></trkpt><trkpt lat="45.3055134" lon="7.8664685"><ele>274.0</ele><time>2026-05-02T15:39:17.225Z</time></trkpt><trkpt lat="45.3054331" lon="7.8664585"><ele>274.0</ele><time>2026-05-02T15:39:18.219Z</time></trkpt><trkpt lat="45.3053578" lon="7.8664473"><ele>273.8333333333333</ele><time>2026-05-02T15:39:19.185Z</time></trkpt><trkpt lat="45.3052838" lon="7.8664388"><ele>273.66666666666663</ele><time>2026-05-02T15:39:20.204Z</time></trkpt><trkpt lat="45.3052133" lon="7.8664314"><ele>273.5</ele><time>2026-05-02T15:39:21.195Z</time></trkpt><trkpt lat="45.3051493" lon="7.8664218"><ele>273.3333333333333</ele><time>2026-05-02T15:39:22.212Z</time></trkpt><trkpt lat="45.3050274" lon="7.8664087"><ele>273.1666666666667</ele><time>2026-05-02T15:39:24.191Z</time></trkpt><trkpt lat="45.3049573" lon="7.8664105"><ele>273.0</ele><time>2026-05-02T15:39:25.189Z</time></trkpt><trkpt lat="45.3048838" lon="7.8664106"><ele>273.0</ele><time>2026-05-02T15:39:26.199Z</time></trkpt><trkpt lat="45.3048037" lon="7.8664064"><ele>273.0</ele><time>2026-05-02T15:39:27.196Z</time></trkpt><trkpt lat="45.3047285" lon="7.8664053"><ele>273.0</ele><time>2026-05-02T15:39:28.185Z</time></trkpt><trkpt lat="45.3046544" lon="7.8664029"><ele>273.0</ele><time>2026-05-02T15:39:29.194Z</time></trkpt><trkpt lat="45.3045802" lon="7.8663995"><ele>273.0</ele><time>2026-05-02T15:39:30.188Z</time></trkpt><trkpt lat="45.304507" lon="7.8663937"><ele>273.0</ele><time>2026-05-02T15:39:31.191Z</time></trkpt><trkpt lat="45.3044327" lon="7.8663857"><ele>272.85714285714283</ele><time>2026-05-02T15:39:32.189Z</time></trkpt><trkpt lat="45.3043579" lon="7.8663774"><ele>272.7142857142857</ele><time>2026-05-02T15:39:33.193Z</time></trkpt><trkpt lat="45.3042845" lon="7.8663685"><ele>272.57142857142856</ele><time>2026-05-02T15:39:34.222Z</time></trkpt><trkpt lat="45.3042115" lon="7.86636"><ele>272.42857142857144</ele><time>2026-05-02T15:39:35.19Z</time></trkpt><trkpt lat="45.3041377" lon="7.8663512"><ele>272.2857142857143</ele><time>2026-05-02T15:39:36.183Z</time></trkpt><trkpt lat="45.3040692" lon="7.8663439"><ele>272.1428571428571</ele><time>2026-05-02T15:39:37.185Z</time></trkpt><trkpt lat="45.3040017" lon="7.8663389"><ele>272.0</ele><time>2026-05-02T15:39:38.198Z</time></trkpt><trkpt lat="45.303934" lon="7.8663352"><ele>271.71428571428567</ele><time>2026-05-02T15:39:39.184Z</time></trkpt><trkpt lat="45.303868" lon="7.8663351"><ele>271.42857142857144</ele><time>2026-05-02T15:39:40.186Z</time></trkpt><trkpt lat="45.3038049" lon="7.8663452"><ele>271.1428571428571</ele><time>2026-05-02T15:39:41.19Z</time></trkpt><trkpt lat="45.3037366" lon="7.8663543"><ele>270.85714285714283</ele><time>2026-05-02T15:39:42.187Z</time></trkpt><trkpt lat="45.3036652" lon="7.8663608"><ele>270.57142857142856</ele><time>2026-05-02T15:39:43.203Z</time></trkpt><trkpt lat="45.3035947" lon="7.8663572"><ele>270.2857142857143</ele><time>2026-05-02T15:39:44.193Z</time></trkpt><trkpt lat="45.3035143" lon="7.8663336"><ele>270.0</ele><time>2026-05-02T15:39:45.194Z</time></trkpt><trkpt lat="45.3034318" lon="7.8663177"><ele>270.0</ele><time>2026-05-02T15:39:46.214Z</time></trkpt><trkpt lat="45.3033555" lon="7.8663085"><ele>270.0</ele><time>2026-05-02T15:39:47.22Z</time></trkpt><trkpt lat="45.3032777" lon="7.8662924"><ele>270.0</ele><time>2026-05-02T15:39:48.194Z</time></trkpt><trkpt lat="45.3032058" lon="7.8662848"><ele>270.0</ele><time>2026-05-02T15:39:49.184Z</time></trkpt><trkpt lat="45.3031333" lon="7.8662823"><ele>270.0</ele><time>2026-05-02T15:39:50.188Z</time></trkpt><trkpt lat="45.3030629" lon="7.8662798"><ele>270.0</ele><time>2026-05-02T15:39:51.194Z</time></trkpt><trkpt lat="45.3029899" lon="7.8662695"><ele>270.0</ele><time>2026-05-02T15:39:52.199Z</time></trkpt><trkpt lat="45.3029199" lon="7.8662573"><ele>269.8333333333333</ele><time>2026-05-02T15:39:53.19Z</time></trkpt><trkpt lat="45.302849" lon="7.8662402"><ele>269.6666666666667</ele><time>2026-05-02T15:39:54.18Z</time></trkpt><trkpt lat="45.302777" lon="7.8662171"><ele>269.5</ele><time>2026-05-02T15:39:55.184Z</time></trkpt><trkpt lat="45.3026903" lon="7.8661881"><ele>269.33333333333337</ele><time>2026-05-02T15:39:56.177Z</time></trkpt><trkpt lat="45.3025986" lon="7.8661656"><ele>269.1666666666667</ele><time>2026-05-02T15:39:57.193Z</time></trkpt><trkpt lat="45.3025085" lon="7.8661474"><ele>269.0</ele><time>2026-05-02T15:39:58.182Z</time></trkpt><trkpt lat="45.3024175" lon="7.8661329"><ele>269.0</ele><time>2026-05-02T15:39:59.192Z</time></trkpt><trkpt lat="45.3023313" lon="7.8661235"><ele>269.0</ele><time>2026-05-02T15:40:00.18Z</time></trkpt><trkpt lat="45.3022426" lon="7.8661141"><ele>269.0</ele><time>2026-05-02T15:40:01.183Z</time></trkpt><trkpt lat="45.3021555" lon="7.8661052"><ele>269.0</ele><time>2026-05-02T15:40:02.177Z</time></trkpt><trkpt lat="45.302084" lon="7.8661004"><ele>269.0</ele><time>2026-05-02T15:40:03.185Z</time></trkpt><trkpt lat="45.3020162" lon="7.866096"><ele>269.0</ele><time>2026-05-02T15:40:04.205Z</time></trkpt><trkpt lat="45.3019497" lon="7.8660893"><ele>269.0</ele><time>2026-05-02T15:40:05.184Z</time></trkpt><trkpt lat="45.301886" lon="7.8660811"><ele>269.0</ele><time>2026-05-02T15:40:06.186Z</time></trkpt><trkpt lat="45.3017676" lon="7.866067"><ele>269.0</ele><time>2026-05-02T15:40:08.184Z</time></trkpt><trkpt lat="45.301655" lon="7.8660553"><ele>269.0</ele><time>2026-05-02T15:40:10.185Z</time></trkpt><trkpt lat="45.3015518" lon="7.866041"><ele>269.0</ele><time>2026-05-02T15:40:12.183Z</time></trkpt><trkpt lat="45.3014544" lon="7.8660354"><ele>269.0</ele><time>2026-05-02T15:40:14.188Z</time></trkpt><trkpt lat="45.3013484" lon="7.8660325"><ele>269.0</ele><time>2026-05-02T15:40:16.184Z</time></trkpt><trkpt lat="45.3012369" lon="7.8660274"><ele>269.0</ele><time>2026-05-02T15:40:18.182Z</time></trkpt><trkpt lat="45.3011073" lon="7.8660157"><ele>269.0</ele><time>2026-05-02T15:40:20.194Z</time></trkpt><trkpt lat="45.3010383" lon="7.8660097"><ele>269.0</ele><time>2026-05-02T15:40:21.191Z</time></trkpt><trkpt lat="45.300968" lon="7.8660006"><ele>269.0</ele><time>2026-05-02T15:40:22.185Z</time></trkpt><trkpt lat="45.3009021" lon="7.8659929"><ele>269.0</ele><time>2026-05-02T15:40:23.191Z</time></trkpt><trkpt lat="45.3008386" lon="7.8659836"><ele>269.0</ele><time>2026-05-02T15:40:24.187Z</time></trkpt><trkpt lat="45.3007122" lon="7.8659658"><ele>269.0</ele><time>2026-05-02T15:40:26.188Z</time></trkpt><trkpt lat="45.3006415" lon="7.8659538"><ele>269.0</ele><time>2026-05-02T15:40:27.187Z</time></trkpt><trkpt lat="45.3005683" lon="7.8659399"><ele>269.0</ele><time>2026-05-02T15:40:28.18Z</time></trkpt><trkpt lat="45.3004965" lon="7.8659303"><ele>269.0</ele><time>2026-05-02T15:40:29.175Z</time></trkpt><trkpt lat="45.3004289" lon="7.8659242"><ele>269.0</ele><time>2026-05-02T15:40:30.179Z</time></trkpt><trkpt lat="45.3003131" lon="7.8659172"><ele>269.0</ele><time>2026-05-02T15:40:32.178Z</time></trkpt><trkpt lat="45.3001908" lon="7.8659102"><ele>269.0</ele><time>2026-05-02T15:40:34.178Z</time></trkpt><trkpt lat="45.3000747" lon="7.8659111"><ele>269.0</ele><time>2026-05-02T15:40:36.191Z</time></trkpt><trkpt lat="45.2999548" lon="7.8659253"><ele>269.0</ele><time>2026-05-02T15:40:38.186Z</time></trkpt><trkpt lat="45.2998881" lon="7.8659297"><ele>269.0</ele><time>2026-05-02T15:40:39.178Z</time></trkpt><trkpt lat="45.2998156" lon="7.8659269"><ele>269.0</ele><time>2026-05-02T15:40:40.178Z</time></trkpt><trkpt lat="45.2997429" lon="7.8659199"><ele>269.0</ele><time>2026-05-02T15:40:41.176Z</time></trkpt><trkpt lat="45.2996688" lon="7.8659029"><ele>269.0</ele><time>2026-05-02T15:40:42.177Z</time></trkpt><trkpt lat="45.2995998" lon="7.8658827"><ele>269.0</ele><time>2026-05-02T15:40:43.21Z</time></trkpt><trkpt lat="45.2995317" lon="7.8658684"><ele>269.0</ele><time>2026-05-02T15:40:44.18Z</time></trkpt><trkpt lat="45.299459" lon="7.8658575"><ele>268.57142857142856</ele><time>2026-05-02T15:40:45.187Z</time></trkpt><trkpt lat="45.299385" lon="7.8658522"><ele>268.14285714285717</ele><time>2026-05-02T15:40:46.187Z</time></trkpt><trkpt lat="45.2993082" lon="7.8658467"><ele>267.7142857142857</ele><time>2026-05-02T15:40:47.184Z</time></trkpt><trkpt lat="45.2992295" lon="7.8658428"><ele>267.2857142857143</ele><time>2026-05-02T15:40:48.184Z</time></trkpt><trkpt lat="45.2991506" lon="7.865836"><ele>266.8571428571429</ele><time>2026-05-02T15:40:49.19Z</time></trkpt><trkpt lat="45.2990776" lon="7.8658296"><ele>266.42857142857144</ele><time>2026-05-02T15:40:50.188Z</time></trkpt><trkpt lat="45.2990123" lon="7.8658239"><ele>266.0</ele><time>2026-05-02T15:40:51.191Z</time></trkpt><trkpt lat="45.298907" lon="7.8658084"><ele>265.6666666666667</ele><time>2026-05-02T15:40:53.178Z</time></trkpt><trkpt lat="45.2988431" lon="7.8657995"><ele>265.33333333333337</ele><time>2026-05-02T15:40:55.183Z</time></trkpt><trkpt lat="45.2987875" lon="7.8658421"><ele>265.0</ele><time>2026-05-02T15:40:59.182Z</time></trkpt><trkpt lat="45.2987766" lon="7.8659613"><ele>264.6666666666667</ele><time>2026-05-02T15:41:01.219Z</time></trkpt><trkpt lat="45.2987962" lon="7.8661116"><ele>264.3333333333333</ele><time>2026-05-02T15:41:03.183Z</time></trkpt><trkpt lat="45.2987752" lon="7.8662001"><ele>264.0</ele><time>2026-05-02T15:41:05.177Z</time></trkpt><trkpt lat="45.2987054" lon="7.8662285"><ele>264.0</ele><time>2026-05-02T15:41:07.185Z</time></trkpt><trkpt lat="45.2985775" lon="7.866225"><ele>264.0</ele><time>2026-05-02T15:41:09.182Z</time></trkpt><trkpt lat="45.2984956" lon="7.8662228"><ele>264.0</ele><time>2026-05-02T15:41:10.18Z</time></trkpt><trkpt lat="45.2984043" lon="7.866226"><ele>264.0</ele><time>2026-05-02T15:41:11.193Z</time></trkpt><trkpt lat="45.2983114" lon="7.8662366"><ele>264.0</ele><time>2026-05-02T15:41:12.193Z</time></trkpt><trkpt lat="45.2982208" lon="7.8662499"><ele>264.0</ele><time>2026-05-02T15:41:13.189Z</time></trkpt><trkpt lat="45.2981293" lon="7.8662626"><ele>264.0</ele><time>2026-05-02T15:41:14.182Z</time></trkpt><trkpt lat="45.2980326" lon="7.8662722"><ele>264.0</ele><time>2026-05-02T15:41:15.209Z</time></trkpt><trkpt lat="45.2979357" lon="7.8662769"><ele>264.0</ele><time>2026-05-02T15:41:16.207Z</time></trkpt><trkpt lat="45.2978411" lon="7.8662851"><ele>264.0</ele><time>2026-05-02T15:41:17.19Z</time></trkpt><trkpt lat="45.2977469" lon="7.8662944"><ele>264.0</ele><time>2026-05-02T15:41:18.186Z</time></trkpt><trkpt lat="45.2976524" lon="7.8663105"><ele>264.0</ele><time>2026-05-02T15:41:19.19Z</time></trkpt><trkpt lat="45.2975549" lon="7.8663263"><ele>264.0</ele><time>2026-05-02T15:41:20.191Z</time></trkpt><trkpt lat="45.2974589" lon="7.8663465"><ele>264.0</ele><time>2026-05-02T15:41:21.19Z</time></trkpt><trkpt lat="45.2973601" lon="7.8663625"><ele>264.0</ele><time>2026-05-02T15:41:22.186Z</time></trkpt><trkpt lat="45.2972593" lon="7.8663823"><ele>264.2</ele><time>2026-05-02T15:41:23.194Z</time></trkpt><trkpt lat="45.2971546" lon="7.8663921"><ele>264.4</ele><time>2026-05-02T15:41:24.179Z</time></trkpt><trkpt lat="45.2970513" lon="7.8664019"><ele>264.6</ele><time>2026-05-02T15:41:25.188Z</time></trkpt><trkpt lat="45.2969502" lon="7.866408"><ele>264.8</ele><time>2026-05-02T15:41:26.205Z</time></trkpt><trkpt lat="45.2968537" lon="7.8664037"><ele>265.0</ele><time>2026-05-02T15:41:27.188Z</time></trkpt><trkpt lat="45.2967565" lon="7.866398"><ele>265.0</ele><time>2026-05-02T15:41:28.193Z</time></trkpt><trkpt lat="45.2966582" lon="7.866394"><ele>265.0</ele><time>2026-05-02T15:41:29.181Z</time></trkpt><trkpt lat="45.2965603" lon="7.8663999"><ele>265.0</ele><time>2026-05-02T15:41:30.178Z</time></trkpt><trkpt lat="45.2964594" lon="7.8664106"><ele>265.0</ele><time>2026-05-02T15:41:31.181Z</time></trkpt><trkpt lat="45.2963584" lon="7.8664276"><ele>265.0</ele><time>2026-05-02T15:41:32.19Z</time></trkpt><trkpt lat="45.2962613" lon="7.8664437"><ele>265.0</ele><time>2026-05-02T15:41:33.189Z</time></trkpt><trkpt lat="45.2961652" lon="7.8664587"><ele>265.0</ele><time>2026-05-02T15:41:34.187Z</time></trkpt><trkpt lat="45.2960693" lon="7.8664776"><ele>265.0</ele><time>2026-05-02T15:41:35.214Z</time></trkpt><trkpt lat="45.2959756" lon="7.8664945"><ele>265.0</ele><time>2026-05-02T15:41:36.186Z</time></trkpt><trkpt lat="45.2958872" lon="7.8665138"><ele>265.0</ele><time>2026-05-02T15:41:37.173Z</time></trkpt><trkpt lat="45.2958008" lon="7.8665357"><ele>265.0</ele><time>2026-05-02T15:41:38.187Z</time></trkpt><trkpt lat="45.2957134" lon="7.8665527"><ele>265.0</ele><time>2026-05-02T15:41:39.212Z</time></trkpt><trkpt lat="45.2956328" lon="7.8665665"><ele>265.0</ele><time>2026-05-02T15:41:40.193Z</time></trkpt><trkpt lat="45.2955528" lon="7.8665751"><ele>265.0</ele><time>2026-05-02T15:41:41.179Z</time></trkpt><trkpt lat="45.2954805" lon="7.8665985"><ele>265.0</ele><time>2026-05-02T15:41:42.179Z</time></trkpt><trkpt lat="45.2954021" lon="7.8666212"><ele>265.0</ele><time>2026-05-02T15:41:43.187Z</time></trkpt><trkpt lat="45.2953201" lon="7.8666384"><ele>265.2</ele><time>2026-05-02T15:41:44.181Z</time></trkpt><trkpt lat="45.2952309" lon="7.8666434"><ele>265.4</ele><time>2026-05-02T15:41:45.18Z</time></trkpt><trkpt lat="45.2951445" lon="7.8666459"><ele>265.6</ele><time>2026-05-02T15:41:46.184Z</time></trkpt><trkpt lat="45.2950526" lon="7.866642"><ele>265.8</ele><time>2026-05-02T15:41:47.187Z</time></trkpt><trkpt lat="45.2949548" lon="7.866638"><ele>266.0</ele><time>2026-05-02T15:41:48.186Z</time></trkpt><trkpt lat="45.2948491" lon="7.8666363"><ele>265.2</ele><time>2026-05-02T15:41:49.191Z</time></trkpt><trkpt lat="45.2947424" lon="7.8666391"><ele>264.40000000000003</ele><time>2026-05-02T15:41:50.183Z</time></trkpt><trkpt lat="45.2946388" lon="7.8666473"><ele>263.6</ele><time>2026-05-02T15:41:51.185Z</time></trkpt><trkpt lat="45.2945409" lon="7.8666564"><ele>262.8</ele><time>2026-05-02T15:41:52.195Z</time></trkpt><trkpt lat="45.2944457" lon="7.8666651"><ele>262.0</ele><time>2026-05-02T15:41:53.189Z</time></trkpt><trkpt lat="45.2943528" lon="7.8666745"><ele>262.0</ele><time>2026-05-02T15:41:54.191Z</time></trkpt><trkpt lat="45.2942588" lon="7.8666785"><ele>262.0</ele><time>2026-05-02T15:41:55.177Z</time></trkpt><trkpt lat="45.294166" lon="7.8666856"><ele>262.0</ele><time>2026-05-02T15:41:56.179Z</time></trkpt><trkpt lat="45.2940808" lon="7.866697"><ele>262.0</ele><time>2026-05-02T15:41:57.186Z</time></trkpt><trkpt lat="45.294004" lon="7.8667101"><ele>262.0</ele><time>2026-05-02T15:41:58.183Z</time></trkpt><trkpt lat="45.2939383" lon="7.8667214"><ele>262.0</ele><time>2026-05-02T15:41:59.189Z</time></trkpt><trkpt lat="45.2938305" lon="7.8667301"><ele>262.0</ele><time>2026-05-02T15:42:01.189Z</time></trkpt><trkpt lat="45.2937176" lon="7.8667322"><ele>262.0</ele><time>2026-05-02T15:42:03.186Z</time></trkpt><trkpt lat="45.2936477" lon="7.8667394"><ele>262.0</ele><time>2026-05-02T15:42:04.186Z</time></trkpt><trkpt lat="45.2935723" lon="7.8667507"><ele>262.0</ele><time>2026-05-02T15:42:05.182Z</time></trkpt><trkpt lat="45.2934939" lon="7.8667605"><ele>262.0</ele><time>2026-05-02T15:42:06.183Z</time></trkpt><trkpt lat="45.2934121" lon="7.8667643"><ele>262.0</ele><time>2026-05-02T15:42:07.183Z</time></trkpt><trkpt lat="45.293332" lon="7.8667663"><ele>262.0</ele><time>2026-05-02T15:42:08.191Z</time></trkpt><trkpt lat="45.2932565" lon="7.8667697"><ele>262.0</ele><time>2026-05-02T15:42:09.184Z</time></trkpt><trkpt lat="45.2931867" lon="7.8667708"><ele>262.0</ele><time>2026-05-02T15:42:10.179Z</time></trkpt><trkpt lat="45.2931216" lon="7.8667707"><ele>262.0</ele><time>2026-05-02T15:42:11.186Z</time></trkpt><trkpt lat="45.2930585" lon="7.8667674"><ele>262.0</ele><time>2026-05-02T15:42:12.18Z</time></trkpt><trkpt lat="45.2929433" lon="7.866773"><ele>262.0</ele><time>2026-05-02T15:42:14.182Z</time></trkpt><trkpt lat="45.2928107" lon="7.8667801"><ele>261.5</ele><time>2026-05-02T15:42:16.178Z</time></trkpt><trkpt lat="45.2927292" lon="7.8667872"><ele>261.0</ele><time>2026-05-02T15:42:17.188Z</time></trkpt><trkpt lat="45.2926419" lon="7.8667947"><ele>260.5</ele><time>2026-05-02T15:42:18.214Z</time></trkpt><trkpt lat="45.2925555" lon="7.8668056"><ele>260.0</ele><time>2026-05-02T15:42:19.176Z</time></trkpt><trkpt lat="45.2924808" lon="7.8668218"><ele>259.5</ele><time>2026-05-02T15:42:20.188Z</time></trkpt><trkpt lat="45.2924074" lon="7.8668344"><ele>259.0</ele><time>2026-05-02T15:42:21.184Z</time></trkpt><trkpt lat="45.2923339" lon="7.8668418"><ele>259.0</ele><time>2026-05-02T15:42:22.184Z</time></trkpt><trkpt lat="45.2922568" lon="7.8668496"><ele>259.0</ele><time>2026-05-02T15:42:23.182Z</time></trkpt><trkpt lat="45.2921736" lon="7.8668517"><ele>259.0</ele><time>2026-05-02T15:42:24.18Z</time></trkpt><trkpt lat="45.2920867" lon="7.8668551"><ele>259.0</ele><time>2026-05-02T15:42:25.18Z</time></trkpt><trkpt lat="45.2919955" lon="7.8668614"><ele>259.0</ele><time>2026-05-02T15:42:26.18Z</time></trkpt><trkpt lat="45.2918969" lon="7.8668639"><ele>259.0</ele><time>2026-05-02T15:42:27.18Z</time></trkpt><trkpt lat="45.2918028" lon="7.8668736"><ele>258.8333333333333</ele><time>2026-05-02T15:42:28.191Z</time></trkpt><trkpt lat="45.2917118" lon="7.8668832"><ele>258.66666666666663</ele><time>2026-05-02T15:42:29.203Z</time></trkpt><trkpt lat="45.291619" lon="7.866891"><ele>258.5</ele><time>2026-05-02T15:42:30.184Z</time></trkpt><trkpt lat="45.2915272" lon="7.8668963"><ele>258.3333333333333</ele><time>2026-05-02T15:42:31.184Z</time></trkpt><trkpt lat="45.2914394" lon="7.8669021"><ele>258.1666666666667</ele><time>2026-05-02T15:42:32.182Z</time></trkpt><trkpt lat="45.2913579" lon="7.8669109"><ele>258.0</ele><time>2026-05-02T15:42:33.187Z</time></trkpt><trkpt lat="45.2912793" lon="7.8669229"><ele>258.0</ele><time>2026-05-02T15:42:34.176Z</time></trkpt><trkpt lat="45.291203" lon="7.8669356"><ele>258.0</ele><time>2026-05-02T15:42:35.183Z</time></trkpt><trkpt lat="45.2911243" lon="7.8669457"><ele>258.0</ele><time>2026-05-02T15:42:36.216Z</time></trkpt><trkpt lat="45.2910422" lon="7.866957"><ele>258.0</ele><time>2026-05-02T15:42:37.183Z</time></trkpt><trkpt lat="45.2909606" lon="7.8669677"><ele>258.0</ele><time>2026-05-02T15:42:38.182Z</time></trkpt><trkpt lat="45.2908844" lon="7.8669747"><ele>258.0</ele><time>2026-05-02T15:42:39.189Z</time></trkpt><trkpt lat="45.2908142" lon="7.8669846"><ele>257.99999999999994</ele><time>2026-05-02T15:42:40.177Z</time></trkpt><trkpt lat="45.2907458" lon="7.8669957"><ele>258.0</ele><time>2026-05-02T15:42:41.187Z</time></trkpt><trkpt lat="45.2906764" lon="7.8670094"><ele>258.0</ele><time>2026-05-02T15:42:42.183Z</time></trkpt><trkpt lat="45.2906028" lon="7.8670183"><ele>258.0</ele><time>2026-05-02T15:42:43.184Z</time></trkpt><trkpt lat="45.2905292" lon="7.8670229"><ele>258.0</ele><time>2026-05-02T15:42:44.176Z</time></trkpt><trkpt lat="45.2904544" lon="7.8670087"><ele>257.99999999999994</ele><time>2026-05-02T15:42:45.184Z</time></trkpt><trkpt lat="45.2903798" lon="7.866989"><ele>258.0</ele><time>2026-05-02T15:42:46.184Z</time></trkpt><trkpt lat="45.2903111" lon="7.8669636"><ele>257.6666666666667</ele><time>2026-05-02T15:42:47.211Z</time></trkpt><trkpt lat="45.2902494" lon="7.8669373"><ele>257.3333333333333</ele><time>2026-05-02T15:42:48.185Z</time></trkpt><trkpt lat="45.2901544" lon="7.866904"><ele>257.0</ele><time>2026-05-02T15:42:50.186Z</time></trkpt><trkpt lat="45.2900979" lon="7.8668551"><ele>256.66666666666663</ele><time>2026-05-02T15:42:53.185Z</time></trkpt><trkpt lat="45.2900798" lon="7.8667522"><ele>256.3333333333333</ele><time>2026-05-02T15:42:56.188Z</time></trkpt><trkpt lat="45.2900843" lon="7.8666487"><ele>256.0</ele><time>2026-05-02T15:42:58.181Z</time></trkpt><trkpt lat="45.2900835" lon="7.8664625"><ele>255.99999999999997</ele><time>2026-05-02T15:43:00.184Z</time></trkpt><trkpt lat="45.2900824" lon="7.8663536"><ele>256.0</ele><time>2026-05-02T15:43:01.185Z</time></trkpt><trkpt lat="45.2900813" lon="7.8662414"><ele>256.0</ele><time>2026-05-02T15:43:02.182Z</time></trkpt><trkpt lat="45.2900759" lon="7.8661265"><ele>256.0</ele><time>2026-05-02T15:43:03.191Z</time></trkpt><trkpt lat="45.2900681" lon="7.8660185"><ele>255.99999999999997</ele><time>2026-05-02T15:43:04.186Z</time></trkpt><trkpt lat="45.2900616" lon="7.8659213"><ele>256.0</ele><time>2026-05-02T15:43:05.187Z</time></trkpt><trkpt lat="45.2900575" lon="7.8657523"><ele>255.99999999999997</ele><time>2026-05-02T15:43:07.187Z</time></trkpt><trkpt lat="45.2900455" lon="7.8656128"><ele>256.0</ele><time>2026-05-02T15:43:09.188Z</time></trkpt><trkpt lat="45.2900271" lon="7.8655004"><ele>256.0</ele><time>2026-05-02T15:43:11.217Z</time></trkpt><trkpt lat="45.2900024" lon="7.8654166"><ele>256.0</ele><time>2026-05-02T15:43:13.195Z</time></trkpt><trkpt lat="45.2900063" lon="7.8653214"><ele>255.99999999999997</ele><time>2026-05-02T15:43:16.182Z</time></trkpt><trkpt lat="45.2899981" lon="7.8651821"><ele>256.0</ele><time>2026-05-02T15:43:20.191Z</time></trkpt><trkpt lat="45.2900037" lon="7.8649728"><ele>255.60000000000002</ele><time>2026-05-02T15:43:22.188Z</time></trkpt><trkpt lat="45.2900025" lon="7.8648482"><ele>255.20000000000002</ele><time>2026-05-02T15:43:23.181Z</time></trkpt><trkpt lat="45.2900044" lon="7.8647075"><ele>254.79999999999998</ele><time>2026-05-02T15:43:24.181Z</time></trkpt><trkpt lat="45.2899984" lon="7.8645761"><ele>254.39999999999998</ele><time>2026-05-02T15:43:25.185Z</time></trkpt><trkpt lat="45.2899875" lon="7.8644422"><ele>254.0</ele><time>2026-05-02T15:43:26.191Z</time></trkpt><trkpt lat="45.2899721" lon="7.8643029"><ele>254.33333333333334</ele><time>2026-05-02T15:43:27.181Z</time></trkpt><trkpt lat="45.2899609" lon="7.8641674"><ele>254.66666666666669</ele><time>2026-05-02T15:43:28.185Z</time></trkpt><trkpt lat="45.2899519" lon="7.8640389"><ele>255.0</ele><time>2026-05-02T15:43:29.185Z</time></trkpt><trkpt lat="45.2899448" lon="7.8639245"><ele>255.33333333333331</ele><time>2026-05-02T15:43:30.184Z</time></trkpt><trkpt lat="45.2899411" lon="7.8638231"><ele>255.66666666666666</ele><time>2026-05-02T15:43:31.186Z</time></trkpt><trkpt lat="45.2899362" lon="7.8637237"><ele>256.0</ele><time>2026-05-02T15:43:32.188Z</time></trkpt><trkpt lat="45.2899319" lon="7.8636258"><ele>255.99999999999997</ele><time>2026-05-02T15:43:33.187Z</time></trkpt><trkpt lat="45.2899274" lon="7.8635315"><ele>256.0</ele><time>2026-05-02T15:43:34.192Z</time></trkpt><trkpt lat="45.2899178" lon="7.863365"><ele>256.0</ele><time>2026-05-02T15:43:36.182Z</time></trkpt><trkpt lat="45.2899082" lon="7.8632072"><ele>256.0</ele><time>2026-05-02T15:43:38.188Z</time></trkpt><trkpt lat="45.2899073" lon="7.8631162"><ele>255.99999999999997</ele><time>2026-05-02T15:43:39.189Z</time></trkpt><trkpt lat="45.2899013" lon="7.8630131"><ele>256.0</ele><time>2026-05-02T15:43:40.186Z</time></trkpt><trkpt lat="45.2898986" lon="7.8629081"><ele>256.16666666666663</ele><time>2026-05-02T15:43:41.184Z</time></trkpt><trkpt lat="45.2898949" lon="7.8627937"><ele>256.3333333333333</ele><time>2026-05-02T15:43:42.188Z</time></trkpt><trkpt lat="45.2898938" lon="7.862681"><ele>256.5</ele><time>2026-05-02T15:43:43.188Z</time></trkpt><trkpt lat="45.2898918" lon="7.8625811"><ele>256.6666666666667</ele><time>2026-05-02T15:43:44.181Z</time></trkpt><trkpt lat="45.289888" lon="7.8624131"><ele>256.83333333333337</ele><time>2026-05-02T15:43:46.195Z</time></trkpt><trkpt lat="45.2898843" lon="7.8623201"><ele>257.0</ele><time>2026-05-02T15:43:47.187Z</time></trkpt><trkpt lat="45.2898807" lon="7.8622222"><ele>257.0</ele><time>2026-05-02T15:43:48.186Z</time></trkpt><trkpt lat="45.2898786" lon="7.8621296"><ele>257.0</ele><time>2026-05-02T15:43:49.184Z</time></trkpt><trkpt lat="45.2898784" lon="7.8619856"><ele>257.0</ele><time>2026-05-02T15:43:51.188Z</time></trkpt><trkpt lat="45.2898796" lon="7.8618677"><ele>257.0</ele><time>2026-05-02T15:43:54.185Z</time></trkpt><trkpt lat="45.289917" lon="7.8617393"><ele>257.0</ele><time>2026-05-02T15:43:57.184Z</time></trkpt><trkpt lat="45.2899426" lon="7.8616143"><ele>257.0</ele><time>2026-05-02T15:43:59.179Z</time></trkpt><trkpt lat="45.2899585" lon="7.861461"><ele>257.0</ele><time>2026-05-02T15:44:01.18Z</time></trkpt><trkpt lat="45.2899558" lon="7.8613366"><ele>257.0</ele><time>2026-05-02T15:44:03.184Z</time></trkpt><trkpt lat="45.2898993" lon="7.8612804"><ele>257.0</ele><time>2026-05-02T15:44:05.186Z</time></trkpt><trkpt lat="45.2897871" lon="7.8612684"><ele>257.0</ele><time>2026-05-02T15:44:07.185Z</time></trkpt><trkpt lat="45.2897107" lon="7.8612709"><ele>257.0</ele><time>2026-05-02T15:44:08.194Z</time></trkpt><trkpt lat="45.2896225" lon="7.8612685"><ele>257.0</ele><time>2026-05-02T15:44:09.185Z</time></trkpt><trkpt lat="45.2895201" lon="7.8612614"><ele>257.0</ele><time>2026-05-02T15:44:10.186Z</time></trkpt><trkpt lat="45.2894095" lon="7.8612513"><ele>257.0</ele><time>2026-05-02T15:44:11.189Z</time></trkpt><trkpt lat="45.2892984" lon="7.8612381"><ele>257.0</ele><time>2026-05-02T15:44:12.178Z</time></trkpt><trkpt lat="45.2891917" lon="7.8612267"><ele>257.0</ele><time>2026-05-02T15:44:13.186Z</time></trkpt><trkpt lat="45.2890886" lon="7.8612158"><ele>257.0</ele><time>2026-05-02T15:44:14.189Z</time></trkpt><trkpt lat="45.2889891" lon="7.8612022"><ele>256.83333333333337</ele><time>2026-05-02T15:44:15.192Z</time></trkpt><trkpt lat="45.2888962" lon="7.8611925"><ele>256.6666666666667</ele><time>2026-05-02T15:44:16.185Z</time></trkpt><trkpt lat="45.2888038" lon="7.8611797"><ele>256.5</ele><time>2026-05-02T15:44:17.183Z</time></trkpt><trkpt lat="45.2887133" lon="7.8611684"><ele>256.3333333333333</ele><time>2026-05-02T15:44:18.188Z</time></trkpt><trkpt lat="45.2886277" lon="7.8611582"><ele>256.16666666666663</ele><time>2026-05-02T15:44:19.182Z</time></trkpt><trkpt lat="45.2885471" lon="7.8611446"><ele>256.0</ele><time>2026-05-02T15:44:20.187Z</time></trkpt><trkpt lat="45.2884694" lon="7.8611344"><ele>255.99999999999997</ele><time>2026-05-02T15:44:21.191Z</time></trkpt><trkpt lat="45.2883941" lon="7.861127"><ele>256.0</ele><time>2026-05-02T15:44:22.187Z</time></trkpt><trkpt lat="45.2883166" lon="7.8611225"><ele>256.0</ele><time>2026-05-02T15:44:23.179Z</time></trkpt><trkpt lat="45.2882309" lon="7.8611178"><ele>256.0</ele><time>2026-05-02T15:44:24.184Z</time></trkpt><trkpt lat="45.2881393" lon="7.8611077"><ele>255.99999999999997</ele><time>2026-05-02T15:44:25.183Z</time></trkpt><trkpt lat="45.2880439" lon="7.8610964"><ele>256.0</ele><time>2026-05-02T15:44:26.185Z</time></trkpt><trkpt lat="45.2879454" lon="7.8610837"><ele>256.0</ele><time>2026-05-02T15:44:27.185Z</time></trkpt><trkpt lat="45.287843" lon="7.8610692"><ele>256.0</ele><time>2026-05-02T15:44:28.185Z</time></trkpt><trkpt lat="45.2877464" lon="7.8610597"><ele>256.0</ele><time>2026-05-02T15:44:29.191Z</time></trkpt><trkpt lat="45.2876586" lon="7.8610506"><ele>256.0</ele><time>2026-05-02T15:44:30.193Z</time></trkpt><trkpt lat="45.2875744" lon="7.8610439"><ele>256.0</ele><time>2026-05-02T15:44:31.191Z</time></trkpt><trkpt lat="45.2874884" lon="7.8610408"><ele>256.0</ele><time>2026-05-02T15:44:32.189Z</time></trkpt><trkpt lat="45.2873897" lon="7.86104"><ele>256.0</ele><time>2026-05-02T15:44:33.19Z</time></trkpt><trkpt lat="45.2872891" lon="7.8610392"><ele>256.0</ele><time>2026-05-02T15:44:34.183Z</time></trkpt><trkpt lat="45.2871898" lon="7.8610379"><ele>256.0</ele><time>2026-05-02T15:44:35.186Z</time></trkpt><trkpt lat="45.2870924" lon="7.8610331"><ele>256.0</ele><time>2026-05-02T15:44:36.188Z</time></trkpt><trkpt lat="45.2869955" lon="7.8610264"><ele>256.2</ele><time>2026-05-02T15:44:37.187Z</time></trkpt><trkpt lat="45.2868946" lon="7.8610206"><ele>256.40000000000003</ele><time>2026-05-02T15:44:38.196Z</time></trkpt><trkpt lat="45.2867959" lon="7.8610161"><ele>256.6</ele><time>2026-05-02T15:44:39.181Z</time></trkpt><trkpt lat="45.2866967" lon="7.8610099"><ele>256.8</ele><time>2026-05-02T15:44:40.181Z</time></trkpt><trkpt lat="45.2865945" lon="7.8609999"><ele>257.0</ele><time>2026-05-02T15:44:41.189Z</time></trkpt><trkpt lat="45.2864903" lon="7.8609854"><ele>256.6</ele><time>2026-05-02T15:44:42.187Z</time></trkpt><trkpt lat="45.2863859" lon="7.8609746"><ele>256.2</ele><time>2026-05-02T15:44:43.185Z</time></trkpt><trkpt lat="45.2862823" lon="7.8609659"><ele>255.8</ele><time>2026-05-02T15:44:44.185Z</time></trkpt><trkpt lat="45.2861748" lon="7.8609579"><ele>255.4</ele><time>2026-05-02T15:44:45.181Z</time></trkpt><trkpt lat="45.2860645" lon="7.8609467"><ele>255.0</ele><time>2026-05-02T15:44:46.184Z</time></trkpt><trkpt lat="45.2859518" lon="7.8609333"><ele>255.0</ele><time>2026-05-02T15:44:47.178Z</time></trkpt><trkpt lat="45.2858334" lon="7.8609183"><ele>255.0</ele><time>2026-05-02T15:44:48.181Z</time></trkpt><trkpt lat="45.285715" lon="7.8609052"><ele>255.0</ele><time>2026-05-02T15:44:49.199Z</time></trkpt><trkpt lat="45.2855966" lon="7.8608929"><ele>255.0</ele><time>2026-05-02T15:44:50.193Z</time></trkpt><trkpt lat="45.2854803" lon="7.8608841"><ele>254.75</ele><time>2026-05-02T15:44:51.182Z</time></trkpt><trkpt lat="45.2853638" lon="7.8608744"><ele>254.5</ele><time>2026-05-02T15:44:52.183Z</time></trkpt><trkpt lat="45.285247" lon="7.8608669"><ele>254.25</ele><time>2026-05-02T15:44:53.185Z</time></trkpt><trkpt lat="45.2851318" lon="7.8608579"><ele>254.0</ele><time>2026-05-02T15:44:54.187Z</time></trkpt><trkpt lat="45.2850192" lon="7.8608482"><ele>254.0</ele><time>2026-05-02T15:44:55.192Z</time></trkpt><trkpt lat="45.2849114" lon="7.8608393"><ele>253.99999999999997</ele><time>2026-05-02T15:44:56.188Z</time></trkpt><trkpt lat="45.2848057" lon="7.8608276"><ele>253.99999999999997</ele><time>2026-05-02T15:44:57.182Z</time></trkpt><trkpt lat="45.2846998" lon="7.8608153"><ele>254.0</ele><time>2026-05-02T15:44:58.183Z</time></trkpt><trkpt lat="45.284596" lon="7.8608063"><ele>254.0</ele><time>2026-05-02T15:44:59.214Z</time></trkpt><trkpt lat="45.2844945" lon="7.860798"><ele>253.79999999999998</ele><time>2026-05-02T15:45:00.183Z</time></trkpt><trkpt lat="45.2843959" lon="7.8607889"><ele>253.59999999999997</ele><time>2026-05-02T15:45:01.188Z</time></trkpt><trkpt lat="45.2843031" lon="7.8607784"><ele>253.4</ele><time>2026-05-02T15:45:02.188Z</time></trkpt><trkpt lat="45.2842125" lon="7.8607674"><ele>253.2</ele><time>2026-05-02T15:45:03.188Z</time></trkpt><trkpt lat="45.2841215" lon="7.8607616"><ele>253.0</ele><time>2026-05-02T15:45:04.185Z</time></trkpt><trkpt lat="45.2840281" lon="7.8607561"><ele>253.2</ele><time>2026-05-02T15:45:05.186Z</time></trkpt><trkpt lat="45.2839269" lon="7.8607507"><ele>253.4</ele><time>2026-05-02T15:45:06.188Z</time></trkpt><trkpt lat="45.2838222" lon="7.8607424"><ele>253.59999999999997</ele><time>2026-05-02T15:45:07.188Z</time></trkpt><trkpt lat="45.2837149" lon="7.8607341"><ele>253.79999999999998</ele><time>2026-05-02T15:45:08.194Z</time></trkpt><trkpt lat="45.2836048" lon="7.8607249"><ele>254.0</ele><time>2026-05-02T15:45:09.183Z</time></trkpt><trkpt lat="45.2834939" lon="7.8607146"><ele>254.0</ele><time>2026-05-02T15:45:10.19Z</time></trkpt><trkpt lat="45.2833807" lon="7.860703"><ele>254.0</ele><time>2026-05-02T15:45:11.215Z</time></trkpt><trkpt lat="45.2832647" lon="7.8606878"><ele>254.0</ele><time>2026-05-02T15:45:12.182Z</time></trkpt><trkpt lat="45.2831454" lon="7.8606747"><ele>254.0</ele><time>2026-05-02T15:45:13.186Z</time></trkpt><trkpt lat="45.2830255" lon="7.8606627"><ele>253.5</ele><time>2026-05-02T15:45:14.18Z</time></trkpt><trkpt lat="45.2829065" lon="7.8606531"><ele>253.0</ele><time>2026-05-02T15:45:15.187Z</time></trkpt><trkpt lat="45.2827833" lon="7.8606427"><ele>252.5</ele><time>2026-05-02T15:45:16.193Z</time></trkpt><trkpt lat="45.2826543" lon="7.8606315"><ele>252.0</ele><time>2026-05-02T15:45:17.188Z</time></trkpt><trkpt lat="45.2825217" lon="7.8606186"><ele>252.0</ele><time>2026-05-02T15:45:18.182Z</time></trkpt><trkpt lat="45.2823967" lon="7.8606076"><ele>252.0</ele><time>2026-05-02T15:45:19.186Z</time></trkpt><trkpt lat="45.2822808" lon="7.8605984"><ele>252.0</ele><time>2026-05-02T15:45:20.187Z</time></trkpt><trkpt lat="45.2821729" lon="7.8605879"><ele>252.0</ele><time>2026-05-02T15:45:21.184Z</time></trkpt><trkpt lat="45.2820681" lon="7.8605748"><ele>251.6</ele><time>2026-05-02T15:45:22.187Z</time></trkpt><trkpt lat="45.2819671" lon="7.8605629"><ele>251.2</ele><time>2026-05-02T15:45:23.184Z</time></trkpt><trkpt lat="45.2818677" lon="7.8605512"><ele>250.8</ele><time>2026-05-02T15:45:24.189Z</time></trkpt><trkpt lat="45.2817671" lon="7.8605406"><ele>250.4</ele><time>2026-05-02T15:45:25.186Z</time></trkpt><trkpt lat="45.2816624" lon="7.8605289"><ele>250.0</ele><time>2026-05-02T15:45:26.188Z</time></trkpt><trkpt lat="45.2815532" lon="7.8605159"><ele>250.0</ele><time>2026-05-02T15:45:27.181Z</time></trkpt><trkpt lat="45.2814445" lon="7.8605007"><ele>250.0</ele><time>2026-05-02T15:45:28.213Z</time></trkpt><trkpt lat="45.2813409" lon="7.8604865"><ele>250.0</ele><time>2026-05-02T15:45:29.181Z</time></trkpt><trkpt lat="45.2812388" lon="7.8604708"><ele>250.0</ele><time>2026-05-02T15:45:30.187Z</time></trkpt><trkpt lat="45.2811419" lon="7.8604569"><ele>250.0</ele><time>2026-05-02T15:45:31.183Z</time></trkpt><trkpt lat="45.2810442" lon="7.8604461"><ele>249.99999999999997</ele><time>2026-05-02T15:45:32.192Z</time></trkpt><trkpt lat="45.2809514" lon="7.8604375"><ele>250.0</ele><time>2026-05-02T15:45:33.184Z</time></trkpt><trkpt lat="45.2808617" lon="7.8604298"><ele>250.0</ele><time>2026-05-02T15:45:34.208Z</time></trkpt><trkpt lat="45.2807775" lon="7.8604239"><ele>250.0</ele><time>2026-05-02T15:45:35.193Z</time></trkpt><trkpt lat="45.2806977" lon="7.8604194"><ele>249.99999999999997</ele><time>2026-05-02T15:45:36.186Z</time></trkpt><trkpt lat="45.2806183" lon="7.8604159"><ele>250.0</ele><time>2026-05-02T15:45:37.181Z</time></trkpt><trkpt lat="45.2805348" lon="7.8604124"><ele>250.0</ele><time>2026-05-02T15:45:38.183Z</time></trkpt><trkpt lat="45.2804479" lon="7.8604054"><ele>250.0</ele><time>2026-05-02T15:45:39.183Z</time></trkpt><trkpt lat="45.2803573" lon="7.8603934"><ele>250.0</ele><time>2026-05-02T15:45:40.182Z</time></trkpt><trkpt lat="45.280261" lon="7.860382"><ele>250.0</ele><time>2026-05-02T15:45:41.188Z</time></trkpt><trkpt lat="45.280164" lon="7.8603722"><ele>250.0</ele><time>2026-05-02T15:45:42.213Z</time></trkpt><trkpt lat="45.2800622" lon="7.8603596"><ele>250.0</ele><time>2026-05-02T15:45:43.186Z</time></trkpt><trkpt lat="45.2799564" lon="7.8603466"><ele>250.0</ele><time>2026-05-02T15:45:44.189Z</time></trkpt><trkpt lat="45.2798489" lon="7.8603345"><ele>250.0</ele><time>2026-05-02T15:45:45.182Z</time></trkpt><trkpt lat="45.2797422" lon="7.860325"><ele>250.0</ele><time>2026-05-02T15:45:46.178Z</time></trkpt><trkpt lat="45.2796351" lon="7.8603195"><ele>250.0</ele><time>2026-05-02T15:45:47.178Z</time></trkpt><trkpt lat="45.279526" lon="7.8603136"><ele>249.6</ele><time>2026-05-02T15:45:48.206Z</time></trkpt><trkpt lat="45.2794159" lon="7.8603057"><ele>249.2</ele><time>2026-05-02T15:45:49.174Z</time></trkpt><trkpt lat="45.2793104" lon="7.8602954"><ele>248.8</ele><time>2026-05-02T15:45:50.185Z</time></trkpt><trkpt lat="45.2792103" lon="7.8602809"><ele>248.4</ele><time>2026-05-02T15:45:51.184Z</time></trkpt><trkpt lat="45.279133" lon="7.8602694"><ele>248.0</ele><time>2026-05-02T15:45:52.178Z</time></trkpt><trkpt lat="45.2790657" lon="7.8602594"><ele>248.00000000000003</ele><time>2026-05-02T15:45:53.191Z</time></trkpt><trkpt lat="45.2789818" lon="7.8602396"><ele>248.0</ele><time>2026-05-02T15:45:55.184Z</time></trkpt><trkpt lat="45.2789203" lon="7.8601757"><ele>248.0</ele><time>2026-05-02T15:45:59.18Z</time></trkpt><trkpt lat="45.2788915" lon="7.8600429"><ele>248.0</ele><time>2026-05-02T15:46:01.189Z</time></trkpt><trkpt lat="45.2788719" lon="7.8599337"><ele>248.00000000000003</ele><time>2026-05-02T15:46:02.177Z</time></trkpt><trkpt lat="45.2788409" lon="7.8598044"><ele>248.0</ele><time>2026-05-02T15:46:03.183Z</time></trkpt><trkpt lat="45.2788006" lon="7.8596497"><ele>248.0</ele><time>2026-05-02T15:46:04.177Z</time></trkpt><trkpt lat="45.2787487" lon="7.8594885"><ele>248.0</ele><time>2026-05-02T15:46:05.183Z</time></trkpt><trkpt lat="45.2786893" lon="7.8593313"><ele>248.0</ele><time>2026-05-02T15:46:06.182Z</time></trkpt><trkpt lat="45.2786271" lon="7.8591765"><ele>248.0</ele><time>2026-05-02T15:46:07.19Z</time></trkpt><trkpt lat="45.2785645" lon="7.8590154"><ele>248.0</ele><time>2026-05-02T15:46:08.199Z</time></trkpt><trkpt lat="45.2784964" lon="7.8588395"><ele>248.0</ele><time>2026-05-02T15:46:09.183Z</time></trkpt><trkpt lat="45.278423" lon="7.8586506"><ele>248.0</ele><time>2026-05-02T15:46:10.179Z</time></trkpt><trkpt lat="45.2783447" lon="7.8584457"><ele>248.33333333333334</ele><time>2026-05-02T15:46:11.191Z</time></trkpt><trkpt lat="45.2782629" lon="7.8582271"><ele>248.66666666666669</ele><time>2026-05-02T15:46:12.188Z</time></trkpt><trkpt lat="45.2781777" lon="7.8579976"><ele>249.0</ele><time>2026-05-02T15:46:13.189Z</time></trkpt><trkpt lat="45.2780922" lon="7.8577667"><ele>248.66666666666669</ele><time>2026-05-02T15:46:14.182Z</time></trkpt><trkpt lat="45.2780067" lon="7.8575301"><ele>248.33333333333334</ele><time>2026-05-02T15:46:15.183Z</time></trkpt><trkpt lat="45.277923" lon="7.8572955"><ele>248.0</ele><time>2026-05-02T15:46:16.181Z</time></trkpt><trkpt lat="45.2778443" lon="7.857068"><ele>248.0</ele><time>2026-05-02T15:46:17.184Z</time></trkpt><trkpt lat="45.2777717" lon="7.8568538"><ele>248.0</ele><time>2026-05-02T15:46:18.177Z</time></trkpt><trkpt lat="45.2776994" lon="7.8566486"><ele>248.0</ele><time>2026-05-02T15:46:19.181Z</time></trkpt><trkpt lat="45.2776355" lon="7.8564655"><ele>248.25</ele><time>2026-05-02T15:46:20.189Z</time></trkpt><trkpt lat="45.2775776" lon="7.8562975"><ele>248.5</ele><time>2026-05-02T15:46:21.185Z</time></trkpt><trkpt lat="45.2775245" lon="7.8561466"><ele>248.75</ele><time>2026-05-02T15:46:22.187Z</time></trkpt><trkpt lat="45.2774764" lon="7.8560083"><ele>249.0</ele><time>2026-05-02T15:46:23.186Z</time></trkpt><trkpt lat="45.2774326" lon="7.8558806"><ele>249.0</ele><time>2026-05-02T15:46:24.182Z</time></trkpt><trkpt lat="45.2773965" lon="7.8557655"><ele>248.99999999999997</ele><time>2026-05-02T15:46:25.19Z</time></trkpt><trkpt lat="45.277372" lon="7.8556562"><ele>248.99999999999997</ele><time>2026-05-02T15:46:26.185Z</time></trkpt><trkpt lat="45.2773543" lon="7.855533"><ele>249.0</ele><time>2026-05-02T15:46:27.179Z</time></trkpt><trkpt lat="45.2773452" lon="7.8553843"><ele>249.0</ele><time>2026-05-02T15:46:28.188Z</time></trkpt><trkpt lat="45.2773351" lon="7.8551968"><ele>249.0</ele><time>2026-05-02T15:46:29.176Z</time></trkpt><trkpt lat="45.2773119" lon="7.8549663"><ele>249.0</ele><time>2026-05-02T15:46:30.172Z</time></trkpt><trkpt lat="45.2772837" lon="7.854714"><ele>249.0</ele><time>2026-05-02T15:46:31.187Z</time></trkpt><trkpt lat="45.2772556" lon="7.8544601"><ele>249.33333333333331</ele><time>2026-05-02T15:46:32.178Z</time></trkpt><trkpt lat="45.2772274" lon="7.8542188"><ele>249.66666666666666</ele><time>2026-05-02T15:46:33.185Z</time></trkpt><trkpt lat="45.2771982" lon="7.8539728"><ele>250.0</ele><time>2026-05-02T15:46:34.184Z</time></trkpt><trkpt lat="45.277166" lon="7.85372"><ele>250.0</ele><time>2026-05-02T15:46:35.186Z</time></trkpt><trkpt lat="45.2771305" lon="7.8534562"><ele>250.0</ele><time>2026-05-02T15:46:36.184Z</time></trkpt><trkpt lat="45.2771002" lon="7.8531903"><ele>250.0</ele><time>2026-05-02T15:46:37.184Z</time></trkpt><trkpt lat="45.2770806" lon="7.8529398"><ele>250.0</ele><time>2026-05-02T15:46:38.185Z</time></trkpt><trkpt lat="45.2770604" lon="7.8527057"><ele>250.0</ele><time>2026-05-02T15:46:39.182Z</time></trkpt><trkpt lat="45.2770419" lon="7.8524917"><ele>250.0</ele><time>2026-05-02T15:46:40.186Z</time></trkpt><trkpt lat="45.2770286" lon="7.8523085"><ele>250.0</ele><time>2026-05-02T15:46:41.182Z</time></trkpt><trkpt lat="45.2770174" lon="7.8521615"><ele>249.83333333333331</ele><time>2026-05-02T15:46:42.176Z</time></trkpt><trkpt lat="45.2770049" lon="7.8520507"><ele>249.66666666666666</ele><time>2026-05-02T15:46:43.188Z</time></trkpt><trkpt lat="45.276982" lon="7.8519038"><ele>249.5</ele><time>2026-05-02T15:46:45.182Z</time></trkpt><trkpt lat="45.2769669" lon="7.8517989"><ele>249.33333333333331</ele><time>2026-05-02T15:46:47.183Z</time></trkpt><trkpt lat="45.2769437" lon="7.8516805"><ele>249.16666666666666</ele><time>2026-05-02T15:46:49.176Z</time></trkpt><trkpt lat="45.2768839" lon="7.8515782"><ele>249.0</ele><time>2026-05-02T15:46:51.185Z</time></trkpt><trkpt lat="45.2767783" lon="7.8514925"><ele>248.79999999999998</ele><time>2026-05-02T15:46:53.175Z</time></trkpt><trkpt lat="45.2766825" lon="7.8514093"><ele>248.59999999999997</ele><time>2026-05-02T15:46:55.176Z</time></trkpt><trkpt lat="45.2766155" lon="7.8513093"><ele>248.4</ele><time>2026-05-02T15:46:57.184Z</time></trkpt><trkpt lat="45.276588" lon="7.8511469"><ele>248.2</ele><time>2026-05-02T15:46:59.176Z</time></trkpt><trkpt lat="45.2766149" lon="7.8510563"><ele>248.0</ele><time>2026-05-02T15:47:00.184Z</time></trkpt><trkpt lat="45.2766592" lon="7.8509645"><ele>247.8</ele><time>2026-05-02T15:47:01.181Z</time></trkpt><trkpt lat="45.2767164" lon="7.8508799"><ele>247.60000000000002</ele><time>2026-05-02T15:47:02.188Z</time></trkpt><trkpt lat="45.2767937" lon="7.8507948"><ele>247.39999999999998</ele><time>2026-05-02T15:47:03.191Z</time></trkpt><trkpt lat="45.2768704" lon="7.8507023"><ele>247.2</ele><time>2026-05-02T15:47:04.184Z</time></trkpt><trkpt lat="45.2769432" lon="7.8506103"><ele>247.0</ele><time>2026-05-02T15:47:05.174Z</time></trkpt><trkpt lat="45.277021" lon="7.850517"><ele>246.99999999999997</ele><time>2026-05-02T15:47:06.177Z</time></trkpt><trkpt lat="45.2770871" lon="7.8504304"><ele>247.0</ele><time>2026-05-02T15:47:07.18Z</time></trkpt><trkpt lat="45.2771406" lon="7.8503608"><ele>247.0</ele><time>2026-05-02T15:47:08.209Z</time></trkpt><trkpt lat="45.2771871" lon="7.8502966"><ele>247.0</ele><time>2026-05-02T15:47:09.184Z</time></trkpt><trkpt lat="45.2772583" lon="7.8501721"><ele>246.99999999999997</ele><time>2026-05-02T15:47:11.192Z</time></trkpt><trkpt lat="45.2773026" lon="7.8500611"><ele>247.0</ele><time>2026-05-02T15:47:13.185Z</time></trkpt><trkpt lat="45.2772892" lon="7.8499254"><ele>246.39999999999998</ele><time>2026-05-02T15:47:15.177Z</time></trkpt><trkpt lat="45.2772222" lon="7.8497564"><ele>245.79999999999998</ele><time>2026-05-02T15:47:17.213Z</time></trkpt><trkpt lat="45.2771616" lon="7.8496644"><ele>245.2</ele><time>2026-05-02T15:47:18.183Z</time></trkpt><trkpt lat="45.2770971" lon="7.8495842"><ele>244.6</ele><time>2026-05-02T15:47:19.18Z</time></trkpt><trkpt lat="45.2770319" lon="7.8495242"><ele>244.0</ele><time>2026-05-02T15:47:20.184Z</time></trkpt><trkpt lat="45.2769711" lon="7.8494586"><ele>243.99999999999997</ele><time>2026-05-02T15:47:21.178Z</time></trkpt><trkpt lat="45.2769093" lon="7.8493823"><ele>244.0</ele><time>2026-05-02T15:47:22.178Z</time></trkpt><trkpt lat="45.2768517" lon="7.8492966"><ele>244.0</ele><time>2026-05-02T15:47:23.188Z</time></trkpt><trkpt lat="45.2767974" lon="7.8491971"><ele>244.0</ele><time>2026-05-02T15:47:24.185Z</time></trkpt><trkpt lat="45.2767607" lon="7.8490932"><ele>243.99999999999997</ele><time>2026-05-02T15:47:25.187Z</time></trkpt><trkpt lat="45.2767361" lon="7.8489965"><ele>244.0</ele><time>2026-05-02T15:47:26.18Z</time></trkpt><trkpt lat="45.2767172" lon="7.8488609"><ele>243.83333333333331</ele><time>2026-05-02T15:47:28.207Z</time></trkpt><trkpt lat="45.2766306" lon="7.848809"><ele>243.66666666666666</ele><time>2026-05-02T15:47:30.186Z</time></trkpt><trkpt lat="45.2765163" lon="7.848738"><ele>243.5</ele><time>2026-05-02T15:47:32.182Z</time></trkpt><trkpt lat="45.2764696" lon="7.8486742"><ele>243.33333333333331</ele><time>2026-05-02T15:47:33.186Z</time></trkpt><trkpt lat="45.2764342" lon="7.8485778"><ele>243.16666666666666</ele><time>2026-05-02T15:47:34.185Z</time></trkpt><trkpt lat="45.2764224" lon="7.8484766"><ele>243.0</ele><time>2026-05-02T15:47:35.181Z</time></trkpt><trkpt lat="45.2764314" lon="7.8483459"><ele>242.83333333333334</ele><time>2026-05-02T15:47:36.176Z</time></trkpt><trkpt lat="45.2764438" lon="7.8482268"><ele>242.66666666666669</ele><time>2026-05-02T15:47:37.18Z</time></trkpt><trkpt lat="45.276455" lon="7.8481025"><ele>242.5</ele><time>2026-05-02T15:47:38.174Z</time></trkpt><trkpt lat="45.2764651" lon="7.8479924"><ele>242.33333333333334</ele><time>2026-05-02T15:47:39.186Z</time></trkpt><trkpt lat="45.2764764" lon="7.8478884"><ele>242.16666666666669</ele><time>2026-05-02T15:47:40.186Z</time></trkpt><trkpt lat="45.2764895" lon="7.8477813"><ele>242.0</ele><time>2026-05-02T15:47:41.195Z</time></trkpt><trkpt lat="45.2765077" lon="7.8476772"><ele>242.28571428571428</ele><time>2026-05-02T15:47:42.184Z</time></trkpt><trkpt lat="45.2765172" lon="7.8475736"><ele>242.57142857142856</ele><time>2026-05-02T15:47:43.181Z</time></trkpt><trkpt lat="45.2765185" lon="7.8474733"><ele>242.85714285714283</ele><time>2026-05-02T15:47:44.184Z</time></trkpt><trkpt lat="45.2765218" lon="7.8473764"><ele>243.1428571428571</ele><time>2026-05-02T15:47:45.187Z</time></trkpt><trkpt lat="45.2765178" lon="7.8472704"><ele>243.42857142857142</ele><time>2026-05-02T15:47:46.176Z</time></trkpt><trkpt lat="45.2765166" lon="7.8471682"><ele>243.71428571428567</ele><time>2026-05-02T15:47:47.178Z</time></trkpt><trkpt lat="45.2765045" lon="7.8470627"><ele>243.99999999999997</ele><time>2026-05-02T15:47:48.186Z</time></trkpt><trkpt lat="45.2764877" lon="7.8469628"><ele>243.99999999999997</ele><time>2026-05-02T15:47:49.181Z</time></trkpt><trkpt lat="45.2764744" lon="7.8468552"><ele>244.0</ele><time>2026-05-02T15:47:50.181Z</time></trkpt><trkpt lat="45.2764622" lon="7.8467373"><ele>244.0</ele><time>2026-05-02T15:47:51.187Z</time></trkpt><trkpt lat="45.2764468" lon="7.8466178"><ele>244.0</ele><time>2026-05-02T15:47:52.183Z</time></trkpt><trkpt lat="45.2764272" lon="7.8464925"><ele>243.99999999999997</ele><time>2026-05-02T15:47:53.182Z</time></trkpt><trkpt lat="45.2764092" lon="7.8463702"><ele>244.0</ele><time>2026-05-02T15:47:54.179Z</time></trkpt><trkpt lat="45.2763903" lon="7.8462446"><ele>244.39999999999998</ele><time>2026-05-02T15:47:55.179Z</time></trkpt><trkpt lat="45.2763727" lon="7.846114"><ele>244.79999999999998</ele><time>2026-05-02T15:47:56.188Z</time></trkpt><trkpt lat="45.2763487" lon="7.8459699"><ele>245.20000000000002</ele><time>2026-05-02T15:47:57.212Z</time></trkpt><trkpt lat="45.2763244" lon="7.8458152"><ele>245.60000000000002</ele><time>2026-05-02T15:47:58.186Z</time></trkpt><trkpt lat="45.2762968" lon="7.8456547"><ele>246.0</ele><time>2026-05-02T15:47:59.185Z</time></trkpt><trkpt lat="45.276266" lon="7.8454833"><ele>246.0</ele><time>2026-05-02T15:48:00.239Z</time></trkpt><trkpt lat="45.2762362" lon="7.8453055"><ele>246.0</ele><time>2026-05-02T15:48:01.192Z</time></trkpt><trkpt lat="45.2762032" lon="7.8451267"><ele>246.0</ele><time>2026-05-02T15:48:02.185Z</time></trkpt><trkpt lat="45.2761723" lon="7.8449603"><ele>246.0</ele><time>2026-05-02T15:48:03.184Z</time></trkpt><trkpt lat="45.2761383" lon="7.844802"><ele>246.0</ele><time>2026-05-02T15:48:04.186Z</time></trkpt><trkpt lat="45.2761063" lon="7.8446458"><ele>246.00000000000003</ele><time>2026-05-02T15:48:05.188Z</time></trkpt><trkpt lat="45.2760785" lon="7.8444942"><ele>246.00000000000003</ele><time>2026-05-02T15:48:06.181Z</time></trkpt><trkpt lat="45.2760568" lon="7.8443467"><ele>246.0</ele><time>2026-05-02T15:48:07.188Z</time></trkpt><trkpt lat="45.2760336" lon="7.8442028"><ele>246.0</ele><time>2026-05-02T15:48:08.179Z</time></trkpt><trkpt lat="45.2760118" lon="7.8440592"><ele>245.8</ele><time>2026-05-02T15:48:09.188Z</time></trkpt><trkpt lat="45.275991" lon="7.8439143"><ele>245.60000000000002</ele><time>2026-05-02T15:48:10.184Z</time></trkpt><trkpt lat="45.2759648" lon="7.8437667"><ele>245.4</ele><time>2026-05-02T15:48:11.193Z</time></trkpt><trkpt lat="45.2759331" lon="7.8436188"><ele>245.2</ele><time>2026-05-02T15:48:12.185Z</time></trkpt><trkpt lat="45.2759007" lon="7.8434684"><ele>245.0</ele><time>2026-05-02T15:48:13.181Z</time></trkpt><trkpt lat="45.2758719" lon="7.8433193"><ele>245.0</ele><time>2026-05-02T15:48:14.193Z</time></trkpt><trkpt lat="45.2758442" lon="7.843168"><ele>245.0</ele><time>2026-05-02T15:48:15.187Z</time></trkpt><trkpt lat="45.2758198" lon="7.8430193"><ele>245.0</ele><time>2026-05-02T15:48:16.187Z</time></trkpt><trkpt lat="45.2758013" lon="7.8428764"><ele>245.0</ele><time>2026-05-02T15:48:17.185Z</time></trkpt><trkpt lat="45.2757845" lon="7.8427355"><ele>245.0</ele><time>2026-05-02T15:48:18.19Z</time></trkpt><trkpt lat="45.2757694" lon="7.8426007"><ele>245.4</ele><time>2026-05-02T15:48:19.189Z</time></trkpt><trkpt lat="45.2757509" lon="7.8424598"><ele>245.8</ele><time>2026-05-02T15:48:20.193Z</time></trkpt><trkpt lat="45.2757306" lon="7.8423172"><ele>246.2</ele><time>2026-05-02T15:48:21.191Z</time></trkpt><trkpt lat="45.2757108" lon="7.8421776"><ele>246.6</ele><time>2026-05-02T15:48:22.183Z</time></trkpt><trkpt lat="45.2756946" lon="7.8420451"><ele>247.0</ele><time>2026-05-02T15:48:23.186Z</time></trkpt><trkpt lat="45.2756752" lon="7.8419172"><ele>246.99999999999997</ele><time>2026-05-02T15:48:24.186Z</time></trkpt><trkpt lat="45.2756614" lon="7.8418027"><ele>247.0</ele><time>2026-05-02T15:48:25.181Z</time></trkpt><trkpt lat="45.2756471" lon="7.8416928"><ele>247.0</ele><time>2026-05-02T15:48:26.193Z</time></trkpt><trkpt lat="45.2756289" lon="7.8415737"><ele>247.0</ele><time>2026-05-02T15:48:27.177Z</time></trkpt><trkpt lat="45.2756075" lon="7.8414541"><ele>246.99999999999997</ele><time>2026-05-02T15:48:28.188Z</time></trkpt><trkpt lat="45.2755841" lon="7.8413308"><ele>247.0</ele><time>2026-05-02T15:48:29.184Z</time></trkpt><trkpt lat="45.2755571" lon="7.8411992"><ele>246.8</ele><time>2026-05-02T15:48:30.184Z</time></trkpt><trkpt lat="45.2755292" lon="7.8410604"><ele>246.6</ele><time>2026-05-02T15:48:31.188Z</time></trkpt><trkpt lat="45.2755062" lon="7.8409209"><ele>246.40000000000003</ele><time>2026-05-02T15:48:32.181Z</time></trkpt><trkpt lat="45.2754793" lon="7.8407809"><ele>246.20000000000002</ele><time>2026-05-02T15:48:33.196Z</time></trkpt><trkpt lat="45.2754518" lon="7.8406397"><ele>246.0</ele><time>2026-05-02T15:48:34.189Z</time></trkpt><trkpt lat="45.2754245" lon="7.8404965"><ele>246.0</ele><time>2026-05-02T15:48:35.191Z</time></trkpt><trkpt lat="45.2753988" lon="7.8403541"><ele>246.00000000000003</ele><time>2026-05-02T15:48:36.175Z</time></trkpt><trkpt lat="45.2753773" lon="7.8402147"><ele>246.00000000000003</ele><time>2026-05-02T15:48:37.187Z</time></trkpt><trkpt lat="45.2753585" lon="7.8400777"><ele>246.0</ele><time>2026-05-02T15:48:38.18Z</time></trkpt><trkpt lat="45.2753377" lon="7.839943"><ele>246.0</ele><time>2026-05-02T15:48:39.19Z</time></trkpt><trkpt lat="45.2753167" lon="7.8398078"><ele>246.0</ele><time>2026-05-02T15:48:40.177Z</time></trkpt><trkpt lat="45.2752996" lon="7.8396738"><ele>246.0</ele><time>2026-05-02T15:48:41.185Z</time></trkpt><trkpt lat="45.2752813" lon="7.8395388"><ele>246.0</ele><time>2026-05-02T15:48:42.179Z</time></trkpt><trkpt lat="45.2752652" lon="7.8394161"><ele>246.0</ele><time>2026-05-02T15:48:43.176Z</time></trkpt><trkpt lat="45.2752493" lon="7.8393162"><ele>246.0</ele><time>2026-05-02T15:48:44.186Z</time></trkpt><trkpt lat="45.2752401" lon="7.8392164"><ele>246.0</ele><time>2026-05-02T15:48:45.19Z</time></trkpt><trkpt lat="45.2752336" lon="7.8391033"><ele>246.0</ele><time>2026-05-02T15:48:46.178Z</time></trkpt><trkpt lat="45.2752265" lon="7.8389776"><ele>246.00000000000003</ele><time>2026-05-02T15:48:47.177Z</time></trkpt><trkpt lat="45.2752191" lon="7.8388483"><ele>246.00000000000003</ele><time>2026-05-02T15:48:48.186Z</time></trkpt><trkpt lat="45.275214" lon="7.8387145"><ele>246.0</ele><time>2026-05-02T15:48:49.174Z</time></trkpt><trkpt lat="45.2752138" lon="7.8385853"><ele>246.0</ele><time>2026-05-02T15:48:50.172Z</time></trkpt><trkpt lat="45.2752116" lon="7.8384591"><ele>246.16666666666666</ele><time>2026-05-02T15:48:51.181Z</time></trkpt><trkpt lat="45.2752078" lon="7.838339"><ele>246.33333333333331</ele><time>2026-05-02T15:48:52.182Z</time></trkpt><trkpt lat="45.2752025" lon="7.8382336"><ele>246.5</ele><time>2026-05-02T15:48:53.183Z</time></trkpt><trkpt lat="45.2751985" lon="7.8381404"><ele>246.66666666666666</ele><time>2026-05-02T15:48:54.176Z</time></trkpt><trkpt lat="45.2751952" lon="7.8380504"><ele>246.83333333333331</ele><time>2026-05-02T15:48:55.181Z</time></trkpt><trkpt lat="45.2752074" lon="7.8378778"><ele>247.0</ele><time>2026-05-02T15:48:57.179Z</time></trkpt><trkpt lat="45.2752229" lon="7.8377873"><ele>246.99999999999997</ele><time>2026-05-02T15:48:58.178Z</time></trkpt><trkpt lat="45.2752294" lon="7.8376894"><ele>247.0</ele><time>2026-05-02T15:48:59.178Z</time></trkpt><trkpt lat="45.2752232" lon="7.8375983"><ele>247.0</ele><time>2026-05-02T15:49:00.176Z</time></trkpt><trkpt lat="45.2751987" lon="7.8374255"><ele>247.0</ele><time>2026-05-02T15:49:02.184Z</time></trkpt><trkpt lat="45.2751772" lon="7.8372561"><ele>246.99999999999997</ele><time>2026-05-02T15:49:04.178Z</time></trkpt><trkpt lat="45.2751589" lon="7.8371686"><ele>247.0</ele><time>2026-05-02T15:49:05.176Z</time></trkpt><trkpt lat="45.2751319" lon="7.8370785"><ele>246.83333333333331</ele><time>2026-05-02T15:49:06.185Z</time></trkpt><trkpt lat="45.2750875" lon="7.8369789"><ele>246.66666666666666</ele><time>2026-05-02T15:49:07.185Z</time></trkpt><trkpt lat="45.2750378" lon="7.8368727"><ele>246.5</ele><time>2026-05-02T15:49:08.18Z</time></trkpt><trkpt lat="45.2749841" lon="7.8367617"><ele>246.33333333333331</ele><time>2026-05-02T15:49:09.189Z</time></trkpt><trkpt lat="45.2749401" lon="7.8366519"><ele>246.16666666666666</ele><time>2026-05-02T15:49:10.178Z</time></trkpt><trkpt lat="45.2748992" lon="7.8365417"><ele>246.0</ele><time>2026-05-02T15:49:11.179Z</time></trkpt><trkpt lat="45.2748602" lon="7.8364383"><ele>246.0</ele><time>2026-05-02T15:49:12.183Z</time></trkpt><trkpt lat="45.2748277" lon="7.8363392"><ele>246.0</ele><time>2026-05-02T15:49:13.18Z</time></trkpt><trkpt lat="45.2747902" lon="7.8361976"><ele>246.0</ele><time>2026-05-02T15:49:15.183Z</time></trkpt><trkpt lat="45.2747784" lon="7.8360969"><ele>246.0</ele><time>2026-05-02T15:49:28.175Z</time></trkpt><trkpt lat="45.2747748" lon="7.8360017"><ele>246.0</ele><time>2026-05-02T15:49:35.187Z</time></trkpt><trkpt lat="45.2747997" lon="7.8361162"><ele>246.0</ele><time>2026-05-02T15:49:54.186Z</time></trkpt><trkpt lat="45.2748458" lon="7.836235"><ele>246.0</ele><time>2026-05-02T15:49:56.183Z</time></trkpt><trkpt lat="45.2748915" lon="7.8363791"><ele>246.00000000000003</ele><time>2026-05-02T15:49:58.186Z</time></trkpt><trkpt lat="45.2749326" lon="7.8365146"><ele>246.00000000000003</ele><time>2026-05-02T15:50:00.188Z</time></trkpt><trkpt lat="45.2749716" lon="7.8366672"><ele>246.0</ele><time>2026-05-02T15:50:02.178Z</time></trkpt><trkpt lat="45.2750273" lon="7.83681"><ele>246.0</ele><time>2026-05-02T15:50:04.184Z</time></trkpt><trkpt lat="45.2750969" lon="7.8369351"><ele>246.60000000000002</ele><time>2026-05-02T15:50:06.187Z</time></trkpt><trkpt lat="45.2751512" lon="7.8370756"><ele>247.20000000000002</ele><time>2026-05-02T15:50:08.185Z</time></trkpt><trkpt lat="45.2751837" lon="7.8372057"><ele>247.79999999999998</ele><time>2026-05-02T15:50:10.177Z</time></trkpt><trkpt lat="45.2751978" lon="7.8373402"><ele>248.39999999999998</ele><time>2026-05-02T15:50:12.18Z</time></trkpt><trkpt lat="45.2752046" lon="7.8374904"><ele>249.0</ele><time>2026-05-02T15:50:14.176Z</time></trkpt><trkpt lat="45.2752133" lon="7.8376195"><ele>248.66666666666666</ele><time>2026-05-02T15:50:16.175Z</time></trkpt><trkpt lat="45.2752033" lon="7.8377242"><ele>248.33333333333331</ele><time>2026-05-02T15:50:18.185Z</time></trkpt><trkpt lat="45.2752057" lon="7.8378679"><ele>248.0</ele><time>2026-05-02T15:50:20.187Z</time></trkpt><trkpt lat="45.2751967" lon="7.8380033"><ele>247.66666666666666</ele><time>2026-05-02T15:50:22.176Z</time></trkpt><trkpt lat="45.2751463" lon="7.8380944"><ele>247.33333333333331</ele><time>2026-05-02T15:50:24.178Z</time></trkpt><trkpt lat="45.2750721" lon="7.8381158"><ele>247.0</ele><time>2026-05-02T15:50:26.187Z</time></trkpt><trkpt lat="45.2749551" lon="7.8381433"><ele>247.0</ele><time>2026-05-02T15:50:28.184Z</time></trkpt><trkpt lat="45.27489" lon="7.8381616"><ele>247.0</ele><time>2026-05-02T15:50:29.18Z</time></trkpt><trkpt lat="45.2748051" lon="7.838192"><ele>247.0</ele><time>2026-05-02T15:50:30.179Z</time></trkpt><trkpt lat="45.2747043" lon="7.8382243"><ele>247.0</ele><time>2026-05-02T15:50:31.185Z</time></trkpt><trkpt lat="45.2745857" lon="7.8382453"><ele>247.0</ele><time>2026-05-02T15:50:32.186Z</time></trkpt><trkpt lat="45.274479" lon="7.8382584"><ele>247.0</ele><time>2026-05-02T15:50:33.181Z</time></trkpt><trkpt lat="45.2743622" lon="7.8382631"><ele>247.0</ele><time>2026-05-02T15:50:34.172Z</time></trkpt><trkpt lat="45.2742401" lon="7.8382558"><ele>247.0</ele><time>2026-05-02T15:50:35.182Z</time></trkpt><trkpt lat="45.2741278" lon="7.8382488"><ele>247.0</ele><time>2026-05-02T15:50:36.186Z</time></trkpt><trkpt lat="45.2740252" lon="7.8382389"><ele>246.83333333333331</ele><time>2026-05-02T15:50:37.181Z</time></trkpt><trkpt lat="45.2739333" lon="7.8382248"><ele>246.66666666666666</ele><time>2026-05-02T15:50:38.176Z</time></trkpt><trkpt lat="45.2738507" lon="7.8382121"><ele>246.5</ele><time>2026-05-02T15:50:39.173Z</time></trkpt><trkpt lat="45.2737786" lon="7.8381795"><ele>246.33333333333331</ele><time>2026-05-02T15:50:40.179Z</time></trkpt><trkpt lat="45.2737017" lon="7.8381499"><ele>246.16666666666666</ele><time>2026-05-02T15:50:41.179Z</time></trkpt><trkpt lat="45.273614" lon="7.8381129"><ele>246.0</ele><time>2026-05-02T15:50:42.179Z</time></trkpt><trkpt lat="45.2735358" lon="7.8380801"><ele>246.0</ele><time>2026-05-02T15:50:43.177Z</time></trkpt><trkpt lat="45.2734629" lon="7.8380422"><ele>246.00000000000003</ele><time>2026-05-02T15:50:44.185Z</time></trkpt><trkpt lat="45.2733971" lon="7.8379969"><ele>246.00000000000003</ele><time>2026-05-02T15:50:45.176Z</time></trkpt><trkpt lat="45.2733023" lon="7.8379153"><ele>246.0</ele><time>2026-05-02T15:50:47.177Z</time></trkpt><trkpt lat="45.2732642" lon="7.8377324"><ele>246.0</ele><time>2026-05-02T15:50:49.174Z</time></trkpt><trkpt lat="45.2732515" lon="7.8376194"><ele>246.16666666666666</ele><time>2026-05-02T15:50:50.173Z</time></trkpt><trkpt lat="45.2732234" lon="7.8375224"><ele>246.33333333333331</ele><time>2026-05-02T15:50:51.172Z</time></trkpt><trkpt lat="45.2731718" lon="7.8374387"><ele>246.5</ele><time>2026-05-02T15:50:52.19Z</time></trkpt><trkpt lat="45.2731047" lon="7.8373785"><ele>246.66666666666666</ele><time>2026-05-02T15:50:53.186Z</time></trkpt><trkpt lat="45.2730412" lon="7.8373563"><ele>246.83333333333331</ele><time>2026-05-02T15:50:54.19Z</time></trkpt><trkpt lat="45.2729644" lon="7.8373541"><ele>247.0</ele><time>2026-05-02T15:50:55.181Z</time></trkpt><trkpt lat="45.2728797" lon="7.8373594"><ele>246.6</ele><time>2026-05-02T15:50:56.176Z</time></trkpt><trkpt lat="45.2727834" lon="7.837369"><ele>246.2</ele><time>2026-05-02T15:50:57.182Z</time></trkpt><trkpt lat="45.2726814" lon="7.8373846"><ele>245.8</ele><time>2026-05-02T15:50:58.18Z</time></trkpt><trkpt lat="45.2725855" lon="7.8374101"><ele>245.4</ele><time>2026-05-02T15:50:59.191Z</time></trkpt><trkpt lat="45.2724808" lon="7.8374397"><ele>245.0</ele><time>2026-05-02T15:51:00.19Z</time></trkpt><trkpt lat="45.2723547" lon="7.8374453"><ele>245.25</ele><time>2026-05-02T15:51:01.195Z</time></trkpt><trkpt lat="45.2722284" lon="7.8374562"><ele>245.5</ele><time>2026-05-02T15:51:02.182Z</time></trkpt><trkpt lat="45.2721038" lon="7.8374665"><ele>245.75</ele><time>2026-05-02T15:51:03.175Z</time></trkpt><trkpt lat="45.271989" lon="7.8374834"><ele>246.0</ele><time>2026-05-02T15:51:04.183Z</time></trkpt><trkpt lat="45.2718664" lon="7.8375093"><ele>246.0</ele><time>2026-05-02T15:51:05.19Z</time></trkpt><trkpt lat="45.2717396" lon="7.8375371"><ele>246.0</ele><time>2026-05-02T15:51:06.183Z</time></trkpt><trkpt lat="45.2716016" lon="7.8375691"><ele>246.0</ele><time>2026-05-02T15:51:07.179Z</time></trkpt><trkpt lat="45.2714737" lon="7.8375962"><ele>246.0</ele><time>2026-05-02T15:51:08.182Z</time></trkpt><trkpt lat="45.2713519" lon="7.8376268"><ele>246.0</ele><time>2026-05-02T15:51:09.174Z</time></trkpt><trkpt lat="45.2712378" lon="7.8376597"><ele>246.00000000000003</ele><time>2026-05-02T15:51:10.184Z</time></trkpt><trkpt lat="45.2711294" lon="7.8376965"><ele>246.00000000000003</ele><time>2026-05-02T15:51:11.182Z</time></trkpt><trkpt lat="45.2710275" lon="7.8377342"><ele>246.0</ele><time>2026-05-02T15:51:12.178Z</time></trkpt><trkpt lat="45.2709424" lon="7.8377705"><ele>246.0</ele><time>2026-05-02T15:51:13.195Z</time></trkpt><trkpt lat="45.2708783" lon="7.8377954"><ele>246.0</ele><time>2026-05-02T15:51:14.181Z</time></trkpt><trkpt lat="45.2708115" lon="7.837798"><ele>246.00000000000003</ele><time>2026-05-02T15:51:15.177Z</time></trkpt><trkpt lat="45.2707474" lon="7.8377743"><ele>246.00000000000003</ele><time>2026-05-02T15:51:16.186Z</time></trkpt><trkpt lat="45.2706642" lon="7.8376629"><ele>246.0</ele><time>2026-05-02T15:51:18.174Z</time></trkpt><trkpt lat="45.2706365" lon="7.8375453"><ele>246.0</ele><time>2026-05-02T15:51:19.211Z</time></trkpt><trkpt lat="45.2706069" lon="7.8373539"><ele>245.0</ele><time>2026-05-02T15:51:20.178Z</time></trkpt><trkpt lat="45.2705763" lon="7.8370785"><ele>244.0</ele><time>2026-05-02T15:51:21.177Z</time></trkpt><trkpt lat="45.270533" lon="7.8368346"><ele>243.0</ele><time>2026-05-02T15:51:22.18Z</time></trkpt><trkpt lat="45.2704792" lon="7.8366032"><ele>243.0</ele><time>2026-05-02T15:51:23.179Z</time></trkpt><trkpt lat="45.2704442" lon="7.8364054"><ele>243.0</ele><time>2026-05-02T15:51:24.181Z</time></trkpt><trkpt lat="45.2704131" lon="7.836207"><ele>243.0</ele><time>2026-05-02T15:51:25.181Z</time></trkpt><trkpt lat="45.2703983" lon="7.8360014"><ele>243.0</ele><time>2026-05-02T15:51:26.184Z</time></trkpt><trkpt lat="45.2704033" lon="7.8357929"><ele>243.66666666666669</ele><time>2026-05-02T15:51:27.178Z</time></trkpt><trkpt lat="45.2704139" lon="7.8355763"><ele>244.33333333333334</ele><time>2026-05-02T15:51:28.174Z</time></trkpt><trkpt lat="45.2704247" lon="7.8353581"><ele>245.0</ele><time>2026-05-02T15:51:29.184Z</time></trkpt><trkpt lat="45.270436" lon="7.8351432"><ele>244.25</ele><time>2026-05-02T15:51:30.176Z</time></trkpt><trkpt lat="45.2704434" lon="7.8349353"><ele>243.5</ele><time>2026-05-02T15:51:31.21Z</time></trkpt><trkpt lat="45.2704513" lon="7.8347337"><ele>242.75</ele><time>2026-05-02T15:51:32.191Z</time></trkpt><trkpt lat="45.2704541" lon="7.8345296"><ele>242.0</ele><time>2026-05-02T15:51:33.176Z</time></trkpt><trkpt lat="45.2704606" lon="7.8343329"><ele>241.75</ele><time>2026-05-02T15:51:34.18Z</time></trkpt><trkpt lat="45.2704637" lon="7.8341397"><ele>241.5</ele><time>2026-05-02T15:51:35.187Z</time></trkpt><trkpt lat="45.270474" lon="7.8339536"><ele>241.25</ele><time>2026-05-02T15:51:36.192Z</time></trkpt><trkpt lat="45.2704818" lon="7.8337733"><ele>241.0</ele><time>2026-05-02T15:51:37.175Z</time></trkpt><trkpt lat="45.2704933" lon="7.8335977"><ele>241.25</ele><time>2026-05-02T15:51:38.188Z</time></trkpt><trkpt lat="45.2704998" lon="7.8334206"><ele>241.5</ele><time>2026-05-02T15:51:39.184Z</time></trkpt><trkpt lat="45.270504" lon="7.8332334"><ele>241.75</ele><time>2026-05-02T15:51:40.184Z</time></trkpt><trkpt lat="45.270507" lon="7.8330311"><ele>242.0</ele><time>2026-05-02T15:51:41.208Z</time></trkpt><trkpt lat="45.2705129" lon="7.8328212"><ele>241.75</ele><time>2026-05-02T15:51:42.212Z</time></trkpt><trkpt lat="45.2705238" lon="7.8326102"><ele>241.5</ele><time>2026-05-02T15:51:43.182Z</time></trkpt><trkpt lat="45.2705367" lon="7.832406"><ele>241.25</ele><time>2026-05-02T15:51:44.211Z</time></trkpt><trkpt lat="45.2705518" lon="7.8322105"><ele>241.0</ele><time>2026-05-02T15:51:45.187Z</time></trkpt><trkpt lat="45.2705693" lon="7.8320164"><ele>241.0</ele><time>2026-05-02T15:51:46.179Z</time></trkpt><trkpt lat="45.270596" lon="7.8318198"><ele>241.0</ele><time>2026-05-02T15:51:47.177Z</time></trkpt><trkpt lat="45.2706265" lon="7.831622"><ele>241.0</ele><time>2026-05-02T15:51:48.214Z</time></trkpt><trkpt lat="45.2706655" lon="7.8314231"><ele>241.0</ele><time>2026-05-02T15:51:49.211Z</time></trkpt><trkpt lat="45.2707047" lon="7.8312256"><ele>241.75</ele><time>2026-05-02T15:51:50.184Z</time></trkpt><trkpt lat="45.2707449" lon="7.831045"><ele>242.5</ele><time>2026-05-02T15:51:51.174Z</time></trkpt><trkpt lat="45.2707789" lon="7.83088"><ele>243.25</ele><time>2026-05-02T15:51:52.187Z</time></trkpt><trkpt lat="45.2708023" lon="7.8307149"><ele>244.0</ele><time>2026-05-02T15:51:53.187Z</time></trkpt><trkpt lat="45.2708212" lon="7.8305427"><ele>244.0</ele><time>2026-05-02T15:51:54.18Z</time></trkpt><trkpt lat="45.270837" lon="7.8303613"><ele>244.0</ele><time>2026-05-02T15:51:55.186Z</time></trkpt><trkpt lat="45.2708556" lon="7.8301693"><ele>244.0</ele><time>2026-05-02T15:51:56.188Z</time></trkpt><trkpt lat="45.2708751" lon="7.8299681"><ele>244.0</ele><time>2026-05-02T15:51:57.18Z</time></trkpt><trkpt lat="45.2708982" lon="7.8297603"><ele>244.33333333333331</ele><time>2026-05-02T15:51:58.179Z</time></trkpt><trkpt lat="45.2709224" lon="7.8295495"><ele>244.66666666666669</ele><time>2026-05-02T15:51:59.176Z</time></trkpt><trkpt lat="45.2709592" lon="7.8293371"><ele>245.0</ele><time>2026-05-02T15:52:00.176Z</time></trkpt><trkpt lat="45.2709912" lon="7.8291227"><ele>245.0</ele><time>2026-05-02T15:52:01.184Z</time></trkpt><trkpt lat="45.2710177" lon="7.8289047"><ele>245.0</ele><time>2026-05-02T15:52:02.18Z</time></trkpt><trkpt lat="45.2710463" lon="7.8286839"><ele>245.0</ele><time>2026-05-02T15:52:03.195Z</time></trkpt><trkpt lat="45.2710758" lon="7.8284626"><ele>245.0</ele><time>2026-05-02T15:52:04.182Z</time></trkpt><trkpt lat="45.2711051" lon="7.8282451"><ele>245.0</ele><time>2026-05-02T15:52:05.176Z</time></trkpt><trkpt lat="45.2711394" lon="7.8280297"><ele>245.0</ele><time>2026-05-02T15:52:06.178Z</time></trkpt><trkpt lat="45.2711579" lon="7.8278244"><ele>245.5</ele><time>2026-05-02T15:52:07.185Z</time></trkpt><trkpt lat="45.2711579" lon="7.8276298"><ele>246.0</ele><time>2026-05-02T15:52:08.177Z</time></trkpt><trkpt lat="45.2711439" lon="7.8274467"><ele>246.5</ele><time>2026-05-02T15:52:09.179Z</time></trkpt><trkpt lat="45.2711252" lon="7.8272905"><ele>247.0</ele><time>2026-05-02T15:52:10.172Z</time></trkpt><trkpt lat="45.2710837" lon="7.8271292"><ele>247.0</ele><time>2026-05-02T15:52:11.189Z</time></trkpt><trkpt lat="45.2710537" lon="7.8269587"><ele>247.0</ele><time>2026-05-02T15:52:12.198Z</time></trkpt><trkpt lat="45.2710043" lon="7.8267506"><ele>247.0</ele><time>2026-05-02T15:52:13.191Z</time></trkpt><trkpt lat="45.2709599" lon="7.8265382"><ele>247.0</ele><time>2026-05-02T15:52:14.187Z</time></trkpt><trkpt lat="45.2709052" lon="7.826317"><ele>247.0</ele><time>2026-05-02T15:52:15.181Z</time></trkpt><trkpt lat="45.2708469" lon="7.8261045"><ele>247.0</ele><time>2026-05-02T15:52:16.178Z</time></trkpt><trkpt lat="45.2708166" lon="7.8259144"><ele>247.0</ele><time>2026-05-02T15:52:17.193Z</time></trkpt><trkpt lat="45.2707991" lon="7.8257376"><ele>247.0</ele><time>2026-05-02T15:52:18.177Z</time></trkpt><trkpt lat="45.2707948" lon="7.8255755"><ele>246.66666666666666</ele><time>2026-05-02T15:52:19.182Z</time></trkpt><trkpt lat="45.2708064" lon="7.8254336"><ele>246.33333333333331</ele><time>2026-05-02T15:52:20.19Z</time></trkpt><trkpt lat="45.2708264" lon="7.8253086"><ele>246.0</ele><time>2026-05-02T15:52:21.18Z</time></trkpt><trkpt lat="45.2708485" lon="7.825192"><ele>245.66666666666669</ele><time>2026-05-02T15:52:22.189Z</time></trkpt><trkpt lat="45.2708718" lon="7.8250924"><ele>245.33333333333334</ele><time>2026-05-02T15:52:23.216Z</time></trkpt><trkpt lat="45.2708857" lon="7.8250008"><ele>245.0</ele><time>2026-05-02T15:52:24.195Z</time></trkpt><trkpt lat="45.2709094" lon="7.8248541"><ele>244.28571428571428</ele><time>2026-05-02T15:52:26.182Z</time></trkpt><trkpt lat="45.2708952" lon="7.8247482"><ele>243.57142857142856</ele><time>2026-05-02T15:52:29.18Z</time></trkpt><trkpt lat="45.2708691" lon="7.8246373"><ele>242.85714285714286</ele><time>2026-05-02T15:52:32.177Z</time></trkpt><trkpt lat="45.2708577" lon="7.8245412"><ele>242.14285714285714</ele><time>2026-05-02T15:52:35.176Z</time></trkpt><trkpt lat="45.2708324" lon="7.8244332"><ele>241.42857142857142</ele><time>2026-05-02T15:52:38.175Z</time></trkpt><trkpt lat="45.2708453" lon="7.8243337"><ele>240.71428571428572</ele><time>2026-05-02T15:52:41.186Z</time></trkpt><trkpt lat="45.2708392" lon="7.8242364"><ele>240.0</ele><time>2026-05-02T15:52:44.176Z</time></trkpt><trkpt lat="45.2708322" lon="7.8241273"><ele>239.42857142857144</ele><time>2026-05-02T15:52:47.179Z</time></trkpt><trkpt lat="45.2708259" lon="7.8240382"><ele>238.85714285714283</ele><time>2026-05-02T15:52:49.18Z</time></trkpt><trkpt lat="45.2708186" lon="7.8239389"><ele>238.28571428571428</ele><time>2026-05-02T15:52:51.224Z</time></trkpt><trkpt lat="45.2708179" lon="7.8238216"><ele>237.71428571428572</ele><time>2026-05-02T15:52:54.179Z</time></trkpt><trkpt lat="45.2708237" lon="7.8237051"><ele>237.14285714285717</ele><time>2026-05-02T15:52:57.172Z</time></trkpt><trkpt lat="45.2708489" lon="7.823597"><ele>236.57142857142856</ele><time>2026-05-02T15:53:01.176Z</time></trkpt><trkpt lat="45.2708734" lon="7.8235045"><ele>236.0</ele><time>2026-05-02T15:53:04.188Z</time></trkpt><trkpt lat="45.2708677" lon="7.8233875"><ele>235.50000000000003</ele><time>2026-05-02T15:53:07.177Z</time></trkpt><trkpt lat="45.2708732" lon="7.8232794"><ele>235.0</ele><time>2026-05-02T15:53:10.175Z</time></trkpt><trkpt lat="45.2708866" lon="7.8231595"><ele>234.5</ele><time>2026-05-02T15:53:13.21Z</time></trkpt><trkpt lat="45.270911" lon="7.8230307"><ele>234.0</ele><time>2026-05-02T15:53:16.176Z</time></trkpt><trkpt lat="45.2709189" lon="7.8229203"><ele>233.50000000000003</ele><time>2026-05-02T15:53:18.183Z</time></trkpt><trkpt lat="45.2709352" lon="7.8228198"><ele>233.0</ele><time>2026-05-02T15:53:20.204Z</time></trkpt><trkpt lat="45.2709704" lon="7.8226882"><ele>233.0</ele><time>2026-05-02T15:53:23.212Z</time></trkpt><trkpt lat="45.2710045" lon="7.8225012"><ele>233.0</ele><time>2026-05-02T15:53:25.204Z</time></trkpt><trkpt lat="45.2710377" lon="7.8223773"><ele>233.0</ele><time>2026-05-02T15:53:26.183Z</time></trkpt><trkpt lat="45.2710709" lon="7.8222392"><ele>233.0</ele><time>2026-05-02T15:53:27.179Z</time></trkpt><trkpt lat="45.2710987" lon="7.8221036"><ele>233.0</ele><time>2026-05-02T15:53:28.175Z</time></trkpt><trkpt lat="45.2711274" lon="7.8219764"><ele>233.00000000000003</ele><time>2026-05-02T15:53:29.185Z</time></trkpt><trkpt lat="45.2711538" lon="7.8218656"><ele>233.0</ele><time>2026-05-02T15:53:30.18Z</time></trkpt><trkpt lat="45.2711809" lon="7.8217716"><ele>233.0</ele><time>2026-05-02T15:53:31.176Z</time></trkpt><trkpt lat="45.2712081" lon="7.8216296"><ele>233.0</ele><time>2026-05-02T15:53:33.183Z</time></trkpt><trkpt lat="45.2712021" lon="7.8215328"><ele>233.00000000000003</ele><time>2026-05-02T15:53:35.189Z</time></trkpt><trkpt lat="45.2711329" lon="7.8214294"><ele>233.0</ele><time>2026-05-02T15:53:37.18Z</time></trkpt><trkpt lat="45.2710648" lon="7.8213676"><ele>233.0</ele><time>2026-05-02T15:53:38.183Z</time></trkpt><trkpt lat="45.2709697" lon="7.8212792"><ele>233.0</ele><time>2026-05-02T15:53:39.181Z</time></trkpt><trkpt lat="45.2708814" lon="7.8211499"><ele>233.0</ele><time>2026-05-02T15:53:40.181Z</time></trkpt><trkpt lat="45.2707368" lon="7.8209833"><ele>233.0</ele><time>2026-05-02T15:53:41.19Z</time></trkpt><trkpt lat="45.270617" lon="7.8208346"><ele>232.5</ele><time>2026-05-02T15:53:42.183Z</time></trkpt><trkpt lat="45.2705072" lon="7.8207348"><ele>232.0</ele><time>2026-05-02T15:53:43.179Z</time></trkpt><trkpt lat="45.2704158" lon="7.8206407"><ele>231.5</ele><time>2026-05-02T15:53:44.191Z</time></trkpt><trkpt lat="45.2703248" lon="7.820542"><ele>231.0</ele><time>2026-05-02T15:53:45.18Z</time></trkpt><trkpt lat="45.2702563" lon="7.8204256"><ele>231.0</ele><time>2026-05-02T15:53:46.178Z</time></trkpt><trkpt lat="45.270251" lon="7.820252"><ele>231.0</ele><time>2026-05-02T15:53:47.182Z</time></trkpt><trkpt lat="45.2702047" lon="7.8200705"><ele>231.0</ele><time>2026-05-02T15:53:48.184Z</time></trkpt><trkpt lat="45.270146" lon="7.8198946"><ele>231.0</ele><time>2026-05-02T15:53:49.209Z</time></trkpt><trkpt lat="45.2700627" lon="7.8197203"><ele>231.0</ele><time>2026-05-02T15:53:50.196Z</time></trkpt><trkpt lat="45.2699804" lon="7.8195894"><ele>231.0</ele><time>2026-05-02T15:53:51.2Z</time></trkpt><trkpt lat="45.2698789" lon="7.8194741"><ele>231.0</ele><time>2026-05-02T15:53:52.183Z</time></trkpt><trkpt lat="45.2697641" lon="7.8193532"><ele>231.0</ele><time>2026-05-02T15:53:53.188Z</time></trkpt><trkpt lat="45.2696163" lon="7.8191979"><ele>230.66666666666669</ele><time>2026-05-02T15:53:54.178Z</time></trkpt><trkpt lat="45.2694672" lon="7.8190187"><ele>230.33333333333334</ele><time>2026-05-02T15:53:55.185Z</time></trkpt><trkpt lat="45.2693174" lon="7.8188423"><ele>230.0</ele><time>2026-05-02T15:53:56.185Z</time></trkpt><trkpt lat="45.269185" lon="7.8186586"><ele>230.0</ele><time>2026-05-02T15:53:57.188Z</time></trkpt><trkpt lat="45.2690481" lon="7.8184892"><ele>230.0</ele><time>2026-05-02T15:53:58.18Z</time></trkpt><trkpt lat="45.2689153" lon="7.8183333"><ele>230.0</ele><time>2026-05-02T15:53:59.182Z</time></trkpt><trkpt lat="45.2687891" lon="7.8181834"><ele>229.66666666666669</ele><time>2026-05-02T15:54:00.186Z</time></trkpt><trkpt lat="45.2686643" lon="7.818042"><ele>229.33333333333331</ele><time>2026-05-02T15:54:01.185Z</time></trkpt><trkpt lat="45.2685465" lon="7.8178992"><ele>229.0</ele><time>2026-05-02T15:54:02.176Z</time></trkpt><trkpt lat="45.2684253" lon="7.817753"><ele>229.0</ele><time>2026-05-02T15:54:03.181Z</time></trkpt><trkpt lat="45.2683025" lon="7.8176129"><ele>229.0</ele><time>2026-05-02T15:54:04.186Z</time></trkpt><trkpt lat="45.2681812" lon="7.8174761"><ele>229.0</ele><time>2026-05-02T15:54:05.185Z</time></trkpt><trkpt lat="45.2680615" lon="7.8173409"><ele>229.0</ele><time>2026-05-02T15:54:06.178Z</time></trkpt><trkpt lat="45.2679563" lon="7.8172177"><ele>229.0</ele><time>2026-05-02T15:54:07.182Z</time></trkpt><trkpt lat="45.2678532" lon="7.8171044"><ele>229.0</ele><time>2026-05-02T15:54:08.183Z</time></trkpt><trkpt lat="45.267751" lon="7.8169903"><ele>229.0</ele><time>2026-05-02T15:54:09.188Z</time></trkpt><trkpt lat="45.2676379" lon="7.8168703"><ele>229.0</ele><time>2026-05-02T15:54:10.179Z</time></trkpt><trkpt lat="45.2675252" lon="7.8167484"><ele>229.0</ele><time>2026-05-02T15:54:11.212Z</time></trkpt><trkpt lat="45.2674134" lon="7.8166222"><ele>229.0</ele><time>2026-05-02T15:54:12.183Z</time></trkpt><trkpt lat="45.2672929" lon="7.8164869"><ele>229.0</ele><time>2026-05-02T15:54:13.184Z</time></trkpt><trkpt lat="45.2671701" lon="7.8163432"><ele>229.0</ele><time>2026-05-02T15:54:14.185Z</time></trkpt><trkpt lat="45.2670431" lon="7.8161919"><ele>229.0</ele><time>2026-05-02T15:54:15.195Z</time></trkpt><trkpt lat="45.266918" lon="7.8160378"><ele>229.0</ele><time>2026-05-02T15:54:16.19Z</time></trkpt><trkpt lat="45.2667959" lon="7.8158833"><ele>228.66666666666666</ele><time>2026-05-02T15:54:17.187Z</time></trkpt><trkpt lat="45.2666755" lon="7.8157299"><ele>228.33333333333331</ele><time>2026-05-02T15:54:18.183Z</time></trkpt><trkpt lat="45.2665551" lon="7.8155783"><ele>228.0</ele><time>2026-05-02T15:54:19.217Z</time></trkpt><trkpt lat="45.2664378" lon="7.8154261"><ele>227.66666666666669</ele><time>2026-05-02T15:54:20.175Z</time></trkpt><trkpt lat="45.2663186" lon="7.815273"><ele>227.33333333333334</ele><time>2026-05-02T15:54:21.188Z</time></trkpt><trkpt lat="45.2661893" lon="7.8151095"><ele>227.0</ele><time>2026-05-02T15:54:22.184Z</time></trkpt><trkpt lat="45.2660497" lon="7.8149318"><ele>227.0</ele><time>2026-05-02T15:54:23.187Z</time></trkpt><trkpt lat="45.2659187" lon="7.8147481"><ele>227.0</ele><time>2026-05-02T15:54:24.185Z</time></trkpt><trkpt lat="45.2657994" lon="7.8145533"><ele>227.0</ele><time>2026-05-02T15:54:25.18Z</time></trkpt><trkpt lat="45.2657015" lon="7.8143374"><ele>226.33333333333334</ele><time>2026-05-02T15:54:26.173Z</time></trkpt><trkpt lat="45.2656413" lon="7.8140992"><ele>225.66666666666669</ele><time>2026-05-02T15:54:27.186Z</time></trkpt><trkpt lat="45.2656081" lon="7.813838"><ele>225.0</ele><time>2026-05-02T15:54:28.186Z</time></trkpt><trkpt lat="45.2655895" lon="7.8135468"><ele>225.66666666666669</ele><time>2026-05-02T15:54:29.18Z</time></trkpt><trkpt lat="45.2655889" lon="7.8132539"><ele>226.33333333333334</ele><time>2026-05-02T15:54:30.184Z</time></trkpt><trkpt lat="45.2655857" lon="7.8129693"><ele>227.0</ele><time>2026-05-02T15:54:31.181Z</time></trkpt><trkpt lat="45.2655805" lon="7.8127039"><ele>227.33333333333334</ele><time>2026-05-02T15:54:32.188Z</time></trkpt><trkpt lat="45.2655756" lon="7.8124602"><ele>227.66666666666669</ele><time>2026-05-02T15:54:33.181Z</time></trkpt><trkpt lat="45.2655662" lon="7.8122438"><ele>228.0</ele><time>2026-05-02T15:54:34.186Z</time></trkpt><trkpt lat="45.2655484" lon="7.8120448"><ele>228.0</ele><time>2026-05-02T15:54:35.178Z</time></trkpt><trkpt lat="45.2655044" lon="7.8118843"><ele>228.0</ele><time>2026-05-02T15:54:36.183Z</time></trkpt><trkpt lat="45.2654355" lon="7.8117441"><ele>228.0</ele><time>2026-05-02T15:54:37.184Z</time></trkpt><trkpt lat="45.2653342" lon="7.8116487"><ele>228.0</ele><time>2026-05-02T15:54:38.199Z</time></trkpt><trkpt lat="45.2652039" lon="7.8115926"><ele>227.66666666666669</ele><time>2026-05-02T15:54:39.18Z</time></trkpt><trkpt lat="45.2650404" lon="7.811586"><ele>227.33333333333334</ele><time>2026-05-02T15:54:40.196Z</time></trkpt><trkpt lat="45.2648655" lon="7.8115883"><ele>227.0</ele><time>2026-05-02T15:54:41.191Z</time></trkpt><trkpt lat="45.2647044" lon="7.8115805"><ele>226.75</ele><time>2026-05-02T15:54:42.188Z</time></trkpt><trkpt lat="45.2645605" lon="7.8115697"><ele>226.5</ele><time>2026-05-02T15:54:43.193Z</time></trkpt><trkpt lat="45.2644317" lon="7.8115492"><ele>226.25</ele><time>2026-05-02T15:54:44.187Z</time></trkpt><trkpt lat="45.2643233" lon="7.8115251"><ele>226.0</ele><time>2026-05-02T15:54:45.182Z</time></trkpt><trkpt lat="45.2642295" lon="7.8114948"><ele>226.0</ele><time>2026-05-02T15:54:46.182Z</time></trkpt><trkpt lat="45.2641494" lon="7.8114508"><ele>226.00000000000003</ele><time>2026-05-02T15:54:47.183Z</time></trkpt><trkpt lat="45.2640795" lon="7.8114026"><ele>226.00000000000003</ele><time>2026-05-02T15:54:48.18Z</time></trkpt><trkpt lat="45.2640037" lon="7.8113565"><ele>226.0</ele><time>2026-05-02T15:54:49.189Z</time></trkpt><trkpt lat="45.263905" lon="7.8113251"><ele>226.0</ele><time>2026-05-02T15:54:50.174Z</time></trkpt><trkpt lat="45.2637791" lon="7.8113123"><ele>226.66666666666666</ele><time>2026-05-02T15:54:51.19Z</time></trkpt><trkpt lat="45.2636143" lon="7.8113122"><ele>227.33333333333331</ele><time>2026-05-02T15:54:52.211Z</time></trkpt><trkpt lat="45.2634054" lon="7.8113172"><ele>228.0</ele><time>2026-05-02T15:54:53.181Z</time></trkpt><trkpt lat="45.2631982" lon="7.8113204"><ele>227.33333333333331</ele><time>2026-05-02T15:54:54.19Z</time></trkpt><trkpt lat="45.2629859" lon="7.8113182"><ele>226.66666666666666</ele><time>2026-05-02T15:54:55.185Z</time></trkpt><trkpt lat="45.2627628" lon="7.8113162"><ele>226.0</ele><time>2026-05-02T15:54:56.182Z</time></trkpt><trkpt lat="45.2625322" lon="7.8113121"><ele>226.0</ele><time>2026-05-02T15:54:57.187Z</time></trkpt><trkpt lat="45.2623006" lon="7.8113058"><ele>226.0</ele><time>2026-05-02T15:54:58.187Z</time></trkpt><trkpt lat="45.2620714" lon="7.8112972"><ele>225.5</ele><time>2026-05-02T15:54:59.181Z</time></trkpt><trkpt lat="45.2618441" lon="7.8112871"><ele>225.0</ele><time>2026-05-02T15:55:00.176Z</time></trkpt><trkpt lat="45.2616147" lon="7.8112756"><ele>223.5</ele><time>2026-05-02T15:55:01.181Z</time></trkpt><trkpt lat="45.2613848" lon="7.8112592"><ele>222.0</ele><time>2026-05-02T15:55:02.18Z</time></trkpt><trkpt lat="45.2611538" lon="7.8112402"><ele>222.0</ele><time>2026-05-02T15:55:03.188Z</time></trkpt><trkpt lat="45.2609255" lon="7.8112161"><ele>222.0</ele><time>2026-05-02T15:55:04.179Z</time></trkpt><trkpt lat="45.2606947" lon="7.8111805"><ele>222.5</ele><time>2026-05-02T15:55:05.183Z</time></trkpt><trkpt lat="45.2604588" lon="7.8111305"><ele>223.0</ele><time>2026-05-02T15:55:06.183Z</time></trkpt><trkpt lat="45.2602193" lon="7.811057"><ele>223.0</ele><time>2026-05-02T15:55:07.182Z</time></trkpt><trkpt lat="45.2599765" lon="7.8109683"><ele>223.0</ele><time>2026-05-02T15:55:08.181Z</time></trkpt><trkpt lat="45.2597279" lon="7.8108699"><ele>222.0</ele><time>2026-05-02T15:55:09.185Z</time></trkpt><trkpt lat="45.2594783" lon="7.810766"><ele>221.0</ele><time>2026-05-02T15:55:10.185Z</time></trkpt><trkpt lat="45.2592325" lon="7.8106619"><ele>221.0</ele><time>2026-05-02T15:55:11.18Z</time></trkpt><trkpt lat="45.2589852" lon="7.8105603"><ele>221.0</ele><time>2026-05-02T15:55:12.183Z</time></trkpt><trkpt lat="45.2587354" lon="7.8104758"><ele>220.5</ele><time>2026-05-02T15:55:13.178Z</time></trkpt><trkpt lat="45.2584772" lon="7.8104086"><ele>220.0</ele><time>2026-05-02T15:55:14.182Z</time></trkpt><trkpt lat="45.258206" lon="7.8103666"><ele>219.0</ele><time>2026-05-02T15:55:15.186Z</time></trkpt><trkpt lat="45.2579236" lon="7.8103487"><ele>218.0</ele><time>2026-05-02T15:55:16.183Z</time></trkpt><trkpt lat="45.2576346" lon="7.8103351"><ele>218.0</ele><time>2026-05-02T15:55:17.185Z</time></trkpt><trkpt lat="45.2573409" lon="7.8103199"><ele>218.0</ele><time>2026-05-02T15:55:18.178Z</time></trkpt><trkpt lat="45.2570428" lon="7.8103028"><ele>219.5</ele><time>2026-05-02T15:55:19.187Z</time></trkpt><trkpt lat="45.2567477" lon="7.8102805"><ele>221.0</ele><time>2026-05-02T15:55:20.175Z</time></trkpt><trkpt lat="45.2564547" lon="7.8102609"><ele>220.0</ele><time>2026-05-02T15:55:21.175Z</time></trkpt><trkpt lat="45.2561632" lon="7.8102393"><ele>219.0</ele><time>2026-05-02T15:55:22.179Z</time></trkpt><trkpt lat="45.2558686" lon="7.8102202"><ele>219.0</ele><time>2026-05-02T15:55:23.18Z</time></trkpt><trkpt lat="45.2555619" lon="7.8102005"><ele>219.0</ele><time>2026-05-02T15:55:24.183Z</time></trkpt><trkpt lat="45.2552443" lon="7.8101796"><ele>219.0</ele><time>2026-05-02T15:55:25.176Z</time></trkpt><trkpt lat="45.2549307" lon="7.8101601"><ele>219.0</ele><time>2026-05-02T15:55:26.193Z</time></trkpt><trkpt lat="45.254631" lon="7.8101404"><ele>219.5</ele><time>2026-05-02T15:55:27.181Z</time></trkpt><trkpt lat="45.2543512" lon="7.8101244"><ele>220.0</ele><time>2026-05-02T15:55:28.18Z</time></trkpt><trkpt lat="45.254086" lon="7.810108"><ele>220.0</ele><time>2026-05-02T15:55:29.184Z</time></trkpt><trkpt lat="45.2538338" lon="7.8100906"><ele>220.0</ele><time>2026-05-02T15:55:30.185Z</time></trkpt><trkpt lat="45.2535953" lon="7.810073"><ele>220.0</ele><time>2026-05-02T15:55:31.18Z</time></trkpt><trkpt lat="45.253366" lon="7.8100562"><ele>220.0</ele><time>2026-05-02T15:55:32.184Z</time></trkpt><trkpt lat="45.2531416" lon="7.8100372"><ele>219.0</ele><time>2026-05-02T15:55:33.182Z</time></trkpt><trkpt lat="45.2529164" lon="7.8100168"><ele>218.0</ele><time>2026-05-02T15:55:34.186Z</time></trkpt><trkpt lat="45.2526867" lon="7.8099964"><ele>218.0</ele><time>2026-05-02T15:55:35.182Z</time></trkpt><trkpt lat="45.2524481" lon="7.8099773"><ele>218.0</ele><time>2026-05-02T15:55:36.18Z</time></trkpt><trkpt lat="45.2522008" lon="7.8099631"><ele>218.5</ele><time>2026-05-02T15:55:37.181Z</time></trkpt><trkpt lat="45.2519463" lon="7.8099472"><ele>219.0</ele><time>2026-05-02T15:55:38.184Z</time></trkpt><trkpt lat="45.2516873" lon="7.8099262"><ele>218.5</ele><time>2026-05-02T15:55:39.188Z</time></trkpt><trkpt lat="45.2514267" lon="7.8098975"><ele>218.0</ele><time>2026-05-02T15:55:40.177Z</time></trkpt><trkpt lat="45.2511644" lon="7.8098693"><ele>218.0</ele><time>2026-05-02T15:55:41.183Z</time></trkpt><trkpt lat="45.2509057" lon="7.8098381"><ele>218.0</ele><time>2026-05-02T15:55:42.191Z</time></trkpt><trkpt lat="45.2506566" lon="7.8098116"><ele>217.66666666666669</ele><time>2026-05-02T15:55:43.179Z</time></trkpt><trkpt lat="45.2504242" lon="7.8097903"><ele>217.33333333333331</ele><time>2026-05-02T15:55:44.184Z</time></trkpt><trkpt lat="45.2502082" lon="7.8097717"><ele>217.0</ele><time>2026-05-02T15:55:45.18Z</time></trkpt><trkpt lat="45.2500063" lon="7.8097537"><ele>217.0</ele><time>2026-05-02T15:55:46.182Z</time></trkpt><trkpt lat="45.2498134" lon="7.8097356"><ele>217.0</ele><time>2026-05-02T15:55:47.182Z</time></trkpt><trkpt lat="45.2496289" lon="7.8097174"><ele>217.0</ele><time>2026-05-02T15:55:48.179Z</time></trkpt><trkpt lat="45.2494488" lon="7.8096929"><ele>217.0</ele><time>2026-05-02T15:55:49.185Z</time></trkpt><trkpt lat="45.2492696" lon="7.8096468"><ele>217.0</ele><time>2026-05-02T15:55:50.176Z</time></trkpt><trkpt lat="45.2490953" lon="7.8095832"><ele>217.0</ele><time>2026-05-02T15:55:51.179Z</time></trkpt><trkpt lat="45.2489254" lon="7.8095006"><ele>216.66666666666666</ele><time>2026-05-02T15:55:52.181Z</time></trkpt><trkpt lat="45.2487573" lon="7.8093924"><ele>216.33333333333331</ele><time>2026-05-02T15:55:53.186Z</time></trkpt><trkpt lat="45.2485952" lon="7.8092702"><ele>216.0</ele><time>2026-05-02T15:55:54.183Z</time></trkpt><trkpt lat="45.2484427" lon="7.8091284"><ele>216.66666666666669</ele><time>2026-05-02T15:55:55.22Z</time></trkpt><trkpt lat="45.2482986" lon="7.8089813"><ele>217.33333333333334</ele><time>2026-05-02T15:55:56.182Z</time></trkpt><trkpt lat="45.2481659" lon="7.8088111"><ele>218.0</ele><time>2026-05-02T15:55:57.178Z</time></trkpt><trkpt lat="45.248041" lon="7.8086365"><ele>218.33333333333334</ele><time>2026-05-02T15:55:58.181Z</time></trkpt><trkpt lat="45.2479177" lon="7.8084388"><ele>218.66666666666669</ele><time>2026-05-02T15:55:59.183Z</time></trkpt><trkpt lat="45.2477892" lon="7.8082068"><ele>219.0</ele><time>2026-05-02T15:56:00.177Z</time></trkpt><trkpt lat="45.2476527" lon="7.8079476"><ele>217.5</ele><time>2026-05-02T15:56:01.178Z</time></trkpt><trkpt lat="45.2475108" lon="7.8076545"><ele>216.0</ele><time>2026-05-02T15:56:02.181Z</time></trkpt><trkpt lat="45.2473635" lon="7.8073461"><ele>214.0</ele><time>2026-05-02T15:56:03.179Z</time></trkpt><trkpt lat="45.2472101" lon="7.8070242"><ele>212.0</ele><time>2026-05-02T15:56:04.182Z</time></trkpt><trkpt lat="45.2470536" lon="7.8066913"><ele>211.5</ele><time>2026-05-02T15:56:05.179Z</time></trkpt><trkpt lat="45.2468901" lon="7.8063602"><ele>211.0</ele><time>2026-05-02T15:56:06.187Z</time></trkpt><trkpt lat="45.246728" lon="7.806041"><ele>211.5</ele><time>2026-05-02T15:56:07.179Z</time></trkpt><trkpt lat="45.246564" lon="7.8057277"><ele>212.0</ele><time>2026-05-02T15:56:08.185Z</time></trkpt><trkpt lat="45.2464016" lon="7.8054127"><ele>215.0</ele><time>2026-05-02T15:56:09.204Z</time></trkpt><trkpt lat="45.246243" lon="7.8050999"><ele>218.0</ele><time>2026-05-02T15:56:10.174Z</time></trkpt><trkpt lat="45.2460838" lon="7.8047897"><ele>218.0</ele><time>2026-05-02T15:56:11.18Z</time></trkpt><trkpt lat="45.2459226" lon="7.8044742"><ele>218.0</ele><time>2026-05-02T15:56:12.186Z</time></trkpt><trkpt lat="45.2457582" lon="7.8041477"><ele>218.0</ele><time>2026-05-02T15:56:13.179Z</time></trkpt><trkpt lat="45.2455908" lon="7.8038152"><ele>218.0</ele><time>2026-05-02T15:56:14.182Z</time></trkpt><trkpt lat="45.2454198" lon="7.8034764"><ele>217.0</ele><time>2026-05-02T15:56:15.181Z</time></trkpt><trkpt lat="45.2452413" lon="7.8031304"><ele>216.0</ele><time>2026-05-02T15:56:16.185Z</time></trkpt><trkpt lat="45.2450612" lon="7.8027732"><ele>216.0</ele><time>2026-05-02T15:56:17.178Z</time></trkpt><trkpt lat="45.2448754" lon="7.802415"><ele>216.0</ele><time>2026-05-02T15:56:18.174Z</time></trkpt><trkpt lat="45.2446945" lon="7.8020638"><ele>216.0</ele><time>2026-05-02T15:56:19.178Z</time></trkpt><trkpt lat="45.2445259" lon="7.8017281"><ele>216.0</ele><time>2026-05-02T15:56:20.178Z</time></trkpt><trkpt lat="45.2443629" lon="7.8014028"><ele>216.0</ele><time>2026-05-02T15:56:21.208Z</time></trkpt><trkpt lat="45.2442063" lon="7.8010904"><ele>216.0</ele><time>2026-05-02T15:56:22.182Z</time></trkpt><trkpt lat="45.2440535" lon="7.8007899"><ele>215.5</ele><time>2026-05-02T15:56:23.186Z</time></trkpt><trkpt lat="45.2438983" lon="7.8004989"><ele>215.0</ele><time>2026-05-02T15:56:24.181Z</time></trkpt><trkpt lat="45.2437348" lon="7.8002177"><ele>215.0</ele><time>2026-05-02T15:56:25.184Z</time></trkpt><trkpt lat="45.2435556" lon="7.7999617"><ele>215.0</ele><time>2026-05-02T15:56:26.181Z</time></trkpt><trkpt lat="45.2433522" lon="7.7997315"><ele>215.0</ele><time>2026-05-02T15:56:27.184Z</time></trkpt><trkpt lat="45.243126" lon="7.7995241"><ele>215.0</ele><time>2026-05-02T15:56:28.21Z</time></trkpt><trkpt lat="45.2428784" lon="7.7993374"><ele>214.5</ele><time>2026-05-02T15:56:29.21Z</time></trkpt><trkpt lat="45.2426133" lon="7.7991688"><ele>214.0</ele><time>2026-05-02T15:56:30.181Z</time></trkpt><trkpt lat="45.2423341" lon="7.7990249"><ele>216.0</ele><time>2026-05-02T15:56:31.188Z</time></trkpt><trkpt lat="45.2420431" lon="7.7988858"><ele>218.0</ele><time>2026-05-02T15:56:32.185Z</time></trkpt><trkpt lat="45.2417473" lon="7.7987492"><ele>216.5</ele><time>2026-05-02T15:56:33.188Z</time></trkpt><trkpt lat="45.2414523" lon="7.798613"><ele>215.0</ele><time>2026-05-02T15:56:34.184Z</time></trkpt><trkpt lat="45.2411625" lon="7.7984732"><ele>214.0</ele><time>2026-05-02T15:56:35.18Z</time></trkpt><trkpt lat="45.2408788" lon="7.7983256"><ele>213.0</ele><time>2026-05-02T15:56:36.182Z</time></trkpt><trkpt lat="45.2406082" lon="7.798176"><ele>213.0</ele><time>2026-05-02T15:56:37.206Z</time></trkpt><trkpt lat="45.2403454" lon="7.7980261"><ele>213.0</ele><time>2026-05-02T15:56:38.177Z</time></trkpt><trkpt lat="45.240095" lon="7.7978819"><ele>213.0</ele><time>2026-05-02T15:56:39.182Z</time></trkpt><trkpt lat="45.2398525" lon="7.7977442"><ele>213.0</ele><time>2026-05-02T15:56:40.174Z</time></trkpt><trkpt lat="45.2396158" lon="7.7976083"><ele>214.0</ele><time>2026-05-02T15:56:41.185Z</time></trkpt><trkpt lat="45.2393818" lon="7.7974736"><ele>215.0</ele><time>2026-05-02T15:56:42.179Z</time></trkpt><trkpt lat="45.2391486" lon="7.7973415"><ele>215.5</ele><time>2026-05-02T15:56:43.185Z</time></trkpt><trkpt lat="45.2389131" lon="7.7972132"><ele>216.0</ele><time>2026-05-02T15:56:44.177Z</time></trkpt><trkpt lat="45.2386775" lon="7.7970832"><ele>216.0</ele><time>2026-05-02T15:56:45.185Z</time></trkpt><trkpt lat="45.2384404" lon="7.7969565"><ele>216.0</ele><time>2026-05-02T15:56:46.18Z</time></trkpt><trkpt lat="45.2382039" lon="7.7968318"><ele>215.0</ele><time>2026-05-02T15:56:47.189Z</time></trkpt><trkpt lat="45.2379699" lon="7.796707"><ele>214.0</ele><time>2026-05-02T15:56:48.181Z</time></trkpt><trkpt lat="45.2377359" lon="7.7965804"><ele>214.0</ele><time>2026-05-02T15:56:49.178Z</time></trkpt><trkpt lat="45.2375031" lon="7.7964535"><ele>214.0</ele><time>2026-05-02T15:56:50.192Z</time></trkpt><trkpt lat="45.237271" lon="7.7963245"><ele>214.0</ele><time>2026-05-02T15:56:51.186Z</time></trkpt><trkpt lat="45.2370404" lon="7.7961961"><ele>214.0</ele><time>2026-05-02T15:56:52.181Z</time></trkpt><trkpt lat="45.23681" lon="7.7960719"><ele>213.5</ele><time>2026-05-02T15:56:53.184Z</time></trkpt><trkpt lat="45.236583" lon="7.7959477"><ele>213.0</ele><time>2026-05-02T15:56:54.187Z</time></trkpt><trkpt lat="45.2363584" lon="7.795824"><ele>213.0</ele><time>2026-05-02T15:56:55.181Z</time></trkpt><trkpt lat="45.2361374" lon="7.7957069"><ele>213.0</ele><time>2026-05-02T15:56:56.183Z</time></trkpt><trkpt lat="45.2359202" lon="7.7955963"><ele>213.0</ele><time>2026-05-02T15:56:57.183Z</time></trkpt><trkpt lat="45.2357107" lon="7.7954883"><ele>213.0</ele><time>2026-05-02T15:56:58.181Z</time></trkpt><trkpt lat="45.2355103" lon="7.795383"><ele>213.0</ele><time>2026-05-02T15:56:59.179Z</time></trkpt><trkpt lat="45.2353174" lon="7.7952814"><ele>213.33333333333331</ele><time>2026-05-02T15:57:00.176Z</time></trkpt><trkpt lat="45.235129" lon="7.7951798"><ele>213.66666666666666</ele><time>2026-05-02T15:57:01.175Z</time></trkpt><trkpt lat="45.2349475" lon="7.795082"><ele>214.0</ele><time>2026-05-02T15:57:02.177Z</time></trkpt><trkpt lat="45.2347762" lon="7.7949885"><ele>214.33333333333331</ele><time>2026-05-02T15:57:03.185Z</time></trkpt><trkpt lat="45.234609" lon="7.7948968"><ele>214.66666666666669</ele><time>2026-05-02T15:57:04.182Z</time></trkpt><trkpt lat="45.2344403" lon="7.7947988"><ele>215.0</ele><time>2026-05-02T15:57:05.177Z</time></trkpt><trkpt lat="45.2342695" lon="7.794683"><ele>215.0</ele><time>2026-05-02T15:57:06.184Z</time></trkpt><trkpt lat="45.2341029" lon="7.7945453"><ele>215.0</ele><time>2026-05-02T15:57:07.18Z</time></trkpt><trkpt lat="45.2339425" lon="7.7943231"><ele>215.0</ele><time>2026-05-02T15:57:08.18Z</time></trkpt><trkpt lat="45.2337822" lon="7.7940664"><ele>214.0</ele><time>2026-05-02T15:57:09.184Z</time></trkpt><trkpt lat="45.2336201" lon="7.7938131"><ele>213.0</ele><time>2026-05-02T15:57:10.176Z</time></trkpt><trkpt lat="45.2334553" lon="7.7935676"><ele>213.0</ele><time>2026-05-02T15:57:11.211Z</time></trkpt><trkpt lat="45.2332907" lon="7.7933221"><ele>213.0</ele><time>2026-05-02T15:57:12.188Z</time></trkpt><trkpt lat="45.2331295" lon="7.7930825"><ele>213.0</ele><time>2026-05-02T15:57:13.186Z</time></trkpt><trkpt lat="45.2329656" lon="7.7928422"><ele>213.0</ele><time>2026-05-02T15:57:14.181Z</time></trkpt><trkpt lat="45.2327998" lon="7.7926025"><ele>213.5</ele><time>2026-05-02T15:57:15.183Z</time></trkpt><trkpt lat="45.2326351" lon="7.792365"><ele>214.0</ele><time>2026-05-02T15:57:16.179Z</time></trkpt><trkpt lat="45.2324716" lon="7.792128"><ele>214.0</ele><time>2026-05-02T15:57:17.213Z</time></trkpt><trkpt lat="45.2323078" lon="7.7918924"><ele>214.0</ele><time>2026-05-02T15:57:18.176Z</time></trkpt><trkpt lat="45.2321495" lon="7.7916621"><ele>214.33333333333331</ele><time>2026-05-02T15:57:19.181Z</time></trkpt><trkpt lat="45.2320018" lon="7.7914447"><ele>214.66666666666669</ele><time>2026-05-02T15:57:20.179Z</time></trkpt><trkpt lat="45.2318644" lon="7.7912404"><ele>215.0</ele><time>2026-05-02T15:57:21.183Z</time></trkpt><trkpt lat="45.2317382" lon="7.7910512"><ele>215.33333333333334</ele><time>2026-05-02T15:57:22.179Z</time></trkpt><trkpt lat="45.231622" lon="7.7908754"><ele>215.66666666666669</ele><time>2026-05-02T15:57:23.187Z</time></trkpt><trkpt lat="45.2315143" lon="7.7907093"><ele>216.0</ele><time>2026-05-02T15:57:24.179Z</time></trkpt><trkpt lat="45.231413" lon="7.7905522"><ele>215.75</ele><time>2026-05-02T15:57:25.212Z</time></trkpt><trkpt lat="45.2313136" lon="7.790407"><ele>215.5</ele><time>2026-05-02T15:57:26.184Z</time></trkpt><trkpt lat="45.2312206" lon="7.7902748"><ele>215.25</ele><time>2026-05-02T15:57:27.179Z</time></trkpt><trkpt lat="45.2311342" lon="7.7901458"><ele>215.0</ele><time>2026-05-02T15:57:28.179Z</time></trkpt><trkpt lat="45.231051" lon="7.790021"><ele>215.0</ele><time>2026-05-02T15:57:29.184Z</time></trkpt><trkpt lat="45.2309639" lon="7.7899002"><ele>215.0</ele><time>2026-05-02T15:57:30.18Z</time></trkpt><trkpt lat="45.2308691" lon="7.7897832"><ele>215.0</ele><time>2026-05-02T15:57:31.181Z</time></trkpt><trkpt lat="45.230764" lon="7.7896786"><ele>215.0</ele><time>2026-05-02T15:57:32.179Z</time></trkpt><trkpt lat="45.2306354" lon="7.7895779"><ele>215.0</ele><time>2026-05-02T15:57:33.187Z</time></trkpt><trkpt lat="45.2304959" lon="7.7894762"><ele>215.0</ele><time>2026-05-02T15:57:34.181Z</time></trkpt><trkpt lat="45.2303483" lon="7.7893708"><ele>215.0</ele><time>2026-05-02T15:57:35.19Z</time></trkpt><trkpt lat="45.2302017" lon="7.7892674"><ele>215.0</ele><time>2026-05-02T15:57:36.188Z</time></trkpt><trkpt lat="45.2300616" lon="7.7891691"><ele>215.0</ele><time>2026-05-02T15:57:37.177Z</time></trkpt><trkpt lat="45.2299332" lon="7.7890834"><ele>215.0</ele><time>2026-05-02T15:57:38.217Z</time></trkpt><trkpt lat="45.2298211" lon="7.7890043"><ele>215.0</ele><time>2026-05-02T15:57:39.191Z</time></trkpt><trkpt lat="45.2297324" lon="7.7889333"><ele>215.0</ele><time>2026-05-02T15:57:40.184Z</time></trkpt><trkpt lat="45.2296471" lon="7.7888624"><ele>215.0</ele><time>2026-05-02T15:57:41.176Z</time></trkpt><trkpt lat="45.2295484" lon="7.78879"><ele>215.0</ele><time>2026-05-02T15:57:42.185Z</time></trkpt><trkpt lat="45.2294503" lon="7.7887208"><ele>215.0</ele><time>2026-05-02T15:57:43.191Z</time></trkpt><trkpt lat="45.2293538" lon="7.788651"><ele>215.0</ele><time>2026-05-02T15:57:44.183Z</time></trkpt><trkpt lat="45.2292549" lon="7.7885758"><ele>214.75</ele><time>2026-05-02T15:57:45.171Z</time></trkpt><trkpt lat="45.2291518" lon="7.7884978"><ele>214.5</ele><time>2026-05-02T15:57:46.188Z</time></trkpt><trkpt lat="45.229052" lon="7.7884183"><ele>214.25</ele><time>2026-05-02T15:57:47.187Z</time></trkpt><trkpt lat="45.2289541" lon="7.7883392"><ele>214.0</ele><time>2026-05-02T15:57:48.188Z</time></trkpt><trkpt lat="45.2288578" lon="7.7882617"><ele>213.79999999999998</ele><time>2026-05-02T15:57:49.187Z</time></trkpt><trkpt lat="45.2287597" lon="7.7881863"><ele>213.59999999999997</ele><time>2026-05-02T15:57:50.182Z</time></trkpt><trkpt lat="45.2286649" lon="7.7881134"><ele>213.4</ele><time>2026-05-02T15:57:51.18Z</time></trkpt><trkpt lat="45.2285732" lon="7.7880439"><ele>213.2</ele><time>2026-05-02T15:57:52.18Z</time></trkpt><trkpt lat="45.2284875" lon="7.7879795"><ele>213.0</ele><time>2026-05-02T15:57:53.188Z</time></trkpt><trkpt lat="45.2284012" lon="7.7879156"><ele>213.0</ele><time>2026-05-02T15:57:54.182Z</time></trkpt><trkpt lat="45.2283038" lon="7.7878433"><ele>213.0</ele><time>2026-05-02T15:57:55.183Z</time></trkpt><trkpt lat="45.2281993" lon="7.7877652"><ele>213.0</ele><time>2026-05-02T15:57:56.177Z</time></trkpt><trkpt lat="45.228085" lon="7.7876791"><ele>213.0</ele><time>2026-05-02T15:57:57.187Z</time></trkpt><trkpt lat="45.2279648" lon="7.7875909"><ele>213.0</ele><time>2026-05-02T15:57:58.181Z</time></trkpt><trkpt lat="45.2278377" lon="7.7874935"><ele>213.0</ele><time>2026-05-02T15:57:59.178Z</time></trkpt><trkpt lat="45.2277103" lon="7.7873929"><ele>213.0</ele><time>2026-05-02T15:58:00.185Z</time></trkpt><trkpt lat="45.227583" lon="7.7872944"><ele>213.0</ele><time>2026-05-02T15:58:01.194Z</time></trkpt><trkpt lat="45.2274591" lon="7.7871977"><ele>213.0</ele><time>2026-05-02T15:58:02.18Z</time></trkpt><trkpt lat="45.227338" lon="7.7870989"><ele>213.0</ele><time>2026-05-02T15:58:03.183Z</time></trkpt><trkpt lat="45.2272185" lon="7.7870125"><ele>213.0</ele><time>2026-05-02T15:58:04.193Z</time></trkpt><trkpt lat="45.2270979" lon="7.7869211"><ele>213.0</ele><time>2026-05-02T15:58:05.187Z</time></trkpt><trkpt lat="45.2269734" lon="7.7868394"><ele>212.75</ele><time>2026-05-02T15:58:06.213Z</time></trkpt><trkpt lat="45.2268462" lon="7.7867608"><ele>212.5</ele><time>2026-05-02T15:58:07.203Z</time></trkpt><trkpt lat="45.2267149" lon="7.7866831"><ele>212.25</ele><time>2026-05-02T15:58:08.173Z</time></trkpt><trkpt lat="45.2265844" lon="7.7866112"><ele>212.0</ele><time>2026-05-02T15:58:09.187Z</time></trkpt><trkpt lat="45.2264647" lon="7.7865667"><ele>212.0</ele><time>2026-05-02T15:58:10.179Z</time></trkpt><trkpt lat="45.2263379" lon="7.786523"><ele>212.0</ele><time>2026-05-02T15:58:11.187Z</time></trkpt><trkpt lat="45.226213" lon="7.7865047"><ele>212.0</ele><time>2026-05-02T15:58:12.189Z</time></trkpt><trkpt lat="45.2260924" lon="7.7864915"><ele>212.0</ele><time>2026-05-02T15:58:13.2Z</time></trkpt><trkpt lat="45.2259757" lon="7.7864837"><ele>212.00000000000003</ele><time>2026-05-02T15:58:14.189Z</time></trkpt><trkpt lat="45.2258821" lon="7.7864869"><ele>212.0</ele><time>2026-05-02T15:58:15.195Z</time></trkpt><trkpt lat="45.2257947" lon="7.7864905"><ele>212.0</ele><time>2026-05-02T15:58:16.185Z</time></trkpt><trkpt lat="45.2257185" lon="7.786505"><ele>212.0</ele><time>2026-05-02T15:58:17.183Z</time></trkpt><trkpt lat="45.2256426" lon="7.7865237"><ele>212.00000000000003</ele><time>2026-05-02T15:58:18.182Z</time></trkpt><trkpt lat="45.2255641" lon="7.7865488"><ele>212.0</ele><time>2026-05-02T15:58:19.187Z</time></trkpt><trkpt lat="45.2254813" lon="7.7865787"><ele>212.16666666666669</ele><time>2026-05-02T15:58:20.185Z</time></trkpt><trkpt lat="45.2254031" lon="7.7866084"><ele>212.33333333333334</ele><time>2026-05-02T15:58:21.182Z</time></trkpt><trkpt lat="45.225329" lon="7.786641"><ele>212.5</ele><time>2026-05-02T15:58:22.185Z</time></trkpt><trkpt lat="45.2252547" lon="7.7866797"><ele>212.66666666666669</ele><time>2026-05-02T15:58:23.184Z</time></trkpt><trkpt lat="45.22518" lon="7.7867293"><ele>212.83333333333334</ele><time>2026-05-02T15:58:24.185Z</time></trkpt><trkpt lat="45.2251131" lon="7.7868009"><ele>213.0</ele><time>2026-05-02T15:58:25.184Z</time></trkpt><trkpt lat="45.2250639" lon="7.7869047"><ele>213.0</ele><time>2026-05-02T15:58:26.182Z</time></trkpt><trkpt lat="45.2250371" lon="7.7870279"><ele>213.0</ele><time>2026-05-02T15:58:27.178Z</time></trkpt><trkpt lat="45.2250298" lon="7.7871631"><ele>213.0</ele><time>2026-05-02T15:58:28.186Z</time></trkpt><trkpt lat="45.2250396" lon="7.787319"><ele>213.0</ele><time>2026-05-02T15:58:29.174Z</time></trkpt><trkpt lat="45.225056" lon="7.7874909"><ele>213.0</ele><time>2026-05-02T15:58:30.185Z</time></trkpt><trkpt lat="45.2250763" lon="7.7876657"><ele>213.0</ele><time>2026-05-02T15:58:31.198Z</time></trkpt><trkpt lat="45.2250994" lon="7.7878276"><ele>213.0</ele><time>2026-05-02T15:58:32.187Z</time></trkpt><trkpt lat="45.2251178" lon="7.7879802"><ele>213.0</ele><time>2026-05-02T15:58:33.178Z</time></trkpt><trkpt lat="45.2251222" lon="7.7881059"><ele>213.0</ele><time>2026-05-02T15:58:34.178Z</time></trkpt><trkpt lat="45.2251337" lon="7.7882316"><ele>213.0</ele><time>2026-05-02T15:58:35.189Z</time></trkpt><trkpt lat="45.2251341" lon="7.7883436"><ele>213.0</ele><time>2026-05-02T15:58:36.185Z</time></trkpt><trkpt lat="45.2251427" lon="7.7884551"><ele>213.0</ele><time>2026-05-02T15:58:37.204Z</time></trkpt><trkpt lat="45.2251591" lon="7.7885691"><ele>213.0</ele><time>2026-05-02T15:58:38.175Z</time></trkpt><trkpt lat="45.2251587" lon="7.788685"><ele>213.0</ele><time>2026-05-02T15:58:39.183Z</time></trkpt><trkpt lat="45.2251478" lon="7.7887914"><ele>213.0</ele><time>2026-05-02T15:58:40.18Z</time></trkpt><trkpt lat="45.2251189" lon="7.7888877"><ele>213.0</ele><time>2026-05-02T15:58:41.176Z</time></trkpt><trkpt lat="45.2250841" lon="7.7889855"><ele>213.0</ele><time>2026-05-02T15:58:42.22Z</time></trkpt><trkpt lat="45.2250585" lon="7.7890822"><ele>213.0</ele><time>2026-05-02T15:58:43.178Z</time></trkpt><trkpt lat="45.2250062" lon="7.7891812"><ele>213.0</ele><time>2026-05-02T15:58:44.19Z</time></trkpt><trkpt lat="45.2249242" lon="7.7892937"><ele>213.0</ele><time>2026-05-02T15:58:45.174Z</time></trkpt><trkpt lat="45.2248437" lon="7.7894207"><ele>213.0</ele><time>2026-05-02T15:58:46.186Z</time></trkpt><trkpt lat="45.2247704" lon="7.7895312"><ele>213.0</ele><time>2026-05-02T15:58:47.176Z</time></trkpt><trkpt lat="45.2247171" lon="7.7896311"><ele>213.0</ele><time>2026-05-02T15:58:48.184Z</time></trkpt><trkpt lat="45.2246798" lon="7.7897262"><ele>213.0</ele><time>2026-05-02T15:58:49.172Z</time></trkpt><trkpt lat="45.2246645" lon="7.7898298"><ele>213.0</ele><time>2026-05-02T15:58:50.18Z</time></trkpt><trkpt lat="45.224647" lon="7.7899362"><ele>213.0</ele><time>2026-05-02T15:58:51.172Z</time></trkpt><trkpt lat="45.2246229" lon="7.7900474"><ele>213.0</ele><time>2026-05-02T15:58:52.188Z</time></trkpt><trkpt lat="45.2245987" lon="7.79015"><ele>212.83333333333334</ele><time>2026-05-02T15:58:53.177Z</time></trkpt><trkpt lat="45.224571" lon="7.7902401"><ele>212.66666666666669</ele><time>2026-05-02T15:58:54.181Z</time></trkpt><trkpt lat="45.2245407" lon="7.7903279"><ele>212.5</ele><time>2026-05-02T15:58:55.181Z</time></trkpt><trkpt lat="45.224433" lon="7.7904543"><ele>212.33333333333334</ele><time>2026-05-02T15:58:57.168Z</time></trkpt><trkpt lat="45.2243555" lon="7.7904875"><ele>212.16666666666669</ele><time>2026-05-02T15:58:58.173Z</time></trkpt><trkpt lat="45.2242679" lon="7.7904872"><ele>212.0</ele><time>2026-05-02T15:58:59.189Z</time></trkpt><trkpt lat="45.2241754" lon="7.7904441"><ele>212.0</ele><time>2026-05-02T15:59:00.175Z</time></trkpt><trkpt lat="45.2240707" lon="7.7903756"><ele>212.0</ele><time>2026-05-02T15:59:01.183Z</time></trkpt><trkpt lat="45.2239728" lon="7.7902852"><ele>212.0</ele><time>2026-05-02T15:59:02.18Z</time></trkpt><trkpt lat="45.2238868" lon="7.7902012"><ele>212.0</ele><time>2026-05-02T15:59:03.176Z</time></trkpt><trkpt lat="45.2238151" lon="7.7901212"><ele>212.0</ele><time>2026-05-02T15:59:04.183Z</time></trkpt><trkpt lat="45.2237436" lon="7.7900572"><ele>212.00000000000003</ele><time>2026-05-02T15:59:05.18Z</time></trkpt><trkpt lat="45.2236777" lon="7.79"><ele>212.0</ele><time>2026-05-02T15:59:06.176Z</time></trkpt><trkpt lat="45.2236096" lon="7.7899466"><ele>212.0</ele><time>2026-05-02T15:59:07.187Z</time></trkpt><trkpt lat="45.2235362" lon="7.7899063"><ele>212.0</ele><time>2026-05-02T15:59:08.177Z</time></trkpt><trkpt lat="45.2234672" lon="7.7898715"><ele>212.00000000000003</ele><time>2026-05-02T15:59:09.169Z</time></trkpt><trkpt lat="45.2233635" lon="7.7898141"><ele>212.0</ele><time>2026-05-02T15:59:11.175Z</time></trkpt><trkpt lat="45.2232785" lon="7.7897493"><ele>212.00000000000003</ele><time>2026-05-02T15:59:13.174Z</time></trkpt><trkpt lat="45.2231625" lon="7.7897118"><ele>212.0</ele><time>2026-05-02T15:59:15.215Z</time></trkpt><trkpt lat="45.2230989" lon="7.7896821"><ele>212.0</ele><time>2026-05-02T15:59:16.185Z</time></trkpt><trkpt lat="45.2230053" lon="7.7896306"><ele>212.0</ele><time>2026-05-02T15:59:18.182Z</time></trkpt><trkpt lat="45.2229391" lon="7.7895559"><ele>212.00000000000003</ele><time>2026-05-02T15:59:20.181Z</time></trkpt><trkpt lat="45.2229211" lon="7.7894677"><ele>212.0</ele><time>2026-05-02T15:59:21.182Z</time></trkpt><trkpt lat="45.2229063" lon="7.7893445"><ele>211.6</ele><time>2026-05-02T15:59:22.179Z</time></trkpt><trkpt lat="45.2228979" lon="7.7892083"><ele>211.2</ele><time>2026-05-02T15:59:23.197Z</time></trkpt><trkpt lat="45.2228869" lon="7.7890703"><ele>210.8</ele><time>2026-05-02T15:59:24.175Z</time></trkpt><trkpt lat="45.2228673" lon="7.7889335"><ele>210.4</ele><time>2026-05-02T15:59:25.181Z</time></trkpt><trkpt lat="45.2228436" lon="7.7888053"><ele>210.0</ele><time>2026-05-02T15:59:26.192Z</time></trkpt><trkpt lat="45.2228175" lon="7.7886918"><ele>210.0</ele><time>2026-05-02T15:59:27.182Z</time></trkpt><trkpt lat="45.2227899" lon="7.7885866"><ele>210.0</ele><time>2026-05-02T15:59:28.177Z</time></trkpt><trkpt lat="45.2227609" lon="7.788483"><ele>210.0</ele><time>2026-05-02T15:59:29.181Z</time></trkpt><trkpt lat="45.2227281" lon="7.7883827"><ele>210.0</ele><time>2026-05-02T15:59:30.187Z</time></trkpt><trkpt lat="45.2226932" lon="7.7882781"><ele>210.0</ele><time>2026-05-02T15:59:31.191Z</time></trkpt><trkpt lat="45.2226567" lon="7.7881809"><ele>210.0</ele><time>2026-05-02T15:59:32.181Z</time></trkpt><trkpt lat="45.2226128" lon="7.788092"><ele>210.0</ele><time>2026-05-02T15:59:33.179Z</time></trkpt><trkpt lat="45.2225543" lon="7.7880037"><ele>210.0</ele><time>2026-05-02T15:59:34.183Z</time></trkpt><trkpt lat="45.2224989" lon="7.7879158"><ele>210.0</ele><time>2026-05-02T15:59:35.181Z</time></trkpt><trkpt lat="45.2224423" lon="7.7878273"><ele>210.0</ele><time>2026-05-02T15:59:36.173Z</time></trkpt><trkpt lat="45.2223887" lon="7.7877468"><ele>210.0</ele><time>2026-05-02T15:59:37.178Z</time></trkpt><trkpt lat="45.2223392" lon="7.7876812"><ele>210.0</ele><time>2026-05-02T15:59:38.181Z</time></trkpt><trkpt lat="45.2222443" lon="7.787587"><ele>209.83333333333334</ele><time>2026-05-02T15:59:40.18Z</time></trkpt><trkpt lat="45.2221363" lon="7.7875751"><ele>209.66666666666669</ele><time>2026-05-02T15:59:42.184Z</time></trkpt><trkpt lat="45.2220762" lon="7.7876203"><ele>209.5</ele><time>2026-05-02T15:59:43.182Z</time></trkpt><trkpt lat="45.222011" lon="7.7876691"><ele>209.33333333333334</ele><time>2026-05-02T15:59:44.174Z</time></trkpt><trkpt lat="45.2219464" lon="7.7876997"><ele>209.16666666666669</ele><time>2026-05-02T15:59:45.173Z</time></trkpt><trkpt lat="45.2218278" lon="7.7877116"><ele>209.0</ele><time>2026-05-02T15:59:47.176Z</time></trkpt><trkpt lat="45.221762" lon="7.7876793"><ele>208.79999999999998</ele><time>2026-05-02T15:59:48.183Z</time></trkpt><trkpt lat="45.2217045" lon="7.7875949"><ele>208.6</ele><time>2026-05-02T15:59:49.187Z</time></trkpt><trkpt lat="45.2216528" lon="7.7874623"><ele>208.4</ele><time>2026-05-02T15:59:50.185Z</time></trkpt><trkpt lat="45.221603" lon="7.7873083"><ele>208.2</ele><time>2026-05-02T15:59:51.177Z</time></trkpt><trkpt lat="45.2215611" lon="7.7871657"><ele>208.0</ele><time>2026-05-02T15:59:52.182Z</time></trkpt><trkpt lat="45.2215256" lon="7.7870339"><ele>208.0</ele><time>2026-05-02T15:59:53.196Z</time></trkpt><trkpt lat="45.2214977" lon="7.7869038"><ele>208.0</ele><time>2026-05-02T15:59:54.183Z</time></trkpt><trkpt lat="45.2214793" lon="7.7867675"><ele>208.0</ele><time>2026-05-02T15:59:55.191Z</time></trkpt><trkpt lat="45.2214704" lon="7.7866267"><ele>208.0</ele><time>2026-05-02T15:59:56.184Z</time></trkpt><trkpt lat="45.2214708" lon="7.7864767"><ele>208.0</ele><time>2026-05-02T15:59:57.179Z</time></trkpt><trkpt lat="45.2214761" lon="7.7863258"><ele>208.25</ele><time>2026-05-02T15:59:58.184Z</time></trkpt><trkpt lat="45.2214811" lon="7.7861616"><ele>208.5</ele><time>2026-05-02T15:59:59.181Z</time></trkpt><trkpt lat="45.2214937" lon="7.7859839"><ele>208.75</ele><time>2026-05-02T16:00:00.178Z</time></trkpt><trkpt lat="45.2215087" lon="7.7858054"><ele>209.0</ele><time>2026-05-02T16:00:01.186Z</time></trkpt><trkpt lat="45.2215248" lon="7.7856338"><ele>209.25</ele><time>2026-05-02T16:00:02.186Z</time></trkpt><trkpt lat="45.2215366" lon="7.7854594"><ele>209.5</ele><time>2026-05-02T16:00:03.18Z</time></trkpt><trkpt lat="45.221544" lon="7.7852854"><ele>209.75</ele><time>2026-05-02T16:00:04.185Z</time></trkpt><trkpt lat="45.221553" lon="7.7851103"><ele>210.0</ele><time>2026-05-02T16:00:05.196Z</time></trkpt><trkpt lat="45.2215643" lon="7.7849271"><ele>210.0</ele><time>2026-05-02T16:00:06.203Z</time></trkpt><trkpt lat="45.2215752" lon="7.7847423"><ele>210.0</ele><time>2026-05-02T16:00:07.185Z</time></trkpt><trkpt lat="45.2215882" lon="7.7845541"><ele>210.0</ele><time>2026-05-02T16:00:08.184Z</time></trkpt><trkpt lat="45.2216019" lon="7.7843654"><ele>210.0</ele><time>2026-05-02T16:00:09.182Z</time></trkpt><trkpt lat="45.2216126" lon="7.7841827"><ele>210.2</ele><time>2026-05-02T16:00:10.186Z</time></trkpt><trkpt lat="45.2216244" lon="7.7840141"><ele>210.4</ele><time>2026-05-02T16:00:11.181Z</time></trkpt><trkpt lat="45.2216391" lon="7.7838831"><ele>210.60000000000002</ele><time>2026-05-02T16:00:12.184Z</time></trkpt><trkpt lat="45.2216572" lon="7.7837687"><ele>210.8</ele><time>2026-05-02T16:00:13.197Z</time></trkpt><trkpt lat="45.2216662" lon="7.7836696"><ele>211.0</ele><time>2026-05-02T16:00:14.183Z</time></trkpt><trkpt lat="45.2216236" lon="7.7835196"><ele>210.8</ele><time>2026-05-02T16:00:16.176Z</time></trkpt><trkpt lat="45.2215617" lon="7.7834733"><ele>210.60000000000002</ele><time>2026-05-02T16:00:17.185Z</time></trkpt><trkpt lat="45.2214781" lon="7.7834601"><ele>210.4</ele><time>2026-05-02T16:00:18.178Z</time></trkpt><trkpt lat="45.2213699" lon="7.7834493"><ele>210.2</ele><time>2026-05-02T16:00:19.178Z</time></trkpt><trkpt lat="45.2212552" lon="7.783434"><ele>210.0</ele><time>2026-05-02T16:00:20.19Z</time></trkpt><trkpt lat="45.2211275" lon="7.7834169"><ele>210.0</ele><time>2026-05-02T16:00:21.185Z</time></trkpt><trkpt lat="45.2209945" lon="7.7833981"><ele>210.0</ele><time>2026-05-02T16:00:22.176Z</time></trkpt><trkpt lat="45.2208484" lon="7.7833983"><ele>210.0</ele><time>2026-05-02T16:00:23.189Z</time></trkpt><trkpt lat="45.2207123" lon="7.7833911"><ele>210.0</ele><time>2026-05-02T16:00:24.196Z</time></trkpt><trkpt lat="45.22059" lon="7.7833707"><ele>209.6</ele><time>2026-05-02T16:00:25.193Z</time></trkpt><trkpt lat="45.2204863" lon="7.7833371"><ele>209.2</ele><time>2026-05-02T16:00:26.18Z</time></trkpt><trkpt lat="45.2203882" lon="7.783308"><ele>208.8</ele><time>2026-05-02T16:00:27.18Z</time></trkpt><trkpt lat="45.2202882" lon="7.783281"><ele>208.4</ele><time>2026-05-02T16:00:28.184Z</time></trkpt><trkpt lat="45.2201865" lon="7.7832555"><ele>208.0</ele><time>2026-05-02T16:00:29.181Z</time></trkpt><trkpt lat="45.2200844" lon="7.7832283"><ele>208.0</ele><time>2026-05-02T16:00:30.208Z</time></trkpt><trkpt lat="45.2199833" lon="7.7832045"><ele>208.0</ele><time>2026-05-02T16:00:31.177Z</time></trkpt><trkpt lat="45.2198872" lon="7.7831859"><ele>208.0</ele><time>2026-05-02T16:00:32.183Z</time></trkpt><trkpt lat="45.2198017" lon="7.7831673"><ele>208.0</ele><time>2026-05-02T16:00:33.183Z</time></trkpt><trkpt lat="45.2197181" lon="7.7831504"><ele>208.0</ele><time>2026-05-02T16:00:34.18Z</time></trkpt><trkpt lat="45.219637" lon="7.7831299"><ele>208.0</ele><time>2026-05-02T16:00:35.183Z</time></trkpt><trkpt lat="45.2195594" lon="7.7831105"><ele>208.0</ele><time>2026-05-02T16:00:36.18Z</time></trkpt><trkpt lat="45.2194888" lon="7.7830916"><ele>208.0</ele><time>2026-05-02T16:00:37.188Z</time></trkpt><trkpt lat="45.2194229" lon="7.7830688"><ele>208.0</ele><time>2026-05-02T16:00:38.179Z</time></trkpt><trkpt lat="45.2193615" lon="7.783037"><ele>208.0</ele><time>2026-05-02T16:00:39.178Z</time></trkpt><trkpt lat="45.2193004" lon="7.7829967"><ele>208.0</ele><time>2026-05-02T16:00:40.176Z</time></trkpt><trkpt lat="45.2192396" lon="7.7829674"><ele>208.0</ele><time>2026-05-02T16:00:41.178Z</time></trkpt><trkpt lat="45.2191194" lon="7.7829758"><ele>208.0</ele><time>2026-05-02T16:00:43.213Z</time></trkpt><trkpt lat="45.2190548" lon="7.7829937"><ele>208.0</ele><time>2026-05-02T16:00:44.182Z</time></trkpt><trkpt lat="45.2189704" lon="7.7829958"><ele>208.0</ele><time>2026-05-02T16:00:45.204Z</time></trkpt><trkpt lat="45.2188769" lon="7.7829927"><ele>208.0</ele><time>2026-05-02T16:00:46.175Z</time></trkpt><trkpt lat="45.2187677" lon="7.7829841"><ele>208.0</ele><time>2026-05-02T16:00:47.185Z</time></trkpt><trkpt lat="45.2186515" lon="7.7829699"><ele>208.0</ele><time>2026-05-02T16:00:48.179Z</time></trkpt><trkpt lat="45.2185393" lon="7.7829492"><ele>208.0</ele><time>2026-05-02T16:00:49.176Z</time></trkpt><trkpt lat="45.2184309" lon="7.7829301"><ele>208.0</ele><time>2026-05-02T16:00:50.187Z</time></trkpt><trkpt lat="45.2183236" lon="7.7829116"><ele>208.0</ele><time>2026-05-02T16:00:51.197Z</time></trkpt><trkpt lat="45.2182163" lon="7.7828955"><ele>208.0</ele><time>2026-05-02T16:00:52.184Z</time></trkpt><trkpt lat="45.218105" lon="7.782873"><ele>208.0</ele><time>2026-05-02T16:00:53.179Z</time></trkpt><trkpt lat="45.2179904" lon="7.7828504"><ele>208.0</ele><time>2026-05-02T16:00:54.182Z</time></trkpt><trkpt lat="45.2178701" lon="7.7828257"><ele>208.0</ele><time>2026-05-02T16:00:55.182Z</time></trkpt><trkpt lat="45.2177461" lon="7.7827991"><ele>208.0</ele><time>2026-05-02T16:00:56.182Z</time></trkpt><trkpt lat="45.2176211" lon="7.7827755"><ele>208.0</ele><time>2026-05-02T16:00:57.183Z</time></trkpt><trkpt lat="45.2174933" lon="7.7827541"><ele>208.0</ele><time>2026-05-02T16:00:58.182Z</time></trkpt><trkpt lat="45.2173624" lon="7.7827301"><ele>208.0</ele><time>2026-05-02T16:00:59.183Z</time></trkpt><trkpt lat="45.2172324" lon="7.7827036"><ele>208.0</ele><time>2026-05-02T16:01:00.183Z</time></trkpt><trkpt lat="45.2171028" lon="7.7826783"><ele>207.75</ele><time>2026-05-02T16:01:01.179Z</time></trkpt><trkpt lat="45.2169736" lon="7.7826538"><ele>207.5</ele><time>2026-05-02T16:01:02.187Z</time></trkpt><trkpt lat="45.2168449" lon="7.7826302"><ele>207.25</ele><time>2026-05-02T16:01:03.191Z</time></trkpt><trkpt lat="45.2167116" lon="7.7826069"><ele>207.0</ele><time>2026-05-02T16:01:04.186Z</time></trkpt><trkpt lat="45.2165707" lon="7.7825791"><ele>206.66666666666669</ele><time>2026-05-02T16:01:05.184Z</time></trkpt><trkpt lat="45.216425" lon="7.7825509"><ele>206.33333333333334</ele><time>2026-05-02T16:01:06.186Z</time></trkpt><trkpt lat="45.2162709" lon="7.7825251"><ele>206.0</ele><time>2026-05-02T16:01:07.187Z</time></trkpt><trkpt lat="45.2161157" lon="7.7824975"><ele>206.0</ele><time>2026-05-02T16:01:08.194Z</time></trkpt><trkpt lat="45.215948" lon="7.7824663"><ele>206.0</ele><time>2026-05-02T16:01:09.188Z</time></trkpt><trkpt lat="45.2157753" lon="7.7824349"><ele>206.0</ele><time>2026-05-02T16:01:10.18Z</time></trkpt><trkpt lat="45.2156016" lon="7.7824043"><ele>205.66666666666669</ele><time>2026-05-02T16:01:11.179Z</time></trkpt><trkpt lat="45.2154362" lon="7.7823765"><ele>205.33333333333331</ele><time>2026-05-02T16:01:12.209Z</time></trkpt><trkpt lat="45.2152776" lon="7.7823561"><ele>205.0</ele><time>2026-05-02T16:01:13.184Z</time></trkpt><trkpt lat="45.2151207" lon="7.7823378"><ele>205.0</ele><time>2026-05-02T16:01:14.178Z</time></trkpt><trkpt lat="45.2149582" lon="7.7823225"><ele>205.0</ele><time>2026-05-02T16:01:15.181Z</time></trkpt><trkpt lat="45.2147931" lon="7.7823111"><ele>205.0</ele><time>2026-05-02T16:01:16.19Z</time></trkpt><trkpt lat="45.2146262" lon="7.7822996"><ele>205.33333333333331</ele><time>2026-05-02T16:01:17.188Z</time></trkpt><trkpt lat="45.2144573" lon="7.7822868"><ele>205.66666666666669</ele><time>2026-05-02T16:01:18.184Z</time></trkpt><trkpt lat="45.2142866" lon="7.7822736"><ele>206.0</ele><time>2026-05-02T16:01:19.178Z</time></trkpt><trkpt lat="45.2141173" lon="7.7822611"><ele>206.33333333333334</ele><time>2026-05-02T16:01:20.184Z</time></trkpt><trkpt lat="45.2139544" lon="7.7822475"><ele>206.66666666666669</ele><time>2026-05-02T16:01:21.182Z</time></trkpt><trkpt lat="45.213795" lon="7.7822314"><ele>207.0</ele><time>2026-05-02T16:01:22.186Z</time></trkpt><trkpt lat="45.2136372" lon="7.7822189"><ele>207.0</ele><time>2026-05-02T16:01:23.18Z</time></trkpt><trkpt lat="45.2134759" lon="7.7822063"><ele>207.0</ele><time>2026-05-02T16:01:24.183Z</time></trkpt><trkpt lat="45.2133163" lon="7.7821937"><ele>207.0</ele><time>2026-05-02T16:01:25.181Z</time></trkpt><trkpt lat="45.2131625" lon="7.7821803"><ele>207.5</ele><time>2026-05-02T16:01:26.186Z</time></trkpt><trkpt lat="45.2130162" lon="7.7821677"><ele>208.0</ele><time>2026-05-02T16:01:27.191Z</time></trkpt><trkpt lat="45.212874" lon="7.7821543"><ele>208.5</ele><time>2026-05-02T16:01:28.183Z</time></trkpt><trkpt lat="45.2127326" lon="7.7821441"><ele>209.0</ele><time>2026-05-02T16:01:29.185Z</time></trkpt><trkpt lat="45.212595" lon="7.7821388"><ele>209.0</ele><time>2026-05-02T16:01:30.181Z</time></trkpt><trkpt lat="45.2124655" lon="7.7821363"><ele>209.0</ele><time>2026-05-02T16:01:31.181Z</time></trkpt><trkpt lat="45.2123441" lon="7.7821347"><ele>209.0</ele><time>2026-05-02T16:01:32.184Z</time></trkpt><trkpt lat="45.2122274" lon="7.7821367"><ele>209.0</ele><time>2026-05-02T16:01:33.176Z</time></trkpt><trkpt lat="45.2121152" lon="7.7821554"><ele>209.0</ele><time>2026-05-02T16:01:34.181Z</time></trkpt><trkpt lat="45.2120073" lon="7.782182"><ele>209.0</ele><time>2026-05-02T16:01:35.178Z</time></trkpt><trkpt lat="45.2119061" lon="7.7822278"><ele>209.0</ele><time>2026-05-02T16:01:36.18Z</time></trkpt><trkpt lat="45.2118141" lon="7.7822936"><ele>209.0</ele><time>2026-05-02T16:01:37.177Z</time></trkpt><trkpt lat="45.2117325" lon="7.7823841"><ele>209.0</ele><time>2026-05-02T16:01:38.189Z</time></trkpt><trkpt lat="45.2116573" lon="7.7824884"><ele>209.0</ele><time>2026-05-02T16:01:39.19Z</time></trkpt><trkpt lat="45.2115868" lon="7.782597"><ele>209.0</ele><time>2026-05-02T16:01:40.217Z</time></trkpt><trkpt lat="45.2115265" lon="7.7826969"><ele>209.0</ele><time>2026-05-02T16:01:41.178Z</time></trkpt><trkpt lat="45.2114746" lon="7.7827793"><ele>209.0</ele><time>2026-05-02T16:01:42.184Z</time></trkpt><trkpt lat="45.2113951" lon="7.7828873"><ele>209.0</ele><time>2026-05-02T16:01:44.178Z</time></trkpt><trkpt lat="45.2113132" lon="7.782866"><ele>209.0</ele><time>2026-05-02T16:01:46.181Z</time></trkpt><trkpt lat="45.2112562" lon="7.7826962"><ele>209.0</ele><time>2026-05-02T16:01:48.202Z</time></trkpt><trkpt lat="45.2112485" lon="7.7825633"><ele>209.0</ele><time>2026-05-02T16:01:49.176Z</time></trkpt><trkpt lat="45.21126" lon="7.7824013"><ele>209.0</ele><time>2026-05-02T16:01:50.204Z</time></trkpt><trkpt lat="45.2112644" lon="7.7822321"><ele>209.0</ele><time>2026-05-02T16:01:51.189Z</time></trkpt><trkpt lat="45.2112687" lon="7.7820707"><ele>209.0</ele><time>2026-05-02T16:01:52.184Z</time></trkpt><trkpt lat="45.2112647" lon="7.7819161"><ele>209.0</ele><time>2026-05-02T16:01:53.184Z</time></trkpt><trkpt lat="45.2112564" lon="7.7817706"><ele>209.0</ele><time>2026-05-02T16:01:54.188Z</time></trkpt><trkpt lat="45.2112482" lon="7.7816084"><ele>209.0</ele><time>2026-05-02T16:01:55.213Z</time></trkpt><trkpt lat="45.2112418" lon="7.781418"><ele>208.66666666666669</ele><time>2026-05-02T16:01:56.178Z</time></trkpt><trkpt lat="45.2112369" lon="7.7811754"><ele>208.33333333333331</ele><time>2026-05-02T16:01:57.183Z</time></trkpt><trkpt lat="45.2112284" lon="7.7809166"><ele>208.0</ele><time>2026-05-02T16:01:58.179Z</time></trkpt><trkpt lat="45.2112105" lon="7.7806805"><ele>208.0</ele><time>2026-05-02T16:01:59.218Z</time></trkpt><trkpt lat="45.2111831" lon="7.7804754"><ele>208.0</ele><time>2026-05-02T16:02:00.177Z</time></trkpt><trkpt lat="45.2111429" lon="7.7803029"><ele>208.0</ele><time>2026-05-02T16:02:01.172Z</time></trkpt><trkpt lat="45.2110881" lon="7.7801859"><ele>208.0</ele><time>2026-05-02T16:02:02.176Z</time></trkpt><trkpt lat="45.211043" lon="7.7800871"><ele>208.0</ele><time>2026-05-02T16:02:03.213Z</time></trkpt><trkpt lat="45.2110319" lon="7.7799974"><ele>208.0</ele><time>2026-05-02T16:02:04.221Z</time></trkpt><trkpt lat="45.2109792" lon="7.7798506"><ele>208.0</ele><time>2026-05-02T16:02:06.181Z</time></trkpt><trkpt lat="45.2108636" lon="7.7798156"><ele>208.0</ele><time>2026-05-02T16:02:08.183Z</time></trkpt><trkpt lat="45.210791" lon="7.7798663"><ele>208.0</ele><time>2026-05-02T16:02:09.18Z</time></trkpt><trkpt lat="45.2107105" lon="7.7799623"><ele>208.0</ele><time>2026-05-02T16:02:10.183Z</time></trkpt><trkpt lat="45.2106179" lon="7.7800753"><ele>208.0</ele><time>2026-05-02T16:02:11.179Z</time></trkpt><trkpt lat="45.2104968" lon="7.7801958"><ele>208.0</ele><time>2026-05-02T16:02:12.183Z</time></trkpt><trkpt lat="45.2103474" lon="7.7802929"><ele>208.0</ele><time>2026-05-02T16:02:13.185Z</time></trkpt><trkpt lat="45.2101832" lon="7.7803823"><ele>208.66666666666666</ele><time>2026-05-02T16:02:14.193Z</time></trkpt><trkpt lat="45.2100095" lon="7.7804607"><ele>209.33333333333331</ele><time>2026-05-02T16:02:15.181Z</time></trkpt><trkpt lat="45.2098332" lon="7.7805285"><ele>210.0</ele><time>2026-05-02T16:02:16.182Z</time></trkpt><trkpt lat="45.2096578" lon="7.7805883"><ele>210.66666666666669</ele><time>2026-05-02T16:02:17.182Z</time></trkpt><trkpt lat="45.2094974" lon="7.7806101"><ele>211.33333333333334</ele><time>2026-05-02T16:02:18.188Z</time></trkpt><trkpt lat="45.2093361" lon="7.7806052"><ele>212.0</ele><time>2026-05-02T16:02:19.186Z</time></trkpt><trkpt lat="45.2091777" lon="7.7805865"><ele>212.0</ele><time>2026-05-02T16:02:20.182Z</time></trkpt><trkpt lat="45.2090176" lon="7.7805469"><ele>212.0</ele><time>2026-05-02T16:02:21.18Z</time></trkpt><trkpt lat="45.2088603" lon="7.7805078"><ele>212.0</ele><time>2026-05-02T16:02:22.183Z</time></trkpt><trkpt lat="45.2087109" lon="7.7804792"><ele>212.25</ele><time>2026-05-02T16:02:23.18Z</time></trkpt><trkpt lat="45.2085624" lon="7.7804562"><ele>212.5</ele><time>2026-05-02T16:02:24.193Z</time></trkpt><trkpt lat="45.2084198" lon="7.7804316"><ele>212.75</ele><time>2026-05-02T16:02:25.189Z</time></trkpt><trkpt lat="45.2082807" lon="7.780408"><ele>213.0</ele><time>2026-05-02T16:02:26.177Z</time></trkpt><trkpt lat="45.2081411" lon="7.7803845"><ele>213.75</ele><time>2026-05-02T16:02:27.179Z</time></trkpt><trkpt lat="45.2080001" lon="7.7803655"><ele>214.5</ele><time>2026-05-02T16:02:28.183Z</time></trkpt><trkpt lat="45.207856" lon="7.7803535"><ele>215.25</ele><time>2026-05-02T16:02:29.187Z</time></trkpt><trkpt lat="45.2077091" lon="7.7803497"><ele>216.0</ele><time>2026-05-02T16:02:30.191Z</time></trkpt><trkpt lat="45.207563" lon="7.7803426"><ele>216.0</ele><time>2026-05-02T16:02:31.19Z</time></trkpt><trkpt lat="45.2074192" lon="7.7803343"><ele>216.0</ele><time>2026-05-02T16:02:32.174Z</time></trkpt><trkpt lat="45.2072731" lon="7.7803202"><ele>216.0</ele><time>2026-05-02T16:02:33.186Z</time></trkpt><trkpt lat="45.2071234" lon="7.7803098"><ele>216.0</ele><time>2026-05-02T16:02:34.183Z</time></trkpt><trkpt lat="45.2069749" lon="7.7802964"><ele>215.75</ele><time>2026-05-02T16:02:35.184Z</time></trkpt><trkpt lat="45.206836" lon="7.7802786"><ele>215.5</ele><time>2026-05-02T16:02:36.218Z</time></trkpt><trkpt lat="45.2067087" lon="7.780261"><ele>215.25</ele><time>2026-05-02T16:02:37.194Z</time></trkpt><trkpt lat="45.2065918" lon="7.7802418"><ele>215.0</ele><time>2026-05-02T16:02:38.187Z</time></trkpt><trkpt lat="45.2064893" lon="7.7802278"><ele>215.0</ele><time>2026-05-02T16:02:39.185Z</time></trkpt><trkpt lat="45.2063932" lon="7.7802179"><ele>215.0</ele><time>2026-05-02T16:02:40.194Z</time></trkpt><trkpt lat="45.206297" lon="7.7802109"><ele>215.0</ele><time>2026-05-02T16:02:41.183Z</time></trkpt><trkpt lat="45.2061856" lon="7.7802081"><ele>215.0</ele><time>2026-05-02T16:02:42.196Z</time></trkpt><trkpt lat="45.20607" lon="7.7802159"><ele>215.0</ele><time>2026-05-02T16:02:43.183Z</time></trkpt><trkpt lat="45.2059554" lon="7.7802118"><ele>215.0</ele><time>2026-05-02T16:02:44.187Z</time></trkpt><trkpt lat="45.2058491" lon="7.7802097"><ele>215.0</ele><time>2026-05-02T16:02:45.178Z</time></trkpt><trkpt lat="45.2057552" lon="7.7802025"><ele>215.0</ele><time>2026-05-02T16:02:46.185Z</time></trkpt><trkpt lat="45.2056707" lon="7.7801866"><ele>215.0</ele><time>2026-05-02T16:02:47.197Z</time></trkpt><trkpt lat="45.2055848" lon="7.7801761"><ele>215.0</ele><time>2026-05-02T16:02:48.182Z</time></trkpt><trkpt lat="45.2054913" lon="7.7801653"><ele>215.2</ele><time>2026-05-02T16:02:49.174Z</time></trkpt><trkpt lat="45.2053837" lon="7.7801582"><ele>215.4</ele><time>2026-05-02T16:02:50.208Z</time></trkpt><trkpt lat="45.2052721" lon="7.7801499"><ele>215.60000000000002</ele><time>2026-05-02T16:02:51.175Z</time></trkpt><trkpt lat="45.2051602" lon="7.7801344"><ele>215.8</ele><time>2026-05-02T16:02:52.184Z</time></trkpt><trkpt lat="45.2050466" lon="7.7801086"><ele>216.0</ele><time>2026-05-02T16:02:53.185Z</time></trkpt><trkpt lat="45.2049349" lon="7.7800746"><ele>216.0</ele><time>2026-05-02T16:02:54.186Z</time></trkpt><trkpt lat="45.2048343" lon="7.7800249"><ele>216.00000000000003</ele><time>2026-05-02T16:02:55.171Z</time></trkpt><trkpt lat="45.2047423" lon="7.7799763"><ele>216.00000000000003</ele><time>2026-05-02T16:02:56.175Z</time></trkpt><trkpt lat="45.2046629" lon="7.7799261"><ele>216.0</ele><time>2026-05-02T16:02:57.17Z</time></trkpt><trkpt lat="45.2045919" lon="7.7798805"><ele>216.0</ele><time>2026-05-02T16:02:58.194Z</time></trkpt><trkpt lat="45.204494" lon="7.7797977"><ele>216.16666666666666</ele><time>2026-05-02T16:03:00.18Z</time></trkpt><trkpt lat="45.2044175" lon="7.7796692"><ele>216.33333333333331</ele><time>2026-05-02T16:03:02.18Z</time></trkpt><trkpt lat="45.2043837" lon="7.7795894"><ele>216.5</ele><time>2026-05-02T16:03:03.185Z</time></trkpt><trkpt lat="45.2043392" lon="7.7795231"><ele>216.66666666666666</ele><time>2026-05-02T16:03:04.194Z</time></trkpt><trkpt lat="45.2042787" lon="7.7794831"><ele>216.83333333333331</ele><time>2026-05-02T16:03:05.184Z</time></trkpt><trkpt lat="45.2042017" lon="7.7794913"><ele>217.0</ele><time>2026-05-02T16:03:06.177Z</time></trkpt><trkpt lat="45.2041128" lon="7.7795157"><ele>217.0</ele><time>2026-05-02T16:03:07.174Z</time></trkpt><trkpt lat="45.204023" lon="7.7795352"><ele>217.0</ele><time>2026-05-02T16:03:08.177Z</time></trkpt><trkpt lat="45.2039263" lon="7.7795275"><ele>217.0</ele><time>2026-05-02T16:03:09.182Z</time></trkpt><trkpt lat="45.2038073" lon="7.7795084"><ele>217.0</ele><time>2026-05-02T16:03:10.179Z</time></trkpt><trkpt lat="45.2036751" lon="7.7794799"><ele>217.0</ele><time>2026-05-02T16:03:11.175Z</time></trkpt><trkpt lat="45.2035328" lon="7.7794281"><ele>217.0</ele><time>2026-05-02T16:03:12.214Z</time></trkpt><trkpt lat="45.2034005" lon="7.7794211"><ele>217.0</ele><time>2026-05-02T16:03:13.184Z</time></trkpt><trkpt lat="45.2032758" lon="7.7794266"><ele>217.0</ele><time>2026-05-02T16:03:14.183Z</time></trkpt><trkpt lat="45.2031611" lon="7.7794356"><ele>217.0</ele><time>2026-05-02T16:03:15.185Z</time></trkpt><trkpt lat="45.2030595" lon="7.7794223"><ele>217.0</ele><time>2026-05-02T16:03:16.184Z</time></trkpt><trkpt lat="45.2029666" lon="7.7794265"><ele>217.0</ele><time>2026-05-02T16:03:17.183Z</time></trkpt><trkpt lat="45.2028607" lon="7.7794352"><ele>217.0</ele><time>2026-05-02T16:03:18.184Z</time></trkpt><trkpt lat="45.2027437" lon="7.7794523"><ele>217.0</ele><time>2026-05-02T16:03:19.205Z</time></trkpt><trkpt lat="45.2026268" lon="7.7794601"><ele>217.0</ele><time>2026-05-02T16:03:20.184Z</time></trkpt><trkpt lat="45.2025192" lon="7.7794705"><ele>216.99999999999997</ele><time>2026-05-02T16:03:21.18Z</time></trkpt><trkpt lat="45.2024169" lon="7.7794703"><ele>217.0</ele><time>2026-05-02T16:03:22.188Z</time></trkpt><trkpt lat="45.2023426" lon="7.7794701"><ele>217.0</ele><time>2026-05-02T16:03:23.192Z</time></trkpt><trkpt lat="45.2022673" lon="7.7794767"><ele>217.0</ele><time>2026-05-02T16:03:24.18Z</time></trkpt><trkpt lat="45.2021933" lon="7.7794891"><ele>216.99999999999997</ele><time>2026-05-02T16:03:25.18Z</time></trkpt><trkpt lat="45.2021055" lon="7.7795086"><ele>217.0</ele><time>2026-05-02T16:03:26.185Z</time></trkpt><trkpt lat="45.201999" lon="7.7795178"><ele>217.0</ele><time>2026-05-02T16:03:27.177Z</time></trkpt><trkpt lat="45.2018975" lon="7.7795447"><ele>217.0</ele><time>2026-05-02T16:03:28.176Z</time></trkpt><trkpt lat="45.2017967" lon="7.7795701"><ele>217.0</ele><time>2026-05-02T16:03:29.189Z</time></trkpt><trkpt lat="45.2017027" lon="7.7795851"><ele>217.0</ele><time>2026-05-02T16:03:30.186Z</time></trkpt><trkpt lat="45.2016161" lon="7.7796045"><ele>217.0</ele><time>2026-05-02T16:03:31.196Z</time></trkpt><trkpt lat="45.2015266" lon="7.7796196"><ele>216.83333333333331</ele><time>2026-05-02T16:03:32.189Z</time></trkpt><trkpt lat="45.2014477" lon="7.7796167"><ele>216.66666666666666</ele><time>2026-05-02T16:03:33.179Z</time></trkpt><trkpt lat="45.2013739" lon="7.7796286"><ele>216.5</ele><time>2026-05-02T16:03:34.176Z</time></trkpt><trkpt lat="45.2012955" lon="7.7796416"><ele>216.33333333333331</ele><time>2026-05-02T16:03:35.187Z</time></trkpt><trkpt lat="45.2012125" lon="7.7796438"><ele>216.16666666666666</ele><time>2026-05-02T16:03:36.186Z</time></trkpt><trkpt lat="45.2011239" lon="7.7796151"><ele>216.0</ele><time>2026-05-02T16:03:37.18Z</time></trkpt><trkpt lat="45.201032" lon="7.77959"><ele>216.0</ele><time>2026-05-02T16:03:38.183Z</time></trkpt><trkpt lat="45.2009395" lon="7.7795707"><ele>216.0</ele><time>2026-05-02T16:03:39.179Z</time></trkpt><trkpt lat="45.2008585" lon="7.7795344"><ele>216.0</ele><time>2026-05-02T16:03:40.179Z</time></trkpt><trkpt lat="45.2007781" lon="7.7795141"><ele>216.0</ele><time>2026-05-02T16:03:41.182Z</time></trkpt><trkpt lat="45.2006953" lon="7.7794923"><ele>216.0</ele><time>2026-05-02T16:03:42.188Z</time></trkpt><trkpt lat="45.2006133" lon="7.7794626"><ele>216.0</ele><time>2026-05-02T16:03:43.184Z</time></trkpt><trkpt lat="45.2005336" lon="7.7794114"><ele>216.16666666666666</ele><time>2026-05-02T16:03:44.182Z</time></trkpt><trkpt lat="45.2004528" lon="7.7793547"><ele>216.33333333333331</ele><time>2026-05-02T16:03:45.177Z</time></trkpt><trkpt lat="45.2003744" lon="7.7792954"><ele>216.5</ele><time>2026-05-02T16:03:46.185Z</time></trkpt><trkpt lat="45.2003027" lon="7.7792333"><ele>216.66666666666666</ele><time>2026-05-02T16:03:47.178Z</time></trkpt><trkpt lat="45.2002268" lon="7.7791661"><ele>216.83333333333331</ele><time>2026-05-02T16:03:48.174Z</time></trkpt><trkpt lat="45.2001624" lon="7.7791003"><ele>217.0</ele><time>2026-05-02T16:03:49.182Z</time></trkpt><trkpt lat="45.2001032" lon="7.7790254"><ele>217.39999999999998</ele><time>2026-05-02T16:03:50.184Z</time></trkpt><trkpt lat="45.2000529" lon="7.7789276"><ele>217.79999999999998</ele><time>2026-05-02T16:03:51.209Z</time></trkpt><trkpt lat="45.20001" lon="7.7788"><ele>218.2</ele><time>2026-05-02T16:03:52.177Z</time></trkpt><trkpt lat="45.1999847" lon="7.7786531"><ele>218.6</ele><time>2026-05-02T16:03:53.187Z</time></trkpt><trkpt lat="45.1999639" lon="7.7784983"><ele>219.0</ele><time>2026-05-02T16:03:54.183Z</time></trkpt><trkpt lat="45.1999405" lon="7.7783282"><ele>219.0</ele><time>2026-05-02T16:03:55.179Z</time></trkpt><trkpt lat="45.199916" lon="7.7781605"><ele>218.99999999999997</ele><time>2026-05-02T16:03:56.183Z</time></trkpt><trkpt lat="45.199889" lon="7.7780029"><ele>218.99999999999997</ele><time>2026-05-02T16:03:57.192Z</time></trkpt><trkpt lat="45.1998573" lon="7.7778564"><ele>219.0</ele><time>2026-05-02T16:03:58.183Z</time></trkpt><trkpt lat="45.1998295" lon="7.7777107"><ele>219.0</ele><time>2026-05-02T16:03:59.182Z</time></trkpt><trkpt lat="45.1998015" lon="7.777565"><ele>219.0</ele><time>2026-05-02T16:04:00.19Z</time></trkpt><trkpt lat="45.1997713" lon="7.7774192"><ele>218.99999999999997</ele><time>2026-05-02T16:04:01.184Z</time></trkpt><trkpt lat="45.1997387" lon="7.7772746"><ele>218.99999999999997</ele><time>2026-05-02T16:04:02.183Z</time></trkpt><trkpt lat="45.1997091" lon="7.7771306"><ele>219.0</ele><time>2026-05-02T16:04:03.187Z</time></trkpt><trkpt lat="45.1996768" lon="7.7769803"><ele>219.0</ele><time>2026-05-02T16:04:04.183Z</time></trkpt><trkpt lat="45.1996448" lon="7.7768254"><ele>219.2</ele><time>2026-05-02T16:04:05.183Z</time></trkpt><trkpt lat="45.199609" lon="7.7766698"><ele>219.39999999999998</ele><time>2026-05-02T16:04:06.18Z</time></trkpt><trkpt lat="45.1995644" lon="7.7765268"><ele>219.6</ele><time>2026-05-02T16:04:07.181Z</time></trkpt><trkpt lat="45.1995234" lon="7.7763846"><ele>219.8</ele><time>2026-05-02T16:04:08.193Z</time></trkpt><trkpt lat="45.199487" lon="7.7762343"><ele>220.0</ele><time>2026-05-02T16:04:09.19Z</time></trkpt><trkpt lat="45.1994576" lon="7.7760779"><ele>220.2</ele><time>2026-05-02T16:04:10.184Z</time></trkpt><trkpt lat="45.1994324" lon="7.7759109"><ele>220.4</ele><time>2026-05-02T16:04:11.188Z</time></trkpt><trkpt lat="45.1994117" lon="7.7757594"><ele>220.60000000000002</ele><time>2026-05-02T16:04:12.185Z</time></trkpt><trkpt lat="45.1993957" lon="7.7756181"><ele>220.8</ele><time>2026-05-02T16:04:13.177Z</time></trkpt><trkpt lat="45.1993837" lon="7.7754823"><ele>221.0</ele><time>2026-05-02T16:04:14.183Z</time></trkpt><trkpt lat="45.1993805" lon="7.7753738"><ele>221.00000000000003</ele><time>2026-05-02T16:04:15.177Z</time></trkpt><trkpt lat="45.199376" lon="7.7752839"><ele>221.0</ele><time>2026-05-02T16:04:16.183Z</time></trkpt><trkpt lat="45.1993959" lon="7.7751481"><ele>221.0</ele><time>2026-05-02T16:04:18.184Z</time></trkpt><trkpt lat="45.1994273" lon="7.7750545"><ele>221.0</ele><time>2026-05-02T16:04:20.192Z</time></trkpt><trkpt lat="45.1994381" lon="7.7749599"><ele>221.00000000000003</ele><time>2026-05-02T16:04:44.202Z</time></trkpt><trkpt lat="45.1994326" lon="7.7748169"><ele>221.0</ele><time>2026-05-02T16:04:46.207Z</time></trkpt><trkpt lat="45.199433" lon="7.774722"><ele>221.00000000000003</ele><time>2026-05-02T16:04:47.189Z</time></trkpt><trkpt lat="45.1994345" lon="7.7746268"><ele>221.0</ele><time>2026-05-02T16:04:48.183Z</time></trkpt><trkpt lat="45.1994242" lon="7.7745258"><ele>221.0</ele><time>2026-05-02T16:04:49.183Z</time></trkpt><trkpt lat="45.1994204" lon="7.7744224"><ele>221.0</ele><time>2026-05-02T16:04:50.187Z</time></trkpt><trkpt lat="45.1994114" lon="7.7743117"><ele>221.00000000000003</ele><time>2026-05-02T16:04:51.182Z</time></trkpt><trkpt lat="45.1994117" lon="7.7741938"><ele>221.0</ele><time>2026-05-02T16:04:52.183Z</time></trkpt><trkpt lat="45.1993944" lon="7.774062"><ele>221.5</ele><time>2026-05-02T16:04:53.18Z</time></trkpt><trkpt lat="45.1993584" lon="7.7739174"><ele>222.0</ele><time>2026-05-02T16:04:54.18Z</time></trkpt><trkpt lat="45.1993036" lon="7.7737668"><ele>222.5</ele><time>2026-05-02T16:04:55.184Z</time></trkpt><trkpt lat="45.1992498" lon="7.7736202"><ele>223.0</ele><time>2026-05-02T16:04:56.181Z</time></trkpt><trkpt lat="45.1992023" lon="7.7734731"><ele>223.0</ele><time>2026-05-02T16:04:57.18Z</time></trkpt><trkpt lat="45.199163" lon="7.7733339"><ele>223.0</ele><time>2026-05-02T16:04:58.198Z</time></trkpt><trkpt lat="45.1991171" lon="7.7731984"><ele>223.0</ele><time>2026-05-02T16:04:59.179Z</time></trkpt><trkpt lat="45.1990669" lon="7.7730458"><ele>223.0</ele><time>2026-05-02T16:05:00.186Z</time></trkpt><trkpt lat="45.1990139" lon="7.7728983"><ele>223.0</ele><time>2026-05-02T16:05:01.196Z</time></trkpt><trkpt lat="45.1989622" lon="7.7727515"><ele>223.0</ele><time>2026-05-02T16:05:02.186Z</time></trkpt><trkpt lat="45.1989099" lon="7.77261"><ele>223.0</ele><time>2026-05-02T16:05:03.193Z</time></trkpt><trkpt lat="45.1988537" lon="7.7724724"><ele>223.0</ele><time>2026-05-02T16:05:04.192Z</time></trkpt><trkpt lat="45.1987979" lon="7.7723293"><ele>223.0</ele><time>2026-05-02T16:05:05.186Z</time></trkpt><trkpt lat="45.1987414" lon="7.7721809"><ele>223.0</ele><time>2026-05-02T16:05:06.193Z</time></trkpt><trkpt lat="45.1986923" lon="7.7720138"><ele>223.0</ele><time>2026-05-02T16:05:07.192Z</time></trkpt><trkpt lat="45.1986412" lon="7.7718444"><ele>223.0</ele><time>2026-05-02T16:05:08.182Z</time></trkpt><trkpt lat="45.1985909" lon="7.7716779"><ele>223.0</ele><time>2026-05-02T16:05:09.194Z</time></trkpt><trkpt lat="45.1985409" lon="7.7715188"><ele>223.25</ele><time>2026-05-02T16:05:10.195Z</time></trkpt><trkpt lat="45.1984886" lon="7.7713633"><ele>223.5</ele><time>2026-05-02T16:05:11.181Z</time></trkpt><trkpt lat="45.1984336" lon="7.7712027"><ele>223.75</ele><time>2026-05-02T16:05:12.19Z</time></trkpt><trkpt lat="45.1983818" lon="7.7710351"><ele>224.0</ele><time>2026-05-02T16:05:13.193Z</time></trkpt><trkpt lat="45.1983289" lon="7.7708704"><ele>223.5</ele><time>2026-05-02T16:05:14.197Z</time></trkpt><trkpt lat="45.1982757" lon="7.7707046"><ele>223.0</ele><time>2026-05-02T16:05:15.186Z</time></trkpt><trkpt lat="45.1982227" lon="7.7705384"><ele>222.5</ele><time>2026-05-02T16:05:16.182Z</time></trkpt><trkpt lat="45.1981698" lon="7.7703741"><ele>222.0</ele><time>2026-05-02T16:05:17.19Z</time></trkpt><trkpt lat="45.1981158" lon="7.7702141"><ele>222.0</ele><time>2026-05-02T16:05:18.221Z</time></trkpt><trkpt lat="45.1980618" lon="7.7700615"><ele>222.0</ele><time>2026-05-02T16:05:19.189Z</time></trkpt><trkpt lat="45.1980116" lon="7.7699136"><ele>222.0</ele><time>2026-05-02T16:05:20.184Z</time></trkpt><trkpt lat="45.1979597" lon="7.7697698"><ele>222.0</ele><time>2026-05-02T16:05:21.214Z</time></trkpt><trkpt lat="45.1979082" lon="7.7696154"><ele>222.0</ele><time>2026-05-02T16:05:22.193Z</time></trkpt><trkpt lat="45.1978616" lon="7.7694515"><ele>222.0</ele><time>2026-05-02T16:05:23.194Z</time></trkpt><trkpt lat="45.1978136" lon="7.7692944"><ele>222.0</ele><time>2026-05-02T16:05:24.197Z</time></trkpt><trkpt lat="45.1977662" lon="7.7691453"><ele>222.0</ele><time>2026-05-02T16:05:25.195Z</time></trkpt><trkpt lat="45.1977192" lon="7.7689924"><ele>222.5</ele><time>2026-05-02T16:05:26.215Z</time></trkpt><trkpt lat="45.1976694" lon="7.7688293"><ele>223.0</ele><time>2026-05-02T16:05:27.197Z</time></trkpt><trkpt lat="45.1976185" lon="7.7686558"><ele>223.5</ele><time>2026-05-02T16:05:28.189Z</time></trkpt><trkpt lat="45.1975618" lon="7.7684824"><ele>224.0</ele><time>2026-05-02T16:05:29.188Z</time></trkpt><trkpt lat="45.197501" lon="7.7683027"><ele>224.0</ele><time>2026-05-02T16:05:30.192Z</time></trkpt><trkpt lat="45.1974419" lon="7.7681255"><ele>224.0</ele><time>2026-05-02T16:05:31.184Z</time></trkpt><trkpt lat="45.1973782" lon="7.7679506"><ele>224.0</ele><time>2026-05-02T16:05:32.178Z</time></trkpt><trkpt lat="45.1973194" lon="7.7677768"><ele>224.0</ele><time>2026-05-02T16:05:33.181Z</time></trkpt><trkpt lat="45.1972649" lon="7.7676085"><ele>224.0</ele><time>2026-05-02T16:05:34.201Z</time></trkpt><trkpt lat="45.197217" lon="7.7674557"><ele>224.0</ele><time>2026-05-02T16:05:35.183Z</time></trkpt><trkpt lat="45.1971732" lon="7.7673147"><ele>224.0</ele><time>2026-05-02T16:05:36.185Z</time></trkpt><trkpt lat="45.1971331" lon="7.7671685"><ele>224.0</ele><time>2026-05-02T16:05:37.186Z</time></trkpt><trkpt lat="45.1970911" lon="7.7670122"><ele>224.25</ele><time>2026-05-02T16:05:38.186Z</time></trkpt><trkpt lat="45.1970445" lon="7.7668492"><ele>224.5</ele><time>2026-05-02T16:05:39.182Z</time></trkpt><trkpt lat="45.1969945" lon="7.7666906"><ele>224.75</ele><time>2026-05-02T16:05:40.187Z</time></trkpt><trkpt lat="45.1969405" lon="7.7665258"><ele>225.0</ele><time>2026-05-02T16:05:41.2Z</time></trkpt><trkpt lat="45.196883" lon="7.7663579"><ele>225.0</ele><time>2026-05-02T16:05:42.196Z</time></trkpt><trkpt lat="45.1968274" lon="7.7661914"><ele>225.0</ele><time>2026-05-02T16:05:43.192Z</time></trkpt><trkpt lat="45.1967763" lon="7.7660295"><ele>225.0</ele><time>2026-05-02T16:05:44.185Z</time></trkpt><trkpt lat="45.1967297" lon="7.7658818"><ele>225.0</ele><time>2026-05-02T16:05:45.192Z</time></trkpt><trkpt lat="45.196681" lon="7.7657431"><ele>225.0</ele><time>2026-05-02T16:05:46.181Z</time></trkpt><trkpt lat="45.1966353" lon="7.7656079"><ele>225.0</ele><time>2026-05-02T16:05:47.179Z</time></trkpt><trkpt lat="45.1965904" lon="7.7654807"><ele>225.0</ele><time>2026-05-02T16:05:48.184Z</time></trkpt><trkpt lat="45.1965455" lon="7.7653646"><ele>225.0</ele><time>2026-05-02T16:05:49.179Z</time></trkpt><trkpt lat="45.1965034" lon="7.7652597"><ele>225.0</ele><time>2026-05-02T16:05:50.192Z</time></trkpt><trkpt lat="45.1964635" lon="7.7651626"><ele>225.16666666666666</ele><time>2026-05-02T16:05:51.186Z</time></trkpt><trkpt lat="45.1964268" lon="7.7650671"><ele>225.33333333333331</ele><time>2026-05-02T16:05:52.186Z</time></trkpt><trkpt lat="45.1963896" lon="7.7649646"><ele>225.5</ele><time>2026-05-02T16:05:53.19Z</time></trkpt><trkpt lat="45.1963521" lon="7.7648586"><ele>225.66666666666666</ele><time>2026-05-02T16:05:54.187Z</time></trkpt><trkpt lat="45.1963193" lon="7.7647531"><ele>225.83333333333331</ele><time>2026-05-02T16:05:55.197Z</time></trkpt><trkpt lat="45.1962873" lon="7.7646537"><ele>226.0</ele><time>2026-05-02T16:05:56.185Z</time></trkpt><trkpt lat="45.196256" lon="7.7645575"><ele>225.99999999999997</ele><time>2026-05-02T16:05:57.185Z</time></trkpt><trkpt lat="45.1962271" lon="7.7644633"><ele>226.0</ele><time>2026-05-02T16:05:58.196Z</time></trkpt><trkpt lat="45.1961957" lon="7.764363"><ele>226.0</ele><time>2026-05-02T16:05:59.187Z</time></trkpt><trkpt lat="45.1961609" lon="7.7642521"><ele>226.0</ele><time>2026-05-02T16:06:00.197Z</time></trkpt><trkpt lat="45.1961309" lon="7.7641414"><ele>225.99999999999997</ele><time>2026-05-02T16:06:01.192Z</time></trkpt><trkpt lat="45.1961065" lon="7.7640316"><ele>226.0</ele><time>2026-05-02T16:06:02.19Z</time></trkpt><trkpt lat="45.1960798" lon="7.7639298"><ele>226.0</ele><time>2026-05-02T16:06:03.193Z</time></trkpt><trkpt lat="45.1960613" lon="7.7638406"><ele>226.00000000000003</ele><time>2026-05-02T16:06:04.205Z</time></trkpt><trkpt lat="45.1960148" lon="7.7637078"><ele>226.00000000000003</ele><time>2026-05-02T16:06:06.199Z</time></trkpt><trkpt lat="45.1959541" lon="7.7635672"><ele>226.0</ele><time>2026-05-02T16:06:08.185Z</time></trkpt><trkpt lat="45.1959039" lon="7.763406"><ele>226.0</ele><time>2026-05-02T16:06:10.189Z</time></trkpt><trkpt lat="45.1958748" lon="7.7632877"><ele>226.0</ele><time>2026-05-02T16:06:11.19Z</time></trkpt><trkpt lat="45.1958446" lon="7.763145"><ele>226.0</ele><time>2026-05-02T16:06:12.182Z</time></trkpt><trkpt lat="45.1957982" lon="7.7629485"><ele>226.0</ele><time>2026-05-02T16:06:13.196Z</time></trkpt><trkpt lat="45.1957371" lon="7.7627233"><ele>226.0</ele><time>2026-05-02T16:06:14.179Z</time></trkpt><trkpt lat="45.1956632" lon="7.7624622"><ele>225.66666666666666</ele><time>2026-05-02T16:06:15.192Z</time></trkpt><trkpt lat="45.1955692" lon="7.7621762"><ele>225.33333333333331</ele><time>2026-05-02T16:06:16.189Z</time></trkpt><trkpt lat="45.1954779" lon="7.7619014"><ele>225.0</ele><time>2026-05-02T16:06:17.185Z</time></trkpt><trkpt lat="45.1953774" lon="7.7616312"><ele>225.33333333333331</ele><time>2026-05-02T16:06:18.191Z</time></trkpt><trkpt lat="45.195274" lon="7.7613596"><ele>225.66666666666666</ele><time>2026-05-02T16:06:19.198Z</time></trkpt><trkpt lat="45.1951797" lon="7.7610989"><ele>226.0</ele><time>2026-05-02T16:06:20.204Z</time></trkpt><trkpt lat="45.1950887" lon="7.7608515"><ele>226.0</ele><time>2026-05-02T16:06:21.188Z</time></trkpt><trkpt lat="45.1949989" lon="7.7606099"><ele>226.0</ele><time>2026-05-02T16:06:22.186Z</time></trkpt><trkpt lat="45.194916" lon="7.7603748"><ele>226.0</ele><time>2026-05-02T16:06:23.195Z</time></trkpt><trkpt lat="45.1948339" lon="7.7601453"><ele>226.33333333333331</ele><time>2026-05-02T16:06:24.188Z</time></trkpt><trkpt lat="45.1947552" lon="7.759921"><ele>226.66666666666669</ele><time>2026-05-02T16:06:25.206Z</time></trkpt><trkpt lat="45.1946749" lon="7.7596979"><ele>227.0</ele><time>2026-05-02T16:06:26.188Z</time></trkpt><trkpt lat="45.1945983" lon="7.7594792"><ele>226.66666666666669</ele><time>2026-05-02T16:06:27.192Z</time></trkpt><trkpt lat="45.1945266" lon="7.7592671"><ele>226.33333333333331</ele><time>2026-05-02T16:06:28.184Z</time></trkpt><trkpt lat="45.1944539" lon="7.7590604"><ele>226.0</ele><time>2026-05-02T16:06:29.184Z</time></trkpt><trkpt lat="45.19439" lon="7.7588879"><ele>226.0</ele><time>2026-05-02T16:06:30.183Z</time></trkpt><trkpt lat="45.1943314" lon="7.7587287"><ele>226.0</ele><time>2026-05-02T16:06:31.204Z</time></trkpt><trkpt lat="45.1942789" lon="7.7585781"><ele>226.0</ele><time>2026-05-02T16:06:32.221Z</time></trkpt><trkpt lat="45.1942284" lon="7.758424"><ele>226.0</ele><time>2026-05-02T16:06:33.198Z</time></trkpt><trkpt lat="45.1941717" lon="7.7582627"><ele>226.25</ele><time>2026-05-02T16:06:34.186Z</time></trkpt><trkpt lat="45.1941102" lon="7.7580835"><ele>226.5</ele><time>2026-05-02T16:06:35.192Z</time></trkpt><trkpt lat="45.1940463" lon="7.7579001"><ele>226.75</ele><time>2026-05-02T16:06:36.185Z</time></trkpt><trkpt lat="45.1939862" lon="7.7577097"><ele>227.0</ele><time>2026-05-02T16:06:37.201Z</time></trkpt><trkpt lat="45.1939248" lon="7.7575082"><ele>227.0</ele><time>2026-05-02T16:06:38.192Z</time></trkpt><trkpt lat="45.1938578" lon="7.7572963"><ele>227.0</ele><time>2026-05-02T16:06:39.202Z</time></trkpt><trkpt lat="45.1937898" lon="7.7570723"><ele>227.0</ele><time>2026-05-02T16:06:40.193Z</time></trkpt><trkpt lat="45.1937134" lon="7.7568395"><ele>227.0</ele><time>2026-05-02T16:06:41.186Z</time></trkpt><trkpt lat="45.1936386" lon="7.7566111"><ele>227.0</ele><time>2026-05-02T16:06:42.185Z</time></trkpt><trkpt lat="45.193566" lon="7.756399"><ele>227.0</ele><time>2026-05-02T16:06:43.211Z</time></trkpt><trkpt lat="45.1934988" lon="7.7562064"><ele>227.25</ele><time>2026-05-02T16:06:44.207Z</time></trkpt><trkpt lat="45.1934323" lon="7.7560322"><ele>227.5</ele><time>2026-05-02T16:06:45.188Z</time></trkpt><trkpt lat="45.193375" lon="7.7558897"><ele>227.75</ele><time>2026-05-02T16:06:46.19Z</time></trkpt><trkpt lat="45.1933242" lon="7.7557557"><ele>228.0</ele><time>2026-05-02T16:06:47.196Z</time></trkpt><trkpt lat="45.1932796" lon="7.7556396"><ele>228.0</ele><time>2026-05-02T16:06:48.191Z</time></trkpt><trkpt lat="45.1932319" lon="7.7555309"><ele>228.0</ele><time>2026-05-02T16:06:49.181Z</time></trkpt><trkpt lat="45.1931777" lon="7.7554085"><ele>228.0</ele><time>2026-05-02T16:06:50.182Z</time></trkpt><trkpt lat="45.1931151" lon="7.755271"><ele>228.0</ele><time>2026-05-02T16:06:51.19Z</time></trkpt><trkpt lat="45.1930422" lon="7.7551166"><ele>228.0</ele><time>2026-05-02T16:06:52.188Z</time></trkpt><trkpt lat="45.1929499" lon="7.7549453"><ele>228.0</ele><time>2026-05-02T16:06:53.188Z</time></trkpt><trkpt lat="45.1928474" lon="7.7547586"><ele>228.0</ele><time>2026-05-02T16:06:54.196Z</time></trkpt><trkpt lat="45.1927277" lon="7.7545496"><ele>228.0</ele><time>2026-05-02T16:06:55.189Z</time></trkpt><trkpt lat="45.1925935" lon="7.7543362"><ele>228.33333333333331</ele><time>2026-05-02T16:06:56.185Z</time></trkpt><trkpt lat="45.1924659" lon="7.7541265"><ele>228.66666666666666</ele><time>2026-05-02T16:06:57.184Z</time></trkpt><trkpt lat="45.1923422" lon="7.7539284"><ele>229.0</ele><time>2026-05-02T16:06:58.19Z</time></trkpt><trkpt lat="45.1922207" lon="7.7537347"><ele>229.0</ele><time>2026-05-02T16:06:59.215Z</time></trkpt><trkpt lat="45.1920977" lon="7.7535445"><ele>229.0</ele><time>2026-05-02T16:07:00.187Z</time></trkpt><trkpt lat="45.1919855" lon="7.7533502"><ele>229.0</ele><time>2026-05-02T16:07:01.192Z</time></trkpt><trkpt lat="45.1918694" lon="7.7531368"><ele>229.33333333333331</ele><time>2026-05-02T16:07:02.193Z</time></trkpt><trkpt lat="45.1917523" lon="7.7529042"><ele>229.66666666666669</ele><time>2026-05-02T16:07:03.206Z</time></trkpt><trkpt lat="45.1916407" lon="7.7526525"><ele>230.0</ele><time>2026-05-02T16:07:04.185Z</time></trkpt><trkpt lat="45.1915362" lon="7.7523962"><ele>230.0</ele><time>2026-05-02T16:07:05.249Z</time></trkpt><trkpt lat="45.191433" lon="7.7521382"><ele>230.0</ele><time>2026-05-02T16:07:06.184Z</time></trkpt><trkpt lat="45.1913382" lon="7.7518854"><ele>230.0</ele><time>2026-05-02T16:07:07.19Z</time></trkpt><trkpt lat="45.1912462" lon="7.7516439"><ele>230.0</ele><time>2026-05-02T16:07:08.19Z</time></trkpt><trkpt lat="45.1911581" lon="7.7514187"><ele>230.0</ele><time>2026-05-02T16:07:09.19Z</time></trkpt><trkpt lat="45.1910766" lon="7.7512079"><ele>230.0</ele><time>2026-05-02T16:07:10.208Z</time></trkpt><trkpt lat="45.1910001" lon="7.7510181"><ele>230.75</ele><time>2026-05-02T16:07:11.231Z</time></trkpt><trkpt lat="45.1909314" lon="7.7508461"><ele>231.5</ele><time>2026-05-02T16:07:12.228Z</time></trkpt><trkpt lat="45.1908701" lon="7.7506821"><ele>232.25</ele><time>2026-05-02T16:07:13.192Z</time></trkpt><trkpt lat="45.1908048" lon="7.7505131"><ele>233.0</ele><time>2026-05-02T16:07:14.201Z</time></trkpt><trkpt lat="45.1907406" lon="7.7503493"><ele>233.0</ele><time>2026-05-02T16:07:15.192Z</time></trkpt><trkpt lat="45.1906764" lon="7.75019"><ele>233.0</ele><time>2026-05-02T16:07:16.177Z</time></trkpt><trkpt lat="45.1906081" lon="7.7500466"><ele>233.0</ele><time>2026-05-02T16:07:17.174Z</time></trkpt><trkpt lat="45.1905391" lon="7.7499098"><ele>233.0</ele><time>2026-05-02T16:07:18.176Z</time></trkpt><trkpt lat="45.1904681" lon="7.7497852"><ele>232.83333333333334</ele><time>2026-05-02T16:07:19.169Z</time></trkpt><trkpt lat="45.1904067" lon="7.7497002"><ele>232.66666666666669</ele><time>2026-05-02T16:07:20.173Z</time></trkpt><trkpt lat="45.1903461" lon="7.7496061"><ele>232.5</ele><time>2026-05-02T16:07:21.193Z</time></trkpt><trkpt lat="45.1902952" lon="7.7495046"><ele>232.33333333333331</ele><time>2026-05-02T16:07:22.205Z</time></trkpt><trkpt lat="45.1902572" lon="7.74939"><ele>232.16666666666666</ele><time>2026-05-02T16:07:23.186Z</time></trkpt><trkpt lat="45.1902255" lon="7.7492603"><ele>232.0</ele><time>2026-05-02T16:07:24.186Z</time></trkpt><trkpt lat="45.1901798" lon="7.7491374"><ele>232.0</ele><time>2026-05-02T16:07:25.23Z</time></trkpt><trkpt lat="45.1901146" lon="7.7490305"><ele>232.0</ele><time>2026-05-02T16:07:26.189Z</time></trkpt><trkpt lat="45.1900434" lon="7.7489299"><ele>232.0</ele><time>2026-05-02T16:07:27.185Z</time></trkpt><trkpt lat="45.1899822" lon="7.7488227"><ele>232.0</ele><time>2026-05-02T16:07:28.197Z</time></trkpt><trkpt lat="45.1899318" lon="7.748699"><ele>232.0</ele><time>2026-05-02T16:07:29.187Z</time></trkpt><trkpt lat="45.1898907" lon="7.7485693"><ele>232.2</ele><time>2026-05-02T16:07:30.194Z</time></trkpt><trkpt lat="45.1898578" lon="7.7484378"><ele>232.39999999999998</ele><time>2026-05-02T16:07:31.187Z</time></trkpt><trkpt lat="45.1898337" lon="7.7483101"><ele>232.60000000000002</ele><time>2026-05-02T16:07:32.196Z</time></trkpt><trkpt lat="45.1898076" lon="7.7481794"><ele>232.8</ele><time>2026-05-02T16:07:33.193Z</time></trkpt><trkpt lat="45.1897752" lon="7.7480422"><ele>233.0</ele><time>2026-05-02T16:07:34.195Z</time></trkpt><trkpt lat="45.1897359" lon="7.7478985"><ele>233.0</ele><time>2026-05-02T16:07:35.188Z</time></trkpt><trkpt lat="45.1896892" lon="7.747746"><ele>233.0</ele><time>2026-05-02T16:07:36.214Z</time></trkpt><trkpt lat="45.1896392" lon="7.7475891"><ele>233.0</ele><time>2026-05-02T16:07:37.229Z</time></trkpt><trkpt lat="45.1895826" lon="7.7474273"><ele>233.0</ele><time>2026-05-02T16:07:38.194Z</time></trkpt><trkpt lat="45.1895227" lon="7.7472732"><ele>232.60000000000002</ele><time>2026-05-02T16:07:39.189Z</time></trkpt><trkpt lat="45.189466" lon="7.7471299"><ele>232.20000000000002</ele><time>2026-05-02T16:07:40.19Z</time></trkpt><trkpt lat="45.189413" lon="7.7469938"><ele>231.8</ele><time>2026-05-02T16:07:41.209Z</time></trkpt><trkpt lat="45.189363" lon="7.746864"><ele>231.4</ele><time>2026-05-02T16:07:42.189Z</time></trkpt><trkpt lat="45.1893122" lon="7.7467323"><ele>231.0</ele><time>2026-05-02T16:07:43.201Z</time></trkpt><trkpt lat="45.1892576" lon="7.7465971"><ele>231.0</ele><time>2026-05-02T16:07:44.22Z</time></trkpt><trkpt lat="45.1892005" lon="7.7464585"><ele>231.00000000000003</ele><time>2026-05-02T16:07:45.19Z</time></trkpt><trkpt lat="45.1891485" lon="7.7463198"><ele>231.00000000000003</ele><time>2026-05-02T16:07:46.196Z</time></trkpt><trkpt lat="45.1890931" lon="7.7461824"><ele>231.0</ele><time>2026-05-02T16:07:47.196Z</time></trkpt><trkpt lat="45.1890369" lon="7.7460436"><ele>231.0</ele><time>2026-05-02T16:07:48.188Z</time></trkpt><trkpt lat="45.1889818" lon="7.7459099"><ele>231.4</ele><time>2026-05-02T16:07:49.215Z</time></trkpt><trkpt lat="45.1889299" lon="7.7457763"><ele>231.8</ele><time>2026-05-02T16:07:50.184Z</time></trkpt><trkpt lat="45.188878" lon="7.7456391"><ele>232.20000000000002</ele><time>2026-05-02T16:07:51.191Z</time></trkpt><trkpt lat="45.1888224" lon="7.7455004"><ele>232.60000000000002</ele><time>2026-05-02T16:07:52.182Z</time></trkpt><trkpt lat="45.1887634" lon="7.7453576"><ele>233.0</ele><time>2026-05-02T16:07:53.19Z</time></trkpt><trkpt lat="45.1887037" lon="7.7452104"><ele>233.0</ele><time>2026-05-02T16:07:54.192Z</time></trkpt><trkpt lat="45.1886415" lon="7.7450581"><ele>233.0</ele><time>2026-05-02T16:07:55.182Z</time></trkpt><trkpt lat="45.1885762" lon="7.7448984"><ele>233.0</ele><time>2026-05-02T16:07:56.199Z</time></trkpt><trkpt lat="45.1885117" lon="7.744739"><ele>233.0</ele><time>2026-05-02T16:07:57.192Z</time></trkpt><trkpt lat="45.1884475" lon="7.7445836"><ele>233.0</ele><time>2026-05-02T16:07:58.191Z</time></trkpt><trkpt lat="45.1883833" lon="7.7444265"><ele>233.0</ele><time>2026-05-02T16:07:59.221Z</time></trkpt><trkpt lat="45.1883243" lon="7.7442781"><ele>233.0</ele><time>2026-05-02T16:08:00.193Z</time></trkpt><trkpt lat="45.1882642" lon="7.7441295"><ele>233.0</ele><time>2026-05-02T16:08:01.182Z</time></trkpt><trkpt lat="45.1882066" lon="7.7439911"><ele>232.75</ele><time>2026-05-02T16:08:02.202Z</time></trkpt><trkpt lat="45.1881481" lon="7.7438503"><ele>232.5</ele><time>2026-05-02T16:08:03.189Z</time></trkpt><trkpt lat="45.1880858" lon="7.7436975"><ele>232.25</ele><time>2026-05-02T16:08:04.184Z</time></trkpt><trkpt lat="45.1880237" lon="7.7435453"><ele>232.0</ele><time>2026-05-02T16:08:05.188Z</time></trkpt><trkpt lat="45.1879613" lon="7.7433934"><ele>232.0</ele><time>2026-05-02T16:08:06.196Z</time></trkpt><trkpt lat="45.1878983" lon="7.7432431"><ele>232.0</ele><time>2026-05-02T16:08:07.206Z</time></trkpt><trkpt lat="45.187836" lon="7.7430942"><ele>232.0</ele><time>2026-05-02T16:08:08.18Z</time></trkpt><trkpt lat="45.1877726" lon="7.7429466"><ele>232.0</ele><time>2026-05-02T16:08:09.211Z</time></trkpt><trkpt lat="45.1877127" lon="7.7428014"><ele>232.0</ele><time>2026-05-02T16:08:10.203Z</time></trkpt><trkpt lat="45.1876542" lon="7.7426568"><ele>232.0</ele><time>2026-05-02T16:08:11.184Z</time></trkpt><trkpt lat="45.1876006" lon="7.7425138"><ele>232.0</ele><time>2026-05-02T16:08:12.215Z</time></trkpt><trkpt lat="45.1875482" lon="7.7423678"><ele>232.0</ele><time>2026-05-02T16:08:13.188Z</time></trkpt><trkpt lat="45.1874947" lon="7.7422241"><ele>232.0</ele><time>2026-05-02T16:08:14.197Z</time></trkpt><trkpt lat="45.1874421" lon="7.7420863"><ele>232.0</ele><time>2026-05-02T16:08:15.199Z</time></trkpt><trkpt lat="45.1873931" lon="7.7419581"><ele>232.0</ele><time>2026-05-02T16:08:16.192Z</time></trkpt><trkpt lat="45.1873479" lon="7.741836"><ele>232.0</ele><time>2026-05-02T16:08:17.186Z</time></trkpt><trkpt lat="45.1873048" lon="7.7417136"><ele>232.0</ele><time>2026-05-02T16:08:18.187Z</time></trkpt><trkpt lat="45.1872718" lon="7.7415834"><ele>232.75</ele><time>2026-05-02T16:08:19.191Z</time></trkpt><trkpt lat="45.1872371" lon="7.7414434"><ele>233.5</ele><time>2026-05-02T16:08:20.191Z</time></trkpt><trkpt lat="45.1872017" lon="7.7412863"><ele>234.25</ele><time>2026-05-02T16:08:21.19Z</time></trkpt><trkpt lat="45.1871604" lon="7.7411086"><ele>235.0</ele><time>2026-05-02T16:08:22.181Z</time></trkpt><trkpt lat="45.1871165" lon="7.7409124"><ele>235.5</ele><time>2026-05-02T16:08:23.192Z</time></trkpt><trkpt lat="45.1870736" lon="7.7407143"><ele>236.0</ele><time>2026-05-02T16:08:24.19Z</time></trkpt><trkpt lat="45.1870358" lon="7.740523"><ele>236.5</ele><time>2026-05-02T16:08:25.184Z</time></trkpt><trkpt lat="45.1869994" lon="7.7403454"><ele>237.0</ele><time>2026-05-02T16:08:26.188Z</time></trkpt><trkpt lat="45.1869635" lon="7.7401753"><ele>237.0</ele><time>2026-05-02T16:08:27.188Z</time></trkpt><trkpt lat="45.1869316" lon="7.7400118"><ele>237.0</ele><time>2026-05-02T16:08:28.189Z</time></trkpt><trkpt lat="45.1868985" lon="7.7398474"><ele>237.0</ele><time>2026-05-02T16:08:29.189Z</time></trkpt><trkpt lat="45.1868642" lon="7.7396816"><ele>237.0</ele><time>2026-05-02T16:08:30.191Z</time></trkpt><trkpt lat="45.1868317" lon="7.7395138"><ele>236.75</ele><time>2026-05-02T16:08:31.19Z</time></trkpt><trkpt lat="45.1867973" lon="7.7393499"><ele>236.5</ele><time>2026-05-02T16:08:32.192Z</time></trkpt><trkpt lat="45.1867586" lon="7.7391833"><ele>236.25</ele><time>2026-05-02T16:08:33.199Z</time></trkpt><trkpt lat="45.1867145" lon="7.739007"><ele>236.0</ele><time>2026-05-02T16:08:34.206Z</time></trkpt><trkpt lat="45.1866723" lon="7.7388226"><ele>236.0</ele><time>2026-05-02T16:08:35.201Z</time></trkpt><trkpt lat="45.1866319" lon="7.7385836"><ele>236.0</ele><time>2026-05-02T16:08:36.192Z</time></trkpt><trkpt lat="45.1865791" lon="7.7383075"><ele>236.0</ele><time>2026-05-02T16:08:37.227Z</time></trkpt><trkpt lat="45.1865043" lon="7.7380071"><ele>235.66666666666669</ele><time>2026-05-02T16:08:38.197Z</time></trkpt><trkpt lat="45.1864131" lon="7.7377105"><ele>235.33333333333331</ele><time>2026-05-02T16:08:39.211Z</time></trkpt><trkpt lat="45.1863298" lon="7.7374194"><ele>235.0</ele><time>2026-05-02T16:08:40.192Z</time></trkpt><trkpt lat="45.1862493" lon="7.7371415"><ele>235.33333333333331</ele><time>2026-05-02T16:08:41.188Z</time></trkpt><trkpt lat="45.1861734" lon="7.7368695"><ele>235.66666666666669</ele><time>2026-05-02T16:08:42.187Z</time></trkpt><trkpt lat="45.1861005" lon="7.7366066"><ele>236.0</ele><time>2026-05-02T16:08:43.191Z</time></trkpt><trkpt lat="45.1860293" lon="7.736358"><ele>236.0</ele><time>2026-05-02T16:08:44.196Z</time></trkpt><trkpt lat="45.1859601" lon="7.7361236"><ele>236.0</ele><time>2026-05-02T16:08:45.188Z</time></trkpt><trkpt lat="45.1858967" lon="7.7358992"><ele>236.0</ele><time>2026-05-02T16:08:46.212Z</time></trkpt><trkpt lat="45.1858343" lon="7.7356779"><ele>236.33333333333334</ele><time>2026-05-02T16:08:47.198Z</time></trkpt><trkpt lat="45.1857717" lon="7.7354568"><ele>236.66666666666669</ele><time>2026-05-02T16:08:48.185Z</time></trkpt><trkpt lat="45.1857111" lon="7.7352361"><ele>237.0</ele><time>2026-05-02T16:08:49.191Z</time></trkpt><trkpt lat="45.1856482" lon="7.7350108"><ele>237.0</ele><time>2026-05-02T16:08:50.189Z</time></trkpt><trkpt lat="45.1855859" lon="7.7347861"><ele>237.0</ele><time>2026-05-02T16:08:51.198Z</time></trkpt><trkpt lat="45.1855273" lon="7.7345635"><ele>237.0</ele><time>2026-05-02T16:08:52.237Z</time></trkpt><trkpt lat="45.185471" lon="7.734353"><ele>237.75</ele><time>2026-05-02T16:08:53.186Z</time></trkpt><trkpt lat="45.1854165" lon="7.7341565"><ele>238.5</ele><time>2026-05-02T16:08:54.183Z</time></trkpt><trkpt lat="45.1853674" lon="7.7339763"><ele>239.25</ele><time>2026-05-02T16:08:55.209Z</time></trkpt><trkpt lat="45.1853208" lon="7.7338085"><ele>240.0</ele><time>2026-05-02T16:08:56.186Z</time></trkpt><trkpt lat="45.1852755" lon="7.7336536"><ele>240.0</ele><time>2026-05-02T16:08:57.184Z</time></trkpt><trkpt lat="45.1852381" lon="7.7335121"><ele>240.0</ele><time>2026-05-02T16:08:58.188Z</time></trkpt><trkpt lat="45.1852022" lon="7.7333796"><ele>240.0</ele><time>2026-05-02T16:08:59.185Z</time></trkpt><trkpt lat="45.1851744" lon="7.733263"><ele>240.0</ele><time>2026-05-02T16:09:00.179Z</time></trkpt><trkpt lat="45.1851628" lon="7.7331626"><ele>240.0</ele><time>2026-05-02T16:09:01.182Z</time></trkpt><trkpt lat="45.1851916" lon="7.7330063"><ele>240.0</ele><time>2026-05-02T16:09:03.189Z</time></trkpt><trkpt lat="45.1852814" lon="7.7328583"><ele>240.0</ele><time>2026-05-02T16:09:05.176Z</time></trkpt><trkpt lat="45.1853485" lon="7.7327691"><ele>240.0</ele><time>2026-05-02T16:09:06.193Z</time></trkpt><trkpt lat="45.1854072" lon="7.7326802"><ele>240.0</ele><time>2026-05-02T16:09:07.18Z</time></trkpt><trkpt lat="45.1854376" lon="7.7325933"><ele>240.0</ele><time>2026-05-02T16:09:08.197Z</time></trkpt><trkpt lat="45.1854305" lon="7.7325029"><ele>240.0</ele><time>2026-05-02T16:09:09.18Z</time></trkpt><trkpt lat="45.1853889" lon="7.7324276"><ele>239.66666666666666</ele><time>2026-05-02T16:09:10.197Z</time></trkpt><trkpt lat="45.1853225" lon="7.7323855"><ele>239.33333333333331</ele><time>2026-05-02T16:09:11.191Z</time></trkpt><trkpt lat="45.1852514" lon="7.732371"><ele>239.0</ele><time>2026-05-02T16:09:12.188Z</time></trkpt><trkpt lat="45.1851776" lon="7.7323608"><ele>238.66666666666666</ele><time>2026-05-02T16:09:13.191Z</time></trkpt><trkpt lat="45.1851036" lon="7.7323346"><ele>238.33333333333331</ele><time>2026-05-02T16:09:14.187Z</time></trkpt><trkpt lat="45.1850272" lon="7.7323008"><ele>238.0</ele><time>2026-05-02T16:09:15.197Z</time></trkpt><trkpt lat="45.184959" lon="7.7322353"><ele>237.99999999999997</ele><time>2026-05-02T16:09:16.187Z</time></trkpt><trkpt lat="45.1849026" lon="7.7321537"><ele>238.0</ele><time>2026-05-02T16:09:17.184Z</time></trkpt><trkpt lat="45.1848558" lon="7.7320689"><ele>238.0</ele><time>2026-05-02T16:09:18.198Z</time></trkpt><trkpt lat="45.1848234" lon="7.7319778"><ele>238.0</ele><time>2026-05-02T16:09:19.201Z</time></trkpt><trkpt lat="45.1847952" lon="7.7318789"><ele>237.99999999999997</ele><time>2026-05-02T16:09:20.195Z</time></trkpt><trkpt lat="45.184779" lon="7.7317697"><ele>238.0</ele><time>2026-05-02T16:09:21.192Z</time></trkpt><trkpt lat="45.1847652" lon="7.7316536"><ele>238.5</ele><time>2026-05-02T16:09:22.183Z</time></trkpt><trkpt lat="45.184755" lon="7.7315149"><ele>239.0</ele><time>2026-05-02T16:09:23.185Z</time></trkpt><trkpt lat="45.1847473" lon="7.7313531"><ele>239.5</ele><time>2026-05-02T16:09:24.19Z</time></trkpt><trkpt lat="45.1847482" lon="7.7311662"><ele>240.0</ele><time>2026-05-02T16:09:25.191Z</time></trkpt><trkpt lat="45.1847525" lon="7.7309635"><ele>240.0</ele><time>2026-05-02T16:09:26.191Z</time></trkpt><trkpt lat="45.1847599" lon="7.7307362"><ele>240.0</ele><time>2026-05-02T16:09:27.196Z</time></trkpt><trkpt lat="45.1847669" lon="7.7304872"><ele>240.0</ele><time>2026-05-02T16:09:28.186Z</time></trkpt><trkpt lat="45.1847749" lon="7.7302421"><ele>240.25</ele><time>2026-05-02T16:09:29.19Z</time></trkpt><trkpt lat="45.1847846" lon="7.7300166"><ele>240.5</ele><time>2026-05-02T16:09:30.183Z</time></trkpt><trkpt lat="45.1847855" lon="7.7298157"><ele>240.75</ele><time>2026-05-02T16:09:31.186Z</time></trkpt><trkpt lat="45.1847869" lon="7.7296387"><ele>241.0</ele><time>2026-05-02T16:09:32.19Z</time></trkpt><trkpt lat="45.184792" lon="7.7294759"><ele>241.25</ele><time>2026-05-02T16:09:33.184Z</time></trkpt><trkpt lat="45.1847971" lon="7.7293128"><ele>241.5</ele><time>2026-05-02T16:09:34.193Z</time></trkpt><trkpt lat="45.1848006" lon="7.72913"><ele>241.75</ele><time>2026-05-02T16:09:35.198Z</time></trkpt><trkpt lat="45.184805" lon="7.7289176"><ele>242.0</ele><time>2026-05-02T16:09:36.19Z</time></trkpt><trkpt lat="45.1848052" lon="7.7286662"><ele>241.5</ele><time>2026-05-02T16:09:37.203Z</time></trkpt><trkpt lat="45.1848158" lon="7.7283513"><ele>241.0</ele><time>2026-05-02T16:09:38.195Z</time></trkpt><trkpt lat="45.1848351" lon="7.728018"><ele>242.0</ele><time>2026-05-02T16:09:39.199Z</time></trkpt><trkpt lat="45.1848478" lon="7.7276856"><ele>243.0</ele><time>2026-05-02T16:09:40.203Z</time></trkpt><trkpt lat="45.1848559" lon="7.7273735"><ele>243.0</ele><time>2026-05-02T16:09:41.193Z</time></trkpt><trkpt lat="45.1848561" lon="7.7270911"><ele>243.0</ele><time>2026-05-02T16:09:42.202Z</time></trkpt><trkpt lat="45.1848488" lon="7.7268227"><ele>243.0</ele><time>2026-05-02T16:09:43.206Z</time></trkpt><trkpt lat="45.1848451" lon="7.7265589"><ele>243.33333333333331</ele><time>2026-05-02T16:09:44.189Z</time></trkpt><trkpt lat="45.1848465" lon="7.7262983"><ele>243.66666666666666</ele><time>2026-05-02T16:09:45.188Z</time></trkpt><trkpt lat="45.1848456" lon="7.7260456"><ele>244.0</ele><time>2026-05-02T16:09:46.182Z</time></trkpt><trkpt lat="45.1848451" lon="7.7257985"><ele>243.0</ele><time>2026-05-02T16:09:47.189Z</time></trkpt><trkpt lat="45.1848435" lon="7.7255561"><ele>242.0</ele><time>2026-05-02T16:09:48.221Z</time></trkpt><trkpt lat="45.1848407" lon="7.725321"><ele>241.0</ele><time>2026-05-02T16:09:49.194Z</time></trkpt><trkpt lat="45.1848378" lon="7.7251068"><ele>241.0</ele><time>2026-05-02T16:09:50.184Z</time></trkpt><trkpt lat="45.1848415" lon="7.7249095"><ele>241.0</ele><time>2026-05-02T16:09:51.185Z</time></trkpt><trkpt lat="45.1848437" lon="7.7247366"><ele>241.0</ele><time>2026-05-02T16:09:52.187Z</time></trkpt><trkpt lat="45.1848375" lon="7.7245838"><ele>241.0</ele><time>2026-05-02T16:09:53.209Z</time></trkpt><trkpt lat="45.1848174" lon="7.7244472"><ele>241.0</ele><time>2026-05-02T16:09:54.18Z</time></trkpt><trkpt lat="45.1847918" lon="7.7243103"><ele>241.00000000000003</ele><time>2026-05-02T16:09:55.176Z</time></trkpt><trkpt lat="45.1847769" lon="7.7241639"><ele>241.00000000000003</ele><time>2026-05-02T16:09:56.185Z</time></trkpt><trkpt lat="45.1847725" lon="7.7240031"><ele>241.0</ele><time>2026-05-02T16:09:57.186Z</time></trkpt><trkpt lat="45.1847857" lon="7.7238226"><ele>241.0</ele><time>2026-05-02T16:09:58.2Z</time></trkpt><trkpt lat="45.1848122" lon="7.7236264"><ele>242.0</ele><time>2026-05-02T16:09:59.186Z</time></trkpt><trkpt lat="45.1848293" lon="7.7234128"><ele>243.0</ele><time>2026-05-02T16:10:00.186Z</time></trkpt><trkpt lat="45.1848406" lon="7.7231948"><ele>244.0</ele><time>2026-05-02T16:10:01.193Z</time></trkpt><trkpt lat="45.1848427" lon="7.722984"><ele>244.0</ele><time>2026-05-02T16:10:02.189Z</time></trkpt><trkpt lat="45.184847" lon="7.7227859"><ele>244.0</ele><time>2026-05-02T16:10:03.197Z</time></trkpt><trkpt lat="45.1848512" lon="7.7226071"><ele>244.0</ele><time>2026-05-02T16:10:04.207Z</time></trkpt><trkpt lat="45.1848582" lon="7.7224407"><ele>244.0</ele><time>2026-05-02T16:10:05.183Z</time></trkpt><trkpt lat="45.1848645" lon="7.7222772"><ele>243.6</ele><time>2026-05-02T16:10:06.224Z</time></trkpt><trkpt lat="45.1848697" lon="7.7221169"><ele>243.2</ele><time>2026-05-02T16:10:07.187Z</time></trkpt><trkpt lat="45.184878" lon="7.7219707"><ele>242.79999999999998</ele><time>2026-05-02T16:10:08.189Z</time></trkpt><trkpt lat="45.1848837" lon="7.7218395"><ele>242.39999999999998</ele><time>2026-05-02T16:10:09.179Z</time></trkpt><trkpt lat="45.1848842" lon="7.7217243"><ele>242.0</ele><time>2026-05-02T16:10:10.179Z</time></trkpt><trkpt lat="45.1848796" lon="7.7216226"><ele>242.0</ele><time>2026-05-02T16:10:11.176Z</time></trkpt><trkpt lat="45.1848799" lon="7.7215088"><ele>242.0</ele><time>2026-05-02T16:10:12.186Z</time></trkpt><trkpt lat="45.1848798" lon="7.7213711"><ele>242.0</ele><time>2026-05-02T16:10:13.19Z</time></trkpt><trkpt lat="45.1848787" lon="7.7212149"><ele>242.0</ele><time>2026-05-02T16:10:14.183Z</time></trkpt><trkpt lat="45.1848804" lon="7.7210599"><ele>242.0</ele><time>2026-05-02T16:10:15.183Z</time></trkpt><trkpt lat="45.184891" lon="7.720928"><ele>242.66666666666669</ele><time>2026-05-02T16:10:16.178Z</time></trkpt><trkpt lat="45.1849017" lon="7.7208108"><ele>243.33333333333334</ele><time>2026-05-02T16:10:17.183Z</time></trkpt><trkpt lat="45.1849164" lon="7.7207059"><ele>244.0</ele><time>2026-05-02T16:10:18.236Z</time></trkpt><trkpt lat="45.1849304" lon="7.7206063"><ele>244.66666666666669</ele><time>2026-05-02T16:10:19.183Z</time></trkpt><trkpt lat="45.1849442" lon="7.7205021"><ele>245.33333333333334</ele><time>2026-05-02T16:10:20.211Z</time></trkpt><trkpt lat="45.1849844" lon="7.7203942"><ele>246.0</ele><time>2026-05-02T16:10:21.194Z</time></trkpt><trkpt lat="45.1850281" lon="7.7202958"><ele>246.0</ele><time>2026-05-02T16:10:22.201Z</time></trkpt><trkpt lat="45.1850584" lon="7.7202074"><ele>246.0</ele><time>2026-05-02T16:10:23.202Z</time></trkpt><trkpt lat="45.1850762" lon="7.7200534"><ele>246.0</ele><time>2026-05-02T16:10:25.182Z</time></trkpt><trkpt lat="45.1849872" lon="7.7199479"><ele>246.0</ele><time>2026-05-02T16:10:27.221Z</time></trkpt><trkpt lat="45.1849142" lon="7.7199267"><ele>246.0</ele><time>2026-05-02T16:10:28.188Z</time></trkpt><trkpt lat="45.1848361" lon="7.7199401"><ele>246.0</ele><time>2026-05-02T16:10:29.181Z</time></trkpt><trkpt lat="45.1847624" lon="7.7199866"><ele>246.0</ele><time>2026-05-02T16:10:30.176Z</time></trkpt><trkpt lat="45.1846963" lon="7.7200372"><ele>246.0</ele><time>2026-05-02T16:10:31.197Z</time></trkpt><trkpt lat="45.1846251" lon="7.7200782"><ele>246.0</ele><time>2026-05-02T16:10:32.24Z</time></trkpt><trkpt lat="45.184552" lon="7.7200955"><ele>246.0</ele><time>2026-05-02T16:10:33.192Z</time></trkpt><trkpt lat="45.1844817" lon="7.7200927"><ele>246.0</ele><time>2026-05-02T16:10:34.18Z</time></trkpt><trkpt lat="45.1844058" lon="7.7200829"><ele>246.0</ele><time>2026-05-02T16:10:35.213Z</time></trkpt><trkpt lat="45.1843057" lon="7.7200752"><ele>246.0</ele><time>2026-05-02T16:10:36.185Z</time></trkpt><trkpt lat="45.1841733" lon="7.7200614"><ele>246.0</ele><time>2026-05-02T16:10:37.192Z</time></trkpt><trkpt lat="45.1840077" lon="7.720022"><ele>246.0</ele><time>2026-05-02T16:10:38.201Z</time></trkpt><trkpt lat="45.1838453" lon="7.7199702"><ele>245.75</ele><time>2026-05-02T16:10:39.191Z</time></trkpt><trkpt lat="45.183696" lon="7.7199034"><ele>245.5</ele><time>2026-05-02T16:10:40.194Z</time></trkpt><trkpt lat="45.1835589" lon="7.7198409"><ele>245.25</ele><time>2026-05-02T16:10:41.204Z</time></trkpt><trkpt lat="45.1834282" lon="7.7197858"><ele>245.0</ele><time>2026-05-02T16:10:42.195Z</time></trkpt><trkpt lat="45.1833092" lon="7.7197219"><ele>245.0</ele><time>2026-05-02T16:10:43.204Z</time></trkpt><trkpt lat="45.183197" lon="7.7196485"><ele>245.0</ele><time>2026-05-02T16:10:44.187Z</time></trkpt><trkpt lat="45.1830867" lon="7.7195773"><ele>245.0</ele><time>2026-05-02T16:10:45.188Z</time></trkpt><trkpt lat="45.182973" lon="7.7195112"><ele>245.0</ele><time>2026-05-02T16:10:46.185Z</time></trkpt><trkpt lat="45.1828574" lon="7.7194433"><ele>245.4</ele><time>2026-05-02T16:10:47.193Z</time></trkpt><trkpt lat="45.1827499" lon="7.7193833"><ele>245.8</ele><time>2026-05-02T16:10:48.195Z</time></trkpt><trkpt lat="45.182651" lon="7.7193231"><ele>246.2</ele><time>2026-05-02T16:10:49.186Z</time></trkpt><trkpt lat="45.1825534" lon="7.7192673"><ele>246.6</ele><time>2026-05-02T16:10:50.184Z</time></trkpt><trkpt lat="45.1824557" lon="7.7192127"><ele>247.0</ele><time>2026-05-02T16:10:51.208Z</time></trkpt><trkpt lat="45.1823574" lon="7.7191614"><ele>246.6</ele><time>2026-05-02T16:10:52.187Z</time></trkpt><trkpt lat="45.1822638" lon="7.7191124"><ele>246.2</ele><time>2026-05-02T16:10:53.19Z</time></trkpt><trkpt lat="45.1821749" lon="7.7190647"><ele>245.8</ele><time>2026-05-02T16:10:54.176Z</time></trkpt><trkpt lat="45.1820869" lon="7.7190173"><ele>245.4</ele><time>2026-05-02T16:10:55.199Z</time></trkpt><trkpt lat="45.1820039" lon="7.7189743"><ele>245.0</ele><time>2026-05-02T16:10:56.184Z</time></trkpt><trkpt lat="45.1819208" lon="7.71893"><ele>245.00000000000003</ele><time>2026-05-02T16:10:57.195Z</time></trkpt><trkpt lat="45.1818371" lon="7.7188843"><ele>245.0</ele><time>2026-05-02T16:10:58.187Z</time></trkpt><trkpt lat="45.1817548" lon="7.7188381"><ele>245.0</ele><time>2026-05-02T16:10:59.196Z</time></trkpt><trkpt lat="45.1816759" lon="7.7187946"><ele>245.0</ele><time>2026-05-02T16:11:00.182Z</time></trkpt><trkpt lat="45.1816029" lon="7.7187493"><ele>245.00000000000003</ele><time>2026-05-02T16:11:01.185Z</time></trkpt><trkpt lat="45.1815321" lon="7.7187056"><ele>245.0</ele><time>2026-05-02T16:11:02.185Z</time></trkpt><trkpt lat="45.1814686" lon="7.7186679"><ele>245.0</ele><time>2026-05-02T16:11:03.193Z</time></trkpt><trkpt lat="45.1813709" lon="7.7186145"><ele>245.0</ele><time>2026-05-02T16:11:05.175Z</time></trkpt><trkpt lat="45.1813065" lon="7.7185785"><ele>245.0</ele><time>2026-05-02T16:11:08.196Z</time></trkpt><trkpt lat="45.1812164" lon="7.7185485"><ele>245.0</ele><time>2026-05-02T16:11:16.184Z</time></trkpt><trkpt lat="45.1811962" lon="7.7184574"><ele>245.0</ele><time>2026-05-02T16:11:20.191Z</time></trkpt><trkpt lat="45.1810866" lon="7.7183566"><ele>245.0</ele><time>2026-05-02T16:11:21.178Z</time></trkpt><trkpt lat="45.1810015" lon="7.7182713"><ele>245.0</ele><time>2026-05-02T16:11:22.18Z</time></trkpt><trkpt lat="45.1809518" lon="7.7182046"><ele>245.0</ele><time>2026-05-02T16:11:23.184Z</time></trkpt><trkpt lat="45.1808684" lon="7.7181004"><ele>245.0</ele><time>2026-05-02T16:11:24.188Z</time></trkpt><trkpt lat="45.1807888" lon="7.7179948"><ele>245.0</ele><time>2026-05-02T16:11:25.194Z</time></trkpt><trkpt lat="45.1807034" lon="7.7178903"><ele>244.5</ele><time>2026-05-02T16:11:26.19Z</time></trkpt><trkpt lat="45.1806083" lon="7.717771"><ele>244.0</ele><time>2026-05-02T16:11:27.192Z</time></trkpt><trkpt lat="45.1805342" lon="7.7176478"><ele>243.5</ele><time>2026-05-02T16:11:28.184Z</time></trkpt><trkpt lat="45.1804749" lon="7.71753"><ele>243.0</ele><time>2026-05-02T16:11:29.173Z</time></trkpt><trkpt lat="45.1804106" lon="7.717395"><ele>243.0</ele><time>2026-05-02T16:11:30.19Z</time></trkpt><trkpt lat="45.1803538" lon="7.7172601"><ele>243.0</ele><time>2026-05-02T16:11:31.18Z</time></trkpt><trkpt lat="45.180316" lon="7.7171387"><ele>243.0</ele><time>2026-05-02T16:11:32.182Z</time></trkpt><trkpt lat="45.1802666" lon="7.7169997"><ele>243.0</ele><time>2026-05-02T16:11:33.191Z</time></trkpt><trkpt lat="45.1802192" lon="7.7168595"><ele>243.0</ele><time>2026-05-02T16:11:34.192Z</time></trkpt><trkpt lat="45.180169" lon="7.7167126"><ele>243.33333333333334</ele><time>2026-05-02T16:11:35.185Z</time></trkpt><trkpt lat="45.1801188" lon="7.7165727"><ele>243.66666666666669</ele><time>2026-05-02T16:11:36.195Z</time></trkpt><trkpt lat="45.1800846" lon="7.7164837"><ele>244.0</ele><time>2026-05-02T16:11:37.216Z</time></trkpt><trkpt lat="45.1800446" lon="7.7163823"><ele>244.33333333333334</ele><time>2026-05-02T16:11:38.213Z</time></trkpt><trkpt lat="45.1800006" lon="7.7162518"><ele>244.66666666666669</ele><time>2026-05-02T16:11:40.193Z</time></trkpt><trkpt lat="45.1799787" lon="7.7161542"><ele>245.0</ele><time>2026-05-02T16:11:43.187Z</time></trkpt><trkpt lat="45.1799487" lon="7.71606"><ele>245.16666666666669</ele><time>2026-05-02T16:11:45.182Z</time></trkpt><trkpt lat="45.1799188" lon="7.715949"><ele>245.33333333333334</ele><time>2026-05-02T16:11:47.184Z</time></trkpt><trkpt lat="45.179894" lon="7.7158426"><ele>245.5</ele><time>2026-05-02T16:11:49.18Z</time></trkpt><trkpt lat="45.1798694" lon="7.7157159"><ele>245.66666666666669</ele><time>2026-05-02T16:11:51.185Z</time></trkpt><trkpt lat="45.17985" lon="7.7156091"><ele>245.83333333333334</ele><time>2026-05-02T16:11:53.187Z</time></trkpt><trkpt lat="45.1798353" lon="7.7155118"><ele>246.0</ele><time>2026-05-02T16:11:54.201Z</time></trkpt><trkpt lat="45.1798194" lon="7.7152821"><ele>246.0</ele><time>2026-05-02T16:11:55.189Z</time></trkpt><trkpt lat="45.1798021" lon="7.715186"><ele>246.00000000000003</ele><time>2026-05-02T16:11:58.187Z</time></trkpt><trkpt lat="45.1797208" lon="7.7151302"><ele>246.00000000000003</ele><time>2026-05-02T16:12:00.182Z</time></trkpt><trkpt lat="45.1796015" lon="7.7150101"><ele>246.0</ele><time>2026-05-02T16:12:01.172Z</time></trkpt><trkpt lat="45.1794941" lon="7.7150187"><ele>246.0</ele><time>2026-05-02T16:12:02.177Z</time></trkpt><trkpt lat="45.1793508" lon="7.7150017"><ele>246.0</ele><time>2026-05-02T16:12:03.169Z</time></trkpt><trkpt lat="45.1792076" lon="7.7149647"><ele>246.0</ele><time>2026-05-02T16:12:04.174Z</time></trkpt><trkpt lat="45.1790557" lon="7.7148933"><ele>246.0</ele><time>2026-05-02T16:12:05.174Z</time></trkpt><trkpt lat="45.1789185" lon="7.7148371"><ele>246.0</ele><time>2026-05-02T16:12:06.191Z</time></trkpt><trkpt lat="45.1787947" lon="7.7147958"><ele>246.0</ele><time>2026-05-02T16:12:07.195Z</time></trkpt><trkpt lat="45.1786668" lon="7.7147486"><ele>246.0</ele><time>2026-05-02T16:12:08.181Z</time></trkpt><trkpt lat="45.1785226" lon="7.7147172"><ele>246.0</ele><time>2026-05-02T16:12:09.183Z</time></trkpt><trkpt lat="45.1783738" lon="7.7146897"><ele>246.0</ele><time>2026-05-02T16:12:10.173Z</time></trkpt><trkpt lat="45.1782262" lon="7.714665"><ele>245.75</ele><time>2026-05-02T16:12:11.185Z</time></trkpt><trkpt lat="45.178088" lon="7.7146412"><ele>245.5</ele><time>2026-05-02T16:12:12.177Z</time></trkpt><trkpt lat="45.1779585" lon="7.7146145"><ele>245.25</ele><time>2026-05-02T16:12:13.184Z</time></trkpt><trkpt lat="45.1778403" lon="7.7145938"><ele>245.0</ele><time>2026-05-02T16:12:14.181Z</time></trkpt><trkpt lat="45.1777223" lon="7.7145745"><ele>245.0</ele><time>2026-05-02T16:12:15.179Z</time></trkpt><trkpt lat="45.1776028" lon="7.7145426"><ele>245.0</ele><time>2026-05-02T16:12:16.209Z</time></trkpt><trkpt lat="45.1774814" lon="7.7145088"><ele>245.0</ele><time>2026-05-02T16:12:17.177Z</time></trkpt><trkpt lat="45.1773558" lon="7.7144841"><ele>245.0</ele><time>2026-05-02T16:12:18.185Z</time></trkpt><trkpt lat="45.1772242" lon="7.7144504"><ele>245.0</ele><time>2026-05-02T16:12:19.194Z</time></trkpt><trkpt lat="45.1770855" lon="7.7144203"><ele>245.0</ele><time>2026-05-02T16:12:20.192Z</time></trkpt><trkpt lat="45.1769522" lon="7.7143982"><ele>245.0</ele><time>2026-05-02T16:12:21.182Z</time></trkpt><trkpt lat="45.1768214" lon="7.7143748"><ele>245.0</ele><time>2026-05-02T16:12:22.182Z</time></trkpt><trkpt lat="45.1766905" lon="7.7143496"><ele>245.0</ele><time>2026-05-02T16:12:23.181Z</time></trkpt><trkpt lat="45.176556" lon="7.7143229"><ele>245.0</ele><time>2026-05-02T16:12:24.182Z</time></trkpt><trkpt lat="45.1764187" lon="7.7142964"><ele>245.0</ele><time>2026-05-02T16:12:25.199Z</time></trkpt><trkpt lat="45.1762805" lon="7.7142834"><ele>245.0</ele><time>2026-05-02T16:12:26.189Z</time></trkpt><trkpt lat="45.1761451" lon="7.7142558"><ele>245.0</ele><time>2026-05-02T16:12:27.185Z</time></trkpt><trkpt lat="45.1760147" lon="7.7142327"><ele>245.0</ele><time>2026-05-02T16:12:28.177Z</time></trkpt><trkpt lat="45.1758849" lon="7.7141989"><ele>245.0</ele><time>2026-05-02T16:12:29.18Z</time></trkpt><trkpt lat="45.1757467" lon="7.7141595"><ele>245.0</ele><time>2026-05-02T16:12:30.185Z</time></trkpt><trkpt lat="45.1756042" lon="7.7141156"><ele>245.66666666666669</ele><time>2026-05-02T16:12:31.19Z</time></trkpt><trkpt lat="45.1754517" lon="7.7140719"><ele>246.33333333333331</ele><time>2026-05-02T16:12:32.18Z</time></trkpt><trkpt lat="45.1752957" lon="7.714029"><ele>247.0</ele><time>2026-05-02T16:12:33.187Z</time></trkpt><trkpt lat="45.1751352" lon="7.7139808"><ele>247.0</ele><time>2026-05-02T16:12:34.212Z</time></trkpt><trkpt lat="45.1749773" lon="7.7139596"><ele>247.0</ele><time>2026-05-02T16:12:35.183Z</time></trkpt><trkpt lat="45.1748196" lon="7.7139258"><ele>247.0</ele><time>2026-05-02T16:12:36.175Z</time></trkpt><trkpt lat="45.1746628" lon="7.7138818"><ele>246.33333333333331</ele><time>2026-05-02T16:12:37.179Z</time></trkpt><trkpt lat="45.1745048" lon="7.7138386"><ele>245.66666666666669</ele><time>2026-05-02T16:12:38.186Z</time></trkpt><trkpt lat="45.1743488" lon="7.7137951"><ele>245.0</ele><time>2026-05-02T16:12:39.181Z</time></trkpt><trkpt lat="45.1741951" lon="7.7137522"><ele>245.0</ele><time>2026-05-02T16:12:40.186Z</time></trkpt><trkpt lat="45.1740433" lon="7.7137104"><ele>245.0</ele><time>2026-05-02T16:12:41.195Z</time></trkpt><trkpt lat="45.17389" lon="7.7136695"><ele>245.0</ele><time>2026-05-02T16:12:42.186Z</time></trkpt><trkpt lat="45.173735" lon="7.7136276"><ele>245.0</ele><time>2026-05-02T16:12:43.185Z</time></trkpt><trkpt lat="45.1735806" lon="7.7135874"><ele>245.0</ele><time>2026-05-02T16:12:44.171Z</time></trkpt><trkpt lat="45.1734255" lon="7.713545"><ele>245.0</ele><time>2026-05-02T16:12:45.175Z</time></trkpt><trkpt lat="45.1732752" lon="7.7135052"><ele>244.66666666666669</ele><time>2026-05-02T16:12:46.18Z</time></trkpt><trkpt lat="45.1731267" lon="7.7134601"><ele>244.33333333333331</ele><time>2026-05-02T16:12:47.219Z</time></trkpt><trkpt lat="45.1729809" lon="7.7134163"><ele>244.0</ele><time>2026-05-02T16:12:48.204Z</time></trkpt><trkpt lat="45.1728341" lon="7.7133727"><ele>244.0</ele><time>2026-05-02T16:12:49.189Z</time></trkpt><trkpt lat="45.1726829" lon="7.7133333"><ele>244.0</ele><time>2026-05-02T16:12:50.178Z</time></trkpt><trkpt lat="45.1725276" lon="7.7132969"><ele>244.0</ele><time>2026-05-02T16:12:51.183Z</time></trkpt><trkpt lat="45.172367" lon="7.7132618"><ele>243.66666666666666</ele><time>2026-05-02T16:12:52.222Z</time></trkpt><trkpt lat="45.1722051" lon="7.7132262"><ele>243.33333333333331</ele><time>2026-05-02T16:12:53.184Z</time></trkpt><trkpt lat="45.1720448" lon="7.7131918"><ele>243.0</ele><time>2026-05-02T16:12:54.184Z</time></trkpt><trkpt lat="45.1718879" lon="7.7131596"><ele>243.0</ele><time>2026-05-02T16:12:55.175Z</time></trkpt><trkpt lat="45.1717334" lon="7.7131267"><ele>243.0</ele><time>2026-05-02T16:12:56.185Z</time></trkpt><trkpt lat="45.1715809" lon="7.7130925"><ele>243.0</ele><time>2026-05-02T16:12:57.169Z</time></trkpt><trkpt lat="45.1714304" lon="7.7130602"><ele>242.25</ele><time>2026-05-02T16:12:58.185Z</time></trkpt><trkpt lat="45.1712831" lon="7.7130282"><ele>241.5</ele><time>2026-05-02T16:12:59.191Z</time></trkpt><trkpt lat="45.1711399" lon="7.7130012"><ele>240.75</ele><time>2026-05-02T16:13:00.199Z</time></trkpt><trkpt lat="45.1709987" lon="7.7129713"><ele>240.0</ele><time>2026-05-02T16:13:01.18Z</time></trkpt><trkpt lat="45.170857" lon="7.7129388"><ele>240.0</ele><time>2026-05-02T16:13:02.176Z</time></trkpt><trkpt lat="45.1707151" lon="7.7129062"><ele>240.0</ele><time>2026-05-02T16:13:03.182Z</time></trkpt><trkpt lat="45.1705705" lon="7.7128734"><ele>240.0</ele><time>2026-05-02T16:13:04.19Z</time></trkpt><trkpt lat="45.1704237" lon="7.7128377"><ele>240.0</ele><time>2026-05-02T16:13:05.187Z</time></trkpt><trkpt lat="45.1702769" lon="7.7128026"><ele>240.25</ele><time>2026-05-02T16:13:06.179Z</time></trkpt><trkpt lat="45.1701352" lon="7.7127632"><ele>240.5</ele><time>2026-05-02T16:13:07.177Z</time></trkpt><trkpt lat="45.1700054" lon="7.7127325"><ele>240.75</ele><time>2026-05-02T16:13:08.178Z</time></trkpt><trkpt lat="45.1698874" lon="7.7127038"><ele>241.0</ele><time>2026-05-02T16:13:09.214Z</time></trkpt><trkpt lat="45.1697821" lon="7.7126766"><ele>241.42857142857144</ele><time>2026-05-02T16:13:10.182Z</time></trkpt><trkpt lat="45.1696903" lon="7.7126531"><ele>241.8571428571429</ele><time>2026-05-02T16:13:11.192Z</time></trkpt><trkpt lat="45.1696159" lon="7.7126347"><ele>242.28571428571428</ele><time>2026-05-02T16:13:12.176Z</time></trkpt><trkpt lat="45.1695538" lon="7.7126155"><ele>242.71428571428572</ele><time>2026-05-02T16:13:13.177Z</time></trkpt><trkpt lat="45.1694785" lon="7.7125968"><ele>243.14285714285714</ele><time>2026-05-02T16:13:15.188Z</time></trkpt><trkpt lat="45.1694132" lon="7.7125855"><ele>243.57142857142856</ele><time>2026-05-02T16:13:56.171Z</time></trkpt><trkpt lat="45.1693412" lon="7.7125572"><ele>243.99999999999997</ele><time>2026-05-02T16:13:58.213Z</time></trkpt><trkpt lat="45.1692771" lon="7.7125251"><ele>244.0</ele><time>2026-05-02T16:13:59.186Z</time></trkpt><trkpt lat="45.1692073" lon="7.712494"><ele>243.99999999999997</ele><time>2026-05-02T16:14:00.194Z</time></trkpt><trkpt lat="45.16913" lon="7.7124678"><ele>243.99999999999997</ele><time>2026-05-02T16:14:01.188Z</time></trkpt><trkpt lat="45.1690425" lon="7.7124418"><ele>244.0</ele><time>2026-05-02T16:14:02.191Z</time></trkpt><trkpt lat="45.1689377" lon="7.7124205"><ele>244.0</ele><time>2026-05-02T16:14:03.196Z</time></trkpt><trkpt lat="45.1688248" lon="7.7124028"><ele>243.75</ele><time>2026-05-02T16:14:04.18Z</time></trkpt><trkpt lat="45.1687099" lon="7.7123889"><ele>243.5</ele><time>2026-05-02T16:14:05.196Z</time></trkpt><trkpt lat="45.1685912" lon="7.7123654"><ele>243.25</ele><time>2026-05-02T16:14:06.197Z</time></trkpt><trkpt lat="45.1684632" lon="7.7123446"><ele>243.0</ele><time>2026-05-02T16:14:07.211Z</time></trkpt><trkpt lat="45.1683381" lon="7.7123204"><ele>243.0</ele><time>2026-05-02T16:14:08.183Z</time></trkpt><trkpt lat="45.1682127" lon="7.7122947"><ele>243.0</ele><time>2026-05-02T16:14:09.192Z</time></trkpt><trkpt lat="45.1680895" lon="7.712268"><ele>243.0</ele><time>2026-05-02T16:14:10.182Z</time></trkpt><trkpt lat="45.1679648" lon="7.7122423"><ele>243.0</ele><time>2026-05-02T16:14:11.226Z</time></trkpt><trkpt lat="45.167838" lon="7.7122167"><ele>243.0</ele><time>2026-05-02T16:14:12.181Z</time></trkpt><trkpt lat="45.1677105" lon="7.7121951"><ele>243.0</ele><time>2026-05-02T16:14:13.192Z</time></trkpt><trkpt lat="45.1675801" lon="7.7121716"><ele>243.0</ele><time>2026-05-02T16:14:14.185Z</time></trkpt><trkpt lat="45.1674462" lon="7.7121429"><ele>243.0</ele><time>2026-05-02T16:14:15.182Z</time></trkpt><trkpt lat="45.1673081" lon="7.7121126"><ele>242.5</ele><time>2026-05-02T16:14:16.194Z</time></trkpt><trkpt lat="45.1671679" lon="7.7120783"><ele>242.0</ele><time>2026-05-02T16:14:17.197Z</time></trkpt><trkpt lat="45.1670248" lon="7.712042"><ele>241.5</ele><time>2026-05-02T16:14:18.186Z</time></trkpt><trkpt lat="45.1668781" lon="7.7120038"><ele>241.0</ele><time>2026-05-02T16:14:19.192Z</time></trkpt><trkpt lat="45.1667232" lon="7.711959"><ele>241.0</ele><time>2026-05-02T16:14:20.192Z</time></trkpt><trkpt lat="45.1665658" lon="7.7119145"><ele>241.0</ele><time>2026-05-02T16:14:21.217Z</time></trkpt><trkpt lat="45.1664022" lon="7.7118735"><ele>241.0</ele><time>2026-05-02T16:14:22.207Z</time></trkpt><trkpt lat="45.1662222" lon="7.7118405"><ele>242.0</ele><time>2026-05-02T16:14:23.195Z</time></trkpt><trkpt lat="45.1660059" lon="7.7117991"><ele>243.0</ele><time>2026-05-02T16:14:24.186Z</time></trkpt><trkpt lat="45.1657755" lon="7.7117426"><ele>242.5</ele><time>2026-05-02T16:14:25.175Z</time></trkpt><trkpt lat="45.1655459" lon="7.7116828"><ele>242.0</ele><time>2026-05-02T16:14:26.174Z</time></trkpt><trkpt lat="45.1653231" lon="7.7116238"><ele>242.0</ele><time>2026-05-02T16:14:27.18Z</time></trkpt><trkpt lat="45.1651057" lon="7.7115676"><ele>242.0</ele><time>2026-05-02T16:14:28.178Z</time></trkpt><trkpt lat="45.1648926" lon="7.7115175"><ele>242.0</ele><time>2026-05-02T16:14:29.175Z</time></trkpt><trkpt lat="45.1646948" lon="7.711471"><ele>241.66666666666669</ele><time>2026-05-02T16:14:30.179Z</time></trkpt><trkpt lat="45.1645217" lon="7.7114225"><ele>241.33333333333331</ele><time>2026-05-02T16:14:31.176Z</time></trkpt><trkpt lat="45.1643593" lon="7.7113824"><ele>241.0</ele><time>2026-05-02T16:14:32.216Z</time></trkpt><trkpt lat="45.164214" lon="7.7113504"><ele>241.0</ele><time>2026-05-02T16:14:33.18Z</time></trkpt><trkpt lat="45.1640833" lon="7.7113189"><ele>241.0</ele><time>2026-05-02T16:14:34.178Z</time></trkpt><trkpt lat="45.1639736" lon="7.7112922"><ele>241.0</ele><time>2026-05-02T16:14:35.18Z</time></trkpt><trkpt lat="45.163861" lon="7.7112617"><ele>241.0</ele><time>2026-05-02T16:14:36.169Z</time></trkpt><trkpt lat="45.1637535" lon="7.7112381"><ele>241.0</ele><time>2026-05-02T16:14:37.184Z</time></trkpt><trkpt lat="45.1636466" lon="7.7112198"><ele>241.00000000000003</ele><time>2026-05-02T16:14:38.176Z</time></trkpt><trkpt lat="45.163541" lon="7.7111974"><ele>241.00000000000003</ele><time>2026-05-02T16:14:39.194Z</time></trkpt><trkpt lat="45.1634393" lon="7.711175"><ele>241.0</ele><time>2026-05-02T16:14:40.177Z</time></trkpt><trkpt lat="45.163344" lon="7.7111461"><ele>241.0</ele><time>2026-05-02T16:14:41.176Z</time></trkpt><trkpt lat="45.1632602" lon="7.7111167"><ele>240.8</ele><time>2026-05-02T16:14:42.18Z</time></trkpt><trkpt lat="45.1631889" lon="7.7110812"><ele>240.60000000000002</ele><time>2026-05-02T16:14:43.182Z</time></trkpt><trkpt lat="45.1631159" lon="7.7110179"><ele>240.4</ele><time>2026-05-02T16:14:45.18Z</time></trkpt><trkpt lat="45.1631683" lon="7.7108576"><ele>240.2</ele><time>2026-05-02T16:14:48.176Z</time></trkpt><trkpt lat="45.1632066" lon="7.7107607"><ele>240.0</ele><time>2026-05-02T16:14:49.186Z</time></trkpt><trkpt lat="45.1632543" lon="7.7106544"><ele>240.0</ele><time>2026-05-02T16:14:50.209Z</time></trkpt><trkpt lat="45.1632971" lon="7.7105464"><ele>240.0</ele><time>2026-05-02T16:14:51.178Z</time></trkpt><trkpt lat="45.1633376" lon="7.7104034"><ele>240.0</ele><time>2026-05-02T16:14:52.182Z</time></trkpt><trkpt lat="45.1633775" lon="7.7102575"><ele>240.0</ele><time>2026-05-02T16:14:53.211Z</time></trkpt><trkpt lat="45.1634144" lon="7.7100923"><ele>240.0</ele><time>2026-05-02T16:14:54.175Z</time></trkpt><trkpt lat="45.1634618" lon="7.7099259"><ele>240.0</ele><time>2026-05-02T16:14:55.184Z</time></trkpt><trkpt lat="45.1635007" lon="7.7097384"><ele>240.0</ele><time>2026-05-02T16:14:56.175Z</time></trkpt><trkpt lat="45.1635281" lon="7.7095676"><ele>240.0</ele><time>2026-05-02T16:14:57.217Z</time></trkpt><trkpt lat="45.163559" lon="7.7094045"><ele>240.0</ele><time>2026-05-02T16:14:58.179Z</time></trkpt><trkpt lat="45.1635976" lon="7.7092556"><ele>239.83333333333334</ele><time>2026-05-02T16:14:59.175Z</time></trkpt><trkpt lat="45.1636296" lon="7.7091152"><ele>239.66666666666669</ele><time>2026-05-02T16:15:00.173Z</time></trkpt><trkpt lat="45.1636632" lon="7.7089876"><ele>239.5</ele><time>2026-05-02T16:15:01.176Z</time></trkpt><trkpt lat="45.1636981" lon="7.7088737"><ele>239.33333333333334</ele><time>2026-05-02T16:15:02.171Z</time></trkpt><trkpt lat="45.1637322" lon="7.7087787"><ele>239.16666666666669</ele><time>2026-05-02T16:15:03.181Z</time></trkpt><trkpt lat="45.1637583" lon="7.7086666"><ele>239.0</ele><time>2026-05-02T16:15:06.181Z</time></trkpt><trkpt lat="45.1637768" lon="7.7085271"><ele>239.0</ele><time>2026-05-02T16:15:08.18Z</time></trkpt><trkpt lat="45.1637917" lon="7.7083783"><ele>239.0</ele><time>2026-05-02T16:15:09.182Z</time></trkpt><trkpt lat="45.1638181" lon="7.70818"><ele>239.0</ele><time>2026-05-02T16:15:10.175Z</time></trkpt><trkpt lat="45.1638522" lon="7.7079364"><ele>239.0</ele><time>2026-05-02T16:15:11.178Z</time></trkpt><trkpt lat="45.163883" lon="7.7076776"><ele>239.33333333333334</ele><time>2026-05-02T16:15:12.179Z</time></trkpt><trkpt lat="45.1639043" lon="7.7074069"><ele>239.66666666666669</ele><time>2026-05-02T16:15:13.181Z</time></trkpt><trkpt lat="45.163904" lon="7.7071187"><ele>240.0</ele><time>2026-05-02T16:15:14.172Z</time></trkpt><trkpt lat="45.1638992" lon="7.7068243"><ele>240.0</ele><time>2026-05-02T16:15:15.178Z</time></trkpt><trkpt lat="45.1638768" lon="7.7065221"><ele>240.0</ele><time>2026-05-02T16:15:16.177Z</time></trkpt><trkpt lat="45.1638365" lon="7.7062082"><ele>240.0</ele><time>2026-05-02T16:15:17.175Z</time></trkpt><trkpt lat="45.1637759" lon="7.7058792"><ele>240.0</ele><time>2026-05-02T16:15:18.174Z</time></trkpt><trkpt lat="45.1637108" lon="7.7055408"><ele>240.0</ele><time>2026-05-02T16:15:19.187Z</time></trkpt><trkpt lat="45.1636481" lon="7.7052003"><ele>240.5</ele><time>2026-05-02T16:15:20.181Z</time></trkpt><trkpt lat="45.1635871" lon="7.704849"><ele>241.0</ele><time>2026-05-02T16:15:21.185Z</time></trkpt><trkpt lat="45.1635276" lon="7.7044936"><ele>241.5</ele><time>2026-05-02T16:15:22.176Z</time></trkpt><trkpt lat="45.1634722" lon="7.704141"><ele>242.0</ele><time>2026-05-02T16:15:23.182Z</time></trkpt><trkpt lat="45.1634218" lon="7.7037952"><ele>242.5</ele><time>2026-05-02T16:15:24.173Z</time></trkpt><trkpt lat="45.1633728" lon="7.7034515"><ele>243.0</ele><time>2026-05-02T16:15:25.184Z</time></trkpt><trkpt lat="45.1633253" lon="7.7031036"><ele>243.0</ele><time>2026-05-02T16:15:26.176Z</time></trkpt><trkpt lat="45.1632763" lon="7.7027518"><ele>243.0</ele><time>2026-05-02T16:15:27.182Z</time></trkpt><trkpt lat="45.1632283" lon="7.7024041"><ele>243.5</ele><time>2026-05-02T16:15:28.177Z</time></trkpt><trkpt lat="45.1631815" lon="7.7020574"><ele>244.0</ele><time>2026-05-02T16:15:29.176Z</time></trkpt><trkpt lat="45.1631356" lon="7.7017055"><ele>244.0</ele><time>2026-05-02T16:15:30.175Z</time></trkpt><trkpt lat="45.1630897" lon="7.7013511"><ele>244.0</ele><time>2026-05-02T16:15:31.179Z</time></trkpt><trkpt lat="45.1630448" lon="7.700994"><ele>244.5</ele><time>2026-05-02T16:15:32.168Z</time></trkpt><trkpt lat="45.1629997" lon="7.7006457"><ele>245.0</ele><time>2026-05-02T16:15:33.185Z</time></trkpt><trkpt lat="45.1629556" lon="7.7003094"><ele>244.33333333333334</ele><time>2026-05-02T16:15:34.181Z</time></trkpt><trkpt lat="45.162912" lon="7.6999948"><ele>243.66666666666669</ele><time>2026-05-02T16:15:35.182Z</time></trkpt><trkpt lat="45.16287" lon="7.6997055"><ele>243.0</ele><time>2026-05-02T16:15:36.177Z</time></trkpt><trkpt lat="45.1628257" lon="7.6994496"><ele>243.0</ele><time>2026-05-02T16:15:37.173Z</time></trkpt><trkpt lat="45.1627759" lon="7.6992267"><ele>243.0</ele><time>2026-05-02T16:15:38.182Z</time></trkpt><trkpt lat="45.1627166" lon="7.6990368"><ele>243.0</ele><time>2026-05-02T16:15:39.184Z</time></trkpt><trkpt lat="45.16264" lon="7.6988614"><ele>243.0</ele><time>2026-05-02T16:15:40.177Z</time></trkpt><trkpt lat="45.1625531" lon="7.6986675"><ele>243.0</ele><time>2026-05-02T16:15:41.179Z</time></trkpt><trkpt lat="45.1624699" lon="7.6984401"><ele>243.0</ele><time>2026-05-02T16:15:42.181Z</time></trkpt><trkpt lat="45.1623924" lon="7.6981714"><ele>242.5</ele><time>2026-05-02T16:15:43.183Z</time></trkpt><trkpt lat="45.1623334" lon="7.6978618"><ele>242.0</ele><time>2026-05-02T16:15:44.178Z</time></trkpt><trkpt lat="45.1622929" lon="7.6975274"><ele>243.0</ele><time>2026-05-02T16:15:45.171Z</time></trkpt><trkpt lat="45.1622635" lon="7.6971847"><ele>244.0</ele><time>2026-05-02T16:15:46.177Z</time></trkpt><trkpt lat="45.1622334" lon="7.6968496"><ele>244.0</ele><time>2026-05-02T16:15:47.177Z</time></trkpt><trkpt lat="45.1621978" lon="7.6965359"><ele>244.0</ele><time>2026-05-02T16:15:48.181Z</time></trkpt><trkpt lat="45.1621654" lon="7.6962383"><ele>244.0</ele><time>2026-05-02T16:15:49.183Z</time></trkpt><trkpt lat="45.1621359" lon="7.6959616"><ele>244.0</ele><time>2026-05-02T16:15:50.177Z</time></trkpt><trkpt lat="45.1621135" lon="7.6957013"><ele>244.0</ele><time>2026-05-02T16:15:51.177Z</time></trkpt><trkpt lat="45.1620926" lon="7.6954425"><ele>244.0</ele><time>2026-05-02T16:15:52.182Z</time></trkpt><trkpt lat="45.162071" lon="7.6951827"><ele>244.33333333333331</ele><time>2026-05-02T16:15:53.179Z</time></trkpt><trkpt lat="45.1620503" lon="7.694932"><ele>244.66666666666669</ele><time>2026-05-02T16:15:54.181Z</time></trkpt><trkpt lat="45.1620312" lon="7.694696"><ele>245.0</ele><time>2026-05-02T16:15:55.182Z</time></trkpt><trkpt lat="45.1620165" lon="7.6944779"><ele>245.5</ele><time>2026-05-02T16:15:56.185Z</time></trkpt><trkpt lat="45.1620151" lon="7.6942771"><ele>246.0</ele><time>2026-05-02T16:15:57.18Z</time></trkpt><trkpt lat="45.1620291" lon="7.6940837"><ele>246.5</ele><time>2026-05-02T16:15:58.181Z</time></trkpt><trkpt lat="45.1620585" lon="7.6938951"><ele>247.0</ele><time>2026-05-02T16:15:59.18Z</time></trkpt><trkpt lat="45.1621034" lon="7.6937142"><ele>246.75</ele><time>2026-05-02T16:16:00.176Z</time></trkpt><trkpt lat="45.1621509" lon="7.6935374"><ele>246.5</ele><time>2026-05-02T16:16:01.183Z</time></trkpt><trkpt lat="45.1621949" lon="7.6933649"><ele>246.25</ele><time>2026-05-02T16:16:02.173Z</time></trkpt><trkpt lat="45.1622266" lon="7.6932055"><ele>246.0</ele><time>2026-05-02T16:16:03.187Z</time></trkpt><trkpt lat="45.1622567" lon="7.6930527"><ele>246.0</ele><time>2026-05-02T16:16:04.179Z</time></trkpt><trkpt lat="45.1622928" lon="7.6929034"><ele>246.0</ele><time>2026-05-02T16:16:05.18Z</time></trkpt><trkpt lat="45.1623499" lon="7.6927528"><ele>246.0</ele><time>2026-05-02T16:16:06.186Z</time></trkpt><trkpt lat="45.1624134" lon="7.6925766"><ele>246.0</ele><time>2026-05-02T16:16:07.185Z</time></trkpt><trkpt lat="45.1624832" lon="7.6923682"><ele>246.33333333333331</ele><time>2026-05-02T16:16:08.187Z</time></trkpt><trkpt lat="45.1625558" lon="7.6921429"><ele>246.66666666666666</ele><time>2026-05-02T16:16:09.172Z</time></trkpt><trkpt lat="45.1626282" lon="7.6919164"><ele>247.0</ele><time>2026-05-02T16:16:10.207Z</time></trkpt><trkpt lat="45.1626991" lon="7.691699"><ele>247.0</ele><time>2026-05-02T16:16:11.176Z</time></trkpt><trkpt lat="45.1627657" lon="7.6914905"><ele>247.0</ele><time>2026-05-02T16:16:12.175Z</time></trkpt><trkpt lat="45.1628377" lon="7.6912881"><ele>247.0</ele><time>2026-05-02T16:16:13.177Z</time></trkpt><trkpt lat="45.1629115" lon="7.6910819"><ele>247.0</ele><time>2026-05-02T16:16:14.182Z</time></trkpt><trkpt lat="45.1629894" lon="7.6908713"><ele>247.0</ele><time>2026-05-02T16:16:15.184Z</time></trkpt><trkpt lat="45.1630688" lon="7.6906563"><ele>247.0</ele><time>2026-05-02T16:16:16.178Z</time></trkpt><trkpt lat="45.1631492" lon="7.6904389"><ele>247.33333333333331</ele><time>2026-05-02T16:16:17.197Z</time></trkpt><trkpt lat="45.1632154" lon="7.6902182"><ele>247.66666666666669</ele><time>2026-05-02T16:16:18.178Z</time></trkpt><trkpt lat="45.1632765" lon="7.6899971"><ele>248.0</ele><time>2026-05-02T16:16:19.173Z</time></trkpt><trkpt lat="45.1633348" lon="7.6897729"><ele>248.0</ele><time>2026-05-02T16:16:20.177Z</time></trkpt><trkpt lat="45.1633951" lon="7.689548"><ele>248.0</ele><time>2026-05-02T16:16:21.181Z</time></trkpt><trkpt lat="45.1634557" lon="7.6893267"><ele>248.0</ele><time>2026-05-02T16:16:22.176Z</time></trkpt><trkpt lat="45.1635163" lon="7.6891083"><ele>248.0</ele><time>2026-05-02T16:16:23.184Z</time></trkpt><trkpt lat="45.1635743" lon="7.6888897"><ele>248.0</ele><time>2026-05-02T16:16:24.178Z</time></trkpt><trkpt lat="45.1636316" lon="7.6886775"><ele>248.0</ele><time>2026-05-02T16:16:25.175Z</time></trkpt><trkpt lat="45.1636852" lon="7.688476"><ele>248.25</ele><time>2026-05-02T16:16:26.186Z</time></trkpt><trkpt lat="45.1637378" lon="7.6882842"><ele>248.5</ele><time>2026-05-02T16:16:27.175Z</time></trkpt><trkpt lat="45.1637833" lon="7.6880995"><ele>248.75</ele><time>2026-05-02T16:16:28.181Z</time></trkpt><trkpt lat="45.1638312" lon="7.6879146"><ele>249.0</ele><time>2026-05-02T16:16:29.182Z</time></trkpt><trkpt lat="45.1638893" lon="7.687731"><ele>249.0</ele><time>2026-05-02T16:16:30.182Z</time></trkpt><trkpt lat="45.1639646" lon="7.6875531"><ele>249.0</ele><time>2026-05-02T16:16:31.183Z</time></trkpt><trkpt lat="45.1640613" lon="7.68738"><ele>249.0</ele><time>2026-05-02T16:16:32.183Z</time></trkpt><trkpt lat="45.1641906" lon="7.6872115"><ele>249.0</ele><time>2026-05-02T16:16:33.185Z</time></trkpt><trkpt lat="45.164348" lon="7.6870414"><ele>249.0</ele><time>2026-05-02T16:16:34.184Z</time></trkpt><trkpt lat="45.1645327" lon="7.686878"><ele>249.0</ele><time>2026-05-02T16:16:35.173Z</time></trkpt><trkpt lat="45.1647537" lon="7.686727"><ele>249.5</ele><time>2026-05-02T16:16:36.177Z</time></trkpt><trkpt lat="45.1649828" lon="7.6865903"><ele>250.0</ele><time>2026-05-02T16:16:37.188Z</time></trkpt><trkpt lat="45.1651938" lon="7.6864582"><ele>250.0</ele><time>2026-05-02T16:16:38.176Z</time></trkpt><trkpt lat="45.1653803" lon="7.6863316"><ele>250.0</ele><time>2026-05-02T16:16:39.177Z</time></trkpt><trkpt lat="45.1655477" lon="7.6862063"><ele>250.0</ele><time>2026-05-02T16:16:40.178Z</time></trkpt><trkpt lat="45.165694" lon="7.6860779"><ele>251.33333333333331</ele><time>2026-05-02T16:16:41.186Z</time></trkpt><trkpt lat="45.1658168" lon="7.6859356"><ele>252.66666666666669</ele><time>2026-05-02T16:16:42.179Z</time></trkpt><trkpt lat="45.1659156" lon="7.6857665"><ele>254.0</ele><time>2026-05-02T16:16:43.208Z</time></trkpt><trkpt lat="45.165997" lon="7.6855632"><ele>254.0</ele><time>2026-05-02T16:16:44.173Z</time></trkpt><trkpt lat="45.1660453" lon="7.6853386"><ele>254.0</ele><time>2026-05-02T16:16:45.207Z</time></trkpt><trkpt lat="45.1660745" lon="7.6851021"><ele>254.0</ele><time>2026-05-02T16:16:46.176Z</time></trkpt><trkpt lat="45.1660774" lon="7.684861"><ele>254.66666666666669</ele><time>2026-05-02T16:16:47.184Z</time></trkpt><trkpt lat="45.1660598" lon="7.6846231"><ele>255.33333333333331</ele><time>2026-05-02T16:16:48.18Z</time></trkpt><trkpt lat="45.1660213" lon="7.6843921"><ele>256.0</ele><time>2026-05-02T16:16:49.176Z</time></trkpt><trkpt lat="45.1659575" lon="7.6841647"><ele>256.0</ele><time>2026-05-02T16:16:50.179Z</time></trkpt><trkpt lat="45.1658732" lon="7.6839446"><ele>256.0</ele><time>2026-05-02T16:16:51.184Z</time></trkpt><trkpt lat="45.1657775" lon="7.6837305"><ele>256.0</ele><time>2026-05-02T16:16:52.173Z</time></trkpt><trkpt lat="45.1656766" lon="7.6835134"><ele>255.33333333333331</ele><time>2026-05-02T16:16:53.177Z</time></trkpt><trkpt lat="45.1655854" lon="7.6832907"><ele>254.66666666666669</ele><time>2026-05-02T16:16:54.177Z</time></trkpt><trkpt lat="45.1654999" lon="7.6830581"><ele>254.0</ele><time>2026-05-02T16:16:55.186Z</time></trkpt><trkpt lat="45.1654245" lon="7.6828177"><ele>254.0</ele><time>2026-05-02T16:16:56.174Z</time></trkpt><trkpt lat="45.1653646" lon="7.6825672"><ele>254.0</ele><time>2026-05-02T16:16:57.172Z</time></trkpt><trkpt lat="45.1653254" lon="7.6823103"><ele>254.0</ele><time>2026-05-02T16:16:58.183Z</time></trkpt><trkpt lat="45.1653028" lon="7.682046"><ele>254.0</ele><time>2026-05-02T16:16:59.172Z</time></trkpt><trkpt lat="45.1652977" lon="7.6817846"><ele>254.0</ele><time>2026-05-02T16:17:00.173Z</time></trkpt><trkpt lat="45.1653087" lon="7.6815282"><ele>254.0</ele><time>2026-05-02T16:17:01.21Z</time></trkpt><trkpt lat="45.1653393" lon="7.681282"><ele>254.0</ele><time>2026-05-02T16:17:02.178Z</time></trkpt><trkpt lat="45.1653836" lon="7.6810445"><ele>254.0</ele><time>2026-05-02T16:17:03.178Z</time></trkpt><trkpt lat="45.1654426" lon="7.6808061"><ele>254.0</ele><time>2026-05-02T16:17:04.18Z</time></trkpt><trkpt lat="45.1655107" lon="7.6805606"><ele>254.0</ele><time>2026-05-02T16:17:05.175Z</time></trkpt><trkpt lat="45.1655782" lon="7.6803076"><ele>254.0</ele><time>2026-05-02T16:17:06.184Z</time></trkpt><trkpt lat="45.1656417" lon="7.680053"><ele>254.0</ele><time>2026-05-02T16:17:07.177Z</time></trkpt><trkpt lat="45.1657041" lon="7.6798012"><ele>254.0</ele><time>2026-05-02T16:17:08.181Z</time></trkpt><trkpt lat="45.165767" lon="7.679547"><ele>254.0</ele><time>2026-05-02T16:17:09.185Z</time></trkpt><trkpt lat="45.1658388" lon="7.6792807"><ele>254.0</ele><time>2026-05-02T16:17:10.207Z</time></trkpt><trkpt lat="45.165916" lon="7.6789931"><ele>254.0</ele><time>2026-05-02T16:17:11.182Z</time></trkpt><trkpt lat="45.166002" lon="7.6786707"><ele>254.0</ele><time>2026-05-02T16:17:12.174Z</time></trkpt><trkpt lat="45.1661013" lon="7.6783087"><ele>255.0</ele><time>2026-05-02T16:17:13.203Z</time></trkpt><trkpt lat="45.1662169" lon="7.6779261"><ele>256.0</ele><time>2026-05-02T16:17:14.187Z</time></trkpt><trkpt lat="45.1663348" lon="7.6775357"><ele>256.0</ele><time>2026-05-02T16:17:15.179Z</time></trkpt><trkpt lat="45.166456" lon="7.6771396"><ele>256.0</ele><time>2026-05-02T16:17:16.19Z</time></trkpt><trkpt lat="45.1665695" lon="7.6767596"><ele>256.0</ele><time>2026-05-02T16:17:17.179Z</time></trkpt><trkpt lat="45.166678" lon="7.6763961"><ele>256.0</ele><time>2026-05-02T16:17:18.208Z</time></trkpt><trkpt lat="45.1667654" lon="7.6760686"><ele>256.0</ele><time>2026-05-02T16:17:19.174Z</time></trkpt><trkpt lat="45.1668451" lon="7.6757655"><ele>256.0</ele><time>2026-05-02T16:17:20.174Z</time></trkpt><trkpt lat="45.1669178" lon="7.6754853"><ele>256.0</ele><time>2026-05-02T16:17:21.175Z</time></trkpt><trkpt lat="45.1669892" lon="7.6752186"><ele>256.0</ele><time>2026-05-02T16:17:22.179Z</time></trkpt><trkpt lat="45.1670516" lon="7.674968"><ele>256.0</ele><time>2026-05-02T16:17:23.19Z</time></trkpt><trkpt lat="45.1671113" lon="7.6747367"><ele>256.0</ele><time>2026-05-02T16:17:24.183Z</time></trkpt><trkpt lat="45.1671625" lon="7.6745251"><ele>256.5</ele><time>2026-05-02T16:17:25.175Z</time></trkpt><trkpt lat="45.1672062" lon="7.6743299"><ele>257.0</ele><time>2026-05-02T16:17:26.181Z</time></trkpt><trkpt lat="45.1672431" lon="7.6741584"><ele>257.5</ele><time>2026-05-02T16:17:27.174Z</time></trkpt><trkpt lat="45.1672723" lon="7.6740169"><ele>258.0</ele><time>2026-05-02T16:17:28.18Z</time></trkpt><trkpt lat="45.1672853" lon="7.6739121"><ele>258.0</ele><time>2026-05-02T16:17:29.183Z</time></trkpt><trkpt lat="45.1672455" lon="7.6737953"><ele>258.0</ele><time>2026-05-02T16:17:31.173Z</time></trkpt><trkpt lat="45.1671263" lon="7.6737698"><ele>258.0</ele><time>2026-05-02T16:17:33.174Z</time></trkpt><trkpt lat="45.1670403" lon="7.6737729"><ele>258.0</ele><time>2026-05-02T16:17:34.183Z</time></trkpt><trkpt lat="45.1669072" lon="7.6737651"><ele>258.0</ele><time>2026-05-02T16:17:35.175Z</time></trkpt><trkpt lat="45.1667522" lon="7.6737439"><ele>258.0</ele><time>2026-05-02T16:17:36.181Z</time></trkpt><trkpt lat="45.1665769" lon="7.6737053"><ele>258.0</ele><time>2026-05-02T16:17:37.18Z</time></trkpt><trkpt lat="45.1663917" lon="7.6736629"><ele>258.0</ele><time>2026-05-02T16:17:38.185Z</time></trkpt><trkpt lat="45.1661916" lon="7.6736087"><ele>257.3333333333333</ele><time>2026-05-02T16:17:39.181Z</time></trkpt><trkpt lat="45.1659839" lon="7.6735543"><ele>256.66666666666663</ele><time>2026-05-02T16:17:40.177Z</time></trkpt><trkpt lat="45.1657756" lon="7.6735011"><ele>256.0</ele><time>2026-05-02T16:17:41.179Z</time></trkpt><trkpt lat="45.1655777" lon="7.6734495"><ele>255.66666666666666</ele><time>2026-05-02T16:17:42.188Z</time></trkpt><trkpt lat="45.1653911" lon="7.6734021"><ele>255.33333333333331</ele><time>2026-05-02T16:17:43.203Z</time></trkpt><trkpt lat="45.1652137" lon="7.6733592"><ele>255.0</ele><time>2026-05-02T16:17:44.186Z</time></trkpt><trkpt lat="45.1650503" lon="7.6733212"><ele>255.0</ele><time>2026-05-02T16:17:45.174Z</time></trkpt><trkpt lat="45.1648973" lon="7.673287"><ele>255.0</ele><time>2026-05-02T16:17:46.172Z</time></trkpt><trkpt lat="45.1647563" lon="7.6732538"><ele>255.0</ele><time>2026-05-02T16:17:47.177Z</time></trkpt><trkpt lat="45.1646277" lon="7.6732231"><ele>255.0</ele><time>2026-05-02T16:17:48.173Z</time></trkpt><trkpt lat="45.1645074" lon="7.6731937"><ele>255.25</ele><time>2026-05-02T16:17:49.176Z</time></trkpt><trkpt lat="45.1643892" lon="7.6731582"><ele>255.5</ele><time>2026-05-02T16:17:50.18Z</time></trkpt><trkpt lat="45.1642755" lon="7.6730981"><ele>255.75</ele><time>2026-05-02T16:17:51.188Z</time></trkpt><trkpt lat="45.1641619" lon="7.6730068"><ele>256.0</ele><time>2026-05-02T16:17:52.188Z</time></trkpt><trkpt lat="45.1640511" lon="7.6728664"><ele>255.66666666666666</ele><time>2026-05-02T16:17:53.183Z</time></trkpt><trkpt lat="45.1639293" lon="7.6726785"><ele>255.33333333333331</ele><time>2026-05-02T16:17:54.182Z</time></trkpt><trkpt lat="45.1638075" lon="7.6724751"><ele>255.0</ele><time>2026-05-02T16:17:55.205Z</time></trkpt><trkpt lat="45.163694" lon="7.6722736"><ele>255.0</ele><time>2026-05-02T16:17:56.172Z</time></trkpt><trkpt lat="45.1635774" lon="7.6720869"><ele>255.0</ele><time>2026-05-02T16:17:57.175Z</time></trkpt><trkpt lat="45.1634665" lon="7.6719051"><ele>255.0</ele><time>2026-05-02T16:17:58.176Z</time></trkpt><trkpt lat="45.1633515" lon="7.6717356"><ele>255.33333333333331</ele><time>2026-05-02T16:17:59.189Z</time></trkpt><trkpt lat="45.1632324" lon="7.6715771"><ele>255.66666666666666</ele><time>2026-05-02T16:18:00.181Z</time></trkpt><trkpt lat="45.1631116" lon="7.6714165"><ele>256.0</ele><time>2026-05-02T16:18:01.179Z</time></trkpt><trkpt lat="45.1629909" lon="7.6712502"><ele>256.0</ele><time>2026-05-02T16:18:02.173Z</time></trkpt><trkpt lat="45.1628751" lon="7.6710828"><ele>256.0</ele><time>2026-05-02T16:18:03.176Z</time></trkpt><trkpt lat="45.1627632" lon="7.6709223"><ele>256.0</ele><time>2026-05-02T16:18:04.178Z</time></trkpt><trkpt lat="45.1626592" lon="7.6707769"><ele>256.0</ele><time>2026-05-02T16:18:05.184Z</time></trkpt><trkpt lat="45.1625709" lon="7.6706459"><ele>256.0</ele><time>2026-05-02T16:18:06.187Z</time></trkpt><trkpt lat="45.1625053" lon="7.6705308"><ele>256.0</ele><time>2026-05-02T16:18:07.173Z</time></trkpt><trkpt lat="45.1624562" lon="7.6704172"><ele>256.0</ele><time>2026-05-02T16:18:08.176Z</time></trkpt><trkpt lat="45.162446" lon="7.6703231"><ele>256.0</ele><time>2026-05-02T16:18:09.183Z</time></trkpt><trkpt lat="45.1624809" lon="7.6701953"><ele>255.8</ele><time>2026-05-02T16:18:10.189Z</time></trkpt><trkpt lat="45.1625024" lon="7.67005"><ele>255.60000000000002</ele><time>2026-05-02T16:18:11.171Z</time></trkpt><trkpt lat="45.1624955" lon="7.6699188"><ele>255.4</ele><time>2026-05-02T16:18:12.18Z</time></trkpt><trkpt lat="45.1624478" lon="7.669804"><ele>255.2</ele><time>2026-05-02T16:18:13.178Z</time></trkpt><trkpt lat="45.1623605" lon="7.6696946"><ele>255.0</ele><time>2026-05-02T16:18:14.187Z</time></trkpt><trkpt lat="45.1622401" lon="7.6695769"><ele>255.33333333333331</ele><time>2026-05-02T16:18:15.184Z</time></trkpt><trkpt lat="45.1620969" lon="7.6694412"><ele>255.66666666666666</ele><time>2026-05-02T16:18:16.174Z</time></trkpt><trkpt lat="45.1619474" lon="7.6692931"><ele>256.0</ele><time>2026-05-02T16:18:17.175Z</time></trkpt><trkpt lat="45.1618031" lon="7.6691431"><ele>256.0</ele><time>2026-05-02T16:18:18.178Z</time></trkpt><trkpt lat="45.16166" lon="7.6689921"><ele>256.0</ele><time>2026-05-02T16:18:19.179Z</time></trkpt><trkpt lat="45.1615203" lon="7.6688441"><ele>256.0</ele><time>2026-05-02T16:18:20.176Z</time></trkpt><trkpt lat="45.1613827" lon="7.6686951"><ele>256.0</ele><time>2026-05-02T16:18:21.177Z</time></trkpt><trkpt lat="45.1612509" lon="7.668548"><ele>256.0</ele><time>2026-05-02T16:18:22.18Z</time></trkpt><trkpt lat="45.1611209" lon="7.6684"><ele>256.0</ele><time>2026-05-02T16:18:23.182Z</time></trkpt><trkpt lat="45.1609931" lon="7.6682486"><ele>256.0</ele><time>2026-05-02T16:18:24.175Z</time></trkpt><trkpt lat="45.160867" lon="7.6680891"><ele>256.0</ele><time>2026-05-02T16:18:25.18Z</time></trkpt><trkpt lat="45.1607451" lon="7.6679168"><ele>256.0</ele><time>2026-05-02T16:18:26.178Z</time></trkpt><trkpt lat="45.1606305" lon="7.6677292"><ele>255.33333333333331</ele><time>2026-05-02T16:18:27.173Z</time></trkpt><trkpt lat="45.1605269" lon="7.6675316"><ele>254.66666666666669</ele><time>2026-05-02T16:18:28.178Z</time></trkpt><trkpt lat="45.1604345" lon="7.6673408"><ele>254.0</ele><time>2026-05-02T16:18:29.185Z</time></trkpt><trkpt lat="45.1603476" lon="7.6671693"><ele>254.0</ele><time>2026-05-02T16:18:30.18Z</time></trkpt><trkpt lat="45.1602665" lon="7.6670172"><ele>254.0</ele><time>2026-05-02T16:18:31.177Z</time></trkpt><trkpt lat="45.1601894" lon="7.6668788"><ele>254.0</ele><time>2026-05-02T16:18:32.174Z</time></trkpt><trkpt lat="45.1601236" lon="7.6667602"><ele>254.0</ele><time>2026-05-02T16:18:33.194Z</time></trkpt><trkpt lat="45.1600686" lon="7.6666657"><ele>254.0</ele><time>2026-05-02T16:18:34.182Z</time></trkpt><trkpt lat="45.1599664" lon="7.6665745"><ele>253.99999999999997</ele><time>2026-05-02T16:18:36.182Z</time></trkpt><trkpt lat="45.159899" lon="7.6665421"><ele>253.99999999999997</ele><time>2026-05-02T16:18:37.175Z</time></trkpt><trkpt lat="45.159812" lon="7.6665046"><ele>254.0</ele><time>2026-05-02T16:18:38.204Z</time></trkpt><trkpt lat="45.1597127" lon="7.6664604"><ele>254.0</ele><time>2026-05-02T16:18:39.176Z</time></trkpt><trkpt lat="45.1596102" lon="7.6664097"><ele>254.0</ele><time>2026-05-02T16:18:40.178Z</time></trkpt><trkpt lat="45.1595156" lon="7.6663238"><ele>254.0</ele><time>2026-05-02T16:18:41.209Z</time></trkpt><trkpt lat="45.159427" lon="7.6662275"><ele>254.0</ele><time>2026-05-02T16:18:42.179Z</time></trkpt><trkpt lat="45.1593434" lon="7.6661086"><ele>254.0</ele><time>2026-05-02T16:18:43.186Z</time></trkpt><trkpt lat="45.1592621" lon="7.6659687"><ele>254.0</ele><time>2026-05-02T16:18:44.171Z</time></trkpt><trkpt lat="45.1591795" lon="7.6658114"><ele>254.0</ele><time>2026-05-02T16:18:45.174Z</time></trkpt><trkpt lat="45.1590913" lon="7.6656413"><ele>254.0</ele><time>2026-05-02T16:18:46.176Z</time></trkpt><trkpt lat="45.1589808" lon="7.6654378"><ele>254.66666666666669</ele><time>2026-05-02T16:18:47.213Z</time></trkpt><trkpt lat="45.1588719" lon="7.6652061"><ele>255.33333333333331</ele><time>2026-05-02T16:18:48.189Z</time></trkpt><trkpt lat="45.1587678" lon="7.6649442"><ele>256.0</ele><time>2026-05-02T16:18:49.177Z</time></trkpt><trkpt lat="45.1586777" lon="7.6646747"><ele>256.3333333333333</ele><time>2026-05-02T16:18:50.178Z</time></trkpt><trkpt lat="45.1586136" lon="7.6644017"><ele>256.6666666666667</ele><time>2026-05-02T16:18:51.179Z</time></trkpt><trkpt lat="45.1585624" lon="7.664145"><ele>257.0</ele><time>2026-05-02T16:18:52.185Z</time></trkpt><trkpt lat="45.1585082" lon="7.6639038"><ele>257.0</ele><time>2026-05-02T16:18:53.179Z</time></trkpt><trkpt lat="45.158449" lon="7.6636829"><ele>257.0</ele><time>2026-05-02T16:18:54.172Z</time></trkpt><trkpt lat="45.1583802" lon="7.6634867"><ele>257.0</ele><time>2026-05-02T16:18:55.18Z</time></trkpt><trkpt lat="45.1582892" lon="7.6633253"><ele>257.0</ele><time>2026-05-02T16:18:56.18Z</time></trkpt><trkpt lat="45.1581573" lon="7.6632051"><ele>257.0</ele><time>2026-05-02T16:18:57.168Z</time></trkpt><trkpt lat="45.1579959" lon="7.6631513"><ele>257.0</ele><time>2026-05-02T16:18:58.192Z</time></trkpt><trkpt lat="45.1578164" lon="7.6631392"><ele>257.0</ele><time>2026-05-02T16:18:59.18Z</time></trkpt><trkpt lat="45.1576136" lon="7.6631516"><ele>257.0</ele><time>2026-05-02T16:19:00.179Z</time></trkpt><trkpt lat="45.1573726" lon="7.6631909"><ele>257.0</ele><time>2026-05-02T16:19:01.18Z</time></trkpt><trkpt lat="45.1571322" lon="7.6632202"><ele>257.0</ele><time>2026-05-02T16:19:02.181Z</time></trkpt><trkpt lat="45.156895" lon="7.6632217"><ele>257.0</ele><time>2026-05-02T16:19:03.179Z</time></trkpt><trkpt lat="45.1566705" lon="7.6632162"><ele>256.6666666666667</ele><time>2026-05-02T16:19:04.201Z</time></trkpt><trkpt lat="45.1564597" lon="7.6632089"><ele>256.3333333333333</ele><time>2026-05-02T16:19:05.184Z</time></trkpt><trkpt lat="45.1562593" lon="7.6632039"><ele>256.0</ele><time>2026-05-02T16:19:06.178Z</time></trkpt><trkpt lat="45.1560594" lon="7.6631971"><ele>256.0</ele><time>2026-05-02T16:19:07.177Z</time></trkpt><trkpt lat="45.1558583" lon="7.6631934"><ele>256.0</ele><time>2026-05-02T16:19:08.2Z</time></trkpt><trkpt lat="45.1556662" lon="7.6631854"><ele>256.0</ele><time>2026-05-02T16:19:09.176Z</time></trkpt><trkpt lat="45.1554858" lon="7.6631647"><ele>256.0</ele><time>2026-05-02T16:19:10.18Z</time></trkpt><trkpt lat="45.1553182" lon="7.6631231"><ele>256.0</ele><time>2026-05-02T16:19:11.182Z</time></trkpt><trkpt lat="45.1551665" lon="7.6630581"><ele>256.0</ele><time>2026-05-02T16:19:12.185Z</time></trkpt><trkpt lat="45.1550358" lon="7.6629937"><ele>256.0</ele><time>2026-05-02T16:19:13.18Z</time></trkpt><trkpt lat="45.1549334" lon="7.6629439"><ele>256.0</ele><time>2026-05-02T16:19:14.181Z</time></trkpt><trkpt lat="45.1548493" lon="7.6629025"><ele>256.0</ele><time>2026-05-02T16:19:15.174Z</time></trkpt><trkpt lat="45.1547575" lon="7.6628202"><ele>256.0</ele><time>2026-05-02T16:19:17.176Z</time></trkpt><trkpt lat="45.1546996" lon="7.6627091"><ele>256.0</ele><time>2026-05-02T16:19:19.181Z</time></trkpt><trkpt lat="45.1546148" lon="7.6627481"><ele>255.99999999999997</ele><time>2026-05-02T16:19:21.179Z</time></trkpt><trkpt lat="45.1545703" lon="7.6628309"><ele>256.0</ele><time>2026-05-02T16:19:22.175Z</time></trkpt><trkpt lat="45.1545244" lon="7.662909"><ele>256.0</ele><time>2026-05-02T16:19:23.184Z</time></trkpt><trkpt lat="45.1544184" lon="7.6629969"><ele>256.0</ele><time>2026-05-02T16:19:25.184Z</time></trkpt><trkpt lat="45.1543408" lon="7.6630295"><ele>255.99999999999997</ele><time>2026-05-02T16:19:26.18Z</time></trkpt><trkpt lat="45.1542487" lon="7.6630591"><ele>256.0</ele><time>2026-05-02T16:19:27.18Z</time></trkpt><trkpt lat="45.1541589" lon="7.6630839"><ele>255.99999999999997</ele><time>2026-05-02T16:19:28.21Z</time></trkpt><trkpt lat="45.1540759" lon="7.6631024"><ele>256.0</ele><time>2026-05-02T16:19:29.178Z</time></trkpt><trkpt lat="45.1539983" lon="7.6631093"><ele>256.0</ele><time>2026-05-02T16:19:30.172Z</time></trkpt><trkpt lat="45.1539281" lon="7.6630805"><ele>256.0</ele><time>2026-05-02T16:19:31.173Z</time></trkpt><trkpt lat="45.1538567" lon="7.6630349"><ele>255.99999999999997</ele><time>2026-05-02T16:19:32.181Z</time></trkpt><trkpt lat="45.1537991" lon="7.6629598"><ele>256.0</ele><time>2026-05-02T16:19:33.178Z</time></trkpt><trkpt lat="45.1537471" lon="7.6628632"><ele>256.75</ele><time>2026-05-02T16:19:34.177Z</time></trkpt><trkpt lat="45.1536942" lon="7.6627381"><ele>257.5</ele><time>2026-05-02T16:19:35.181Z</time></trkpt><trkpt lat="45.1536367" lon="7.6625941"><ele>258.25</ele><time>2026-05-02T16:19:36.177Z</time></trkpt><trkpt lat="45.1535724" lon="7.6624143"><ele>259.0</ele><time>2026-05-02T16:19:37.174Z</time></trkpt><trkpt lat="45.1535156" lon="7.6622439"><ele>259.0</ele><time>2026-05-02T16:19:38.213Z</time></trkpt><trkpt lat="45.1534731" lon="7.6620865"><ele>259.0</ele><time>2026-05-02T16:19:39.179Z</time></trkpt><trkpt lat="45.1534228" lon="7.6619508"><ele>259.0</ele><time>2026-05-02T16:19:40.177Z</time></trkpt><trkpt lat="45.1533722" lon="7.6618193"><ele>259.0</ele><time>2026-05-02T16:19:41.178Z</time></trkpt><trkpt lat="45.15334" lon="7.6617256"><ele>259.0</ele><time>2026-05-02T16:19:42.182Z</time></trkpt><trkpt lat="45.1533144" lon="7.6616251"><ele>258.8</ele><time>2026-05-02T16:19:43.177Z</time></trkpt><trkpt lat="45.1532961" lon="7.6615336"><ele>258.59999999999997</ele><time>2026-05-02T16:19:44.179Z</time></trkpt><trkpt lat="45.1532654" lon="7.6614"><ele>258.4</ele><time>2026-05-02T16:19:46.176Z</time></trkpt><trkpt lat="45.1531504" lon="7.6613079"><ele>258.2</ele><time>2026-05-02T16:19:48.213Z</time></trkpt><trkpt lat="45.1530777" lon="7.661224"><ele>258.0</ele><time>2026-05-02T16:19:49.193Z</time></trkpt><trkpt lat="45.1530084" lon="7.6610819"><ele>258.0</ele><time>2026-05-02T16:19:50.183Z</time></trkpt><trkpt lat="45.1529432" lon="7.6609197"><ele>258.0</ele><time>2026-05-02T16:19:51.174Z</time></trkpt><trkpt lat="45.1528746" lon="7.6607342"><ele>258.0</ele><time>2026-05-02T16:19:52.181Z</time></trkpt><trkpt lat="45.1528161" lon="7.6605403"><ele>258.0</ele><time>2026-05-02T16:19:53.184Z</time></trkpt><trkpt lat="45.1527591" lon="7.6603715"><ele>257.8</ele><time>2026-05-02T16:19:54.178Z</time></trkpt><trkpt lat="45.1527036" lon="7.6602183"><ele>257.6</ele><time>2026-05-02T16:19:55.189Z</time></trkpt><trkpt lat="45.1526568" lon="7.6600683"><ele>257.4</ele><time>2026-05-02T16:19:56.18Z</time></trkpt><trkpt lat="45.1526034" lon="7.6599414"><ele>257.2</ele><time>2026-05-02T16:19:57.177Z</time></trkpt><trkpt lat="45.1525552" lon="7.6598238"><ele>257.0</ele><time>2026-05-02T16:19:58.178Z</time></trkpt><trkpt lat="45.1525184" lon="7.6597094"><ele>257.0</ele><time>2026-05-02T16:19:59.196Z</time></trkpt><trkpt lat="45.1524853" lon="7.6596225"><ele>257.0</ele><time>2026-05-02T16:20:00.182Z</time></trkpt><trkpt lat="45.1524461" lon="7.6594917"><ele>257.0</ele><time>2026-05-02T16:20:02.176Z</time></trkpt><trkpt lat="45.1524018" lon="7.6593944"><ele>257.0</ele><time>2026-05-02T16:20:04.207Z</time></trkpt><trkpt lat="45.1523097" lon="7.6593928"><ele>257.0</ele><time>2026-05-02T16:20:06.171Z</time></trkpt><trkpt lat="45.1522488" lon="7.6594519"><ele>257.0</ele><time>2026-05-02T16:20:07.177Z</time></trkpt><trkpt lat="45.1521893" lon="7.6595428"><ele>257.0</ele><time>2026-05-02T16:20:08.19Z</time></trkpt><trkpt lat="45.1521179" lon="7.6596492"><ele>257.0</ele><time>2026-05-02T16:20:09.18Z</time></trkpt><trkpt lat="45.1520317" lon="7.6597476"><ele>257.0</ele><time>2026-05-02T16:20:10.212Z</time></trkpt><trkpt lat="45.1519411" lon="7.6598171"><ele>257.0</ele><time>2026-05-02T16:20:11.176Z</time></trkpt><trkpt lat="45.15186" lon="7.659884"><ele>257.0</ele><time>2026-05-02T16:20:12.175Z</time></trkpt><trkpt lat="45.1517858" lon="7.6599324"><ele>257.0</ele><time>2026-05-02T16:20:13.177Z</time></trkpt><trkpt lat="45.151724" lon="7.6599715"><ele>257.0</ele><time>2026-05-02T16:20:14.175Z</time></trkpt><trkpt lat="45.1516198" lon="7.6600349"><ele>257.0</ele><time>2026-05-02T16:20:16.176Z</time></trkpt><trkpt lat="45.1515171" lon="7.660098"><ele>257.0</ele><time>2026-05-02T16:20:18.184Z</time></trkpt><trkpt lat="45.1514608" lon="7.6601389"><ele>257.0</ele><time>2026-05-02T16:20:19.176Z</time></trkpt><trkpt lat="45.1513485" lon="7.6602046"><ele>256.8</ele><time>2026-05-02T16:20:21.171Z</time></trkpt><trkpt lat="45.151279" lon="7.6601743"><ele>256.6</ele><time>2026-05-02T16:20:23.182Z</time></trkpt><trkpt lat="45.1512602" lon="7.6600325"><ele>256.40000000000003</ele><time>2026-05-02T16:20:25.169Z</time></trkpt><trkpt lat="45.1512636" lon="7.6599184"><ele>256.2</ele><time>2026-05-02T16:20:26.171Z</time></trkpt><trkpt lat="45.1512842" lon="7.6597832"><ele>256.0</ele><time>2026-05-02T16:20:27.179Z</time></trkpt><trkpt lat="45.1513196" lon="7.6596349"><ele>255.99999999999997</ele><time>2026-05-02T16:20:28.18Z</time></trkpt><trkpt lat="45.1513466" lon="7.6594918"><ele>256.0</ele><time>2026-05-02T16:20:29.178Z</time></trkpt><trkpt lat="45.1513688" lon="7.6593604"><ele>256.0</ele><time>2026-05-02T16:20:30.173Z</time></trkpt><trkpt lat="45.1513868" lon="7.6592476"><ele>256.0</ele><time>2026-05-02T16:20:31.185Z</time></trkpt><trkpt lat="45.1514008" lon="7.6591429"><ele>255.99999999999997</ele><time>2026-05-02T16:20:32.175Z</time></trkpt><trkpt lat="45.1514069" lon="7.6590306"><ele>256.0</ele><time>2026-05-02T16:20:33.175Z</time></trkpt><trkpt lat="45.1514164" lon="7.6589018"><ele>255.99999999999997</ele><time>2026-05-02T16:20:34.183Z</time></trkpt><trkpt lat="45.1514152" lon="7.6587761"><ele>256.0</ele><time>2026-05-02T16:20:35.181Z</time></trkpt><trkpt lat="45.1514221" lon="7.6586594"><ele>256.0</ele><time>2026-05-02T16:20:36.173Z</time></trkpt><trkpt lat="45.1514246" lon="7.6585629"><ele>256.0</ele><time>2026-05-02T16:20:37.18Z</time></trkpt><trkpt lat="45.1514217" lon="7.6584347"><ele>255.99999999999997</ele><time>2026-05-02T16:20:39.182Z</time></trkpt><trkpt lat="45.1514084" lon="7.6583349"><ele>256.0</ele><time>2026-05-02T16:20:41.185Z</time></trkpt><trkpt lat="45.1514135" lon="7.6581193"><ele>256.2</ele><time>2026-05-02T16:20:43.181Z</time></trkpt><trkpt lat="45.1513861" lon="7.6579377"><ele>256.40000000000003</ele><time>2026-05-02T16:20:44.179Z</time></trkpt><trkpt lat="45.1513742" lon="7.6577756"><ele>256.6</ele><time>2026-05-02T16:20:45.18Z</time></trkpt><trkpt lat="45.1513649" lon="7.6576401"><ele>256.8</ele><time>2026-05-02T16:20:46.182Z</time></trkpt><trkpt lat="45.1513563" lon="7.6575409"><ele>257.0</ele><time>2026-05-02T16:20:47.176Z</time></trkpt><trkpt lat="45.1513438" lon="7.6574391"><ele>257.2</ele><time>2026-05-02T16:20:49.174Z</time></trkpt><trkpt lat="45.1514165" lon="7.6574095"><ele>257.4</ele><time>2026-05-02T16:20:54.183Z</time></trkpt><trkpt lat="45.1515184" lon="7.65737"><ele>257.6</ele><time>2026-05-02T16:20:56.174Z</time></trkpt><trkpt lat="45.1516058" lon="7.6573256"><ele>257.8</ele><time>2026-05-02T16:20:58.176Z</time></trkpt><trkpt lat="45.1516692" lon="7.6572165"><ele>258.0</ele><time>2026-05-02T16:21:00.178Z</time></trkpt><trkpt lat="45.1516847" lon="7.6571113"><ele>258.0</ele><time>2026-05-02T16:21:01.177Z</time></trkpt><trkpt lat="45.1516892" lon="7.6569714"><ele>258.0</ele><time>2026-05-02T16:21:02.176Z</time></trkpt><trkpt lat="45.1516902" lon="7.6568074"><ele>258.0</ele><time>2026-05-02T16:21:03.183Z</time></trkpt><trkpt lat="45.1516907" lon="7.6566359"><ele>258.0</ele><time>2026-05-02T16:21:04.179Z</time></trkpt><trkpt lat="45.1517044" lon="7.6564684"><ele>258.0</ele><time>2026-05-02T16:21:05.181Z</time></trkpt><trkpt lat="45.1517132" lon="7.6563029"><ele>258.0</ele><time>2026-05-02T16:21:06.197Z</time></trkpt><trkpt lat="45.151718" lon="7.6561477"><ele>258.0</ele><time>2026-05-02T16:21:07.208Z</time></trkpt><trkpt lat="45.1517259" lon="7.6560172"><ele>258.0</ele><time>2026-05-02T16:21:08.18Z</time></trkpt><trkpt lat="45.1517299" lon="7.6558777"><ele>258.0</ele><time>2026-05-02T16:21:09.178Z</time></trkpt><trkpt lat="45.1517353" lon="7.6557312"><ele>258.0</ele><time>2026-05-02T16:21:10.183Z</time></trkpt><trkpt lat="45.1517413" lon="7.6555767"><ele>258.0</ele><time>2026-05-02T16:21:11.178Z</time></trkpt><trkpt lat="45.1517533" lon="7.6554348"><ele>258.0</ele><time>2026-05-02T16:21:12.182Z</time></trkpt><trkpt lat="45.1517638" lon="7.6552991"><ele>258.0</ele><time>2026-05-02T16:21:13.178Z</time></trkpt><trkpt lat="45.1517744" lon="7.6551754"><ele>258.0</ele><time>2026-05-02T16:21:14.175Z</time></trkpt><trkpt lat="45.1517863" lon="7.6550754"><ele>258.0</ele><time>2026-05-02T16:21:15.177Z</time></trkpt><trkpt lat="45.1518072" lon="7.6549816"><ele>258.0</ele><time>2026-05-02T16:21:17.176Z</time></trkpt><trkpt lat="45.1517282" lon="7.6547628"><ele>258.0</ele><time>2026-05-02T16:21:28.183Z</time></trkpt><trkpt lat="45.1516455" lon="7.6547862"><ele>258.0</ele><time>2026-05-02T16:21:29.181Z</time></trkpt><trkpt lat="45.1515409" lon="7.654805"><ele>258.0</ele><time>2026-05-02T16:21:30.19Z</time></trkpt><trkpt lat="45.1514213" lon="7.6548103"><ele>258.0</ele><time>2026-05-02T16:21:31.178Z</time></trkpt><trkpt lat="45.1513015" lon="7.6548243"><ele>258.0</ele><time>2026-05-02T16:21:32.18Z</time></trkpt><trkpt lat="45.1511793" lon="7.6548309"><ele>258.0</ele><time>2026-05-02T16:21:33.184Z</time></trkpt><trkpt lat="45.151068" lon="7.6548349"><ele>258.0</ele><time>2026-05-02T16:21:34.188Z</time></trkpt><trkpt lat="45.1509555" lon="7.6548392"><ele>258.0</ele><time>2026-05-02T16:21:35.175Z</time></trkpt><trkpt lat="45.1508429" lon="7.6548416"><ele>258.0</ele><time>2026-05-02T16:21:36.185Z</time></trkpt><trkpt lat="45.1507462" lon="7.6548449"><ele>258.0</ele><time>2026-05-02T16:21:37.181Z</time></trkpt><trkpt lat="45.1506657" lon="7.6548436"><ele>258.0</ele><time>2026-05-02T16:21:38.182Z</time></trkpt><trkpt lat="45.15059" lon="7.6548475"><ele>258.0</ele><time>2026-05-02T16:21:39.179Z</time></trkpt><trkpt lat="45.1505051" lon="7.654854"><ele>257.8</ele><time>2026-05-02T16:21:40.175Z</time></trkpt><trkpt lat="45.1504117" lon="7.6548624"><ele>257.6</ele><time>2026-05-02T16:21:41.185Z</time></trkpt><trkpt lat="45.1503076" lon="7.6548716"><ele>257.4</ele><time>2026-05-02T16:21:42.21Z</time></trkpt><trkpt lat="45.1501911" lon="7.6548871"><ele>257.2</ele><time>2026-05-02T16:21:43.181Z</time></trkpt><trkpt lat="45.1500587" lon="7.6549127"><ele>257.0</ele><time>2026-05-02T16:21:44.184Z</time></trkpt><trkpt lat="45.1499166" lon="7.6549367"><ele>256.75</ele><time>2026-05-02T16:21:45.197Z</time></trkpt><trkpt lat="45.1497741" lon="7.6549384"><ele>256.5</ele><time>2026-05-02T16:21:46.178Z</time></trkpt><trkpt lat="45.1496286" lon="7.6549411"><ele>256.25</ele><time>2026-05-02T16:21:47.18Z</time></trkpt><trkpt lat="45.1494851" lon="7.6549445"><ele>256.0</ele><time>2026-05-02T16:21:48.182Z</time></trkpt><trkpt lat="45.1493502" lon="7.6549475"><ele>256.0</ele><time>2026-05-02T16:21:49.175Z</time></trkpt><trkpt lat="45.1492257" lon="7.6549516"><ele>256.0</ele><time>2026-05-02T16:21:50.177Z</time></trkpt><trkpt lat="45.1491118" lon="7.6549566"><ele>256.0</ele><time>2026-05-02T16:21:51.183Z</time></trkpt><trkpt lat="45.1490078" lon="7.654963"><ele>256.0</ele><time>2026-05-02T16:21:52.174Z</time></trkpt><trkpt lat="45.1489112" lon="7.6549725"><ele>256.0</ele><time>2026-05-02T16:21:53.186Z</time></trkpt><trkpt lat="45.1488218" lon="7.6549824"><ele>255.83333333333331</ele><time>2026-05-02T16:21:54.18Z</time></trkpt><trkpt lat="45.1487399" lon="7.6549952"><ele>255.66666666666666</ele><time>2026-05-02T16:21:55.184Z</time></trkpt><trkpt lat="45.1486625" lon="7.6550056"><ele>255.5</ele><time>2026-05-02T16:21:56.175Z</time></trkpt><trkpt lat="45.1485918" lon="7.6550118"><ele>255.33333333333331</ele><time>2026-05-02T16:21:57.178Z</time></trkpt><trkpt lat="45.1484818" lon="7.654995"><ele>255.16666666666666</ele><time>2026-05-02T16:21:59.174Z</time></trkpt><trkpt lat="45.1484189" lon="7.6549765"><ele>255.0</ele><time>2026-05-02T16:22:00.215Z</time></trkpt><trkpt lat="45.1483491" lon="7.6549796"><ele>255.0</ele><time>2026-05-02T16:22:01.192Z</time></trkpt><trkpt lat="45.1482666" lon="7.6549982"><ele>255.0</ele><time>2026-05-02T16:22:02.176Z</time></trkpt><trkpt lat="45.1481782" lon="7.6550248"><ele>255.0</ele><time>2026-05-02T16:22:03.175Z</time></trkpt><trkpt lat="45.1480919" lon="7.6550509"><ele>255.0</ele><time>2026-05-02T16:22:04.175Z</time></trkpt><trkpt lat="45.1480093" lon="7.6550708"><ele>255.0</ele><time>2026-05-02T16:22:05.181Z</time></trkpt><trkpt lat="45.1479246" lon="7.6550857"><ele>255.0</ele><time>2026-05-02T16:22:06.175Z</time></trkpt><trkpt lat="45.1478398" lon="7.6550977"><ele>255.2</ele><time>2026-05-02T16:22:07.177Z</time></trkpt><trkpt lat="45.1477523" lon="7.6551059"><ele>255.4</ele><time>2026-05-02T16:22:08.183Z</time></trkpt><trkpt lat="45.1476576" lon="7.6551137"><ele>255.60000000000002</ele><time>2026-05-02T16:22:09.2Z</time></trkpt><trkpt lat="45.1475605" lon="7.6551218"><ele>255.8</ele><time>2026-05-02T16:22:10.187Z</time></trkpt><trkpt lat="45.1474673" lon="7.6551319"><ele>256.0</ele><time>2026-05-02T16:22:11.179Z</time></trkpt><trkpt lat="45.1473784" lon="7.6551387"><ele>255.8</ele><time>2026-05-02T16:22:12.176Z</time></trkpt><trkpt lat="45.1472915" lon="7.6551474"><ele>255.60000000000002</ele><time>2026-05-02T16:22:13.177Z</time></trkpt><trkpt lat="45.1471989" lon="7.6551531"><ele>255.4</ele><time>2026-05-02T16:22:14.181Z</time></trkpt><trkpt lat="45.1471069" lon="7.655158"><ele>255.2</ele><time>2026-05-02T16:22:15.181Z</time></trkpt><trkpt lat="45.1470145" lon="7.6551648"><ele>255.0</ele><time>2026-05-02T16:22:16.177Z</time></trkpt><trkpt lat="45.1469197" lon="7.6551726"><ele>255.0</ele><time>2026-05-02T16:22:17.214Z</time></trkpt><trkpt lat="45.146831" lon="7.6551819"><ele>255.0</ele><time>2026-05-02T16:22:18.186Z</time></trkpt><trkpt lat="45.1467515" lon="7.6551903"><ele>255.0</ele><time>2026-05-02T16:22:19.173Z</time></trkpt><trkpt lat="45.1466827" lon="7.6551971"><ele>255.0</ele><time>2026-05-02T16:22:20.182Z</time></trkpt><trkpt lat="45.1465681" lon="7.6552133"><ele>255.0</ele><time>2026-05-02T16:22:22.198Z</time></trkpt><trkpt lat="45.1464544" lon="7.6552062"><ele>254.66666666666666</ele><time>2026-05-02T16:22:24.176Z</time></trkpt><trkpt lat="45.1463866" lon="7.6552055"><ele>254.33333333333331</ele><time>2026-05-02T16:22:25.174Z</time></trkpt><trkpt lat="45.1463122" lon="7.6552117"><ele>254.0</ele><time>2026-05-02T16:22:26.178Z</time></trkpt><trkpt lat="45.1462294" lon="7.6552222"><ele>253.66666666666666</ele><time>2026-05-02T16:22:27.182Z</time></trkpt><trkpt lat="45.1461392" lon="7.6552369"><ele>253.33333333333331</ele><time>2026-05-02T16:22:28.174Z</time></trkpt><trkpt lat="45.1460433" lon="7.655256"><ele>253.0</ele><time>2026-05-02T16:22:29.179Z</time></trkpt><trkpt lat="45.1459242" lon="7.6552714"><ele>253.0</ele><time>2026-05-02T16:22:30.182Z</time></trkpt><trkpt lat="45.1458078" lon="7.6552894"><ele>253.0</ele><time>2026-05-02T16:22:31.179Z</time></trkpt><trkpt lat="45.145686" lon="7.6552975"><ele>253.0</ele><time>2026-05-02T16:22:32.188Z</time></trkpt><trkpt lat="45.1455581" lon="7.6552924"><ele>253.0</ele><time>2026-05-02T16:22:33.182Z</time></trkpt><trkpt lat="45.1454414" lon="7.6552984"><ele>252.99999999999997</ele><time>2026-05-02T16:22:34.172Z</time></trkpt><trkpt lat="45.1453419" lon="7.6553062"><ele>253.0</ele><time>2026-05-02T16:22:35.177Z</time></trkpt><trkpt lat="45.1452527" lon="7.6553013"><ele>253.0</ele><time>2026-05-02T16:22:36.178Z</time></trkpt><trkpt lat="45.1451717" lon="7.6552935"><ele>253.0</ele><time>2026-05-02T16:22:37.181Z</time></trkpt><trkpt lat="45.1450949" lon="7.6552803"><ele>252.99999999999997</ele><time>2026-05-02T16:22:38.18Z</time></trkpt><trkpt lat="45.1450207" lon="7.6552562"><ele>253.0</ele><time>2026-05-02T16:22:39.173Z</time></trkpt><trkpt lat="45.1449409" lon="7.6552202"><ele>253.0</ele><time>2026-05-02T16:22:40.178Z</time></trkpt><trkpt lat="45.144854" lon="7.6551831"><ele>253.0</ele><time>2026-05-02T16:22:41.179Z</time></trkpt><trkpt lat="45.1447607" lon="7.6551749"><ele>253.0</ele><time>2026-05-02T16:22:42.172Z</time></trkpt><trkpt lat="45.1446597" lon="7.6552102"><ele>253.0</ele><time>2026-05-02T16:22:43.173Z</time></trkpt><trkpt lat="45.1445475" lon="7.6552714"><ele>253.0</ele><time>2026-05-02T16:22:44.178Z</time></trkpt><trkpt lat="45.1444238" lon="7.6553362"><ele>253.0</ele><time>2026-05-02T16:22:45.18Z</time></trkpt><trkpt lat="45.1442716" lon="7.6553695"><ele>253.0</ele><time>2026-05-02T16:22:46.193Z</time></trkpt><trkpt lat="45.1441155" lon="7.6553923"><ele>253.0</ele><time>2026-05-02T16:22:47.185Z</time></trkpt><trkpt lat="45.1439512" lon="7.6554028"><ele>252.66666666666666</ele><time>2026-05-02T16:22:48.175Z</time></trkpt><trkpt lat="45.1437848" lon="7.6554122"><ele>252.33333333333331</ele><time>2026-05-02T16:22:49.184Z</time></trkpt><trkpt lat="45.1436208" lon="7.6554158"><ele>252.0</ele><time>2026-05-02T16:22:50.176Z</time></trkpt><trkpt lat="45.1434587" lon="7.6554211"><ele>252.0</ele><time>2026-05-02T16:22:51.185Z</time></trkpt><trkpt lat="45.1433" lon="7.6554326"><ele>252.0</ele><time>2026-05-02T16:22:52.179Z</time></trkpt><trkpt lat="45.1431447" lon="7.6554487"><ele>252.0</ele><time>2026-05-02T16:22:53.18Z</time></trkpt><trkpt lat="45.1429909" lon="7.6554654"><ele>252.25</ele><time>2026-05-02T16:22:54.18Z</time></trkpt><trkpt lat="45.1428428" lon="7.6554839"><ele>252.5</ele><time>2026-05-02T16:22:55.178Z</time></trkpt><trkpt lat="45.1426999" lon="7.6555012"><ele>252.75</ele><time>2026-05-02T16:22:56.189Z</time></trkpt><trkpt lat="45.142567" lon="7.6555137"><ele>253.0</ele><time>2026-05-02T16:22:57.176Z</time></trkpt><trkpt lat="45.1424339" lon="7.6555277"><ele>252.75</ele><time>2026-05-02T16:22:58.179Z</time></trkpt><trkpt lat="45.1423039" lon="7.6555404"><ele>252.5</ele><time>2026-05-02T16:22:59.178Z</time></trkpt><trkpt lat="45.1421765" lon="7.6555517"><ele>252.25</ele><time>2026-05-02T16:23:00.208Z</time></trkpt><trkpt lat="45.1420599" lon="7.6555628"><ele>252.0</ele><time>2026-05-02T16:23:01.176Z</time></trkpt><trkpt lat="45.1419553" lon="7.6555722"><ele>252.0</ele><time>2026-05-02T16:23:02.181Z</time></trkpt><trkpt lat="45.1418588" lon="7.6555801"><ele>252.0</ele><time>2026-05-02T16:23:03.175Z</time></trkpt><trkpt lat="45.1417694" lon="7.6555767"><ele>252.0</ele><time>2026-05-02T16:23:04.177Z</time></trkpt><trkpt lat="45.1416873" lon="7.6555669"><ele>252.0</ele><time>2026-05-02T16:23:05.187Z</time></trkpt><trkpt lat="45.1416156" lon="7.6555446"><ele>252.0</ele><time>2026-05-02T16:23:06.183Z</time></trkpt><trkpt lat="45.1415575" lon="7.6555095"><ele>252.0</ele><time>2026-05-02T16:23:07.178Z</time></trkpt><trkpt lat="45.1414857" lon="7.65544"><ele>251.5</ele><time>2026-05-02T16:23:09.178Z</time></trkpt><trkpt lat="45.1414091" lon="7.6554596"><ele>251.0</ele><time>2026-05-02T16:27:25.177Z</time></trkpt><trkpt lat="45.1413528" lon="7.6555068"><ele>250.5</ele><time>2026-05-02T16:27:27.191Z</time></trkpt><trkpt lat="45.1412961" lon="7.6555691"><ele>250.0</ele><time>2026-05-02T16:27:29.202Z</time></trkpt><trkpt lat="45.1411934" lon="7.6556114"><ele>249.5</ele><time>2026-05-02T16:27:31.184Z</time></trkpt><trkpt lat="45.141102" lon="7.6556339"><ele>249.0</ele><time>2026-05-02T16:27:32.203Z</time></trkpt><trkpt lat="45.1409888" lon="7.6556565"><ele>249.0</ele><time>2026-05-02T16:27:33.191Z</time></trkpt><trkpt lat="45.1408713" lon="7.6556744"><ele>248.99999999999997</ele><time>2026-05-02T16:27:34.177Z</time></trkpt><trkpt lat="45.140763" lon="7.6556861"><ele>248.99999999999997</ele><time>2026-05-02T16:27:35.187Z</time></trkpt><trkpt lat="45.1406674" lon="7.6556918"><ele>249.0</ele><time>2026-05-02T16:27:36.173Z</time></trkpt><trkpt lat="45.1405797" lon="7.6556807"><ele>249.0</ele><time>2026-05-02T16:27:37.186Z</time></trkpt><trkpt lat="45.1404918" lon="7.6556581"><ele>248.75</ele><time>2026-05-02T16:27:38.184Z</time></trkpt><trkpt lat="45.140395" lon="7.6556563"><ele>248.5</ele><time>2026-05-02T16:27:39.189Z</time></trkpt><trkpt lat="45.1402814" lon="7.6556848"><ele>248.25</ele><time>2026-05-02T16:27:40.2Z</time></trkpt><trkpt lat="45.1401503" lon="7.6557239"><ele>248.0</ele><time>2026-05-02T16:27:41.184Z</time></trkpt><trkpt lat="45.1400077" lon="7.6557555"><ele>248.0</ele><time>2026-05-02T16:27:42.184Z</time></trkpt><trkpt lat="45.1398629" lon="7.6557789"><ele>248.0</ele><time>2026-05-02T16:27:43.182Z</time></trkpt><trkpt lat="45.1397196" lon="7.6557866"><ele>248.0</ele><time>2026-05-02T16:27:44.193Z</time></trkpt><trkpt lat="45.1395772" lon="7.6557917"><ele>248.0</ele><time>2026-05-02T16:27:45.194Z</time></trkpt><trkpt lat="45.1394359" lon="7.6557984"><ele>248.0</ele><time>2026-05-02T16:27:46.187Z</time></trkpt><trkpt lat="45.1392969" lon="7.6558077"><ele>248.0</ele><time>2026-05-02T16:27:47.184Z</time></trkpt><trkpt lat="45.1391634" lon="7.6558213"><ele>248.0</ele><time>2026-05-02T16:27:48.181Z</time></trkpt><trkpt lat="45.1390354" lon="7.6558367"><ele>248.0</ele><time>2026-05-02T16:27:49.196Z</time></trkpt><trkpt lat="45.1389124" lon="7.655852"><ele>248.0</ele><time>2026-05-02T16:27:50.185Z</time></trkpt><trkpt lat="45.1387917" lon="7.6558671"><ele>248.0</ele><time>2026-05-02T16:27:51.184Z</time></trkpt><trkpt lat="45.1386738" lon="7.6558796"><ele>248.0</ele><time>2026-05-02T16:27:52.181Z</time></trkpt><trkpt lat="45.1385561" lon="7.6558912"><ele>248.0</ele><time>2026-05-02T16:27:53.174Z</time></trkpt><trkpt lat="45.1384387" lon="7.6559014"><ele>248.0</ele><time>2026-05-02T16:27:54.184Z</time></trkpt><trkpt lat="45.1383222" lon="7.6559109"><ele>248.0</ele><time>2026-05-02T16:27:55.179Z</time></trkpt><trkpt lat="45.1382074" lon="7.6559213"><ele>248.0</ele><time>2026-05-02T16:27:56.187Z</time></trkpt><trkpt lat="45.1380927" lon="7.6559327"><ele>248.0</ele><time>2026-05-02T16:27:57.188Z</time></trkpt><trkpt lat="45.1379711" lon="7.6559467"><ele>248.0</ele><time>2026-05-02T16:27:58.185Z</time></trkpt><trkpt lat="45.1378395" lon="7.6559608"><ele>248.0</ele><time>2026-05-02T16:27:59.185Z</time></trkpt><trkpt lat="45.1377009" lon="7.655976"><ele>248.0</ele><time>2026-05-02T16:28:00.188Z</time></trkpt><trkpt lat="45.1375557" lon="7.6559866"><ele>248.0</ele><time>2026-05-02T16:28:01.182Z</time></trkpt><trkpt lat="45.137409" lon="7.6559975"><ele>248.0</ele><time>2026-05-02T16:28:02.182Z</time></trkpt><trkpt lat="45.1372637" lon="7.6560063"><ele>248.0</ele><time>2026-05-02T16:28:03.187Z</time></trkpt><trkpt lat="45.1371178" lon="7.6560161"><ele>248.0</ele><time>2026-05-02T16:28:04.178Z</time></trkpt><trkpt lat="45.1369733" lon="7.6560299"><ele>248.0</ele><time>2026-05-02T16:28:05.178Z</time></trkpt><trkpt lat="45.136831" lon="7.6560434"><ele>248.0</ele><time>2026-05-02T16:28:06.18Z</time></trkpt><trkpt lat="45.1366932" lon="7.6560552"><ele>248.0</ele><time>2026-05-02T16:28:07.182Z</time></trkpt><trkpt lat="45.1365675" lon="7.6560669"><ele>248.0</ele><time>2026-05-02T16:28:08.185Z</time></trkpt><trkpt lat="45.1364517" lon="7.656074"><ele>248.0</ele><time>2026-05-02T16:28:09.205Z</time></trkpt><trkpt lat="45.1363391" lon="7.6560783"><ele>247.75</ele><time>2026-05-02T16:28:10.192Z</time></trkpt><trkpt lat="45.1362247" lon="7.6560838"><ele>247.5</ele><time>2026-05-02T16:28:11.179Z</time></trkpt><trkpt lat="45.1361029" lon="7.6560916"><ele>247.25</ele><time>2026-05-02T16:28:12.182Z</time></trkpt><trkpt lat="45.1359719" lon="7.6560982"><ele>247.0</ele><time>2026-05-02T16:28:13.183Z</time></trkpt><trkpt lat="45.1358338" lon="7.6561078"><ele>247.0</ele><time>2026-05-02T16:28:14.182Z</time></trkpt><trkpt lat="45.1356959" lon="7.6561184"><ele>247.0</ele><time>2026-05-02T16:28:15.193Z</time></trkpt><trkpt lat="45.1355656" lon="7.6561265"><ele>247.0</ele><time>2026-05-02T16:28:16.181Z</time></trkpt><trkpt lat="45.1354473" lon="7.6561379"><ele>247.0</ele><time>2026-05-02T16:28:17.179Z</time></trkpt><trkpt lat="45.1353392" lon="7.6561487"><ele>247.0</ele><time>2026-05-02T16:28:18.187Z</time></trkpt><trkpt lat="45.1352367" lon="7.6561603"><ele>247.0</ele><time>2026-05-02T16:28:19.183Z</time></trkpt><trkpt lat="45.1351345" lon="7.6561741"><ele>247.0</ele><time>2026-05-02T16:28:20.185Z</time></trkpt><trkpt lat="45.1350284" lon="7.656187"><ele>247.0</ele><time>2026-05-02T16:28:21.192Z</time></trkpt><trkpt lat="45.1349158" lon="7.6562004"><ele>247.0</ele><time>2026-05-02T16:28:22.184Z</time></trkpt><trkpt lat="45.1347952" lon="7.6562146"><ele>246.5</ele><time>2026-05-02T16:28:23.188Z</time></trkpt><trkpt lat="45.134669" lon="7.6562263"><ele>246.0</ele><time>2026-05-02T16:28:24.18Z</time></trkpt><trkpt lat="45.1345419" lon="7.6562348"><ele>245.5</ele><time>2026-05-02T16:28:25.184Z</time></trkpt><trkpt lat="45.1344241" lon="7.6562406"><ele>245.0</ele><time>2026-05-02T16:28:26.18Z</time></trkpt><trkpt lat="45.134316" lon="7.6562489"><ele>245.0</ele><time>2026-05-02T16:28:27.191Z</time></trkpt><trkpt lat="45.1342109" lon="7.6562595"><ele>245.0</ele><time>2026-05-02T16:28:28.189Z</time></trkpt><trkpt lat="45.1341024" lon="7.6562779"><ele>245.0</ele><time>2026-05-02T16:28:29.19Z</time></trkpt><trkpt lat="45.1339909" lon="7.6563052"><ele>245.0</ele><time>2026-05-02T16:28:30.181Z</time></trkpt><trkpt lat="45.1338716" lon="7.6563424"><ele>244.0</ele><time>2026-05-02T16:28:31.183Z</time></trkpt><trkpt lat="45.1337376" lon="7.6563912"><ele>243.0</ele><time>2026-05-02T16:28:32.185Z</time></trkpt><trkpt lat="45.1335877" lon="7.6564508"><ele>242.0</ele><time>2026-05-02T16:28:33.191Z</time></trkpt><trkpt lat="45.1334207" lon="7.6565169"><ele>242.0</ele><time>2026-05-02T16:28:34.181Z</time></trkpt><trkpt lat="45.13324" lon="7.6565846"><ele>242.0</ele><time>2026-05-02T16:28:35.212Z</time></trkpt><trkpt lat="45.1330535" lon="7.6566541"><ele>242.0</ele><time>2026-05-02T16:28:36.186Z</time></trkpt><trkpt lat="45.1328673" lon="7.6567269"><ele>242.0</ele><time>2026-05-02T16:28:37.182Z</time></trkpt><trkpt lat="45.1326834" lon="7.6568012"><ele>242.0</ele><time>2026-05-02T16:28:38.19Z</time></trkpt><trkpt lat="45.132502" lon="7.6568761"><ele>242.0</ele><time>2026-05-02T16:28:39.182Z</time></trkpt><trkpt lat="45.1323272" lon="7.6569496"><ele>241.33333333333334</ele><time>2026-05-02T16:28:40.177Z</time></trkpt><trkpt lat="45.1321622" lon="7.6570164"><ele>240.66666666666669</ele><time>2026-05-02T16:28:41.18Z</time></trkpt><trkpt lat="45.13201" lon="7.6570767"><ele>240.0</ele><time>2026-05-02T16:28:42.214Z</time></trkpt><trkpt lat="45.1318723" lon="7.6571423"><ele>240.0</ele><time>2026-05-02T16:28:43.19Z</time></trkpt><trkpt lat="45.1317537" lon="7.6572274"><ele>240.0</ele><time>2026-05-02T16:28:44.182Z</time></trkpt><trkpt lat="45.1316592" lon="7.6573363"><ele>240.0</ele><time>2026-05-02T16:28:45.178Z</time></trkpt><trkpt lat="45.1315882" lon="7.6574682"><ele>240.0</ele><time>2026-05-02T16:28:46.179Z</time></trkpt><trkpt lat="45.1315409" lon="7.6576223"><ele>240.25</ele><time>2026-05-02T16:28:47.184Z</time></trkpt><trkpt lat="45.1315141" lon="7.6577928"><ele>240.5</ele><time>2026-05-02T16:28:48.19Z</time></trkpt><trkpt lat="45.1314985" lon="7.6579674"><ele>240.75</ele><time>2026-05-02T16:28:49.188Z</time></trkpt><trkpt lat="45.131477" lon="7.6581289"><ele>241.0</ele><time>2026-05-02T16:28:50.182Z</time></trkpt><trkpt lat="45.1314409" lon="7.6582645"><ele>240.99999999999997</ele><time>2026-05-02T16:28:51.182Z</time></trkpt><trkpt lat="45.1313911" lon="7.6583684"><ele>241.0</ele><time>2026-05-02T16:28:52.183Z</time></trkpt><trkpt lat="45.1313244" lon="7.6584384"><ele>241.0</ele><time>2026-05-02T16:28:53.186Z</time></trkpt><trkpt lat="45.1312497" lon="7.6584716"><ele>241.0</ele><time>2026-05-02T16:28:54.188Z</time></trkpt><trkpt lat="45.1311807" lon="7.658468"><ele>240.99999999999997</ele><time>2026-05-02T16:28:55.188Z</time></trkpt><trkpt lat="45.1310896" lon="7.6583941"><ele>241.0</ele><time>2026-05-02T16:28:57.206Z</time></trkpt><trkpt lat="45.1310432" lon="7.658286"><ele>240.99999999999997</ele><time>2026-05-02T16:28:59.182Z</time></trkpt><trkpt lat="45.1310318" lon="7.6581092"><ele>241.0</ele><time>2026-05-02T16:29:01.18Z</time></trkpt><trkpt lat="45.1310435" lon="7.6580079"><ele>241.0</ele><time>2026-05-02T16:29:02.179Z</time></trkpt><trkpt lat="45.1310634" lon="7.6579167"><ele>241.0</ele><time>2026-05-02T16:29:03.175Z</time></trkpt><trkpt lat="45.1310885" lon="7.6578218"><ele>240.99999999999997</ele><time>2026-05-02T16:29:04.192Z</time></trkpt><trkpt lat="45.1311269" lon="7.6577157"><ele>241.0</ele><time>2026-05-02T16:29:05.207Z</time></trkpt><trkpt lat="45.1311833" lon="7.6576007"><ele>241.25</ele><time>2026-05-02T16:29:06.185Z</time></trkpt><trkpt lat="45.1312547" lon="7.6574838"><ele>241.5</ele><time>2026-05-02T16:29:07.18Z</time></trkpt><trkpt lat="45.1313378" lon="7.6573678"><ele>241.75</ele><time>2026-05-02T16:29:08.191Z</time></trkpt><trkpt lat="45.1314289" lon="7.6572408"><ele>242.0</ele><time>2026-05-02T16:29:09.172Z</time></trkpt><trkpt lat="45.1315192" lon="7.6570907"><ele>242.0</ele><time>2026-05-02T16:29:10.172Z</time></trkpt><trkpt lat="45.1316088" lon="7.6569241"><ele>242.0</ele><time>2026-05-02T16:29:11.176Z</time></trkpt><trkpt lat="45.1316953" lon="7.6567487"><ele>242.0</ele><time>2026-05-02T16:29:12.184Z</time></trkpt><trkpt lat="45.1317769" lon="7.6565669"><ele>242.0</ele><time>2026-05-02T16:29:13.189Z</time></trkpt><trkpt lat="45.1318602" lon="7.6563877"><ele>242.0</ele><time>2026-05-02T16:29:14.182Z</time></trkpt><trkpt lat="45.1319557" lon="7.6562202"><ele>242.0</ele><time>2026-05-02T16:29:15.176Z</time></trkpt><trkpt lat="45.1320694" lon="7.6560695"><ele>242.0</ele><time>2026-05-02T16:29:16.179Z</time></trkpt><trkpt lat="45.1321953" lon="7.6559362"><ele>242.0</ele><time>2026-05-02T16:29:17.18Z</time></trkpt><trkpt lat="45.1323314" lon="7.6558223"><ele>242.0</ele><time>2026-05-02T16:29:18.184Z</time></trkpt><trkpt lat="45.1324732" lon="7.6557181"><ele>242.0</ele><time>2026-05-02T16:29:19.181Z</time></trkpt><trkpt lat="45.1326234" lon="7.6556119"><ele>242.0</ele><time>2026-05-02T16:29:20.18Z</time></trkpt><trkpt lat="45.1327866" lon="7.6555043"><ele>242.0</ele><time>2026-05-02T16:29:21.213Z</time></trkpt><trkpt lat="45.1329584" lon="7.6554028"><ele>242.0</ele><time>2026-05-02T16:29:22.175Z</time></trkpt><trkpt lat="45.1331359" lon="7.6553168"><ele>242.0</ele><time>2026-05-02T16:29:23.22Z</time></trkpt><trkpt lat="45.1333176" lon="7.655247"><ele>242.0</ele><time>2026-05-02T16:29:24.177Z</time></trkpt><trkpt lat="45.1335048" lon="7.6551888"><ele>242.33333333333334</ele><time>2026-05-02T16:29:25.185Z</time></trkpt><trkpt lat="45.1336976" lon="7.6551405"><ele>242.66666666666669</ele><time>2026-05-02T16:29:26.182Z</time></trkpt><trkpt lat="45.1338936" lon="7.6551044"><ele>243.0</ele><time>2026-05-02T16:29:27.179Z</time></trkpt><trkpt lat="45.1340936" lon="7.6550807"><ele>243.0</ele><time>2026-05-02T16:29:28.194Z</time></trkpt><trkpt lat="45.1342983" lon="7.6550724"><ele>243.0</ele><time>2026-05-02T16:29:29.178Z</time></trkpt><trkpt lat="45.1345055" lon="7.655081"><ele>243.0</ele><time>2026-05-02T16:29:30.174Z</time></trkpt><trkpt lat="45.1347106" lon="7.6550978"><ele>243.0</ele><time>2026-05-02T16:29:31.183Z</time></trkpt><trkpt lat="45.1349182" lon="7.6551226"><ele>243.0</ele><time>2026-05-02T16:29:32.184Z</time></trkpt><trkpt lat="45.1351271" lon="7.6551484"><ele>243.0</ele><time>2026-05-02T16:29:33.181Z</time></trkpt><trkpt lat="45.1353386" lon="7.6551725"><ele>243.0</ele><time>2026-05-02T16:29:34.185Z</time></trkpt><trkpt lat="45.1355488" lon="7.6551931"><ele>243.0</ele><time>2026-05-02T16:29:35.181Z</time></trkpt><trkpt lat="45.1357598" lon="7.6552093"><ele>243.0</ele><time>2026-05-02T16:29:36.189Z</time></trkpt><trkpt lat="45.1359701" lon="7.6552202"><ele>245.0</ele><time>2026-05-02T16:29:37.18Z</time></trkpt><trkpt lat="45.1361801" lon="7.6552307"><ele>247.0</ele><time>2026-05-02T16:29:38.181Z</time></trkpt><trkpt lat="45.1363897" lon="7.6552396"><ele>249.0</ele><time>2026-05-02T16:29:39.181Z</time></trkpt><trkpt lat="45.1365971" lon="7.6552482"><ele>249.0</ele><time>2026-05-02T16:29:40.188Z</time></trkpt><trkpt lat="45.1368019" lon="7.6552565"><ele>249.0</ele><time>2026-05-02T16:29:41.188Z</time></trkpt><trkpt lat="45.1370073" lon="7.6552636"><ele>249.0</ele><time>2026-05-02T16:29:42.191Z</time></trkpt><trkpt lat="45.137212" lon="7.655268"><ele>248.33333333333331</ele><time>2026-05-02T16:29:43.186Z</time></trkpt><trkpt lat="45.1374167" lon="7.6552671"><ele>247.66666666666666</ele><time>2026-05-02T16:29:44.184Z</time></trkpt><trkpt lat="45.1376232" lon="7.6552612"><ele>247.0</ele><time>2026-05-02T16:29:45.215Z</time></trkpt><trkpt lat="45.1378298" lon="7.6552487"><ele>247.0</ele><time>2026-05-02T16:29:46.187Z</time></trkpt><trkpt lat="45.1380342" lon="7.6552255"><ele>247.0</ele><time>2026-05-02T16:29:47.19Z</time></trkpt><trkpt lat="45.138237" lon="7.6551918"><ele>247.0</ele><time>2026-05-02T16:29:48.182Z</time></trkpt><trkpt lat="45.1384407" lon="7.6551476"><ele>247.33333333333331</ele><time>2026-05-02T16:29:49.205Z</time></trkpt><trkpt lat="45.1386501" lon="7.6550982"><ele>247.66666666666669</ele><time>2026-05-02T16:29:50.179Z</time></trkpt><trkpt lat="45.1388635" lon="7.6550443"><ele>248.0</ele><time>2026-05-02T16:29:51.198Z</time></trkpt><trkpt lat="45.1390753" lon="7.6549837"><ele>249.66666666666669</ele><time>2026-05-02T16:29:52.18Z</time></trkpt><trkpt lat="45.1392873" lon="7.654917"><ele>251.33333333333331</ele><time>2026-05-02T16:29:53.187Z</time></trkpt><trkpt lat="45.139497" lon="7.6548447"><ele>253.0</ele><time>2026-05-02T16:29:54.187Z</time></trkpt><trkpt lat="45.1397061" lon="7.6547657"><ele>252.33333333333331</ele><time>2026-05-02T16:29:55.183Z</time></trkpt><trkpt lat="45.1399132" lon="7.654678"><ele>251.66666666666669</ele><time>2026-05-02T16:29:56.188Z</time></trkpt><trkpt lat="45.1401187" lon="7.6545822"><ele>251.0</ele><time>2026-05-02T16:29:57.175Z</time></trkpt><trkpt lat="45.1403244" lon="7.6544789"><ele>250.0</ele><time>2026-05-02T16:29:58.193Z</time></trkpt><trkpt lat="45.140528" lon="7.6543709"><ele>249.0</ele><time>2026-05-02T16:29:59.179Z</time></trkpt><trkpt lat="45.1407296" lon="7.6542588"><ele>248.0</ele><time>2026-05-02T16:30:00.176Z</time></trkpt><trkpt lat="45.1409286" lon="7.6541429"><ele>248.0</ele><time>2026-05-02T16:30:01.178Z</time></trkpt><trkpt lat="45.1411266" lon="7.6540199"><ele>248.0</ele><time>2026-05-02T16:30:02.19Z</time></trkpt><trkpt lat="45.1413228" lon="7.6538887"><ele>248.0</ele><time>2026-05-02T16:30:03.189Z</time></trkpt><trkpt lat="45.1415163" lon="7.6537499"><ele>247.66666666666669</ele><time>2026-05-02T16:30:04.19Z</time></trkpt><trkpt lat="45.1417091" lon="7.6535979"><ele>247.33333333333331</ele><time>2026-05-02T16:30:05.215Z</time></trkpt><trkpt lat="45.1419008" lon="7.6534317"><ele>247.0</ele><time>2026-05-02T16:30:06.185Z</time></trkpt><trkpt lat="45.1420917" lon="7.6532514"><ele>247.0</ele><time>2026-05-02T16:30:07.183Z</time></trkpt><trkpt lat="45.1422841" lon="7.6530618"><ele>247.0</ele><time>2026-05-02T16:30:08.183Z</time></trkpt><trkpt lat="45.1424772" lon="7.6528677"><ele>249.0</ele><time>2026-05-02T16:30:09.179Z</time></trkpt><trkpt lat="45.142672" lon="7.6526728"><ele>251.0</ele><time>2026-05-02T16:30:10.18Z</time></trkpt><trkpt lat="45.142872" lon="7.6524792"><ele>251.0</ele><time>2026-05-02T16:30:11.193Z</time></trkpt><trkpt lat="45.1430688" lon="7.6522847"><ele>251.0</ele><time>2026-05-02T16:30:12.181Z</time></trkpt><trkpt lat="45.1432652" lon="7.6520905"><ele>251.5</ele><time>2026-05-02T16:30:13.177Z</time></trkpt><trkpt lat="45.1434611" lon="7.6518966"><ele>252.0</ele><time>2026-05-02T16:30:14.178Z</time></trkpt><trkpt lat="45.1436558" lon="7.6517033"><ele>252.0</ele><time>2026-05-02T16:30:15.181Z</time></trkpt><trkpt lat="45.1438506" lon="7.6515085"><ele>252.0</ele><time>2026-05-02T16:30:16.174Z</time></trkpt><trkpt lat="45.1463823" lon="7.6494144"><ele>252.0</ele><time>2026-05-02T16:30:28.175Z</time></trkpt><trkpt lat="45.146225" lon="7.6488245"><ele>252.0</ele><time>2026-05-02T16:30:29.225Z</time></trkpt><trkpt lat="45.1463875" lon="7.648599"><ele>252.0</ele><time>2026-05-02T16:30:30.183Z</time></trkpt><trkpt lat="45.1465269" lon="7.6483655"><ele>252.0</ele><time>2026-05-02T16:30:31.175Z</time></trkpt><trkpt lat="45.1467069" lon="7.6481134"><ele>253.5</ele><time>2026-05-02T16:30:32.178Z</time></trkpt><trkpt lat="45.1468603" lon="7.647864"><ele>255.0</ele><time>2026-05-02T16:30:33.177Z</time></trkpt><trkpt lat="45.1470054" lon="7.6476303"><ele>255.0</ele><time>2026-05-02T16:30:34.186Z</time></trkpt><trkpt lat="45.14715" lon="7.6474035"><ele>255.0</ele><time>2026-05-02T16:30:35.188Z</time></trkpt><trkpt lat="45.1472909" lon="7.6471781"><ele>255.0</ele><time>2026-05-02T16:30:36.183Z</time></trkpt><trkpt lat="45.1474312" lon="7.64696"><ele>255.0</ele><time>2026-05-02T16:30:37.178Z</time></trkpt><trkpt lat="45.1475735" lon="7.6467488"><ele>255.0</ele><time>2026-05-02T16:30:38.178Z</time></trkpt><trkpt lat="45.1477171" lon="7.6465454"><ele>255.0</ele><time>2026-05-02T16:30:39.185Z</time></trkpt><trkpt lat="45.1478634" lon="7.6463517"><ele>255.0</ele><time>2026-05-02T16:30:40.189Z</time></trkpt><trkpt lat="45.1480143" lon="7.6461665"><ele>255.0</ele><time>2026-05-02T16:30:41.182Z</time></trkpt><trkpt lat="45.1481725" lon="7.6459947"><ele>255.0</ele><time>2026-05-02T16:30:42.195Z</time></trkpt><trkpt lat="45.1483358" lon="7.6458351"><ele>255.0</ele><time>2026-05-02T16:30:43.176Z</time></trkpt><trkpt lat="45.1485061" lon="7.6456905"><ele>255.0</ele><time>2026-05-02T16:30:44.177Z</time></trkpt><trkpt lat="45.148684" lon="7.6455584"><ele>255.0</ele><time>2026-05-02T16:30:45.222Z</time></trkpt><trkpt lat="45.1488668" lon="7.6454372"><ele>255.0</ele><time>2026-05-02T16:30:46.173Z</time></trkpt><trkpt lat="45.1490519" lon="7.6453286"><ele>255.0</ele><time>2026-05-02T16:30:47.176Z</time></trkpt><trkpt lat="45.1492389" lon="7.6452341"><ele>255.0</ele><time>2026-05-02T16:30:48.177Z</time></trkpt><trkpt lat="45.1494255" lon="7.6451539"><ele>255.33333333333331</ele><time>2026-05-02T16:30:49.187Z</time></trkpt><trkpt lat="45.1496136" lon="7.6450874"><ele>255.66666666666666</ele><time>2026-05-02T16:30:50.182Z</time></trkpt><trkpt lat="45.1498017" lon="7.6450316"><ele>256.0</ele><time>2026-05-02T16:30:51.186Z</time></trkpt><trkpt lat="45.1499876" lon="7.644985"><ele>256.0</ele><time>2026-05-02T16:30:52.188Z</time></trkpt><trkpt lat="45.150174" lon="7.6449429"><ele>256.0</ele><time>2026-05-02T16:30:53.176Z</time></trkpt><trkpt lat="45.150361" lon="7.644903"><ele>256.0</ele><time>2026-05-02T16:30:54.18Z</time></trkpt><trkpt lat="45.1505496" lon="7.6448593"><ele>257.0</ele><time>2026-05-02T16:30:55.186Z</time></trkpt><trkpt lat="45.1507413" lon="7.6448074"><ele>258.0</ele><time>2026-05-02T16:30:56.211Z</time></trkpt><trkpt lat="45.150934" lon="7.6447522"><ele>259.0</ele><time>2026-05-02T16:30:57.181Z</time></trkpt><trkpt lat="45.1511273" lon="7.6446986"><ele>259.0</ele><time>2026-05-02T16:30:58.18Z</time></trkpt><trkpt lat="45.1513241" lon="7.6446541"><ele>259.0</ele><time>2026-05-02T16:30:59.176Z</time></trkpt><trkpt lat="45.1515198" lon="7.6446276"><ele>259.0</ele><time>2026-05-02T16:31:00.181Z</time></trkpt><trkpt lat="45.1517137" lon="7.64462"><ele>259.66666666666663</ele><time>2026-05-02T16:31:01.182Z</time></trkpt><trkpt lat="45.1519012" lon="7.644627"><ele>260.3333333333333</ele><time>2026-05-02T16:31:02.186Z</time></trkpt><trkpt lat="45.1520812" lon="7.6446387"><ele>261.0</ele><time>2026-05-02T16:31:03.19Z</time></trkpt><trkpt lat="45.15225" lon="7.6446427"><ele>261.0</ele><time>2026-05-02T16:31:04.183Z</time></trkpt><trkpt lat="45.1524055" lon="7.6446385"><ele>261.0</ele><time>2026-05-02T16:31:05.184Z</time></trkpt><trkpt lat="45.152551" lon="7.6446262"><ele>261.0</ele><time>2026-05-02T16:31:06.19Z</time></trkpt><trkpt lat="45.1526894" lon="7.6446012"><ele>261.0</ele><time>2026-05-02T16:31:07.187Z</time></trkpt><trkpt lat="45.1528175" lon="7.6445665"><ele>261.0</ele><time>2026-05-02T16:31:08.182Z</time></trkpt><trkpt lat="45.1529338" lon="7.6445229"><ele>261.0</ele><time>2026-05-02T16:31:09.181Z</time></trkpt><trkpt lat="45.1530413" lon="7.6444735"><ele>261.0</ele><time>2026-05-02T16:31:10.187Z</time></trkpt><trkpt lat="45.1531388" lon="7.6444286"><ele>261.0</ele><time>2026-05-02T16:31:11.182Z</time></trkpt><trkpt lat="45.153225" lon="7.6443985"><ele>261.0</ele><time>2026-05-02T16:31:12.187Z</time></trkpt><trkpt lat="45.1533006" lon="7.6443881"><ele>261.0</ele><time>2026-05-02T16:31:13.185Z</time></trkpt><trkpt lat="45.153403" lon="7.6444423"><ele>261.0</ele><time>2026-05-02T16:31:15.179Z</time></trkpt><trkpt lat="45.1534376" lon="7.6446287"><ele>261.0</ele><time>2026-05-02T16:31:17.179Z</time></trkpt><trkpt lat="45.1534294" lon="7.6447385"><ele>261.0</ele><time>2026-05-02T16:31:18.18Z</time></trkpt><trkpt lat="45.1533943" lon="7.6448456"><ele>261.0</ele><time>2026-05-02T16:31:19.178Z</time></trkpt><trkpt lat="45.1533282" lon="7.6449323"><ele>261.0</ele><time>2026-05-02T16:31:20.169Z</time></trkpt><trkpt lat="45.1532417" lon="7.644999"><ele>261.0</ele><time>2026-05-02T16:31:21.18Z</time></trkpt><trkpt lat="45.1531457" lon="7.6450485"><ele>261.0</ele><time>2026-05-02T16:31:22.183Z</time></trkpt><trkpt lat="45.1530475" lon="7.645099"><ele>261.0</ele><time>2026-05-02T16:31:23.177Z</time></trkpt><trkpt lat="45.1529523" lon="7.6451736"><ele>261.0</ele><time>2026-05-02T16:31:24.18Z</time></trkpt><trkpt lat="45.1528592" lon="7.6452723"><ele>261.0</ele><time>2026-05-02T16:31:25.18Z</time></trkpt><trkpt lat="45.1527726" lon="7.6453958"><ele>261.0</ele><time>2026-05-02T16:31:26.182Z</time></trkpt><trkpt lat="45.1526958" lon="7.6455385"><ele>261.0</ele><time>2026-05-02T16:31:27.177Z</time></trkpt><trkpt lat="45.1526217" lon="7.6456948"><ele>261.0</ele><time>2026-05-02T16:31:28.185Z</time></trkpt><trkpt lat="45.1525451" lon="7.6458571"><ele>261.0</ele><time>2026-05-02T16:31:29.187Z</time></trkpt><trkpt lat="45.1524667" lon="7.6460158"><ele>261.0</ele><time>2026-05-02T16:31:30.188Z</time></trkpt><trkpt lat="45.1523872" lon="7.6461604"><ele>261.0</ele><time>2026-05-02T16:31:31.185Z</time></trkpt><trkpt lat="45.1523058" lon="7.6462913"><ele>261.0</ele><time>2026-05-02T16:31:32.18Z</time></trkpt><trkpt lat="45.1522167" lon="7.6464158"><ele>260.5</ele><time>2026-05-02T16:31:33.208Z</time></trkpt><trkpt lat="45.1521131" lon="7.6465389"><ele>260.0</ele><time>2026-05-02T16:31:34.185Z</time></trkpt><trkpt lat="45.1519944" lon="7.6466615"><ele>259.5</ele><time>2026-05-02T16:31:35.183Z</time></trkpt><trkpt lat="45.1518628" lon="7.6467796"><ele>259.0</ele><time>2026-05-02T16:31:36.179Z</time></trkpt><trkpt lat="45.1517298" lon="7.6468913"><ele>259.25</ele><time>2026-05-02T16:31:37.181Z</time></trkpt><trkpt lat="45.1516018" lon="7.6469909"><ele>259.5</ele><time>2026-05-02T16:31:38.182Z</time></trkpt><trkpt lat="45.1514827" lon="7.6470829"><ele>259.75</ele><time>2026-05-02T16:31:39.178Z</time></trkpt><trkpt lat="45.1513721" lon="7.6471696"><ele>260.0</ele><time>2026-05-02T16:31:40.183Z</time></trkpt><trkpt lat="45.1512676" lon="7.6472507"><ele>260.0</ele><time>2026-05-02T16:31:41.183Z</time></trkpt><trkpt lat="45.1511695" lon="7.6473235"><ele>260.0</ele><time>2026-05-02T16:31:42.184Z</time></trkpt><trkpt lat="45.15108" lon="7.6473845"><ele>260.0</ele><time>2026-05-02T16:31:43.19Z</time></trkpt><trkpt lat="45.151005" lon="7.6474369"><ele>260.0</ele><time>2026-05-02T16:31:44.194Z</time></trkpt><trkpt lat="45.1509469" lon="7.6474923"><ele>260.0</ele><time>2026-05-02T16:31:45.185Z</time></trkpt><trkpt lat="45.150902" lon="7.6475646"><ele>260.0</ele><time>2026-05-02T16:31:46.187Z</time></trkpt><trkpt lat="45.1508782" lon="7.6476599"><ele>260.0</ele><time>2026-05-02T16:31:47.182Z</time></trkpt><trkpt lat="45.1508813" lon="7.6477819"><ele>260.0</ele><time>2026-05-02T16:31:48.211Z</time></trkpt><trkpt lat="45.1509095" lon="7.6479274"><ele>260.0</ele><time>2026-05-02T16:31:49.187Z</time></trkpt><trkpt lat="45.1509519" lon="7.6480915"><ele>260.0</ele><time>2026-05-02T16:31:50.181Z</time></trkpt><trkpt lat="45.1509928" lon="7.6482602"><ele>260.0</ele><time>2026-05-02T16:31:51.185Z</time></trkpt><trkpt lat="45.1510262" lon="7.6484147"><ele>260.1666666666667</ele><time>2026-05-02T16:31:52.183Z</time></trkpt><trkpt lat="45.1510517" lon="7.6485572"><ele>260.33333333333337</ele><time>2026-05-02T16:31:53.188Z</time></trkpt><trkpt lat="45.1510781" lon="7.648675"><ele>260.5</ele><time>2026-05-02T16:31:54.187Z</time></trkpt><trkpt lat="45.1511195" lon="7.648774"><ele>260.6666666666667</ele><time>2026-05-02T16:31:55.213Z</time></trkpt><trkpt lat="45.151183" lon="7.6488499"><ele>260.8333333333333</ele><time>2026-05-02T16:31:56.184Z</time></trkpt><trkpt lat="45.1512678" lon="7.6488858"><ele>261.0</ele><time>2026-05-02T16:31:57.179Z</time></trkpt><trkpt lat="45.1513692" lon="7.6488796"><ele>261.0</ele><time>2026-05-02T16:31:58.182Z</time></trkpt><trkpt lat="45.1514738" lon="7.6488436"><ele>261.0</ele><time>2026-05-02T16:31:59.175Z</time></trkpt><trkpt lat="45.1515825" lon="7.6487961"><ele>261.0</ele><time>2026-05-02T16:32:00.18Z</time></trkpt><trkpt lat="45.1516868" lon="7.6487619"><ele>261.0</ele><time>2026-05-02T16:32:01.183Z</time></trkpt><trkpt lat="45.1517812" lon="7.6487328"><ele>261.0</ele><time>2026-05-02T16:32:02.178Z</time></trkpt><trkpt lat="45.1518647" lon="7.6487079"><ele>261.0</ele><time>2026-05-02T16:32:03.179Z</time></trkpt><trkpt lat="45.1519403" lon="7.6486979"><ele>261.0</ele><time>2026-05-02T16:32:04.187Z</time></trkpt><trkpt lat="45.152006" lon="7.6487117"><ele>261.0</ele><time>2026-05-02T16:32:05.169Z</time></trkpt><trkpt lat="45.1520781" lon="7.6488269"><ele>261.0</ele><time>2026-05-02T16:32:07.178Z</time></trkpt><trkpt lat="45.1521079" lon="7.6489599"><ele>261.0</ele><time>2026-05-02T16:32:09.213Z</time></trkpt><trkpt lat="45.1521031" lon="7.6490985"><ele>261.0</ele><time>2026-05-02T16:32:10.176Z</time></trkpt><trkpt lat="45.152085" lon="7.6492564"><ele>261.0</ele><time>2026-05-02T16:32:11.186Z</time></trkpt><trkpt lat="45.1520626" lon="7.6494162"><ele>261.0</ele><time>2026-05-02T16:32:12.174Z</time></trkpt><trkpt lat="45.1520693" lon="7.6495443"><ele>261.0</ele><time>2026-05-02T16:32:13.179Z</time></trkpt><trkpt lat="45.1520599" lon="7.6496861"><ele>261.0</ele><time>2026-05-02T16:32:14.181Z</time></trkpt><trkpt lat="45.1520608" lon="7.6498334"><ele>261.0</ele><time>2026-05-02T16:32:15.176Z</time></trkpt><trkpt lat="45.1520799" lon="7.6499757"><ele>260.75</ele><time>2026-05-02T16:32:16.183Z</time></trkpt><trkpt lat="45.1520941" lon="7.6501254"><ele>260.5</ele><time>2026-05-02T16:32:17.18Z</time></trkpt><trkpt lat="45.1520944" lon="7.6502931"><ele>260.25</ele><time>2026-05-02T16:32:18.184Z</time></trkpt><trkpt lat="45.1520839" lon="7.650476"><ele>260.0</ele><time>2026-05-02T16:32:19.194Z</time></trkpt><trkpt lat="45.1520685" lon="7.6506687"><ele>260.0</ele><time>2026-05-02T16:32:20.197Z</time></trkpt><trkpt lat="45.1520519" lon="7.6508593"><ele>260.0</ele><time>2026-05-02T16:32:21.21Z</time></trkpt><trkpt lat="45.1520349" lon="7.6510525"><ele>260.0</ele><time>2026-05-02T16:32:22.179Z</time></trkpt><trkpt lat="45.1520186" lon="7.6512486"><ele>260.0</ele><time>2026-05-02T16:32:23.187Z</time></trkpt><trkpt lat="45.1520055" lon="7.6514371"><ele>260.0</ele><time>2026-05-02T16:32:24.181Z</time></trkpt><trkpt lat="45.151994" lon="7.6516167"><ele>260.0</ele><time>2026-05-02T16:32:25.187Z</time></trkpt><trkpt lat="45.151981" lon="7.6517894"><ele>260.0</ele><time>2026-05-02T16:32:26.179Z</time></trkpt><trkpt lat="45.1519717" lon="7.6519635"><ele>260.0</ele><time>2026-05-02T16:32:27.174Z</time></trkpt><trkpt lat="45.1519645" lon="7.652141"><ele>260.0</ele><time>2026-05-02T16:32:28.179Z</time></trkpt><trkpt lat="45.1519553" lon="7.6523211"><ele>260.0</ele><time>2026-05-02T16:32:29.189Z</time></trkpt><trkpt lat="45.1519421" lon="7.6525003"><ele>260.0</ele><time>2026-05-02T16:32:30.185Z</time></trkpt><trkpt lat="45.1519293" lon="7.6526762"><ele>260.0</ele><time>2026-05-02T16:32:31.183Z</time></trkpt><trkpt lat="45.1519194" lon="7.6528409"><ele>260.0</ele><time>2026-05-02T16:32:32.173Z</time></trkpt><trkpt lat="45.1519125" lon="7.6529916"><ele>260.0</ele><time>2026-05-02T16:32:33.177Z</time></trkpt><trkpt lat="45.1519037" lon="7.6531264"><ele>260.0</ele><time>2026-05-02T16:32:34.183Z</time></trkpt><trkpt lat="45.1518917" lon="7.653241"><ele>260.0</ele><time>2026-05-02T16:32:35.186Z</time></trkpt><trkpt lat="45.1518673" lon="7.6533398"><ele>260.0</ele><time>2026-05-02T16:32:36.183Z</time></trkpt><trkpt lat="45.1518373" lon="7.6534221"><ele>260.0</ele><time>2026-05-02T16:32:37.183Z</time></trkpt><trkpt lat="45.1518059" lon="7.6535059"><ele>260.0</ele><time>2026-05-02T16:32:38.192Z</time></trkpt><trkpt lat="45.151784" lon="7.6536059"><ele>260.0</ele><time>2026-05-02T16:32:39.195Z</time></trkpt><trkpt lat="45.1517745" lon="7.6537271"><ele>260.0</ele><time>2026-05-02T16:32:40.175Z</time></trkpt><trkpt lat="45.1517734" lon="7.6538608"><ele>260.0</ele><time>2026-05-02T16:32:41.184Z</time></trkpt><trkpt lat="45.1517701" lon="7.6539874"><ele>260.0</ele><time>2026-05-02T16:32:42.19Z</time></trkpt><trkpt lat="45.1517684" lon="7.6540965"><ele>260.0</ele><time>2026-05-02T16:32:43.201Z</time></trkpt><trkpt lat="45.1517638" lon="7.6541858"><ele>260.0</ele><time>2026-05-02T16:32:44.185Z</time></trkpt><trkpt lat="45.1517565" lon="7.6543378"><ele>260.0</ele><time>2026-05-02T16:32:46.188Z</time></trkpt><trkpt lat="45.1517443" lon="7.6544818"><ele>260.0</ele><time>2026-05-02T16:32:48.183Z</time></trkpt><trkpt lat="45.1517393" lon="7.6546107"><ele>260.0</ele><time>2026-05-02T16:32:50.191Z</time></trkpt><trkpt lat="45.15171" lon="7.6547713"><ele>260.0</ele><time>2026-05-02T16:32:52.184Z</time></trkpt><trkpt lat="45.1517004" lon="7.6548716"><ele>259.8</ele><time>2026-05-02T16:32:53.192Z</time></trkpt><trkpt lat="45.1517076" lon="7.6549898"><ele>259.6</ele><time>2026-05-02T16:32:54.213Z</time></trkpt><trkpt lat="45.1517228" lon="7.6551243"><ele>259.4</ele><time>2026-05-02T16:32:55.175Z</time></trkpt><trkpt lat="45.1517255" lon="7.6552774"><ele>259.2</ele><time>2026-05-02T16:32:56.193Z</time></trkpt><trkpt lat="45.151717" lon="7.6554537"><ele>259.0</ele><time>2026-05-02T16:32:57.18Z</time></trkpt><trkpt lat="45.1517075" lon="7.6556349"><ele>258.8</ele><time>2026-05-02T16:32:58.198Z</time></trkpt><trkpt lat="45.1517043" lon="7.655808"><ele>258.59999999999997</ele><time>2026-05-02T16:32:59.194Z</time></trkpt><trkpt lat="45.1517005" lon="7.6559669"><ele>258.4</ele><time>2026-05-02T16:33:00.185Z</time></trkpt><trkpt lat="45.1516951" lon="7.6561155"><ele>258.2</ele><time>2026-05-02T16:33:01.191Z</time></trkpt><trkpt lat="45.1516883" lon="7.656254"><ele>258.0</ele><time>2026-05-02T16:33:02.194Z</time></trkpt><trkpt lat="45.1516816" lon="7.6563901"><ele>258.0</ele><time>2026-05-02T16:33:03.183Z</time></trkpt><trkpt lat="45.1516727" lon="7.65653"><ele>258.0</ele><time>2026-05-02T16:33:04.18Z</time></trkpt><trkpt lat="45.1516638" lon="7.6566675"><ele>258.0</ele><time>2026-05-02T16:33:05.184Z</time></trkpt><trkpt lat="45.1516585" lon="7.6568024"><ele>258.0</ele><time>2026-05-02T16:33:06.19Z</time></trkpt><trkpt lat="45.1516593" lon="7.6569272"><ele>258.0</ele><time>2026-05-02T16:33:07.186Z</time></trkpt><trkpt lat="45.1516578" lon="7.6570418"><ele>258.1666666666667</ele><time>2026-05-02T16:33:08.185Z</time></trkpt><trkpt lat="45.1516518" lon="7.6571345"><ele>258.3333333333333</ele><time>2026-05-02T16:33:09.184Z</time></trkpt><trkpt lat="45.1516505" lon="7.6572579"><ele>258.5</ele><time>2026-05-02T16:33:11.179Z</time></trkpt><trkpt lat="45.1517142" lon="7.6573192"><ele>258.66666666666663</ele><time>2026-05-02T16:33:13.185Z</time></trkpt><trkpt lat="45.1518184" lon="7.6572595"><ele>258.8333333333333</ele><time>2026-05-02T16:33:15.179Z</time></trkpt><trkpt lat="45.1518754" lon="7.6571733"><ele>259.0</ele><time>2026-05-02T16:33:16.19Z</time></trkpt><trkpt lat="45.1519345" lon="7.6570652"><ele>258.8</ele><time>2026-05-02T16:33:17.188Z</time></trkpt><trkpt lat="45.1520009" lon="7.6569406"><ele>258.59999999999997</ele><time>2026-05-02T16:33:18.194Z</time></trkpt><trkpt lat="45.1520739" lon="7.6568111"><ele>258.4</ele><time>2026-05-02T16:33:19.184Z</time></trkpt><trkpt lat="45.1521435" lon="7.6566845"><ele>258.2</ele><time>2026-05-02T16:33:20.186Z</time></trkpt><trkpt lat="45.1522007" lon="7.6565699"><ele>258.0</ele><time>2026-05-02T16:33:21.181Z</time></trkpt><trkpt lat="45.152257" lon="7.6564756"><ele>258.0</ele><time>2026-05-02T16:33:22.192Z</time></trkpt><trkpt lat="45.1523082" lon="7.656404"><ele>258.0</ele><time>2026-05-02T16:33:23.189Z</time></trkpt><trkpt lat="45.1523945" lon="7.6563228"><ele>260.0</ele><time>2026-05-02T16:33:25.176Z</time></trkpt><trkpt lat="45.15245" lon="7.6563667"><ele>260.0</ele><time>2026-05-02T16:35:13.189Z</time></trkpt><trkpt lat="45.1525002" lon="7.656443"><ele>260.0</ele><time>2026-05-02T16:35:18.19Z</time></trkpt><trkpt lat="45.1525402" lon="7.6565129"><ele>260.0</ele><time>2026-05-02T16:35:22.183Z</time></trkpt></trkseg></trk></gpx>